<?xml version="1.0" encoding="UTF-8" standalone="no" ?>
<gpx xmlns="http://www.topografix.com/GPX/1/1" xmlns:xsi="http://www.w3.org/2001/XMLSchema-instance" xsi:schemaLocation="http://www.topografix.com/GPX/1/1 http://www.topografix.com/GPX/1/1/gpx.xsd" version="1.1" creator="VisuGPX - https://www.visugpx.com">
  <metadata>
    <name>Tournefeuille Gravel bike</name>
  </metadata>
  <trk>
    <name><![CDATA[Tournefeuille Gravel bike_1]]></name>
    <trkseg>
      <trkpt lat="43.58678" lon="1.3224">
        <ele>183.2</ele>
        <time>2023-04-05T04:38:23Z</time>
      </trkpt>
      <trkpt lat="43.58677" lon="1.32239">
        <ele>184.6</ele>
        <time>2023-04-05T04:39:23Z</time>
      </trkpt>
      <trkpt lat="43.58675" lon="1.32246">
        <ele>184.6</ele>
        <time>2023-04-05T04:39:25Z</time>
      </trkpt>
      <trkpt lat="43.58672" lon="1.32272">
        <ele>184.4</ele>
        <time>2023-04-05T04:39:30Z</time>
      </trkpt>
      <trkpt lat="43.58672" lon="1.32283">
        <ele>184.2</ele>
        <time>2023-04-05T04:39:32Z</time>
      </trkpt>
      <trkpt lat="43.58676" lon="1.32286">
        <ele>184.2</ele>
        <time>2023-04-05T04:39:34Z</time>
      </trkpt>
      <trkpt lat="43.58687" lon="1.32279">
        <ele>184.2</ele>
        <time>2023-04-05T04:39:38Z</time>
      </trkpt>
      <trkpt lat="43.58719" lon="1.32246">
        <ele>185.4</ele>
        <time>2023-04-05T04:39:48Z</time>
      </trkpt>
      <trkpt lat="43.58727" lon="1.3224">
        <ele>185.6</ele>
        <time>2023-04-05T04:39:50Z</time>
      </trkpt>
      <trkpt lat="43.58749" lon="1.32218">
        <ele>186.8</ele>
        <time>2023-04-05T04:39:56Z</time>
      </trkpt>
      <trkpt lat="43.58776" lon="1.3219">
        <ele>187.4</ele>
        <time>2023-04-05T04:40:03Z</time>
      </trkpt>
      <trkpt lat="43.58797" lon="1.32166">
        <ele>187.8</ele>
        <time>2023-04-05T04:40:09Z</time>
      </trkpt>
      <trkpt lat="43.588" lon="1.32164">
        <ele>188</ele>
        <time>2023-04-05T04:40:10Z</time>
      </trkpt>
      <trkpt lat="43.58803" lon="1.3216">
        <ele>188</ele>
        <time>2023-04-05T04:40:11Z</time>
      </trkpt>
      <trkpt lat="43.58809" lon="1.3215">
        <ele>188</ele>
        <time>2023-04-05T04:40:14Z</time>
      </trkpt>
      <trkpt lat="43.58813" lon="1.32131">
        <ele>188</ele>
        <time>2023-04-05T04:40:19Z</time>
      </trkpt>
      <trkpt lat="43.58816" lon="1.3212">
        <ele>188</ele>
        <time>2023-04-05T04:40:21Z</time>
      </trkpt>
      <trkpt lat="43.58822" lon="1.32113">
        <ele>187.8</ele>
        <time>2023-04-05T04:40:23Z</time>
      </trkpt>
      <trkpt lat="43.58852" lon="1.32084">
        <ele>188.6</ele>
        <time>2023-04-05T04:40:31Z</time>
      </trkpt>
      <trkpt lat="43.58874" lon="1.3206">
        <ele>189</ele>
        <time>2023-04-05T04:40:37Z</time>
      </trkpt>
      <trkpt lat="43.58876" lon="1.32057">
        <ele>189</ele>
        <time>2023-04-05T04:40:38Z</time>
      </trkpt>
      <trkpt lat="43.58878" lon="1.32055">
        <ele>189</ele>
        <time>2023-04-05T04:40:39Z</time>
      </trkpt>
      <trkpt lat="43.58879" lon="1.32053">
        <ele>189.2</ele>
        <time>2023-04-05T04:40:41Z</time>
      </trkpt>
      <trkpt lat="43.58879" lon="1.32052">
        <ele>189.2</ele>
        <time>2023-04-05T04:40:42Z</time>
      </trkpt>
      <trkpt lat="43.58879" lon="1.32052">
        <ele>189.2</ele>
        <time>2023-04-05T04:40:43Z</time>
      </trkpt>
      <trkpt lat="43.58885" lon="1.32049">
        <ele>189.2</ele>
        <time>2023-04-05T04:40:48Z</time>
      </trkpt>
      <trkpt lat="43.58891" lon="1.32043">
        <ele>189</ele>
        <time>2023-04-05T04:40:50Z</time>
      </trkpt>
      <trkpt lat="43.58913" lon="1.32021">
        <ele>188.8</ele>
        <time>2023-04-05T04:40:57Z</time>
      </trkpt>
      <trkpt lat="43.58929" lon="1.32007">
        <ele>188.8</ele>
        <time>2023-04-05T04:41:01Z</time>
      </trkpt>
      <trkpt lat="43.58932" lon="1.32005">
        <ele>188.8</ele>
        <time>2023-04-05T04:41:02Z</time>
      </trkpt>
      <trkpt lat="43.58934" lon="1.32005">
        <ele>188.8</ele>
        <time>2023-04-05T04:41:03Z</time>
      </trkpt>
      <trkpt lat="43.58938" lon="1.32006">
        <ele>188.8</ele>
        <time>2023-04-05T04:41:07Z</time>
      </trkpt>
      <trkpt lat="43.58945" lon="1.32005">
        <ele>188.8</ele>
        <time>2023-04-05T04:41:10Z</time>
      </trkpt>
      <trkpt lat="43.58966" lon="1.31993">
        <ele>188.6</ele>
        <time>2023-04-05T04:41:15Z</time>
      </trkpt>
      <trkpt lat="43.58975" lon="1.31987">
        <ele>188.6</ele>
        <time>2023-04-05T04:41:17Z</time>
      </trkpt>
      <trkpt lat="43.58988" lon="1.31974">
        <ele>188.6</ele>
        <time>2023-04-05T04:41:20Z</time>
      </trkpt>
      <trkpt lat="43.59019" lon="1.31942">
        <ele>188.6</ele>
        <time>2023-04-05T04:41:27Z</time>
      </trkpt>
      <trkpt lat="43.59024" lon="1.31937">
        <ele>188.6</ele>
        <time>2023-04-05T04:41:28Z</time>
      </trkpt>
      <trkpt lat="43.59046" lon="1.31902">
        <ele>188.8</ele>
        <time>2023-04-05T04:41:34Z</time>
      </trkpt>
      <trkpt lat="43.59055" lon="1.31894">
        <ele>188.8</ele>
        <time>2023-04-05T04:41:36Z</time>
      </trkpt>
      <trkpt lat="43.59059" lon="1.31891">
        <ele>188.8</ele>
        <time>2023-04-05T04:41:37Z</time>
      </trkpt>
      <trkpt lat="43.59064" lon="1.31888">
        <ele>189</ele>
        <time>2023-04-05T04:41:38Z</time>
      </trkpt>
      <trkpt lat="43.59072" lon="1.31879">
        <ele>189</ele>
        <time>2023-04-05T04:41:40Z</time>
      </trkpt>
      <trkpt lat="43.59075" lon="1.31873">
        <ele>189</ele>
        <time>2023-04-05T04:41:41Z</time>
      </trkpt>
      <trkpt lat="43.59083" lon="1.31862">
        <ele>189</ele>
        <time>2023-04-05T04:41:43Z</time>
      </trkpt>
      <trkpt lat="43.59101" lon="1.31843">
        <ele>189</ele>
        <time>2023-04-05T04:41:47Z</time>
      </trkpt>
      <trkpt lat="43.59105" lon="1.31839">
        <ele>189</ele>
        <time>2023-04-05T04:41:48Z</time>
      </trkpt>
      <trkpt lat="43.59133" lon="1.31812">
        <ele>188.8</ele>
        <time>2023-04-05T04:41:54Z</time>
      </trkpt>
      <trkpt lat="43.59151" lon="1.31798">
        <ele>188.6</ele>
        <time>2023-04-05T04:41:59Z</time>
      </trkpt>
      <trkpt lat="43.59164" lon="1.31789">
        <ele>188.6</ele>
        <time>2023-04-05T04:42:03Z</time>
      </trkpt>
      <trkpt lat="43.59169" lon="1.31786">
        <ele>188.4</ele>
        <time>2023-04-05T04:42:04Z</time>
      </trkpt>
      <trkpt lat="43.59201" lon="1.31772">
        <ele>188</ele>
        <time>2023-04-05T04:42:11Z</time>
      </trkpt>
      <trkpt lat="43.59222" lon="1.31764">
        <ele>187.8</ele>
        <time>2023-04-05T04:42:17Z</time>
      </trkpt>
      <trkpt lat="43.5924" lon="1.31757">
        <ele>187.6</ele>
        <time>2023-04-05T04:42:22Z</time>
      </trkpt>
      <trkpt lat="43.59255" lon="1.31761">
        <ele>187.6</ele>
        <time>2023-04-05T04:42:26Z</time>
      </trkpt>
      <trkpt lat="43.59277" lon="1.31767">
        <ele>187.6</ele>
        <time>2023-04-05T04:42:31Z</time>
      </trkpt>
      <trkpt lat="43.59281" lon="1.31769">
        <ele>187.6</ele>
        <time>2023-04-05T04:42:32Z</time>
      </trkpt>
      <trkpt lat="43.5931" lon="1.31784">
        <ele>187.6</ele>
        <time>2023-04-05T04:42:38Z</time>
      </trkpt>
      <trkpt lat="43.59316" lon="1.31785">
        <ele>187.6</ele>
        <time>2023-04-05T04:42:39Z</time>
      </trkpt>
      <trkpt lat="43.59321" lon="1.31786">
        <ele>187.6</ele>
        <time>2023-04-05T04:42:40Z</time>
      </trkpt>
      <trkpt lat="43.5933" lon="1.31785">
        <ele>187.6</ele>
        <time>2023-04-05T04:42:42Z</time>
      </trkpt>
      <trkpt lat="43.59334" lon="1.31785">
        <ele>187.6</ele>
        <time>2023-04-05T04:42:43Z</time>
      </trkpt>
      <trkpt lat="43.59343" lon="1.31776">
        <ele>187.6</ele>
        <time>2023-04-05T04:42:47Z</time>
      </trkpt>
      <trkpt lat="43.5936" lon="1.31759">
        <ele>187.6</ele>
        <time>2023-04-05T04:42:52Z</time>
      </trkpt>
      <trkpt lat="43.59368" lon="1.31753">
        <ele>187.8</ele>
        <time>2023-04-05T04:42:54Z</time>
      </trkpt>
      <trkpt lat="43.59373" lon="1.3175">
        <ele>187.8</ele>
        <time>2023-04-05T04:42:55Z</time>
      </trkpt>
      <trkpt lat="43.59385" lon="1.3174">
        <ele>188.2</ele>
        <time>2023-04-05T04:42:58Z</time>
      </trkpt>
      <trkpt lat="43.59395" lon="1.31736">
        <ele>188.2</ele>
        <time>2023-04-05T04:43:00Z</time>
      </trkpt>
      <trkpt lat="43.59406" lon="1.31735">
        <ele>188.4</ele>
        <time>2023-04-05T04:43:02Z</time>
      </trkpt>
      <trkpt lat="43.59416" lon="1.31734">
        <ele>188.4</ele>
        <time>2023-04-05T04:43:04Z</time>
      </trkpt>
      <trkpt lat="43.59426" lon="1.31731">
        <ele>188.4</ele>
        <time>2023-04-05T04:43:06Z</time>
      </trkpt>
      <trkpt lat="43.59442" lon="1.31731">
        <ele>188.6</ele>
        <time>2023-04-05T04:43:09Z</time>
      </trkpt>
      <trkpt lat="43.59453" lon="1.31733">
        <ele>188.6</ele>
        <time>2023-04-05T04:43:11Z</time>
      </trkpt>
      <trkpt lat="43.59474" lon="1.31734">
        <ele>188.4</ele>
        <time>2023-04-05T04:43:15Z</time>
      </trkpt>
      <trkpt lat="43.59485" lon="1.31735">
        <ele>188.4</ele>
        <time>2023-04-05T04:43:17Z</time>
      </trkpt>
      <trkpt lat="43.5949" lon="1.31743">
        <ele>188.4</ele>
        <time>2023-04-05T04:43:19Z</time>
      </trkpt>
      <trkpt lat="43.5949" lon="1.31749">
        <ele>188.4</ele>
        <time>2023-04-05T04:43:20Z</time>
      </trkpt>
      <trkpt lat="43.59489" lon="1.31789">
        <ele>188</ele>
        <time>2023-04-05T04:43:26Z</time>
      </trkpt>
      <trkpt lat="43.59487" lon="1.31841">
        <ele>187.8</ele>
        <time>2023-04-05T04:43:33Z</time>
      </trkpt>
      <trkpt lat="43.59487" lon="1.31849">
        <ele>187.8</ele>
        <time>2023-04-05T04:43:34Z</time>
      </trkpt>
      <trkpt lat="43.59487" lon="1.31886">
        <ele>187.6</ele>
        <time>2023-04-05T04:43:39Z</time>
      </trkpt>
      <trkpt lat="43.59488" lon="1.31894">
        <ele>187.6</ele>
        <time>2023-04-05T04:43:40Z</time>
      </trkpt>
      <trkpt lat="43.59494" lon="1.31916">
        <ele>187.6</ele>
        <time>2023-04-05T04:43:43Z</time>
      </trkpt>
      <trkpt lat="43.59505" lon="1.31941">
        <ele>187.6</ele>
        <time>2023-04-05T04:43:47Z</time>
      </trkpt>
      <trkpt lat="43.59518" lon="1.31966">
        <ele>187.8</ele>
        <time>2023-04-05T04:43:51Z</time>
      </trkpt>
      <trkpt lat="43.59526" lon="1.31975">
        <ele>187.8</ele>
        <time>2023-04-05T04:43:53Z</time>
      </trkpt>
      <trkpt lat="43.59557" lon="1.31993">
        <ele>187.2</ele>
        <time>2023-04-05T04:43:59Z</time>
      </trkpt>
      <trkpt lat="43.59561" lon="1.31993">
        <ele>187.2</ele>
        <time>2023-04-05T04:44:00Z</time>
      </trkpt>
      <trkpt lat="43.59571" lon="1.31992">
        <ele>187.2</ele>
        <time>2023-04-05T04:44:02Z</time>
      </trkpt>
      <trkpt lat="43.59582" lon="1.31996">
        <ele>187.2</ele>
        <time>2023-04-05T04:44:04Z</time>
      </trkpt>
      <trkpt lat="43.59585" lon="1.31999">
        <ele>187</ele>
        <time>2023-04-05T04:44:05Z</time>
      </trkpt>
      <trkpt lat="43.59588" lon="1.32005">
        <ele>187</ele>
        <time>2023-04-05T04:44:06Z</time>
      </trkpt>
      <trkpt lat="43.59593" lon="1.32018">
        <ele>187.2</ele>
        <time>2023-04-05T04:44:08Z</time>
      </trkpt>
      <trkpt lat="43.59596" lon="1.32024">
        <ele>187.2</ele>
        <time>2023-04-05T04:44:09Z</time>
      </trkpt>
      <trkpt lat="43.59601" lon="1.32028">
        <ele>187.2</ele>
        <time>2023-04-05T04:44:10Z</time>
      </trkpt>
      <trkpt lat="43.59621" lon="1.32043">
        <ele>187</ele>
        <time>2023-04-05T04:44:15Z</time>
      </trkpt>
      <trkpt lat="43.59672" lon="1.32081">
        <ele>187</ele>
        <time>2023-04-05T04:44:25Z</time>
      </trkpt>
      <trkpt lat="43.59715" lon="1.32112">
        <ele>186.8</ele>
        <time>2023-04-05T04:44:33Z</time>
      </trkpt>
      <trkpt lat="43.59721" lon="1.32116">
        <ele>186.8</ele>
        <time>2023-04-05T04:44:34Z</time>
      </trkpt>
      <trkpt lat="43.59766" lon="1.32148">
        <ele>186.4</ele>
        <time>2023-04-05T04:44:43Z</time>
      </trkpt>
      <trkpt lat="43.59777" lon="1.32147">
        <ele>186.2</ele>
        <time>2023-04-05T04:44:46Z</time>
      </trkpt>
      <trkpt lat="43.59785" lon="1.32151">
        <ele>186.2</ele>
        <time>2023-04-05T04:44:48Z</time>
      </trkpt>
      <trkpt lat="43.59787" lon="1.32155">
        <ele>186.2</ele>
        <time>2023-04-05T04:44:49Z</time>
      </trkpt>
      <trkpt lat="43.59791" lon="1.32165">
        <ele>186.2</ele>
        <time>2023-04-05T04:44:51Z</time>
      </trkpt>
      <trkpt lat="43.59799" lon="1.32175">
        <ele>186.2</ele>
        <time>2023-04-05T04:44:53Z</time>
      </trkpt>
      <trkpt lat="43.59807" lon="1.32183">
        <ele>186.2</ele>
        <time>2023-04-05T04:44:55Z</time>
      </trkpt>
      <trkpt lat="43.59811" lon="1.32188">
        <ele>186.2</ele>
        <time>2023-04-05T04:44:56Z</time>
      </trkpt>
      <trkpt lat="43.59824" lon="1.32203">
        <ele>186.2</ele>
        <time>2023-04-05T04:44:59Z</time>
      </trkpt>
      <trkpt lat="43.59834" lon="1.3221">
        <ele>186.2</ele>
        <time>2023-04-05T04:45:01Z</time>
      </trkpt>
      <trkpt lat="43.59847" lon="1.32214">
        <ele>186.2</ele>
        <time>2023-04-05T04:45:03Z</time>
      </trkpt>
      <trkpt lat="43.59896" lon="1.3222">
        <ele>186.2</ele>
        <time>2023-04-05T04:45:11Z</time>
      </trkpt>
      <trkpt lat="43.59931" lon="1.32225">
        <ele>185.8</ele>
        <time>2023-04-05T04:45:17Z</time>
      </trkpt>
      <trkpt lat="43.59943" lon="1.32226">
        <ele>185.8</ele>
        <time>2023-04-05T04:45:19Z</time>
      </trkpt>
      <trkpt lat="43.59954" lon="1.32228">
        <ele>185.6</ele>
        <time>2023-04-05T04:45:21Z</time>
      </trkpt>
      <trkpt lat="43.59969" lon="1.32238">
        <ele>185.6</ele>
        <time>2023-04-05T04:45:24Z</time>
      </trkpt>
      <trkpt lat="43.59977" lon="1.32247">
        <ele>185.8</ele>
        <time>2023-04-05T04:45:26Z</time>
      </trkpt>
      <trkpt lat="43.5999" lon="1.32265">
        <ele>186</ele>
        <time>2023-04-05T04:45:30Z</time>
      </trkpt>
      <trkpt lat="43.59998" lon="1.32271">
        <ele>186</ele>
        <time>2023-04-05T04:45:32Z</time>
      </trkpt>
      <trkpt lat="43.60003" lon="1.32272">
        <ele>186.2</ele>
        <time>2023-04-05T04:45:33Z</time>
      </trkpt>
      <trkpt lat="43.60014" lon="1.3227">
        <ele>186.2</ele>
        <time>2023-04-05T04:45:35Z</time>
      </trkpt>
      <trkpt lat="43.60019" lon="1.32269">
        <ele>186.2</ele>
        <time>2023-04-05T04:45:36Z</time>
      </trkpt>
      <trkpt lat="43.6003" lon="1.32266">
        <ele>186.2</ele>
        <time>2023-04-05T04:45:38Z</time>
      </trkpt>
      <trkpt lat="43.60033" lon="1.32263">
        <ele>186.2</ele>
        <time>2023-04-05T04:45:39Z</time>
      </trkpt>
      <trkpt lat="43.60037" lon="1.32261">
        <ele>186.2</ele>
        <time>2023-04-05T04:45:40Z</time>
      </trkpt>
      <trkpt lat="43.60044" lon="1.32263">
        <ele>186.2</ele>
        <time>2023-04-05T04:45:42Z</time>
      </trkpt>
      <trkpt lat="43.60046" lon="1.32267">
        <ele>186.2</ele>
        <time>2023-04-05T04:45:43Z</time>
      </trkpt>
      <trkpt lat="43.60046" lon="1.32271">
        <ele>186.2</ele>
        <time>2023-04-05T04:45:44Z</time>
      </trkpt>
      <trkpt lat="43.60045" lon="1.32284">
        <ele>186.2</ele>
        <time>2023-04-05T04:45:46Z</time>
      </trkpt>
      <trkpt lat="43.60046" lon="1.32303">
        <ele>186.2</ele>
        <time>2023-04-05T04:45:49Z</time>
      </trkpt>
      <trkpt lat="43.60049" lon="1.32324">
        <ele>186.2</ele>
        <time>2023-04-05T04:45:52Z</time>
      </trkpt>
      <trkpt lat="43.60053" lon="1.32337">
        <ele>186.2</ele>
        <time>2023-04-05T04:45:54Z</time>
      </trkpt>
      <trkpt lat="43.6006" lon="1.32348">
        <ele>186.2</ele>
        <time>2023-04-05T04:45:56Z</time>
      </trkpt>
      <trkpt lat="43.60074" lon="1.32363">
        <ele>186.2</ele>
        <time>2023-04-05T04:45:59Z</time>
      </trkpt>
      <trkpt lat="43.60083" lon="1.32373">
        <ele>186.2</ele>
        <time>2023-04-05T04:46:01Z</time>
      </trkpt>
      <trkpt lat="43.60094" lon="1.32388">
        <ele>185.8</ele>
        <time>2023-04-05T04:46:04Z</time>
      </trkpt>
      <trkpt lat="43.60113" lon="1.3241">
        <ele>185.4</ele>
        <time>2023-04-05T04:46:08Z</time>
      </trkpt>
      <trkpt lat="43.60145" lon="1.32447">
        <ele>185.2</ele>
        <time>2023-04-05T04:46:15Z</time>
      </trkpt>
      <trkpt lat="43.60186" lon="1.32496">
        <ele>185.2</ele>
        <time>2023-04-05T04:46:24Z</time>
      </trkpt>
      <trkpt lat="43.60199" lon="1.32511">
        <ele>185</ele>
        <time>2023-04-05T04:46:27Z</time>
      </trkpt>
      <trkpt lat="43.60222" lon="1.32539">
        <ele>185</ele>
        <time>2023-04-05T04:46:33Z</time>
      </trkpt>
      <trkpt lat="43.60266" lon="1.32591">
        <ele>185.2</ele>
        <time>2023-04-05T04:46:43Z</time>
      </trkpt>
      <trkpt lat="43.60289" lon="1.32617">
        <ele>185.4</ele>
        <time>2023-04-05T04:46:48Z</time>
      </trkpt>
      <trkpt lat="43.60294" lon="1.3262">
        <ele>185.4</ele>
        <time>2023-04-05T04:46:49Z</time>
      </trkpt>
      <trkpt lat="43.603" lon="1.32621">
        <ele>185.4</ele>
        <time>2023-04-05T04:46:50Z</time>
      </trkpt>
      <trkpt lat="43.60311" lon="1.3262">
        <ele>185.4</ele>
        <time>2023-04-05T04:46:52Z</time>
      </trkpt>
      <trkpt lat="43.60351" lon="1.3261">
        <ele>185.4</ele>
        <time>2023-04-05T04:46:59Z</time>
      </trkpt>
      <trkpt lat="43.60355" lon="1.32606">
        <ele>185.4</ele>
        <time>2023-04-05T04:47:00Z</time>
      </trkpt>
      <trkpt lat="43.60359" lon="1.326">
        <ele>185.4</ele>
        <time>2023-04-05T04:47:01Z</time>
      </trkpt>
      <trkpt lat="43.60362" lon="1.32594">
        <ele>185.4</ele>
        <time>2023-04-05T04:47:02Z</time>
      </trkpt>
      <trkpt lat="43.60394" lon="1.32534">
        <ele>185.6</ele>
        <time>2023-04-05T04:47:11Z</time>
      </trkpt>
      <trkpt lat="43.60397" lon="1.32527">
        <ele>185.6</ele>
        <time>2023-04-05T04:47:12Z</time>
      </trkpt>
      <trkpt lat="43.60417" lon="1.32489">
        <ele>186</ele>
        <time>2023-04-05T04:47:18Z</time>
      </trkpt>
      <trkpt lat="43.60447" lon="1.32431">
        <ele>186</ele>
        <time>2023-04-05T04:47:27Z</time>
      </trkpt>
      <trkpt lat="43.60462" lon="1.32405">
        <ele>185.8</ele>
        <time>2023-04-05T04:47:31Z</time>
      </trkpt>
      <trkpt lat="43.60475" lon="1.32389">
        <ele>186</ele>
        <time>2023-04-05T04:47:34Z</time>
      </trkpt>
      <trkpt lat="43.60485" lon="1.32382">
        <ele>186.2</ele>
        <time>2023-04-05T04:47:36Z</time>
      </trkpt>
      <trkpt lat="43.60495" lon="1.32378">
        <ele>186.2</ele>
        <time>2023-04-05T04:47:38Z</time>
      </trkpt>
      <trkpt lat="43.605" lon="1.32377">
        <ele>186.2</ele>
        <time>2023-04-05T04:47:39Z</time>
      </trkpt>
      <trkpt lat="43.60508" lon="1.32379">
        <ele>186.2</ele>
        <time>2023-04-05T04:47:41Z</time>
      </trkpt>
      <trkpt lat="43.60511" lon="1.32381">
        <ele>186.2</ele>
        <time>2023-04-05T04:47:42Z</time>
      </trkpt>
      <trkpt lat="43.60515" lon="1.32384">
        <ele>186.2</ele>
        <time>2023-04-05T04:47:43Z</time>
      </trkpt>
      <trkpt lat="43.60527" lon="1.32392">
        <ele>186</ele>
        <time>2023-04-05T04:47:46Z</time>
      </trkpt>
      <trkpt lat="43.60531" lon="1.32393">
        <ele>185.8</ele>
        <time>2023-04-05T04:47:47Z</time>
      </trkpt>
      <trkpt lat="43.60535" lon="1.32393">
        <ele>185.8</ele>
        <time>2023-04-05T04:47:48Z</time>
      </trkpt>
      <trkpt lat="43.60542" lon="1.32386">
        <ele>185.8</ele>
        <time>2023-04-05T04:47:50Z</time>
      </trkpt>
      <trkpt lat="43.60549" lon="1.32375">
        <ele>185.8</ele>
        <time>2023-04-05T04:47:52Z</time>
      </trkpt>
      <trkpt lat="43.60559" lon="1.32369">
        <ele>185.8</ele>
        <time>2023-04-05T04:47:54Z</time>
      </trkpt>
      <trkpt lat="43.60588" lon="1.32367">
        <ele>185.6</ele>
        <time>2023-04-05T04:47:59Z</time>
      </trkpt>
      <trkpt lat="43.60599" lon="1.32374">
        <ele>185.4</ele>
        <time>2023-04-05T04:48:01Z</time>
      </trkpt>
      <trkpt lat="43.60604" lon="1.32379">
        <ele>185.4</ele>
        <time>2023-04-05T04:48:02Z</time>
      </trkpt>
      <trkpt lat="43.60608" lon="1.32384">
        <ele>185.4</ele>
        <time>2023-04-05T04:48:03Z</time>
      </trkpt>
      <trkpt lat="43.60636" lon="1.32415">
        <ele>185</ele>
        <time>2023-04-05T04:48:09Z</time>
      </trkpt>
      <trkpt lat="43.60646" lon="1.32426">
        <ele>184.8</ele>
        <time>2023-04-05T04:48:11Z</time>
      </trkpt>
      <trkpt lat="43.60655" lon="1.32434">
        <ele>184.8</ele>
        <time>2023-04-05T04:48:13Z</time>
      </trkpt>
      <trkpt lat="43.60667" lon="1.32436">
        <ele>184.8</ele>
        <time>2023-04-05T04:48:15Z</time>
      </trkpt>
      <trkpt lat="43.60684" lon="1.32433">
        <ele>184.8</ele>
        <time>2023-04-05T04:48:18Z</time>
      </trkpt>
      <trkpt lat="43.60689" lon="1.32431">
        <ele>184.8</ele>
        <time>2023-04-05T04:48:20Z</time>
      </trkpt>
      <trkpt lat="43.60732" lon="1.32404">
        <ele>184.6</ele>
        <time>2023-04-05T04:48:27Z</time>
      </trkpt>
      <trkpt lat="43.60739" lon="1.32396">
        <ele>184.6</ele>
        <time>2023-04-05T04:48:29Z</time>
      </trkpt>
      <trkpt lat="43.60747" lon="1.32376">
        <ele>184.8</ele>
        <time>2023-04-05T04:48:32Z</time>
      </trkpt>
      <trkpt lat="43.60751" lon="1.32369">
        <ele>184.8</ele>
        <time>2023-04-05T04:48:33Z</time>
      </trkpt>
      <trkpt lat="43.60755" lon="1.32363">
        <ele>184.8</ele>
        <time>2023-04-05T04:48:34Z</time>
      </trkpt>
      <trkpt lat="43.60763" lon="1.32353">
        <ele>184.6</ele>
        <time>2023-04-05T04:48:36Z</time>
      </trkpt>
      <trkpt lat="43.60767" lon="1.32348">
        <ele>184.6</ele>
        <time>2023-04-05T04:48:37Z</time>
      </trkpt>
      <trkpt lat="43.60774" lon="1.3234">
        <ele>184.6</ele>
        <time>2023-04-05T04:48:39Z</time>
      </trkpt>
      <trkpt lat="43.60781" lon="1.32339">
        <ele>184.8</ele>
        <time>2023-04-05T04:48:41Z</time>
      </trkpt>
      <trkpt lat="43.60794" lon="1.32344">
        <ele>184.8</ele>
        <time>2023-04-05T04:48:44Z</time>
      </trkpt>
      <trkpt lat="43.60803" lon="1.32344">
        <ele>184.8</ele>
        <time>2023-04-05T04:48:46Z</time>
      </trkpt>
      <trkpt lat="43.60808" lon="1.32344">
        <ele>184.8</ele>
        <time>2023-04-05T04:48:47Z</time>
      </trkpt>
      <trkpt lat="43.60834" lon="1.32337">
        <ele>185</ele>
        <time>2023-04-05T04:48:52Z</time>
      </trkpt>
      <trkpt lat="43.60838" lon="1.32334">
        <ele>185</ele>
        <time>2023-04-05T04:48:53Z</time>
      </trkpt>
      <trkpt lat="43.60861" lon="1.32319">
        <ele>185.2</ele>
        <time>2023-04-05T04:48:58Z</time>
      </trkpt>
      <trkpt lat="43.60867" lon="1.32317">
        <ele>185.4</ele>
        <time>2023-04-05T04:48:59Z</time>
      </trkpt>
      <trkpt lat="43.60872" lon="1.32317">
        <ele>185.4</ele>
        <time>2023-04-05T04:49:00Z</time>
      </trkpt>
      <trkpt lat="43.60888" lon="1.32319">
        <ele>185.6</ele>
        <time>2023-04-05T04:49:03Z</time>
      </trkpt>
      <trkpt lat="43.60909" lon="1.32312">
        <ele>185.4</ele>
        <time>2023-04-05T04:49:07Z</time>
      </trkpt>
      <trkpt lat="43.60913" lon="1.32309">
        <ele>185.4</ele>
        <time>2023-04-05T04:49:08Z</time>
      </trkpt>
      <trkpt lat="43.60929" lon="1.32301">
        <ele>185.8</ele>
        <time>2023-04-05T04:49:13Z</time>
      </trkpt>
      <trkpt lat="43.60931" lon="1.323">
        <ele>186.2</ele>
        <time>2023-04-05T04:49:14Z</time>
      </trkpt>
      <trkpt lat="43.60936" lon="1.32298">
        <ele>187</ele>
        <time>2023-04-05T04:49:16Z</time>
      </trkpt>
      <trkpt lat="43.60938" lon="1.32299">
        <ele>187.8</ele>
        <time>2023-04-05T04:49:17Z</time>
      </trkpt>
      <trkpt lat="43.60939" lon="1.32302">
        <ele>188</ele>
        <time>2023-04-05T04:49:18Z</time>
      </trkpt>
      <trkpt lat="43.60941" lon="1.32309">
        <ele>188.6</ele>
        <time>2023-04-05T04:49:20Z</time>
      </trkpt>
      <trkpt lat="43.60942" lon="1.32313">
        <ele>189</ele>
        <time>2023-04-05T04:49:21Z</time>
      </trkpt>
      <trkpt lat="43.60942" lon="1.32322">
        <ele>189.4</ele>
        <time>2023-04-05T04:49:23Z</time>
      </trkpt>
      <trkpt lat="43.60939" lon="1.32324">
        <ele>189.4</ele>
        <time>2023-04-05T04:49:24Z</time>
      </trkpt>
      <trkpt lat="43.60919" lon="1.32334">
        <ele>189.4</ele>
        <time>2023-04-05T04:49:28Z</time>
      </trkpt>
      <trkpt lat="43.60889" lon="1.32349">
        <ele>188.2</ele>
        <time>2023-04-05T04:49:32Z</time>
      </trkpt>
      <trkpt lat="43.60882" lon="1.32353">
        <ele>187.8</ele>
        <time>2023-04-05T04:49:33Z</time>
      </trkpt>
      <trkpt lat="43.60876" lon="1.32356">
        <ele>187</ele>
        <time>2023-04-05T04:49:34Z</time>
      </trkpt>
      <trkpt lat="43.60872" lon="1.32361">
        <ele>186.4</ele>
        <time>2023-04-05T04:49:35Z</time>
      </trkpt>
      <trkpt lat="43.60869" lon="1.32367">
        <ele>185.8</ele>
        <time>2023-04-05T04:49:36Z</time>
      </trkpt>
      <trkpt lat="43.60869" lon="1.32374">
        <ele>185.4</ele>
        <time>2023-04-05T04:49:37Z</time>
      </trkpt>
      <trkpt lat="43.6087" lon="1.32382">
        <ele>185</ele>
        <time>2023-04-05T04:49:38Z</time>
      </trkpt>
      <trkpt lat="43.60871" lon="1.32389">
        <ele>184.8</ele>
        <time>2023-04-05T04:49:39Z</time>
      </trkpt>
      <trkpt lat="43.60877" lon="1.3241">
        <ele>184.2</ele>
        <time>2023-04-05T04:49:42Z</time>
      </trkpt>
      <trkpt lat="43.60881" lon="1.32422">
        <ele>184.2</ele>
        <time>2023-04-05T04:49:44Z</time>
      </trkpt>
      <trkpt lat="43.60884" lon="1.32428">
        <ele>184</ele>
        <time>2023-04-05T04:49:45Z</time>
      </trkpt>
      <trkpt lat="43.60887" lon="1.32434">
        <ele>184</ele>
        <time>2023-04-05T04:49:46Z</time>
      </trkpt>
      <trkpt lat="43.60892" lon="1.32455">
        <ele>183.8</ele>
        <time>2023-04-05T04:49:49Z</time>
      </trkpt>
      <trkpt lat="43.60898" lon="1.32468">
        <ele>183.8</ele>
        <time>2023-04-05T04:49:51Z</time>
      </trkpt>
      <trkpt lat="43.60902" lon="1.32474">
        <ele>183.8</ele>
        <time>2023-04-05T04:49:52Z</time>
      </trkpt>
      <trkpt lat="43.60918" lon="1.32494">
        <ele>183.8</ele>
        <time>2023-04-05T04:49:56Z</time>
      </trkpt>
      <trkpt lat="43.60919" lon="1.32505">
        <ele>183.8</ele>
        <time>2023-04-05T04:49:58Z</time>
      </trkpt>
      <trkpt lat="43.60912" lon="1.32522">
        <ele>183.8</ele>
        <time>2023-04-05T04:50:01Z</time>
      </trkpt>
      <trkpt lat="43.60912" lon="1.32529">
        <ele>183.8</ele>
        <time>2023-04-05T04:50:02Z</time>
      </trkpt>
      <trkpt lat="43.60914" lon="1.32536">
        <ele>183.8</ele>
        <time>2023-04-05T04:50:03Z</time>
      </trkpt>
      <trkpt lat="43.60921" lon="1.32546">
        <ele>183.8</ele>
        <time>2023-04-05T04:50:05Z</time>
      </trkpt>
      <trkpt lat="43.60934" lon="1.32557">
        <ele>183.6</ele>
        <time>2023-04-05T04:50:08Z</time>
      </trkpt>
      <trkpt lat="43.60943" lon="1.32561">
        <ele>183.4</ele>
        <time>2023-04-05T04:50:10Z</time>
      </trkpt>
      <trkpt lat="43.60946" lon="1.32566">
        <ele>183.2</ele>
        <time>2023-04-05T04:50:12Z</time>
      </trkpt>
      <trkpt lat="43.60947" lon="1.32568">
        <ele>183.2</ele>
        <time>2023-04-05T04:50:13Z</time>
      </trkpt>
      <trkpt lat="43.60947" lon="1.32572">
        <ele>183.2</ele>
        <time>2023-04-05T04:50:14Z</time>
      </trkpt>
      <trkpt lat="43.60944" lon="1.3258">
        <ele>183</ele>
        <time>2023-04-05T04:50:16Z</time>
      </trkpt>
      <trkpt lat="43.60936" lon="1.32595">
        <ele>183</ele>
        <time>2023-04-05T04:50:19Z</time>
      </trkpt>
      <trkpt lat="43.6093" lon="1.32605">
        <ele>183</ele>
        <time>2023-04-05T04:50:21Z</time>
      </trkpt>
      <trkpt lat="43.60916" lon="1.32625">
        <ele>183.2</ele>
        <time>2023-04-05T04:50:25Z</time>
      </trkpt>
      <trkpt lat="43.60907" lon="1.32633">
        <ele>183.2</ele>
        <time>2023-04-05T04:50:27Z</time>
      </trkpt>
      <trkpt lat="43.60876" lon="1.32654">
        <ele>183.4</ele>
        <time>2023-04-05T04:50:33Z</time>
      </trkpt>
      <trkpt lat="43.60868" lon="1.32665">
        <ele>183.4</ele>
        <time>2023-04-05T04:50:35Z</time>
      </trkpt>
      <trkpt lat="43.60862" lon="1.32678">
        <ele>183.4</ele>
        <time>2023-04-05T04:50:37Z</time>
      </trkpt>
      <trkpt lat="43.60859" lon="1.32694">
        <ele>183.4</ele>
        <time>2023-04-05T04:50:39Z</time>
      </trkpt>
      <trkpt lat="43.60859" lon="1.32702">
        <ele>183.4</ele>
        <time>2023-04-05T04:50:40Z</time>
      </trkpt>
      <trkpt lat="43.60859" lon="1.3271">
        <ele>183.6</ele>
        <time>2023-04-05T04:50:41Z</time>
      </trkpt>
      <trkpt lat="43.60864" lon="1.32725">
        <ele>183.6</ele>
        <time>2023-04-05T04:50:43Z</time>
      </trkpt>
      <trkpt lat="43.60868" lon="1.32732">
        <ele>183.6</ele>
        <time>2023-04-05T04:50:44Z</time>
      </trkpt>
      <trkpt lat="43.60872" lon="1.32738">
        <ele>183.8</ele>
        <time>2023-04-05T04:50:45Z</time>
      </trkpt>
      <trkpt lat="43.60883" lon="1.32746">
        <ele>183.8</ele>
        <time>2023-04-05T04:50:47Z</time>
      </trkpt>
      <trkpt lat="43.60889" lon="1.32749">
        <ele>183.8</ele>
        <time>2023-04-05T04:50:48Z</time>
      </trkpt>
      <trkpt lat="43.60895" lon="1.3275">
        <ele>183.8</ele>
        <time>2023-04-05T04:50:49Z</time>
      </trkpt>
      <trkpt lat="43.60914" lon="1.32748">
        <ele>184</ele>
        <time>2023-04-05T04:50:52Z</time>
      </trkpt>
      <trkpt lat="43.60921" lon="1.32749">
        <ele>184</ele>
        <time>2023-04-05T04:50:53Z</time>
      </trkpt>
      <trkpt lat="43.60932" lon="1.32754">
        <ele>184</ele>
        <time>2023-04-05T04:50:55Z</time>
      </trkpt>
      <trkpt lat="43.60956" lon="1.32782">
        <ele>184</ele>
        <time>2023-04-05T04:51:00Z</time>
      </trkpt>
      <trkpt lat="43.60992" lon="1.32826">
        <ele>183.8</ele>
        <time>2023-04-05T04:51:08Z</time>
      </trkpt>
      <trkpt lat="43.61005" lon="1.32842">
        <ele>183.8</ele>
        <time>2023-04-05T04:51:11Z</time>
      </trkpt>
      <trkpt lat="43.61018" lon="1.32859">
        <ele>183.8</ele>
        <time>2023-04-05T04:51:14Z</time>
      </trkpt>
      <trkpt lat="43.61062" lon="1.32913">
        <ele>184.2</ele>
        <time>2023-04-05T04:51:24Z</time>
      </trkpt>
      <trkpt lat="43.61068" lon="1.32926">
        <ele>184</ele>
        <time>2023-04-05T04:51:26Z</time>
      </trkpt>
      <trkpt lat="43.61071" lon="1.32932">
        <ele>184.2</ele>
        <time>2023-04-05T04:51:27Z</time>
      </trkpt>
      <trkpt lat="43.61075" lon="1.32938">
        <ele>184.4</ele>
        <time>2023-04-05T04:51:28Z</time>
      </trkpt>
      <trkpt lat="43.61079" lon="1.32943">
        <ele>184.4</ele>
        <time>2023-04-05T04:51:29Z</time>
      </trkpt>
      <trkpt lat="43.61095" lon="1.32954">
        <ele>184.4</ele>
        <time>2023-04-05T04:51:32Z</time>
      </trkpt>
      <trkpt lat="43.61112" lon="1.32967">
        <ele>184.2</ele>
        <time>2023-04-05T04:51:35Z</time>
      </trkpt>
      <trkpt lat="43.61117" lon="1.32973">
        <ele>184</ele>
        <time>2023-04-05T04:51:36Z</time>
      </trkpt>
      <trkpt lat="43.61128" lon="1.32986">
        <ele>184</ele>
        <time>2023-04-05T04:51:38Z</time>
      </trkpt>
      <trkpt lat="43.61138" lon="1.32998">
        <ele>183.4</ele>
        <time>2023-04-05T04:51:40Z</time>
      </trkpt>
      <trkpt lat="43.61143" lon="1.33005">
        <ele>183</ele>
        <time>2023-04-05T04:51:41Z</time>
      </trkpt>
      <trkpt lat="43.61176" lon="1.33049">
        <ele>182</ele>
        <time>2023-04-05T04:51:48Z</time>
      </trkpt>
      <trkpt lat="43.61211" lon="1.33082">
        <ele>182.2</ele>
        <time>2023-04-05T04:51:55Z</time>
      </trkpt>
      <trkpt lat="43.61221" lon="1.33088">
        <ele>182.2</ele>
        <time>2023-04-05T04:51:57Z</time>
      </trkpt>
      <trkpt lat="43.61232" lon="1.33093">
        <ele>182.4</ele>
        <time>2023-04-05T04:51:59Z</time>
      </trkpt>
      <trkpt lat="43.61237" lon="1.33096">
        <ele>182.4</ele>
        <time>2023-04-05T04:52:00Z</time>
      </trkpt>
      <trkpt lat="43.61242" lon="1.331">
        <ele>182.6</ele>
        <time>2023-04-05T04:52:01Z</time>
      </trkpt>
      <trkpt lat="43.61251" lon="1.33109">
        <ele>182.8</ele>
        <time>2023-04-05T04:52:03Z</time>
      </trkpt>
      <trkpt lat="43.61255" lon="1.33116">
        <ele>182.8</ele>
        <time>2023-04-05T04:52:04Z</time>
      </trkpt>
      <trkpt lat="43.61257" lon="1.33123">
        <ele>182.8</ele>
        <time>2023-04-05T04:52:05Z</time>
      </trkpt>
      <trkpt lat="43.61262" lon="1.33146">
        <ele>183</ele>
        <time>2023-04-05T04:52:08Z</time>
      </trkpt>
      <trkpt lat="43.61266" lon="1.3316">
        <ele>183.2</ele>
        <time>2023-04-05T04:52:10Z</time>
      </trkpt>
      <trkpt lat="43.61272" lon="1.33173">
        <ele>183.2</ele>
        <time>2023-04-05T04:52:12Z</time>
      </trkpt>
      <trkpt lat="43.61277" lon="1.33178">
        <ele>183.2</ele>
        <time>2023-04-05T04:52:13Z</time>
      </trkpt>
      <trkpt lat="43.61282" lon="1.33182">
        <ele>183.2</ele>
        <time>2023-04-05T04:52:14Z</time>
      </trkpt>
      <trkpt lat="43.61293" lon="1.33186">
        <ele>183.2</ele>
        <time>2023-04-05T04:52:16Z</time>
      </trkpt>
      <trkpt lat="43.61304" lon="1.33183">
        <ele>183.2</ele>
        <time>2023-04-05T04:52:18Z</time>
      </trkpt>
      <trkpt lat="43.61309" lon="1.33179">
        <ele>183.2</ele>
        <time>2023-04-05T04:52:19Z</time>
      </trkpt>
      <trkpt lat="43.61314" lon="1.33174">
        <ele>183.2</ele>
        <time>2023-04-05T04:52:20Z</time>
      </trkpt>
      <trkpt lat="43.6133" lon="1.33151">
        <ele>183.4</ele>
        <time>2023-04-05T04:52:24Z</time>
      </trkpt>
      <trkpt lat="43.61335" lon="1.33145">
        <ele>183.4</ele>
        <time>2023-04-05T04:52:25Z</time>
      </trkpt>
      <trkpt lat="43.61345" lon="1.33138">
        <ele>183.4</ele>
        <time>2023-04-05T04:52:27Z</time>
      </trkpt>
      <trkpt lat="43.61351" lon="1.33136">
        <ele>183.4</ele>
        <time>2023-04-05T04:52:28Z</time>
      </trkpt>
      <trkpt lat="43.61357" lon="1.33137">
        <ele>183.4</ele>
        <time>2023-04-05T04:52:29Z</time>
      </trkpt>
      <trkpt lat="43.6138" lon="1.3314">
        <ele>183.4</ele>
        <time>2023-04-05T04:52:33Z</time>
      </trkpt>
      <trkpt lat="43.61425" lon="1.33157">
        <ele>183.4</ele>
        <time>2023-04-05T04:52:41Z</time>
      </trkpt>
      <trkpt lat="43.61467" lon="1.33185">
        <ele>183.8</ele>
        <time>2023-04-05T04:52:49Z</time>
      </trkpt>
      <trkpt lat="43.61516" lon="1.33219">
        <ele>183.8</ele>
        <time>2023-04-05T04:52:58Z</time>
      </trkpt>
      <trkpt lat="43.61522" lon="1.33223">
        <ele>183.8</ele>
        <time>2023-04-05T04:52:59Z</time>
      </trkpt>
      <trkpt lat="43.61562" lon="1.33246">
        <ele>183.8</ele>
        <time>2023-04-05T04:53:06Z</time>
      </trkpt>
      <trkpt lat="43.61573" lon="1.33252">
        <ele>183.6</ele>
        <time>2023-04-05T04:53:08Z</time>
      </trkpt>
      <trkpt lat="43.61583" lon="1.33261">
        <ele>183.6</ele>
        <time>2023-04-05T04:53:10Z</time>
      </trkpt>
      <trkpt lat="43.61596" lon="1.33278">
        <ele>183.4</ele>
        <time>2023-04-05T04:53:13Z</time>
      </trkpt>
      <trkpt lat="43.61607" lon="1.33285">
        <ele>183.4</ele>
        <time>2023-04-05T04:53:15Z</time>
      </trkpt>
      <trkpt lat="43.6163" lon="1.3329">
        <ele>183.2</ele>
        <time>2023-04-05T04:53:19Z</time>
      </trkpt>
      <trkpt lat="43.61635" lon="1.33292">
        <ele>183.2</ele>
        <time>2023-04-05T04:53:20Z</time>
      </trkpt>
      <trkpt lat="43.6164" lon="1.33295">
        <ele>183.2</ele>
        <time>2023-04-05T04:53:21Z</time>
      </trkpt>
      <trkpt lat="43.61649" lon="1.33304">
        <ele>183.4</ele>
        <time>2023-04-05T04:53:23Z</time>
      </trkpt>
      <trkpt lat="43.61653" lon="1.33309">
        <ele>183.4</ele>
        <time>2023-04-05T04:53:24Z</time>
      </trkpt>
      <trkpt lat="43.61658" lon="1.33312">
        <ele>183.4</ele>
        <time>2023-04-05T04:53:25Z</time>
      </trkpt>
      <trkpt lat="43.61668" lon="1.33311">
        <ele>183.4</ele>
        <time>2023-04-05T04:53:27Z</time>
      </trkpt>
      <trkpt lat="43.61673" lon="1.33311">
        <ele>183.4</ele>
        <time>2023-04-05T04:53:28Z</time>
      </trkpt>
      <trkpt lat="43.61689" lon="1.33317">
        <ele>183.4</ele>
        <time>2023-04-05T04:53:31Z</time>
      </trkpt>
      <trkpt lat="43.61737" lon="1.33344">
        <ele>183.4</ele>
        <time>2023-04-05T04:53:40Z</time>
      </trkpt>
      <trkpt lat="43.61792" lon="1.33375">
        <ele>183.4</ele>
        <time>2023-04-05T04:53:50Z</time>
      </trkpt>
      <trkpt lat="43.61819" lon="1.33391">
        <ele>183.6</ele>
        <time>2023-04-05T04:53:55Z</time>
      </trkpt>
      <trkpt lat="43.61824" lon="1.33396">
        <ele>183.6</ele>
        <time>2023-04-05T04:53:56Z</time>
      </trkpt>
      <trkpt lat="43.61828" lon="1.33402">
        <ele>183.6</ele>
        <time>2023-04-05T04:53:57Z</time>
      </trkpt>
      <trkpt lat="43.61837" lon="1.33423">
        <ele>183.4</ele>
        <time>2023-04-05T04:54:00Z</time>
      </trkpt>
      <trkpt lat="43.61842" lon="1.33439">
        <ele>183.4</ele>
        <time>2023-04-05T04:54:02Z</time>
      </trkpt>
      <trkpt lat="43.61851" lon="1.33451">
        <ele>183</ele>
        <time>2023-04-05T04:54:04Z</time>
      </trkpt>
      <trkpt lat="43.61855" lon="1.33457">
        <ele>183</ele>
        <time>2023-04-05T04:54:05Z</time>
      </trkpt>
      <trkpt lat="43.61871" lon="1.33485">
        <ele>182.8</ele>
        <time>2023-04-05T04:54:09Z</time>
      </trkpt>
      <trkpt lat="43.61891" lon="1.33519">
        <ele>182.2</ele>
        <time>2023-04-05T04:54:14Z</time>
      </trkpt>
      <trkpt lat="43.61895" lon="1.33524">
        <ele>182.2</ele>
        <time>2023-04-05T04:54:15Z</time>
      </trkpt>
      <trkpt lat="43.61905" lon="1.33534">
        <ele>182</ele>
        <time>2023-04-05T04:54:17Z</time>
      </trkpt>
      <trkpt lat="43.61914" lon="1.33542">
        <ele>181.8</ele>
        <time>2023-04-05T04:54:19Z</time>
      </trkpt>
      <trkpt lat="43.61918" lon="1.33555">
        <ele>181.8</ele>
        <time>2023-04-05T04:54:21Z</time>
      </trkpt>
      <trkpt lat="43.61917" lon="1.33569">
        <ele>181.6</ele>
        <time>2023-04-05T04:54:23Z</time>
      </trkpt>
      <trkpt lat="43.61919" lon="1.33575">
        <ele>181.6</ele>
        <time>2023-04-05T04:54:24Z</time>
      </trkpt>
      <trkpt lat="43.61922" lon="1.33581">
        <ele>181.6</ele>
        <time>2023-04-05T04:54:25Z</time>
      </trkpt>
      <trkpt lat="43.61931" lon="1.33589">
        <ele>181.6</ele>
        <time>2023-04-05T04:54:27Z</time>
      </trkpt>
      <trkpt lat="43.61954" lon="1.33612">
        <ele>181.4</ele>
        <time>2023-04-05T04:54:32Z</time>
      </trkpt>
      <trkpt lat="43.61958" lon="1.33618">
        <ele>181.4</ele>
        <time>2023-04-05T04:54:33Z</time>
      </trkpt>
      <trkpt lat="43.6197" lon="1.33642">
        <ele>181.4</ele>
        <time>2023-04-05T04:54:37Z</time>
      </trkpt>
      <trkpt lat="43.61972" lon="1.33648">
        <ele>181.4</ele>
        <time>2023-04-05T04:54:38Z</time>
      </trkpt>
      <trkpt lat="43.61973" lon="1.33655">
        <ele>181.2</ele>
        <time>2023-04-05T04:54:39Z</time>
      </trkpt>
      <trkpt lat="43.61972" lon="1.33667">
        <ele>181.2</ele>
        <time>2023-04-05T04:54:41Z</time>
      </trkpt>
      <trkpt lat="43.61972" lon="1.33674">
        <ele>181.2</ele>
        <time>2023-04-05T04:54:42Z</time>
      </trkpt>
      <trkpt lat="43.61971" lon="1.33687">
        <ele>181</ele>
        <time>2023-04-05T04:54:44Z</time>
      </trkpt>
      <trkpt lat="43.61969" lon="1.33692">
        <ele>181</ele>
        <time>2023-04-05T04:54:45Z</time>
      </trkpt>
      <trkpt lat="43.61964" lon="1.33695">
        <ele>181</ele>
        <time>2023-04-05T04:54:46Z</time>
      </trkpt>
      <trkpt lat="43.61951" lon="1.33705">
        <ele>180.6</ele>
        <time>2023-04-05T04:54:49Z</time>
      </trkpt>
      <trkpt lat="43.61942" lon="1.33714">
        <ele>180.6</ele>
        <time>2023-04-05T04:54:51Z</time>
      </trkpt>
      <trkpt lat="43.61935" lon="1.33726">
        <ele>180.6</ele>
        <time>2023-04-05T04:54:53Z</time>
      </trkpt>
      <trkpt lat="43.61929" lon="1.33739">
        <ele>180.6</ele>
        <time>2023-04-05T04:54:55Z</time>
      </trkpt>
      <trkpt lat="43.61909" lon="1.33789">
        <ele>180.4</ele>
        <time>2023-04-05T04:55:02Z</time>
      </trkpt>
      <trkpt lat="43.61878" lon="1.33834">
        <ele>180.2</ele>
        <time>2023-04-05T04:55:10Z</time>
      </trkpt>
      <trkpt lat="43.61865" lon="1.33852">
        <ele>180</ele>
        <time>2023-04-05T04:55:13Z</time>
      </trkpt>
      <trkpt lat="43.61856" lon="1.33864">
        <ele>179.8</ele>
        <time>2023-04-05T04:55:15Z</time>
      </trkpt>
      <trkpt lat="43.6185" lon="1.33878">
        <ele>179.6</ele>
        <time>2023-04-05T04:55:17Z</time>
      </trkpt>
      <trkpt lat="43.61845" lon="1.33893">
        <ele>179.4</ele>
        <time>2023-04-05T04:55:19Z</time>
      </trkpt>
      <trkpt lat="43.61842" lon="1.33914">
        <ele>179</ele>
        <time>2023-04-05T04:55:22Z</time>
      </trkpt>
      <trkpt lat="43.6184" lon="1.33921">
        <ele>178.8</ele>
        <time>2023-04-05T04:55:23Z</time>
      </trkpt>
      <trkpt lat="43.61833" lon="1.3393">
        <ele>178.6</ele>
        <time>2023-04-05T04:55:25Z</time>
      </trkpt>
      <trkpt lat="43.61822" lon="1.3393">
        <ele>178.2</ele>
        <time>2023-04-05T04:55:28Z</time>
      </trkpt>
      <trkpt lat="43.61816" lon="1.33926">
        <ele>177.8</ele>
        <time>2023-04-05T04:55:30Z</time>
      </trkpt>
      <trkpt lat="43.61808" lon="1.33921">
        <ele>177.4</ele>
        <time>2023-04-05T04:55:34Z</time>
      </trkpt>
      <trkpt lat="43.61806" lon="1.33921">
        <ele>177.4</ele>
        <time>2023-04-05T04:55:35Z</time>
      </trkpt>
      <trkpt lat="43.61805" lon="1.33925">
        <ele>177.4</ele>
        <time>2023-04-05T04:55:37Z</time>
      </trkpt>
      <trkpt lat="43.61809" lon="1.33927">
        <ele>177.4</ele>
        <time>2023-04-05T04:55:39Z</time>
      </trkpt>
      <trkpt lat="43.61814" lon="1.3393">
        <ele>177.4</ele>
        <time>2023-04-05T04:55:41Z</time>
      </trkpt>
      <trkpt lat="43.61812" lon="1.33941">
        <ele>177.4</ele>
        <time>2023-04-05T04:55:44Z</time>
      </trkpt>
      <trkpt lat="43.61802" lon="1.33958">
        <ele>177.2</ele>
        <time>2023-04-05T04:55:47Z</time>
      </trkpt>
      <trkpt lat="43.61797" lon="1.33963">
        <ele>177.2</ele>
        <time>2023-04-05T04:55:48Z</time>
      </trkpt>
      <trkpt lat="43.61785" lon="1.33975">
        <ele>176.8</ele>
        <time>2023-04-05T04:55:50Z</time>
      </trkpt>
      <trkpt lat="43.61775" lon="1.33985">
        <ele>176.2</ele>
        <time>2023-04-05T04:55:52Z</time>
      </trkpt>
      <trkpt lat="43.6177" lon="1.33988">
        <ele>175.6</ele>
        <time>2023-04-05T04:55:53Z</time>
      </trkpt>
      <trkpt lat="43.61766" lon="1.33989">
        <ele>175.2</ele>
        <time>2023-04-05T04:55:54Z</time>
      </trkpt>
      <trkpt lat="43.61762" lon="1.3399">
        <ele>174.6</ele>
        <time>2023-04-05T04:55:55Z</time>
      </trkpt>
      <trkpt lat="43.6176" lon="1.3399">
        <ele>173.8</ele>
        <time>2023-04-05T04:55:56Z</time>
      </trkpt>
      <trkpt lat="43.61759" lon="1.3399">
        <ele>173.2</ele>
        <time>2023-04-05T04:55:57Z</time>
      </trkpt>
      <trkpt lat="43.61759" lon="1.33994">
        <ele>171.8</ele>
        <time>2023-04-05T04:55:59Z</time>
      </trkpt>
      <trkpt lat="43.61759" lon="1.33998">
        <ele>171</ele>
        <time>2023-04-05T04:56:00Z</time>
      </trkpt>
      <trkpt lat="43.61761" lon="1.34003">
        <ele>170.6</ele>
        <time>2023-04-05T04:56:01Z</time>
      </trkpt>
      <trkpt lat="43.61767" lon="1.34022">
        <ele>169.8</ele>
        <time>2023-04-05T04:56:04Z</time>
      </trkpt>
      <trkpt lat="43.61772" lon="1.34039">
        <ele>169.2</ele>
        <time>2023-04-05T04:56:06Z</time>
      </trkpt>
      <trkpt lat="43.61777" lon="1.34058">
        <ele>168.8</ele>
        <time>2023-04-05T04:56:08Z</time>
      </trkpt>
      <trkpt lat="43.61783" lon="1.34079">
        <ele>168</ele>
        <time>2023-04-05T04:56:10Z</time>
      </trkpt>
      <trkpt lat="43.61792" lon="1.34113">
        <ele>166.4</ele>
        <time>2023-04-05T04:56:13Z</time>
      </trkpt>
      <trkpt lat="43.61797" lon="1.34135">
        <ele>165.4</ele>
        <time>2023-04-05T04:56:15Z</time>
      </trkpt>
      <trkpt lat="43.618" lon="1.34145">
        <ele>165</ele>
        <time>2023-04-05T04:56:16Z</time>
      </trkpt>
      <trkpt lat="43.61804" lon="1.34154">
        <ele>164.4</ele>
        <time>2023-04-05T04:56:17Z</time>
      </trkpt>
      <trkpt lat="43.61808" lon="1.34161">
        <ele>164</ele>
        <time>2023-04-05T04:56:18Z</time>
      </trkpt>
      <trkpt lat="43.61825" lon="1.34182">
        <ele>162.6</ele>
        <time>2023-04-05T04:56:21Z</time>
      </trkpt>
      <trkpt lat="43.6185" lon="1.34216">
        <ele>161.4</ele>
        <time>2023-04-05T04:56:26Z</time>
      </trkpt>
      <trkpt lat="43.61861" lon="1.34229">
        <ele>161</ele>
        <time>2023-04-05T04:56:28Z</time>
      </trkpt>
      <trkpt lat="43.61893" lon="1.34265">
        <ele>160.4</ele>
        <time>2023-04-05T04:56:34Z</time>
      </trkpt>
      <trkpt lat="43.61898" lon="1.34271">
        <ele>160.4</ele>
        <time>2023-04-05T04:56:35Z</time>
      </trkpt>
      <trkpt lat="43.61936" lon="1.34312">
        <ele>159.6</ele>
        <time>2023-04-05T04:56:42Z</time>
      </trkpt>
      <trkpt lat="43.61951" lon="1.34329">
        <ele>159.2</ele>
        <time>2023-04-05T04:56:45Z</time>
      </trkpt>
      <trkpt lat="43.61961" lon="1.34339">
        <ele>158.8</ele>
        <time>2023-04-05T04:56:47Z</time>
      </trkpt>
      <trkpt lat="43.61966" lon="1.34343">
        <ele>158.8</ele>
        <time>2023-04-05T04:56:48Z</time>
      </trkpt>
      <trkpt lat="43.61971" lon="1.34348">
        <ele>158.6</ele>
        <time>2023-04-05T04:56:49Z</time>
      </trkpt>
      <trkpt lat="43.61991" lon="1.34368">
        <ele>158.4</ele>
        <time>2023-04-05T04:56:53Z</time>
      </trkpt>
      <trkpt lat="43.62009" lon="1.3439">
        <ele>158</ele>
        <time>2023-04-05T04:56:57Z</time>
      </trkpt>
      <trkpt lat="43.62018" lon="1.34402">
        <ele>158</ele>
        <time>2023-04-05T04:56:59Z</time>
      </trkpt>
      <trkpt lat="43.62026" lon="1.34415">
        <ele>157.8</ele>
        <time>2023-04-05T04:57:01Z</time>
      </trkpt>
      <trkpt lat="43.6203" lon="1.34429">
        <ele>157.6</ele>
        <time>2023-04-05T04:57:03Z</time>
      </trkpt>
      <trkpt lat="43.62028" lon="1.34443">
        <ele>157.2</ele>
        <time>2023-04-05T04:57:05Z</time>
      </trkpt>
      <trkpt lat="43.62026" lon="1.34449">
        <ele>157.2</ele>
        <time>2023-04-05T04:57:06Z</time>
      </trkpt>
      <trkpt lat="43.62023" lon="1.34457">
        <ele>157</ele>
        <time>2023-04-05T04:57:08Z</time>
      </trkpt>
      <trkpt lat="43.62024" lon="1.34461">
        <ele>157</ele>
        <time>2023-04-05T04:57:09Z</time>
      </trkpt>
      <trkpt lat="43.62032" lon="1.3446">
        <ele>156.8</ele>
        <time>2023-04-05T04:57:12Z</time>
      </trkpt>
      <trkpt lat="43.62051" lon="1.34454">
        <ele>156.6</ele>
        <time>2023-04-05T04:57:17Z</time>
      </trkpt>
      <trkpt lat="43.6206" lon="1.34454">
        <ele>156.4</ele>
        <time>2023-04-05T04:57:19Z</time>
      </trkpt>
      <trkpt lat="43.6207" lon="1.34458">
        <ele>156.4</ele>
        <time>2023-04-05T04:57:21Z</time>
      </trkpt>
      <trkpt lat="43.62093" lon="1.34481">
        <ele>156.4</ele>
        <time>2023-04-05T04:57:26Z</time>
      </trkpt>
      <trkpt lat="43.62128" lon="1.34517">
        <ele>156.4</ele>
        <time>2023-04-05T04:57:33Z</time>
      </trkpt>
      <trkpt lat="43.62166" lon="1.3455">
        <ele>156</ele>
        <time>2023-04-05T04:57:40Z</time>
      </trkpt>
      <trkpt lat="43.62171" lon="1.34555">
        <ele>156</ele>
        <time>2023-04-05T04:57:41Z</time>
      </trkpt>
      <trkpt lat="43.62182" lon="1.34564">
        <ele>156</ele>
        <time>2023-04-05T04:57:43Z</time>
      </trkpt>
      <trkpt lat="43.62217" lon="1.34589">
        <ele>155.8</ele>
        <time>2023-04-05T04:57:49Z</time>
      </trkpt>
      <trkpt lat="43.6227" lon="1.34622">
        <ele>155.6</ele>
        <time>2023-04-05T04:57:58Z</time>
      </trkpt>
      <trkpt lat="43.62326" lon="1.34648">
        <ele>155.2</ele>
        <time>2023-04-05T04:58:07Z</time>
      </trkpt>
      <trkpt lat="43.62332" lon="1.3465">
        <ele>155.2</ele>
        <time>2023-04-05T04:58:08Z</time>
      </trkpt>
      <trkpt lat="43.62364" lon="1.34666">
        <ele>155.2</ele>
        <time>2023-04-05T04:58:14Z</time>
      </trkpt>
      <trkpt lat="43.62368" lon="1.3467">
        <ele>155.2</ele>
        <time>2023-04-05T04:58:15Z</time>
      </trkpt>
      <trkpt lat="43.62372" lon="1.34676">
        <ele>155.2</ele>
        <time>2023-04-05T04:58:16Z</time>
      </trkpt>
      <trkpt lat="43.62383" lon="1.34692">
        <ele>155.2</ele>
        <time>2023-04-05T04:58:19Z</time>
      </trkpt>
      <trkpt lat="43.62389" lon="1.34695">
        <ele>155</ele>
        <time>2023-04-05T04:58:20Z</time>
      </trkpt>
      <trkpt lat="43.62395" lon="1.34695">
        <ele>155</ele>
        <time>2023-04-05T04:58:21Z</time>
      </trkpt>
      <trkpt lat="43.62405" lon="1.34689">
        <ele>155</ele>
        <time>2023-04-05T04:58:23Z</time>
      </trkpt>
      <trkpt lat="43.62411" lon="1.34686">
        <ele>155</ele>
        <time>2023-04-05T04:58:24Z</time>
      </trkpt>
      <trkpt lat="43.62435" lon="1.34683">
        <ele>155</ele>
        <time>2023-04-05T04:58:28Z</time>
      </trkpt>
      <trkpt lat="43.62476" lon="1.34685">
        <ele>154.6</ele>
        <time>2023-04-05T04:58:35Z</time>
      </trkpt>
      <trkpt lat="43.62487" lon="1.34687">
        <ele>154.6</ele>
        <time>2023-04-05T04:58:37Z</time>
      </trkpt>
      <trkpt lat="43.62496" lon="1.34695">
        <ele>154.6</ele>
        <time>2023-04-05T04:58:39Z</time>
      </trkpt>
      <trkpt lat="43.62501" lon="1.34707">
        <ele>154.6</ele>
        <time>2023-04-05T04:58:41Z</time>
      </trkpt>
      <trkpt lat="43.62505" lon="1.3472">
        <ele>154.4</ele>
        <time>2023-04-05T04:58:43Z</time>
      </trkpt>
      <trkpt lat="43.62508" lon="1.34737">
        <ele>154.4</ele>
        <time>2023-04-05T04:58:47Z</time>
      </trkpt>
      <trkpt lat="43.62509" lon="1.34741">
        <ele>154.2</ele>
        <time>2023-04-05T04:58:51Z</time>
      </trkpt>
      <trkpt lat="43.62509" lon="1.34741">
        <ele>154.2</ele>
        <time>2023-04-05T04:58:52Z</time>
      </trkpt>
      <trkpt lat="43.62509" lon="1.34745">
        <ele>153.8</ele>
        <time>2023-04-05T04:59:05Z</time>
      </trkpt>
      <trkpt lat="43.6251" lon="1.3475">
        <ele>153.6</ele>
        <time>2023-04-05T04:59:07Z</time>
      </trkpt>
      <trkpt lat="43.6251" lon="1.34752">
        <ele>153.6</ele>
        <time>2023-04-05T04:59:08Z</time>
      </trkpt>
      <trkpt lat="43.62509" lon="1.34758">
        <ele>153.6</ele>
        <time>2023-04-05T04:59:10Z</time>
      </trkpt>
      <trkpt lat="43.62505" lon="1.34765">
        <ele>153.6</ele>
        <time>2023-04-05T04:59:12Z</time>
      </trkpt>
      <trkpt lat="43.62486" lon="1.34769">
        <ele>153.6</ele>
        <time>2023-04-05T04:59:17Z</time>
      </trkpt>
      <trkpt lat="43.62471" lon="1.34775">
        <ele>153.6</ele>
        <time>2023-04-05T04:59:21Z</time>
      </trkpt>
      <trkpt lat="43.62437" lon="1.34776">
        <ele>154</ele>
        <time>2023-04-05T04:59:27Z</time>
      </trkpt>
      <trkpt lat="43.62431" lon="1.34776">
        <ele>154.2</ele>
        <time>2023-04-05T04:59:28Z</time>
      </trkpt>
      <trkpt lat="43.62393" lon="1.34775">
        <ele>154.6</ele>
        <time>2023-04-05T04:59:34Z</time>
      </trkpt>
      <trkpt lat="43.62387" lon="1.34775">
        <ele>154.8</ele>
        <time>2023-04-05T04:59:35Z</time>
      </trkpt>
      <trkpt lat="43.62382" lon="1.34775">
        <ele>154.8</ele>
        <time>2023-04-05T04:59:36Z</time>
      </trkpt>
      <trkpt lat="43.62346" lon="1.34779">
        <ele>155.2</ele>
        <time>2023-04-05T04:59:43Z</time>
      </trkpt>
      <trkpt lat="43.6234" lon="1.34781">
        <ele>155.2</ele>
        <time>2023-04-05T04:59:44Z</time>
      </trkpt>
      <trkpt lat="43.62335" lon="1.34784">
        <ele>155.2</ele>
        <time>2023-04-05T04:59:45Z</time>
      </trkpt>
      <trkpt lat="43.62316" lon="1.348">
        <ele>155.2</ele>
        <time>2023-04-05T04:59:49Z</time>
      </trkpt>
      <trkpt lat="43.62273" lon="1.34844">
        <ele>154.6</ele>
        <time>2023-04-05T04:59:58Z</time>
      </trkpt>
      <trkpt lat="43.62258" lon="1.34863">
        <ele>154</ele>
        <time>2023-04-05T05:00:02Z</time>
      </trkpt>
      <trkpt lat="43.62255" lon="1.34872">
        <ele>154</ele>
        <time>2023-04-05T05:00:04Z</time>
      </trkpt>
      <trkpt lat="43.62255" lon="1.34886">
        <ele>153.4</ele>
        <time>2023-04-05T05:00:07Z</time>
      </trkpt>
      <trkpt lat="43.62255" lon="1.34898">
        <ele>153.4</ele>
        <time>2023-04-05T05:00:09Z</time>
      </trkpt>
      <trkpt lat="43.62256" lon="1.3494">
        <ele>152.8</ele>
        <time>2023-04-05T05:00:15Z</time>
      </trkpt>
      <trkpt lat="43.62259" lon="1.34994">
        <ele>152.4</ele>
        <time>2023-04-05T05:00:22Z</time>
      </trkpt>
      <trkpt lat="43.62259" lon="1.35001">
        <ele>152.4</ele>
        <time>2023-04-05T05:00:23Z</time>
      </trkpt>
      <trkpt lat="43.62263" lon="1.35078">
        <ele>152.4</ele>
        <time>2023-04-05T05:00:33Z</time>
      </trkpt>
      <trkpt lat="43.62265" lon="1.35133">
        <ele>152.6</ele>
        <time>2023-04-05T05:00:41Z</time>
      </trkpt>
      <trkpt lat="43.62267" lon="1.35148">
        <ele>152.4</ele>
        <time>2023-04-05T05:00:44Z</time>
      </trkpt>
      <trkpt lat="43.62269" lon="1.3515">
        <ele>152.4</ele>
        <time>2023-04-05T05:00:45Z</time>
      </trkpt>
      <trkpt lat="43.62271" lon="1.35149">
        <ele>152.4</ele>
        <time>2023-04-05T05:00:48Z</time>
      </trkpt>
      <trkpt lat="43.6227" lon="1.3515">
        <ele>152.2</ele>
        <time>2023-04-05T05:00:54Z</time>
      </trkpt>
      <trkpt lat="43.6227" lon="1.3515">
        <ele>152.2</ele>
        <time>2023-04-05T05:00:55Z</time>
      </trkpt>
      <trkpt lat="43.62269" lon="1.35157">
        <ele>151.2</ele>
        <time>2023-04-05T05:08:45Z</time>
      </trkpt>
      <trkpt lat="43.62268" lon="1.35164">
        <ele>151.8</ele>
        <time>2023-04-05T05:08:47Z</time>
      </trkpt>
      <trkpt lat="43.62267" lon="1.35194">
        <ele>152</ele>
        <time>2023-04-05T05:08:54Z</time>
      </trkpt>
      <trkpt lat="43.62274" lon="1.35221">
        <ele>152.4</ele>
        <time>2023-04-05T05:09:00Z</time>
      </trkpt>
      <trkpt lat="43.62281" lon="1.35228">
        <ele>152.4</ele>
        <time>2023-04-05T05:09:03Z</time>
      </trkpt>
      <trkpt lat="43.62281" lon="1.3523">
        <ele>152.4</ele>
        <time>2023-04-05T05:09:04Z</time>
      </trkpt>
      <trkpt lat="43.62281" lon="1.35234">
        <ele>152.4</ele>
        <time>2023-04-05T05:09:06Z</time>
      </trkpt>
      <trkpt lat="43.62282" lon="1.35235">
        <ele>152.4</ele>
        <time>2023-04-05T05:09:07Z</time>
      </trkpt>
      <trkpt lat="43.62282" lon="1.35242">
        <ele>152</ele>
        <time>2023-04-05T05:09:12Z</time>
      </trkpt>
      <trkpt lat="43.62281" lon="1.35249">
        <ele>152.6</ele>
        <time>2023-04-05T05:09:18Z</time>
      </trkpt>
      <trkpt lat="43.62281" lon="1.35249">
        <ele>152.6</ele>
        <time>2023-04-05T05:09:19Z</time>
      </trkpt>
      <trkpt lat="43.62272" lon="1.35256">
        <ele>166.6</ele>
        <time>2023-04-05T14:49:59Z</time>
      </trkpt>
      <trkpt lat="43.62269" lon="1.35251">
        <ele>166.4</ele>
        <time>2023-04-05T14:50:00Z</time>
      </trkpt>
      <trkpt lat="43.62266" lon="1.35236">
        <ele>166.2</ele>
        <time>2023-04-05T14:50:02Z</time>
      </trkpt>
      <trkpt lat="43.62278" lon="1.35232">
        <ele>165.8</ele>
        <time>2023-04-05T14:50:04Z</time>
      </trkpt>
      <trkpt lat="43.62278" lon="1.3523">
        <ele>166</ele>
        <time>2023-04-05T14:50:05Z</time>
      </trkpt>
      <trkpt lat="43.62273" lon="1.35221">
        <ele>166</ele>
        <time>2023-04-05T14:50:09Z</time>
      </trkpt>
      <trkpt lat="43.62272" lon="1.35218">
        <ele>166.2</ele>
        <time>2023-04-05T14:50:10Z</time>
      </trkpt>
      <trkpt lat="43.62272" lon="1.35192">
        <ele>166</ele>
        <time>2023-04-05T14:50:15Z</time>
      </trkpt>
      <trkpt lat="43.62279" lon="1.3516">
        <ele>166.2</ele>
        <time>2023-04-05T14:50:21Z</time>
      </trkpt>
      <trkpt lat="43.6228" lon="1.35159">
        <ele>166.2</ele>
        <time>2023-04-05T14:50:22Z</time>
      </trkpt>
      <trkpt lat="43.6228" lon="1.3516">
        <ele>166.2</ele>
        <time>2023-04-05T14:50:24Z</time>
      </trkpt>
      <trkpt lat="43.62279" lon="1.3516">
        <ele>166.2</ele>
        <time>2023-04-05T14:50:25Z</time>
      </trkpt>
      <trkpt lat="43.62269" lon="1.35154">
        <ele>165.6</ele>
        <time>2023-04-05T14:57:13Z</time>
      </trkpt>
      <trkpt lat="43.62267" lon="1.3516">
        <ele>165.8</ele>
        <time>2023-04-05T14:57:16Z</time>
      </trkpt>
      <trkpt lat="43.62259" lon="1.35178">
        <ele>166.2</ele>
        <time>2023-04-05T14:57:20Z</time>
      </trkpt>
      <trkpt lat="43.62251" lon="1.35183">
        <ele>166.4</ele>
        <time>2023-04-05T14:57:22Z</time>
      </trkpt>
      <trkpt lat="43.62246" lon="1.35183">
        <ele>166.4</ele>
        <time>2023-04-05T14:57:23Z</time>
      </trkpt>
      <trkpt lat="43.62241" lon="1.35181">
        <ele>166.4</ele>
        <time>2023-04-05T14:57:24Z</time>
      </trkpt>
      <trkpt lat="43.62228" lon="1.35171">
        <ele>166.6</ele>
        <time>2023-04-05T14:57:27Z</time>
      </trkpt>
      <trkpt lat="43.6222" lon="1.35163">
        <ele>166.8</ele>
        <time>2023-04-05T14:57:29Z</time>
      </trkpt>
      <trkpt lat="43.6221" lon="1.35158">
        <ele>167</ele>
        <time>2023-04-05T14:57:31Z</time>
      </trkpt>
      <trkpt lat="43.62205" lon="1.35158">
        <ele>167.4</ele>
        <time>2023-04-05T14:57:32Z</time>
      </trkpt>
      <trkpt lat="43.622" lon="1.35159">
        <ele>167.6</ele>
        <time>2023-04-05T14:57:33Z</time>
      </trkpt>
      <trkpt lat="43.6219" lon="1.35163">
        <ele>168</ele>
        <time>2023-04-05T14:57:35Z</time>
      </trkpt>
      <trkpt lat="43.62171" lon="1.35174">
        <ele>168.4</ele>
        <time>2023-04-05T14:57:39Z</time>
      </trkpt>
      <trkpt lat="43.62162" lon="1.35174">
        <ele>168.6</ele>
        <time>2023-04-05T14:57:41Z</time>
      </trkpt>
      <trkpt lat="43.62156" lon="1.35163">
        <ele>168.8</ele>
        <time>2023-04-05T14:57:43Z</time>
      </trkpt>
      <trkpt lat="43.62135" lon="1.35095">
        <ele>169.4</ele>
        <time>2023-04-05T14:57:53Z</time>
      </trkpt>
      <trkpt lat="43.62133" lon="1.35086">
        <ele>169.4</ele>
        <time>2023-04-05T14:57:56Z</time>
      </trkpt>
      <trkpt lat="43.62133" lon="1.35081">
        <ele>169.6</ele>
        <time>2023-04-05T14:57:58Z</time>
      </trkpt>
      <trkpt lat="43.62129" lon="1.35069">
        <ele>169.6</ele>
        <time>2023-04-05T14:58:01Z</time>
      </trkpt>
      <trkpt lat="43.62126" lon="1.35066">
        <ele>169.6</ele>
        <time>2023-04-05T14:58:02Z</time>
      </trkpt>
      <trkpt lat="43.62117" lon="1.35064">
        <ele>169.6</ele>
        <time>2023-04-05T14:58:04Z</time>
      </trkpt>
      <trkpt lat="43.62101" lon="1.35067">
        <ele>169.6</ele>
        <time>2023-04-05T14:58:07Z</time>
      </trkpt>
      <trkpt lat="43.62096" lon="1.35067">
        <ele>169.6</ele>
        <time>2023-04-05T14:58:08Z</time>
      </trkpt>
      <trkpt lat="43.62081" lon="1.35064">
        <ele>169.6</ele>
        <time>2023-04-05T14:58:11Z</time>
      </trkpt>
      <trkpt lat="43.62069" lon="1.3506">
        <ele>169.6</ele>
        <time>2023-04-05T14:58:13Z</time>
      </trkpt>
      <trkpt lat="43.6204" lon="1.35048">
        <ele>169.6</ele>
        <time>2023-04-05T14:58:18Z</time>
      </trkpt>
      <trkpt lat="43.62029" lon="1.35049">
        <ele>169.6</ele>
        <time>2023-04-05T14:58:20Z</time>
      </trkpt>
      <trkpt lat="43.61986" lon="1.35066">
        <ele>170</ele>
        <time>2023-04-05T14:58:27Z</time>
      </trkpt>
      <trkpt lat="43.61974" lon="1.35063">
        <ele>170</ele>
        <time>2023-04-05T14:58:29Z</time>
      </trkpt>
      <trkpt lat="43.61963" lon="1.35062">
        <ele>170</ele>
        <time>2023-04-05T14:58:31Z</time>
      </trkpt>
      <trkpt lat="43.61957" lon="1.35062">
        <ele>170.2</ele>
        <time>2023-04-05T14:58:32Z</time>
      </trkpt>
      <trkpt lat="43.6194" lon="1.35056">
        <ele>170.4</ele>
        <time>2023-04-05T14:58:35Z</time>
      </trkpt>
      <trkpt lat="43.61923" lon="1.35046">
        <ele>170.6</ele>
        <time>2023-04-05T14:58:38Z</time>
      </trkpt>
      <trkpt lat="43.61907" lon="1.35038">
        <ele>170.8</ele>
        <time>2023-04-05T14:58:41Z</time>
      </trkpt>
      <trkpt lat="43.61864" lon="1.35023">
        <ele>171</ele>
        <time>2023-04-05T14:58:48Z</time>
      </trkpt>
      <trkpt lat="43.6183" lon="1.35013">
        <ele>171.2</ele>
        <time>2023-04-05T14:58:53Z</time>
      </trkpt>
      <trkpt lat="43.618" lon="1.35003">
        <ele>171.6</ele>
        <time>2023-04-05T14:58:58Z</time>
      </trkpt>
      <trkpt lat="43.61793" lon="1.35002">
        <ele>171.6</ele>
        <time>2023-04-05T14:58:59Z</time>
      </trkpt>
      <trkpt lat="43.61787" lon="1.35002">
        <ele>171.6</ele>
        <time>2023-04-05T14:59:00Z</time>
      </trkpt>
      <trkpt lat="43.61779" lon="1.35009">
        <ele>171.6</ele>
        <time>2023-04-05T14:59:02Z</time>
      </trkpt>
      <trkpt lat="43.61773" lon="1.35023">
        <ele>171.6</ele>
        <time>2023-04-05T14:59:04Z</time>
      </trkpt>
      <trkpt lat="43.61768" lon="1.35041">
        <ele>171.2</ele>
        <time>2023-04-05T14:59:06Z</time>
      </trkpt>
      <trkpt lat="43.61761" lon="1.35084">
        <ele>171.4</ele>
        <time>2023-04-05T14:59:11Z</time>
      </trkpt>
      <trkpt lat="43.61759" lon="1.351">
        <ele>171.4</ele>
        <time>2023-04-05T14:59:13Z</time>
      </trkpt>
      <trkpt lat="43.61751" lon="1.35143">
        <ele>171.2</ele>
        <time>2023-04-05T14:59:18Z</time>
      </trkpt>
      <trkpt lat="43.61743" lon="1.35158">
        <ele>171</ele>
        <time>2023-04-05T14:59:20Z</time>
      </trkpt>
      <trkpt lat="43.61733" lon="1.35168">
        <ele>170.8</ele>
        <time>2023-04-05T14:59:22Z</time>
      </trkpt>
      <trkpt lat="43.61727" lon="1.3517">
        <ele>170.8</ele>
        <time>2023-04-05T14:59:23Z</time>
      </trkpt>
      <trkpt lat="43.6172" lon="1.3517">
        <ele>170.8</ele>
        <time>2023-04-05T14:59:24Z</time>
      </trkpt>
      <trkpt lat="43.61693" lon="1.35167">
        <ele>170.4</ele>
        <time>2023-04-05T14:59:28Z</time>
      </trkpt>
      <trkpt lat="43.6168" lon="1.35167">
        <ele>170.4</ele>
        <time>2023-04-05T14:59:30Z</time>
      </trkpt>
      <trkpt lat="43.61668" lon="1.35174">
        <ele>170.6</ele>
        <time>2023-04-05T14:59:32Z</time>
      </trkpt>
      <trkpt lat="43.61662" lon="1.35187">
        <ele>170.6</ele>
        <time>2023-04-05T14:59:34Z</time>
      </trkpt>
      <trkpt lat="43.61661" lon="1.35198">
        <ele>170.6</ele>
        <time>2023-04-05T14:59:35Z</time>
      </trkpt>
      <trkpt lat="43.6166" lon="1.35229">
        <ele>170.6</ele>
        <time>2023-04-05T14:59:39Z</time>
      </trkpt>
      <trkpt lat="43.61658" lon="1.35239">
        <ele>170.8</ele>
        <time>2023-04-05T14:59:40Z</time>
      </trkpt>
      <trkpt lat="43.61657" lon="1.35254">
        <ele>170.8</ele>
        <time>2023-04-05T14:59:42Z</time>
      </trkpt>
      <trkpt lat="43.61656" lon="1.35269">
        <ele>170.8</ele>
        <time>2023-04-05T14:59:44Z</time>
      </trkpt>
      <trkpt lat="43.61656" lon="1.35275">
        <ele>170.8</ele>
        <time>2023-04-05T14:59:45Z</time>
      </trkpt>
      <trkpt lat="43.61655" lon="1.3529">
        <ele>170.8</ele>
        <time>2023-04-05T14:59:48Z</time>
      </trkpt>
      <trkpt lat="43.61654" lon="1.35303">
        <ele>170.6</ele>
        <time>2023-04-05T14:59:53Z</time>
      </trkpt>
      <trkpt lat="43.61654" lon="1.35304">
        <ele>170.4</ele>
        <time>2023-04-05T14:59:57Z</time>
      </trkpt>
      <trkpt lat="43.61653" lon="1.35312">
        <ele>169.4</ele>
        <time>2023-04-05T15:00:35Z</time>
      </trkpt>
      <trkpt lat="43.61647" lon="1.35328">
        <ele>169.2</ele>
        <time>2023-04-05T15:00:38Z</time>
      </trkpt>
      <trkpt lat="43.61644" lon="1.35334">
        <ele>169.2</ele>
        <time>2023-04-05T15:00:39Z</time>
      </trkpt>
      <trkpt lat="43.6164" lon="1.3534">
        <ele>169.2</ele>
        <time>2023-04-05T15:00:40Z</time>
      </trkpt>
      <trkpt lat="43.61633" lon="1.35351">
        <ele>169</ele>
        <time>2023-04-05T15:00:42Z</time>
      </trkpt>
      <trkpt lat="43.61629" lon="1.35367">
        <ele>169</ele>
        <time>2023-04-05T15:00:44Z</time>
      </trkpt>
      <trkpt lat="43.61628" lon="1.35375">
        <ele>169</ele>
        <time>2023-04-05T15:00:45Z</time>
      </trkpt>
      <trkpt lat="43.61617" lon="1.35423">
        <ele>169.2</ele>
        <time>2023-04-05T15:00:51Z</time>
      </trkpt>
      <trkpt lat="43.61593" lon="1.35498">
        <ele>169.4</ele>
        <time>2023-04-05T15:01:00Z</time>
      </trkpt>
      <trkpt lat="43.61577" lon="1.35561">
        <ele>169.4</ele>
        <time>2023-04-05T15:01:07Z</time>
      </trkpt>
      <trkpt lat="43.61553" lon="1.35619">
        <ele>169.4</ele>
        <time>2023-04-05T15:01:14Z</time>
      </trkpt>
      <trkpt lat="43.6152" lon="1.35665">
        <ele>169.2</ele>
        <time>2023-04-05T15:01:21Z</time>
      </trkpt>
      <trkpt lat="43.61499" lon="1.35686">
        <ele>169.2</ele>
        <time>2023-04-05T15:01:25Z</time>
      </trkpt>
      <trkpt lat="43.61487" lon="1.3569">
        <ele>169.2</ele>
        <time>2023-04-05T15:01:27Z</time>
      </trkpt>
      <trkpt lat="43.61474" lon="1.35689">
        <ele>169.2</ele>
        <time>2023-04-05T15:01:29Z</time>
      </trkpt>
      <trkpt lat="43.61469" lon="1.35693">
        <ele>169.4</ele>
        <time>2023-04-05T15:01:30Z</time>
      </trkpt>
      <trkpt lat="43.61464" lon="1.357">
        <ele>169.6</ele>
        <time>2023-04-05T15:01:31Z</time>
      </trkpt>
      <trkpt lat="43.61459" lon="1.35716">
        <ele>169.6</ele>
        <time>2023-04-05T15:01:33Z</time>
      </trkpt>
      <trkpt lat="43.61451" lon="1.35729">
        <ele>169.8</ele>
        <time>2023-04-05T15:01:35Z</time>
      </trkpt>
      <trkpt lat="43.61445" lon="1.35734">
        <ele>169.8</ele>
        <time>2023-04-05T15:01:36Z</time>
      </trkpt>
      <trkpt lat="43.61439" lon="1.35737">
        <ele>169.8</ele>
        <time>2023-04-05T15:01:37Z</time>
      </trkpt>
      <trkpt lat="43.61426" lon="1.35739">
        <ele>169.6</ele>
        <time>2023-04-05T15:01:39Z</time>
      </trkpt>
      <trkpt lat="43.61394" lon="1.35736">
        <ele>169.6</ele>
        <time>2023-04-05T15:01:44Z</time>
      </trkpt>
      <trkpt lat="43.61383" lon="1.35729">
        <ele>169.6</ele>
        <time>2023-04-05T15:01:46Z</time>
      </trkpt>
      <trkpt lat="43.61376" lon="1.35715">
        <ele>169.6</ele>
        <time>2023-04-05T15:01:48Z</time>
      </trkpt>
      <trkpt lat="43.61374" lon="1.35706">
        <ele>169.6</ele>
        <time>2023-04-05T15:01:49Z</time>
      </trkpt>
      <trkpt lat="43.61358" lon="1.35629">
        <ele>169.6</ele>
        <time>2023-04-05T15:01:58Z</time>
      </trkpt>
      <trkpt lat="43.61354" lon="1.35622">
        <ele>169.6</ele>
        <time>2023-04-05T15:01:59Z</time>
      </trkpt>
      <trkpt lat="43.61349" lon="1.35616">
        <ele>169.6</ele>
        <time>2023-04-05T15:02:00Z</time>
      </trkpt>
      <trkpt lat="43.61337" lon="1.35611">
        <ele>169.8</ele>
        <time>2023-04-05T15:02:02Z</time>
      </trkpt>
      <trkpt lat="43.61296" lon="1.3561">
        <ele>170.2</ele>
        <time>2023-04-05T15:02:08Z</time>
      </trkpt>
      <trkpt lat="43.61289" lon="1.35612">
        <ele>170.2</ele>
        <time>2023-04-05T15:02:09Z</time>
      </trkpt>
      <trkpt lat="43.61258" lon="1.35621">
        <ele>170.2</ele>
        <time>2023-04-05T15:02:14Z</time>
      </trkpt>
      <trkpt lat="43.61213" lon="1.35618">
        <ele>170.4</ele>
        <time>2023-04-05T15:02:21Z</time>
      </trkpt>
      <trkpt lat="43.61187" lon="1.35616">
        <ele>170.4</ele>
        <time>2023-04-05T15:02:25Z</time>
      </trkpt>
      <trkpt lat="43.61181" lon="1.35616">
        <ele>170.4</ele>
        <time>2023-04-05T15:02:26Z</time>
      </trkpt>
      <trkpt lat="43.61122" lon="1.35612">
        <ele>170.2</ele>
        <time>2023-04-05T15:02:35Z</time>
      </trkpt>
      <trkpt lat="43.61066" lon="1.35608">
        <ele>170</ele>
        <time>2023-04-05T15:02:43Z</time>
      </trkpt>
      <trkpt lat="43.61045" lon="1.35606">
        <ele>170</ele>
        <time>2023-04-05T15:02:46Z</time>
      </trkpt>
      <trkpt lat="43.61002" lon="1.35604">
        <ele>170.2</ele>
        <time>2023-04-05T15:02:52Z</time>
      </trkpt>
      <trkpt lat="43.6099" lon="1.35611">
        <ele>170.4</ele>
        <time>2023-04-05T15:02:54Z</time>
      </trkpt>
      <trkpt lat="43.60984" lon="1.35626">
        <ele>170.4</ele>
        <time>2023-04-05T15:02:56Z</time>
      </trkpt>
      <trkpt lat="43.60983" lon="1.35636">
        <ele>170.4</ele>
        <time>2023-04-05T15:02:57Z</time>
      </trkpt>
      <trkpt lat="43.60982" lon="1.35674">
        <ele>170.4</ele>
        <time>2023-04-05T15:03:01Z</time>
      </trkpt>
      <trkpt lat="43.6098" lon="1.35724">
        <ele>170.6</ele>
        <time>2023-04-05T15:03:06Z</time>
      </trkpt>
      <trkpt lat="43.60978" lon="1.35798">
        <ele>170.6</ele>
        <time>2023-04-05T15:03:14Z</time>
      </trkpt>
      <trkpt lat="43.60978" lon="1.35808">
        <ele>170.4</ele>
        <time>2023-04-05T15:03:15Z</time>
      </trkpt>
      <trkpt lat="43.60975" lon="1.35889">
        <ele>170.4</ele>
        <time>2023-04-05T15:03:23Z</time>
      </trkpt>
      <trkpt lat="43.60974" lon="1.3591">
        <ele>170.6</ele>
        <time>2023-04-05T15:03:25Z</time>
      </trkpt>
      <trkpt lat="43.60971" lon="1.35992">
        <ele>170.8</ele>
        <time>2023-04-05T15:03:33Z</time>
      </trkpt>
      <trkpt lat="43.60968" lon="1.36034">
        <ele>170.8</ele>
        <time>2023-04-05T15:03:37Z</time>
      </trkpt>
      <trkpt lat="43.60966" lon="1.36079">
        <ele>170.8</ele>
        <time>2023-04-05T15:03:42Z</time>
      </trkpt>
      <trkpt lat="43.60966" lon="1.36089">
        <ele>170.8</ele>
        <time>2023-04-05T15:03:43Z</time>
      </trkpt>
      <trkpt lat="43.60967" lon="1.36096">
        <ele>170.8</ele>
        <time>2023-04-05T15:03:44Z</time>
      </trkpt>
      <trkpt lat="43.60974" lon="1.36112">
        <ele>170.8</ele>
        <time>2023-04-05T15:03:46Z</time>
      </trkpt>
      <trkpt lat="43.60987" lon="1.3612">
        <ele>170.8</ele>
        <time>2023-04-05T15:03:48Z</time>
      </trkpt>
      <trkpt lat="43.60992" lon="1.36121">
        <ele>170.8</ele>
        <time>2023-04-05T15:03:49Z</time>
      </trkpt>
      <trkpt lat="43.60998" lon="1.36118">
        <ele>170.8</ele>
        <time>2023-04-05T15:03:50Z</time>
      </trkpt>
      <trkpt lat="43.61005" lon="1.36113">
        <ele>170.8</ele>
        <time>2023-04-05T15:03:51Z</time>
      </trkpt>
      <trkpt lat="43.61011" lon="1.36108">
        <ele>170.8</ele>
        <time>2023-04-05T15:03:52Z</time>
      </trkpt>
      <trkpt lat="43.61023" lon="1.36105">
        <ele>170.8</ele>
        <time>2023-04-05T15:03:54Z</time>
      </trkpt>
      <trkpt lat="43.61078" lon="1.36106">
        <ele>170.8</ele>
        <time>2023-04-05T15:04:02Z</time>
      </trkpt>
      <trkpt lat="43.61092" lon="1.36107">
        <ele>170.6</ele>
        <time>2023-04-05T15:04:04Z</time>
      </trkpt>
      <trkpt lat="43.61151" lon="1.3611">
        <ele>170.2</ele>
        <time>2023-04-05T15:04:13Z</time>
      </trkpt>
      <trkpt lat="43.61157" lon="1.36113">
        <ele>170.2</ele>
        <time>2023-04-05T15:04:14Z</time>
      </trkpt>
      <trkpt lat="43.61161" lon="1.36118">
        <ele>170.2</ele>
        <time>2023-04-05T15:04:15Z</time>
      </trkpt>
      <trkpt lat="43.61166" lon="1.3613">
        <ele>170.2</ele>
        <time>2023-04-05T15:04:17Z</time>
      </trkpt>
      <trkpt lat="43.61169" lon="1.3614">
        <ele>170.2</ele>
        <time>2023-04-05T15:04:18Z</time>
      </trkpt>
      <trkpt lat="43.61169" lon="1.36157">
        <ele>170.2</ele>
        <time>2023-04-05T15:04:20Z</time>
      </trkpt>
      <trkpt lat="43.61166" lon="1.36172">
        <ele>170.2</ele>
        <time>2023-04-05T15:04:22Z</time>
      </trkpt>
      <trkpt lat="43.61165" lon="1.36193">
        <ele>170.2</ele>
        <time>2023-04-05T15:04:24Z</time>
      </trkpt>
      <trkpt lat="43.61164" lon="1.36212">
        <ele>170.2</ele>
        <time>2023-04-05T15:04:26Z</time>
      </trkpt>
      <trkpt lat="43.6116" lon="1.36291">
        <ele>169.6</ele>
        <time>2023-04-05T15:04:34Z</time>
      </trkpt>
      <trkpt lat="43.61158" lon="1.36349">
        <ele>169.6</ele>
        <time>2023-04-05T15:04:40Z</time>
      </trkpt>
      <trkpt lat="43.61155" lon="1.36408">
        <ele>169.6</ele>
        <time>2023-04-05T15:04:46Z</time>
      </trkpt>
      <trkpt lat="43.61152" lon="1.36488">
        <ele>169.4</ele>
        <time>2023-04-05T15:04:54Z</time>
      </trkpt>
      <trkpt lat="43.61152" lon="1.36495">
        <ele>169.4</ele>
        <time>2023-04-05T15:04:55Z</time>
      </trkpt>
      <trkpt lat="43.61149" lon="1.36543">
        <ele>169.6</ele>
        <time>2023-04-05T15:05:00Z</time>
      </trkpt>
      <trkpt lat="43.61146" lon="1.3655">
        <ele>169.6</ele>
        <time>2023-04-05T15:05:01Z</time>
      </trkpt>
      <trkpt lat="43.61139" lon="1.36564">
        <ele>169.6</ele>
        <time>2023-04-05T15:05:03Z</time>
      </trkpt>
      <trkpt lat="43.61139" lon="1.36573">
        <ele>169.6</ele>
        <time>2023-04-05T15:05:04Z</time>
      </trkpt>
      <trkpt lat="43.61141" lon="1.36582">
        <ele>169.6</ele>
        <time>2023-04-05T15:05:05Z</time>
      </trkpt>
      <trkpt lat="43.61146" lon="1.36599">
        <ele>169.6</ele>
        <time>2023-04-05T15:05:07Z</time>
      </trkpt>
      <trkpt lat="43.61144" lon="1.36636">
        <ele>169.6</ele>
        <time>2023-04-05T15:05:11Z</time>
      </trkpt>
      <trkpt lat="43.61141" lon="1.36716">
        <ele>169.4</ele>
        <time>2023-04-05T15:05:19Z</time>
      </trkpt>
      <trkpt lat="43.6114" lon="1.36726">
        <ele>169.4</ele>
        <time>2023-04-05T15:05:20Z</time>
      </trkpt>
      <trkpt lat="43.61138" lon="1.36797">
        <ele>169.4</ele>
        <time>2023-04-05T15:05:27Z</time>
      </trkpt>
      <trkpt lat="43.61135" lon="1.36842">
        <ele>169.6</ele>
        <time>2023-04-05T15:05:32Z</time>
      </trkpt>
      <trkpt lat="43.6113" lon="1.36856">
        <ele>169.8</ele>
        <time>2023-04-05T15:05:34Z</time>
      </trkpt>
      <trkpt lat="43.61126" lon="1.36869">
        <ele>169.8</ele>
        <time>2023-04-05T15:05:36Z</time>
      </trkpt>
      <trkpt lat="43.61127" lon="1.36881">
        <ele>169.8</ele>
        <time>2023-04-05T15:05:38Z</time>
      </trkpt>
      <trkpt lat="43.61127" lon="1.36906">
        <ele>169.6</ele>
        <time>2023-04-05T15:05:42Z</time>
      </trkpt>
      <trkpt lat="43.61127" lon="1.36912">
        <ele>169.6</ele>
        <time>2023-04-05T15:05:43Z</time>
      </trkpt>
      <trkpt lat="43.61127" lon="1.36918">
        <ele>169.6</ele>
        <time>2023-04-05T15:05:44Z</time>
      </trkpt>
      <trkpt lat="43.61126" lon="1.36945">
        <ele>169.4</ele>
        <time>2023-04-05T15:05:49Z</time>
      </trkpt>
      <trkpt lat="43.61125" lon="1.36975">
        <ele>169.4</ele>
        <time>2023-04-05T15:05:56Z</time>
      </trkpt>
      <trkpt lat="43.61125" lon="1.36976">
        <ele>169.2</ele>
        <time>2023-04-05T15:06:01Z</time>
      </trkpt>
      <trkpt lat="43.61125" lon="1.36983">
        <ele>169</ele>
        <time>2023-04-05T15:06:21Z</time>
      </trkpt>
      <trkpt lat="43.61125" lon="1.36991">
        <ele>169</ele>
        <time>2023-04-05T15:06:23Z</time>
      </trkpt>
      <trkpt lat="43.61125" lon="1.37022">
        <ele>169</ele>
        <time>2023-04-05T15:06:29Z</time>
      </trkpt>
      <trkpt lat="43.61123" lon="1.37032">
        <ele>168.8</ele>
        <time>2023-04-05T15:06:31Z</time>
      </trkpt>
      <trkpt lat="43.61118" lon="1.37052">
        <ele>168.8</ele>
        <time>2023-04-05T15:06:35Z</time>
      </trkpt>
      <trkpt lat="43.61118" lon="1.37058">
        <ele>168.8</ele>
        <time>2023-04-05T15:06:36Z</time>
      </trkpt>
      <trkpt lat="43.61123" lon="1.37077">
        <ele>168.8</ele>
        <time>2023-04-05T15:06:39Z</time>
      </trkpt>
      <trkpt lat="43.61124" lon="1.37085">
        <ele>168.6</ele>
        <time>2023-04-05T15:06:40Z</time>
      </trkpt>
      <trkpt lat="43.61124" lon="1.3711">
        <ele>168.4</ele>
        <time>2023-04-05T15:06:43Z</time>
      </trkpt>
      <trkpt lat="43.61123" lon="1.37129">
        <ele>168.4</ele>
        <time>2023-04-05T15:06:45Z</time>
      </trkpt>
      <trkpt lat="43.61121" lon="1.37176">
        <ele>168</ele>
        <time>2023-04-05T15:06:50Z</time>
      </trkpt>
      <trkpt lat="43.61117" lon="1.37236">
        <ele>168</ele>
        <time>2023-04-05T15:06:57Z</time>
      </trkpt>
      <trkpt lat="43.61121" lon="1.37246">
        <ele>168.4</ele>
        <time>2023-04-05T15:06:59Z</time>
      </trkpt>
      <trkpt lat="43.61129" lon="1.37253">
        <ele>168.4</ele>
        <time>2023-04-05T15:07:01Z</time>
      </trkpt>
      <trkpt lat="43.6113" lon="1.37258">
        <ele>168.4</ele>
        <time>2023-04-05T15:07:02Z</time>
      </trkpt>
      <trkpt lat="43.61124" lon="1.37288">
        <ele>168.4</ele>
        <time>2023-04-05T15:07:06Z</time>
      </trkpt>
      <trkpt lat="43.61123" lon="1.37296">
        <ele>168.4</ele>
        <time>2023-04-05T15:07:07Z</time>
      </trkpt>
      <trkpt lat="43.61119" lon="1.37331">
        <ele>168.2</ele>
        <time>2023-04-05T15:07:11Z</time>
      </trkpt>
      <trkpt lat="43.61111" lon="1.37378">
        <ele>168</ele>
        <time>2023-04-05T15:07:16Z</time>
      </trkpt>
      <trkpt lat="43.61098" lon="1.37436">
        <ele>167.6</ele>
        <time>2023-04-05T15:07:22Z</time>
      </trkpt>
      <trkpt lat="43.61095" lon="1.37444">
        <ele>167.6</ele>
        <time>2023-04-05T15:07:23Z</time>
      </trkpt>
      <trkpt lat="43.61083" lon="1.37465">
        <ele>167.4</ele>
        <time>2023-04-05T15:07:26Z</time>
      </trkpt>
      <trkpt lat="43.6108" lon="1.37471">
        <ele>167.4</ele>
        <time>2023-04-05T15:07:27Z</time>
      </trkpt>
      <trkpt lat="43.61076" lon="1.37486">
        <ele>167.4</ele>
        <time>2023-04-05T15:07:29Z</time>
      </trkpt>
      <trkpt lat="43.61073" lon="1.37505">
        <ele>167.4</ele>
        <time>2023-04-05T15:07:31Z</time>
      </trkpt>
      <trkpt lat="43.61074" lon="1.37522">
        <ele>167.4</ele>
        <time>2023-04-05T15:07:33Z</time>
      </trkpt>
      <trkpt lat="43.61085" lon="1.37559">
        <ele>167.8</ele>
        <time>2023-04-05T15:07:37Z</time>
      </trkpt>
      <trkpt lat="43.61086" lon="1.37565">
        <ele>167.8</ele>
        <time>2023-04-05T15:07:38Z</time>
      </trkpt>
      <trkpt lat="43.61083" lon="1.37579">
        <ele>167.8</ele>
        <time>2023-04-05T15:07:40Z</time>
      </trkpt>
      <trkpt lat="43.61071" lon="1.3759">
        <ele>167.8</ele>
        <time>2023-04-05T15:07:43Z</time>
      </trkpt>
      <trkpt lat="43.61066" lon="1.37596">
        <ele>167.8</ele>
        <time>2023-04-05T15:07:44Z</time>
      </trkpt>
      <trkpt lat="43.61039" lon="1.37623">
        <ele>167.4</ele>
        <time>2023-04-05T15:07:49Z</time>
      </trkpt>
      <trkpt lat="43.61028" lon="1.37644">
        <ele>167.2</ele>
        <time>2023-04-05T15:07:52Z</time>
      </trkpt>
      <trkpt lat="43.61025" lon="1.37653">
        <ele>167.2</ele>
        <time>2023-04-05T15:07:53Z</time>
      </trkpt>
      <trkpt lat="43.61002" lon="1.37718">
        <ele>167</ele>
        <time>2023-04-05T15:08:00Z</time>
      </trkpt>
      <trkpt lat="43.60999" lon="1.37726">
        <ele>167</ele>
        <time>2023-04-05T15:08:01Z</time>
      </trkpt>
      <trkpt lat="43.60985" lon="1.37765">
        <ele>166.6</ele>
        <time>2023-04-05T15:08:05Z</time>
      </trkpt>
      <trkpt lat="43.60981" lon="1.37775">
        <ele>166.4</ele>
        <time>2023-04-05T15:08:06Z</time>
      </trkpt>
      <trkpt lat="43.60962" lon="1.37835">
        <ele>166</ele>
        <time>2023-04-05T15:08:12Z</time>
      </trkpt>
      <trkpt lat="43.60948" lon="1.3788">
        <ele>165.4</ele>
        <time>2023-04-05T15:08:17Z</time>
      </trkpt>
      <trkpt lat="43.60946" lon="1.37888">
        <ele>165.4</ele>
        <time>2023-04-05T15:08:18Z</time>
      </trkpt>
      <trkpt lat="43.60938" lon="1.3792">
        <ele>164.8</ele>
        <time>2023-04-05T15:08:21Z</time>
      </trkpt>
      <trkpt lat="43.60935" lon="1.37931">
        <ele>164.6</ele>
        <time>2023-04-05T15:08:22Z</time>
      </trkpt>
      <trkpt lat="43.60933" lon="1.37939">
        <ele>164.4</ele>
        <time>2023-04-05T15:08:23Z</time>
      </trkpt>
      <trkpt lat="43.60923" lon="1.37973">
        <ele>163.8</ele>
        <time>2023-04-05T15:08:26Z</time>
      </trkpt>
      <trkpt lat="43.6092" lon="1.37982">
        <ele>163.6</ele>
        <time>2023-04-05T15:08:27Z</time>
      </trkpt>
      <trkpt lat="43.60917" lon="1.37989">
        <ele>163.2</ele>
        <time>2023-04-05T15:08:28Z</time>
      </trkpt>
      <trkpt lat="43.60913" lon="1.38">
        <ele>162.8</ele>
        <time>2023-04-05T15:08:30Z</time>
      </trkpt>
      <trkpt lat="43.60906" lon="1.38006">
        <ele>162.2</ele>
        <time>2023-04-05T15:08:33Z</time>
      </trkpt>
      <trkpt lat="43.60903" lon="1.38009">
        <ele>162.2</ele>
        <time>2023-04-05T15:08:34Z</time>
      </trkpt>
      <trkpt lat="43.60899" lon="1.38019">
        <ele>161.8</ele>
        <time>2023-04-05T15:08:36Z</time>
      </trkpt>
      <trkpt lat="43.609" lon="1.38034">
        <ele>161.6</ele>
        <time>2023-04-05T15:08:38Z</time>
      </trkpt>
      <trkpt lat="43.609" lon="1.38042">
        <ele>161.2</ele>
        <time>2023-04-05T15:08:39Z</time>
      </trkpt>
      <trkpt lat="43.60899" lon="1.38051">
        <ele>161.2</ele>
        <time>2023-04-05T15:08:40Z</time>
      </trkpt>
      <trkpt lat="43.60897" lon="1.38068">
        <ele>160.8</ele>
        <time>2023-04-05T15:08:42Z</time>
      </trkpt>
      <trkpt lat="43.6089" lon="1.38089">
        <ele>160.4</ele>
        <time>2023-04-05T15:08:44Z</time>
      </trkpt>
      <trkpt lat="43.60882" lon="1.38106">
        <ele>160</ele>
        <time>2023-04-05T15:08:46Z</time>
      </trkpt>
      <trkpt lat="43.60873" lon="1.38122">
        <ele>159.4</ele>
        <time>2023-04-05T15:08:48Z</time>
      </trkpt>
      <trkpt lat="43.60869" lon="1.38131">
        <ele>159</ele>
        <time>2023-04-05T15:08:49Z</time>
      </trkpt>
      <trkpt lat="43.60864" lon="1.3814">
        <ele>159</ele>
        <time>2023-04-05T15:08:50Z</time>
      </trkpt>
      <trkpt lat="43.60851" lon="1.38169">
        <ele>158.6</ele>
        <time>2023-04-05T15:08:53Z</time>
      </trkpt>
      <trkpt lat="43.60836" lon="1.38196">
        <ele>158</ele>
        <time>2023-04-05T15:08:56Z</time>
      </trkpt>
      <trkpt lat="43.60833" lon="1.38206">
        <ele>157.8</ele>
        <time>2023-04-05T15:08:57Z</time>
      </trkpt>
      <trkpt lat="43.60824" lon="1.38258">
        <ele>157</ele>
        <time>2023-04-05T15:09:02Z</time>
      </trkpt>
      <trkpt lat="43.60823" lon="1.38269">
        <ele>156.8</ele>
        <time>2023-04-05T15:09:03Z</time>
      </trkpt>
      <trkpt lat="43.60822" lon="1.3829">
        <ele>156.2</ele>
        <time>2023-04-05T15:09:05Z</time>
      </trkpt>
      <trkpt lat="43.60824" lon="1.38311">
        <ele>156</ele>
        <time>2023-04-05T15:09:07Z</time>
      </trkpt>
      <trkpt lat="43.60827" lon="1.3833">
        <ele>155.8</ele>
        <time>2023-04-05T15:09:09Z</time>
      </trkpt>
      <trkpt lat="43.60838" lon="1.38404">
        <ele>155</ele>
        <time>2023-04-05T15:09:16Z</time>
      </trkpt>
      <trkpt lat="43.60849" lon="1.38477">
        <ele>156.4</ele>
        <time>2023-04-05T15:09:24Z</time>
      </trkpt>
      <trkpt lat="43.6085" lon="1.38485">
        <ele>156.8</ele>
        <time>2023-04-05T15:09:25Z</time>
      </trkpt>
      <trkpt lat="43.60851" lon="1.38493">
        <ele>156.8</ele>
        <time>2023-04-05T15:09:26Z</time>
      </trkpt>
      <trkpt lat="43.60857" lon="1.3853">
        <ele>157.6</ele>
        <time>2023-04-05T15:09:31Z</time>
      </trkpt>
      <trkpt lat="43.60856" lon="1.38536">
        <ele>157.8</ele>
        <time>2023-04-05T15:09:32Z</time>
      </trkpt>
      <trkpt lat="43.60851" lon="1.38541">
        <ele>158</ele>
        <time>2023-04-05T15:09:35Z</time>
      </trkpt>
      <trkpt lat="43.60841" lon="1.38543">
        <ele>158</ele>
        <time>2023-04-05T15:09:37Z</time>
      </trkpt>
      <trkpt lat="43.60835" lon="1.38543">
        <ele>158</ele>
        <time>2023-04-05T15:09:38Z</time>
      </trkpt>
      <trkpt lat="43.60828" lon="1.38544">
        <ele>157.8</ele>
        <time>2023-04-05T15:09:39Z</time>
      </trkpt>
      <trkpt lat="43.60818" lon="1.3855">
        <ele>157.2</ele>
        <time>2023-04-05T15:09:41Z</time>
      </trkpt>
      <trkpt lat="43.60815" lon="1.38554">
        <ele>157</ele>
        <time>2023-04-05T15:09:42Z</time>
      </trkpt>
      <trkpt lat="43.60811" lon="1.38559">
        <ele>156.8</ele>
        <time>2023-04-05T15:09:43Z</time>
      </trkpt>
      <trkpt lat="43.60808" lon="1.38563">
        <ele>156.8</ele>
        <time>2023-04-05T15:09:44Z</time>
      </trkpt>
      <trkpt lat="43.60797" lon="1.38575">
        <ele>157</ele>
        <time>2023-04-05T15:09:48Z</time>
      </trkpt>
      <trkpt lat="43.60793" lon="1.38585">
        <ele>158.2</ele>
        <time>2023-04-05T15:09:52Z</time>
      </trkpt>
      <trkpt lat="43.60791" lon="1.38587">
        <ele>158.8</ele>
        <time>2023-04-05T15:09:53Z</time>
      </trkpt>
      <trkpt lat="43.60789" lon="1.3859">
        <ele>159.2</ele>
        <time>2023-04-05T15:09:54Z</time>
      </trkpt>
      <trkpt lat="43.60786" lon="1.38595">
        <ele>160.4</ele>
        <time>2023-04-05T15:09:56Z</time>
      </trkpt>
      <trkpt lat="43.60782" lon="1.38601">
        <ele>161.8</ele>
        <time>2023-04-05T15:09:58Z</time>
      </trkpt>
      <trkpt lat="43.60781" lon="1.38607">
        <ele>162.8</ele>
        <time>2023-04-05T15:10:00Z</time>
      </trkpt>
      <trkpt lat="43.60778" lon="1.38613">
        <ele>163.8</ele>
        <time>2023-04-05T15:10:03Z</time>
      </trkpt>
      <trkpt lat="43.60777" lon="1.38615">
        <ele>164</ele>
        <time>2023-04-05T15:10:04Z</time>
      </trkpt>
      <trkpt lat="43.60775" lon="1.38615">
        <ele>164.2</ele>
        <time>2023-04-05T15:10:05Z</time>
      </trkpt>
      <trkpt lat="43.60771" lon="1.38613">
        <ele>165</ele>
        <time>2023-04-05T15:10:07Z</time>
      </trkpt>
      <trkpt lat="43.60758" lon="1.38608">
        <ele>165.6</ele>
        <time>2023-04-05T15:10:11Z</time>
      </trkpt>
      <trkpt lat="43.60751" lon="1.38606">
        <ele>166</ele>
        <time>2023-04-05T15:10:13Z</time>
      </trkpt>
      <trkpt lat="43.60726" lon="1.38603">
        <ele>166.4</ele>
        <time>2023-04-05T15:10:19Z</time>
      </trkpt>
      <trkpt lat="43.60699" lon="1.38608">
        <ele>167</ele>
        <time>2023-04-05T15:10:25Z</time>
      </trkpt>
      <trkpt lat="43.60695" lon="1.38609">
        <ele>167</ele>
        <time>2023-04-05T15:10:26Z</time>
      </trkpt>
      <trkpt lat="43.6069" lon="1.38608">
        <ele>167.2</ele>
        <time>2023-04-05T15:10:27Z</time>
      </trkpt>
      <trkpt lat="43.60652" lon="1.38601">
        <ele>167.8</ele>
        <time>2023-04-05T15:10:35Z</time>
      </trkpt>
      <trkpt lat="43.60643" lon="1.38595">
        <ele>167.8</ele>
        <time>2023-04-05T15:10:37Z</time>
      </trkpt>
      <trkpt lat="43.60636" lon="1.38585">
        <ele>167.8</ele>
        <time>2023-04-05T15:10:39Z</time>
      </trkpt>
      <trkpt lat="43.60631" lon="1.38573">
        <ele>167.8</ele>
        <time>2023-04-05T15:10:41Z</time>
      </trkpt>
      <trkpt lat="43.60627" lon="1.38561">
        <ele>167.8</ele>
        <time>2023-04-05T15:10:43Z</time>
      </trkpt>
      <trkpt lat="43.60625" lon="1.38555">
        <ele>167.8</ele>
        <time>2023-04-05T15:10:44Z</time>
      </trkpt>
      <trkpt lat="43.60621" lon="1.38535">
        <ele>168</ele>
        <time>2023-04-05T15:10:48Z</time>
      </trkpt>
      <trkpt lat="43.60619" lon="1.38525">
        <ele>168</ele>
        <time>2023-04-05T15:10:50Z</time>
      </trkpt>
      <trkpt lat="43.60619" lon="1.38512">
        <ele>167.8</ele>
        <time>2023-04-05T15:10:53Z</time>
      </trkpt>
      <trkpt lat="43.60621" lon="1.38506">
        <ele>167.4</ele>
        <time>2023-04-05T15:10:54Z</time>
      </trkpt>
      <trkpt lat="43.60626" lon="1.3849">
        <ele>166.8</ele>
        <time>2023-04-05T15:10:56Z</time>
      </trkpt>
      <trkpt lat="43.6063" lon="1.3847">
        <ele>165.6</ele>
        <time>2023-04-05T15:10:58Z</time>
      </trkpt>
      <trkpt lat="43.60631" lon="1.38457">
        <ele>164.8</ele>
        <time>2023-04-05T15:10:59Z</time>
      </trkpt>
      <trkpt lat="43.60634" lon="1.38435">
        <ele>164</ele>
        <time>2023-04-05T15:11:01Z</time>
      </trkpt>
      <trkpt lat="43.60639" lon="1.38415">
        <ele>163.2</ele>
        <time>2023-04-05T15:11:03Z</time>
      </trkpt>
      <trkpt lat="43.60642" lon="1.38402">
        <ele>163</ele>
        <time>2023-04-05T15:11:04Z</time>
      </trkpt>
      <trkpt lat="43.6065" lon="1.38367">
        <ele>161.8</ele>
        <time>2023-04-05T15:11:07Z</time>
      </trkpt>
      <trkpt lat="43.60657" lon="1.38346">
        <ele>161</ele>
        <time>2023-04-05T15:11:09Z</time>
      </trkpt>
      <trkpt lat="43.6066" lon="1.38336">
        <ele>159.8</ele>
        <time>2023-04-05T15:11:10Z</time>
      </trkpt>
      <trkpt lat="43.60665" lon="1.38319">
        <ele>158.8</ele>
        <time>2023-04-05T15:11:12Z</time>
      </trkpt>
      <trkpt lat="43.60665" lon="1.38313">
        <ele>158.2</ele>
        <time>2023-04-05T15:11:13Z</time>
      </trkpt>
      <trkpt lat="43.60669" lon="1.38303">
        <ele>157.8</ele>
        <time>2023-04-05T15:11:15Z</time>
      </trkpt>
      <trkpt lat="43.60672" lon="1.383">
        <ele>157.6</ele>
        <time>2023-04-05T15:11:16Z</time>
      </trkpt>
      <trkpt lat="43.60683" lon="1.38281">
        <ele>157.2</ele>
        <time>2023-04-05T15:11:19Z</time>
      </trkpt>
      <trkpt lat="43.60687" lon="1.38272">
        <ele>157</ele>
        <time>2023-04-05T15:11:20Z</time>
      </trkpt>
      <trkpt lat="43.6069" lon="1.38264">
        <ele>156.6</ele>
        <time>2023-04-05T15:11:21Z</time>
      </trkpt>
      <trkpt lat="43.60703" lon="1.38239">
        <ele>155.4</ele>
        <time>2023-04-05T15:11:24Z</time>
      </trkpt>
      <trkpt lat="43.60712" lon="1.38224">
        <ele>155.2</ele>
        <time>2023-04-05T15:11:26Z</time>
      </trkpt>
      <trkpt lat="43.60721" lon="1.38208">
        <ele>154.8</ele>
        <time>2023-04-05T15:11:28Z</time>
      </trkpt>
      <trkpt lat="43.60749" lon="1.38166">
        <ele>154.8</ele>
        <time>2023-04-05T15:11:34Z</time>
      </trkpt>
      <trkpt lat="43.60753" lon="1.38162">
        <ele>154.8</ele>
        <time>2023-04-05T15:11:35Z</time>
      </trkpt>
      <trkpt lat="43.60763" lon="1.38151">
        <ele>154.8</ele>
        <time>2023-04-05T15:11:37Z</time>
      </trkpt>
      <trkpt lat="43.60767" lon="1.38145">
        <ele>154.6</ele>
        <time>2023-04-05T15:11:38Z</time>
      </trkpt>
      <trkpt lat="43.60768" lon="1.38139">
        <ele>154.6</ele>
        <time>2023-04-05T15:11:39Z</time>
      </trkpt>
      <trkpt lat="43.60773" lon="1.38116">
        <ele>154.6</ele>
        <time>2023-04-05T15:11:42Z</time>
      </trkpt>
      <trkpt lat="43.6078" lon="1.38093">
        <ele>154.4</ele>
        <time>2023-04-05T15:11:45Z</time>
      </trkpt>
      <trkpt lat="43.60784" lon="1.38077">
        <ele>154.6</ele>
        <time>2023-04-05T15:11:47Z</time>
      </trkpt>
      <trkpt lat="43.60786" lon="1.38071">
        <ele>154.6</ele>
        <time>2023-04-05T15:11:48Z</time>
      </trkpt>
      <trkpt lat="43.60792" lon="1.38055">
        <ele>154.6</ele>
        <time>2023-04-05T15:11:50Z</time>
      </trkpt>
      <trkpt lat="43.60793" lon="1.3804">
        <ele>154.8</ele>
        <time>2023-04-05T15:11:52Z</time>
      </trkpt>
      <trkpt lat="43.6079" lon="1.38028">
        <ele>154.8</ele>
        <time>2023-04-05T15:11:54Z</time>
      </trkpt>
      <trkpt lat="43.60786" lon="1.38024">
        <ele>154.8</ele>
        <time>2023-04-05T15:11:55Z</time>
      </trkpt>
      <trkpt lat="43.60781" lon="1.38021">
        <ele>154.8</ele>
        <time>2023-04-05T15:11:56Z</time>
      </trkpt>
      <trkpt lat="43.60762" lon="1.38014">
        <ele>154.8</ele>
        <time>2023-04-05T15:11:59Z</time>
      </trkpt>
      <trkpt lat="43.60747" lon="1.38012">
        <ele>155</ele>
        <time>2023-04-05T15:12:02Z</time>
      </trkpt>
      <trkpt lat="43.6074" lon="1.38013">
        <ele>155</ele>
        <time>2023-04-05T15:12:03Z</time>
      </trkpt>
      <trkpt lat="43.60733" lon="1.38015">
        <ele>155</ele>
        <time>2023-04-05T15:12:04Z</time>
      </trkpt>
      <trkpt lat="43.60714" lon="1.38018">
        <ele>154.8</ele>
        <time>2023-04-05T15:12:07Z</time>
      </trkpt>
      <trkpt lat="43.60707" lon="1.38019">
        <ele>154.8</ele>
        <time>2023-04-05T15:12:08Z</time>
      </trkpt>
      <trkpt lat="43.60692" lon="1.38016">
        <ele>154.6</ele>
        <time>2023-04-05T15:12:11Z</time>
      </trkpt>
      <trkpt lat="43.6068" lon="1.38013">
        <ele>154.4</ele>
        <time>2023-04-05T15:12:13Z</time>
      </trkpt>
      <trkpt lat="43.60675" lon="1.38014">
        <ele>154.2</ele>
        <time>2023-04-05T15:12:14Z</time>
      </trkpt>
      <trkpt lat="43.60669" lon="1.38018">
        <ele>154.2</ele>
        <time>2023-04-05T15:12:15Z</time>
      </trkpt>
      <trkpt lat="43.60664" lon="1.38023">
        <ele>154.2</ele>
        <time>2023-04-05T15:12:16Z</time>
      </trkpt>
      <trkpt lat="43.60648" lon="1.38036">
        <ele>154.6</ele>
        <time>2023-04-05T15:12:19Z</time>
      </trkpt>
      <trkpt lat="43.6064" lon="1.38038">
        <ele>155.2</ele>
        <time>2023-04-05T15:12:21Z</time>
      </trkpt>
      <trkpt lat="43.60631" lon="1.38038">
        <ele>155.6</ele>
        <time>2023-04-05T15:12:23Z</time>
      </trkpt>
      <trkpt lat="43.60618" lon="1.38039">
        <ele>156.4</ele>
        <time>2023-04-05T15:12:26Z</time>
      </trkpt>
      <trkpt lat="43.60604" lon="1.3804">
        <ele>156.8</ele>
        <time>2023-04-05T15:12:29Z</time>
      </trkpt>
      <trkpt lat="43.60594" lon="1.38041">
        <ele>157.2</ele>
        <time>2023-04-05T15:12:31Z</time>
      </trkpt>
      <trkpt lat="43.60584" lon="1.3804">
        <ele>157.4</ele>
        <time>2023-04-05T15:12:33Z</time>
      </trkpt>
      <trkpt lat="43.60577" lon="1.3804">
        <ele>157.6</ele>
        <time>2023-04-05T15:12:34Z</time>
      </trkpt>
      <trkpt lat="43.60566" lon="1.38039">
        <ele>157.6</ele>
        <time>2023-04-05T15:12:36Z</time>
      </trkpt>
      <trkpt lat="43.6055" lon="1.38035">
        <ele>157.8</ele>
        <time>2023-04-05T15:12:39Z</time>
      </trkpt>
      <trkpt lat="43.60542" lon="1.38027">
        <ele>157.8</ele>
        <time>2023-04-05T15:12:41Z</time>
      </trkpt>
      <trkpt lat="43.60539" lon="1.38021">
        <ele>157.8</ele>
        <time>2023-04-05T15:12:42Z</time>
      </trkpt>
      <trkpt lat="43.6053" lon="1.38009">
        <ele>157.8</ele>
        <time>2023-04-05T15:12:44Z</time>
      </trkpt>
      <trkpt lat="43.60526" lon="1.38004">
        <ele>157.8</ele>
        <time>2023-04-05T15:12:45Z</time>
      </trkpt>
      <trkpt lat="43.60512" lon="1.37989">
        <ele>157.2</ele>
        <time>2023-04-05T15:12:48Z</time>
      </trkpt>
      <trkpt lat="43.60501" lon="1.37983">
        <ele>156.6</ele>
        <time>2023-04-05T15:12:50Z</time>
      </trkpt>
      <trkpt lat="43.60495" lon="1.37981">
        <ele>156.2</ele>
        <time>2023-04-05T15:12:51Z</time>
      </trkpt>
      <trkpt lat="43.60471" lon="1.37973">
        <ele>156</ele>
        <time>2023-04-05T15:12:55Z</time>
      </trkpt>
      <trkpt lat="43.60465" lon="1.37972">
        <ele>155.8</ele>
        <time>2023-04-05T15:12:56Z</time>
      </trkpt>
      <trkpt lat="43.60455" lon="1.37971">
        <ele>155.8</ele>
        <time>2023-04-05T15:12:58Z</time>
      </trkpt>
      <trkpt lat="43.60447" lon="1.37966">
        <ele>156.2</ele>
        <time>2023-04-05T15:13:00Z</time>
      </trkpt>
      <trkpt lat="43.60427" lon="1.37951">
        <ele>156.6</ele>
        <time>2023-04-05T15:13:04Z</time>
      </trkpt>
      <trkpt lat="43.60423" lon="1.37947">
        <ele>156.6</ele>
        <time>2023-04-05T15:13:05Z</time>
      </trkpt>
      <trkpt lat="43.60418" lon="1.37944">
        <ele>156.8</ele>
        <time>2023-04-05T15:13:06Z</time>
      </trkpt>
      <trkpt lat="43.60404" lon="1.37937">
        <ele>157.4</ele>
        <time>2023-04-05T15:13:09Z</time>
      </trkpt>
      <trkpt lat="43.60397" lon="1.37932">
        <ele>157.6</ele>
        <time>2023-04-05T15:13:11Z</time>
      </trkpt>
      <trkpt lat="43.60384" lon="1.37919">
        <ele>157.8</ele>
        <time>2023-04-05T15:13:15Z</time>
      </trkpt>
      <trkpt lat="43.60378" lon="1.37909">
        <ele>158.2</ele>
        <time>2023-04-05T15:13:18Z</time>
      </trkpt>
      <trkpt lat="43.60377" lon="1.37905">
        <ele>158.2</ele>
        <time>2023-04-05T15:13:19Z</time>
      </trkpt>
      <trkpt lat="43.60372" lon="1.37891">
        <ele>158.2</ele>
        <time>2023-04-05T15:13:21Z</time>
      </trkpt>
      <trkpt lat="43.60369" lon="1.37886">
        <ele>158</ele>
        <time>2023-04-05T15:13:22Z</time>
      </trkpt>
      <trkpt lat="43.60357" lon="1.37869">
        <ele>157</ele>
        <time>2023-04-05T15:13:25Z</time>
      </trkpt>
      <trkpt lat="43.60348" lon="1.37865">
        <ele>156.6</ele>
        <time>2023-04-05T15:13:27Z</time>
      </trkpt>
      <trkpt lat="43.60324" lon="1.37863">
        <ele>156.6</ele>
        <time>2023-04-05T15:13:31Z</time>
      </trkpt>
      <trkpt lat="43.60315" lon="1.37866">
        <ele>156.6</ele>
        <time>2023-04-05T15:13:33Z</time>
      </trkpt>
      <trkpt lat="43.6031" lon="1.37867">
        <ele>156.6</ele>
        <time>2023-04-05T15:13:34Z</time>
      </trkpt>
      <trkpt lat="43.60297" lon="1.3787">
        <ele>157</ele>
        <time>2023-04-05T15:13:37Z</time>
      </trkpt>
      <trkpt lat="43.6028" lon="1.37868">
        <ele>157.4</ele>
        <time>2023-04-05T15:13:40Z</time>
      </trkpt>
      <trkpt lat="43.6027" lon="1.37869">
        <ele>158</ele>
        <time>2023-04-05T15:13:42Z</time>
      </trkpt>
      <trkpt lat="43.60235" lon="1.3787">
        <ele>158.4</ele>
        <time>2023-04-05T15:13:48Z</time>
      </trkpt>
      <trkpt lat="43.60229" lon="1.37869">
        <ele>158.4</ele>
        <time>2023-04-05T15:13:49Z</time>
      </trkpt>
      <trkpt lat="43.60209" lon="1.3786">
        <ele>159</ele>
        <time>2023-04-05T15:13:53Z</time>
      </trkpt>
      <trkpt lat="43.60201" lon="1.37852">
        <ele>159</ele>
        <time>2023-04-05T15:13:55Z</time>
      </trkpt>
      <trkpt lat="43.60193" lon="1.37839">
        <ele>159.2</ele>
        <time>2023-04-05T15:13:57Z</time>
      </trkpt>
      <trkpt lat="43.60189" lon="1.37825">
        <ele>159.2</ele>
        <time>2023-04-05T15:13:59Z</time>
      </trkpt>
      <trkpt lat="43.60186" lon="1.37809">
        <ele>159.2</ele>
        <time>2023-04-05T15:14:01Z</time>
      </trkpt>
      <trkpt lat="43.60182" lon="1.37748">
        <ele>159.2</ele>
        <time>2023-04-05T15:14:08Z</time>
      </trkpt>
      <trkpt lat="43.60178" lon="1.37719">
        <ele>159</ele>
        <time>2023-04-05T15:14:11Z</time>
      </trkpt>
      <trkpt lat="43.60176" lon="1.3769">
        <ele>158.8</ele>
        <time>2023-04-05T15:14:14Z</time>
      </trkpt>
      <trkpt lat="43.60174" lon="1.37672">
        <ele>158.8</ele>
        <time>2023-04-05T15:14:16Z</time>
      </trkpt>
      <trkpt lat="43.60168" lon="1.3766">
        <ele>158.6</ele>
        <time>2023-04-05T15:14:18Z</time>
      </trkpt>
      <trkpt lat="43.60138" lon="1.37635">
        <ele>158.6</ele>
        <time>2023-04-05T15:14:24Z</time>
      </trkpt>
      <trkpt lat="43.60127" lon="1.37627">
        <ele>158.6</ele>
        <time>2023-04-05T15:14:26Z</time>
      </trkpt>
      <trkpt lat="43.60117" lon="1.37626">
        <ele>158.8</ele>
        <time>2023-04-05T15:14:28Z</time>
      </trkpt>
      <trkpt lat="43.60111" lon="1.37634">
        <ele>158.8</ele>
        <time>2023-04-05T15:14:30Z</time>
      </trkpt>
      <trkpt lat="43.60109" lon="1.3764">
        <ele>158.8</ele>
        <time>2023-04-05T15:14:31Z</time>
      </trkpt>
      <trkpt lat="43.60107" lon="1.37646">
        <ele>159</ele>
        <time>2023-04-05T15:14:32Z</time>
      </trkpt>
      <trkpt lat="43.60098" lon="1.37673">
        <ele>159.4</ele>
        <time>2023-04-05T15:14:36Z</time>
      </trkpt>
      <trkpt lat="43.60097" lon="1.3768">
        <ele>159.4</ele>
        <time>2023-04-05T15:14:37Z</time>
      </trkpt>
      <trkpt lat="43.60092" lon="1.37695">
        <ele>159.4</ele>
        <time>2023-04-05T15:14:39Z</time>
      </trkpt>
      <trkpt lat="43.60089" lon="1.37701">
        <ele>159.4</ele>
        <time>2023-04-05T15:14:40Z</time>
      </trkpt>
      <trkpt lat="43.60086" lon="1.37704">
        <ele>159.4</ele>
        <time>2023-04-05T15:14:41Z</time>
      </trkpt>
      <trkpt lat="43.60076" lon="1.37706">
        <ele>159.4</ele>
        <time>2023-04-05T15:14:43Z</time>
      </trkpt>
      <trkpt lat="43.60062" lon="1.37708">
        <ele>159.4</ele>
        <time>2023-04-05T15:14:46Z</time>
      </trkpt>
      <trkpt lat="43.60054" lon="1.37713">
        <ele>159.2</ele>
        <time>2023-04-05T15:14:48Z</time>
      </trkpt>
      <trkpt lat="43.60051" lon="1.37715">
        <ele>159.2</ele>
        <time>2023-04-05T15:14:49Z</time>
      </trkpt>
      <trkpt lat="43.60028" lon="1.37734">
        <ele>158.6</ele>
        <time>2023-04-05T15:14:54Z</time>
      </trkpt>
      <trkpt lat="43.60005" lon="1.37753">
        <ele>159</ele>
        <time>2023-04-05T15:14:59Z</time>
      </trkpt>
      <trkpt lat="43.60001" lon="1.37756">
        <ele>159.2</ele>
        <time>2023-04-05T15:15:00Z</time>
      </trkpt>
      <trkpt lat="43.59993" lon="1.3776">
        <ele>159.6</ele>
        <time>2023-04-05T15:15:02Z</time>
      </trkpt>
      <trkpt lat="43.59985" lon="1.37767">
        <ele>159.6</ele>
        <time>2023-04-05T15:15:04Z</time>
      </trkpt>
      <trkpt lat="43.59955" lon="1.37779">
        <ele>160</ele>
        <time>2023-04-05T15:15:10Z</time>
      </trkpt>
      <trkpt lat="43.59938" lon="1.37782">
        <ele>160.6</ele>
        <time>2023-04-05T15:15:14Z</time>
      </trkpt>
      <trkpt lat="43.59933" lon="1.3778">
        <ele>160.8</ele>
        <time>2023-04-05T15:15:15Z</time>
      </trkpt>
      <trkpt lat="43.59922" lon="1.37774">
        <ele>161</ele>
        <time>2023-04-05T15:15:17Z</time>
      </trkpt>
      <trkpt lat="43.59902" lon="1.37764">
        <ele>161</ele>
        <time>2023-04-05T15:15:21Z</time>
      </trkpt>
      <trkpt lat="43.59888" lon="1.3776">
        <ele>161.4</ele>
        <time>2023-04-05T15:15:26Z</time>
      </trkpt>
      <trkpt lat="43.59883" lon="1.37758">
        <ele>161.6</ele>
        <time>2023-04-05T15:15:32Z</time>
      </trkpt>
      <trkpt lat="43.59885" lon="1.37747">
        <ele>161.2</ele>
        <time>2023-04-05T15:15:36Z</time>
      </trkpt>
      <trkpt lat="43.59886" lon="1.37742">
        <ele>161.2</ele>
        <time>2023-04-05T15:15:37Z</time>
      </trkpt>
      <trkpt lat="43.59893" lon="1.37724">
        <ele>159.6</ele>
        <time>2023-04-05T15:15:41Z</time>
      </trkpt>
      <trkpt lat="43.59894" lon="1.37719">
        <ele>159.4</ele>
        <time>2023-04-05T15:15:42Z</time>
      </trkpt>
      <trkpt lat="43.59893" lon="1.37698">
        <ele>158.4</ele>
        <time>2023-04-05T15:15:46Z</time>
      </trkpt>
      <trkpt lat="43.59891" lon="1.37691">
        <ele>158.4</ele>
        <time>2023-04-05T15:15:47Z</time>
      </trkpt>
      <trkpt lat="43.59886" lon="1.37671">
        <ele>158.2</ele>
        <time>2023-04-05T15:15:50Z</time>
      </trkpt>
      <trkpt lat="43.59882" lon="1.37656">
        <ele>158.2</ele>
        <time>2023-04-05T15:15:53Z</time>
      </trkpt>
      <trkpt lat="43.59879" lon="1.37652">
        <ele>158.4</ele>
        <time>2023-04-05T15:15:54Z</time>
      </trkpt>
      <trkpt lat="43.59877" lon="1.37649">
        <ele>158.6</ele>
        <time>2023-04-05T15:15:57Z</time>
      </trkpt>
      <trkpt lat="43.59865" lon="1.37634">
        <ele>158.6</ele>
        <time>2023-04-05T15:16:01Z</time>
      </trkpt>
      <trkpt lat="43.59858" lon="1.37622">
        <ele>158.6</ele>
        <time>2023-04-05T15:16:03Z</time>
      </trkpt>
      <trkpt lat="43.59846" lon="1.37612">
        <ele>158.6</ele>
        <time>2023-04-05T15:16:05Z</time>
      </trkpt>
      <trkpt lat="43.59841" lon="1.37607">
        <ele>158.6</ele>
        <time>2023-04-05T15:16:06Z</time>
      </trkpt>
      <trkpt lat="43.59828" lon="1.37599">
        <ele>158.8</ele>
        <time>2023-04-05T15:16:08Z</time>
      </trkpt>
      <trkpt lat="43.59815" lon="1.37596">
        <ele>158.8</ele>
        <time>2023-04-05T15:16:10Z</time>
      </trkpt>
      <trkpt lat="43.59809" lon="1.37597">
        <ele>158.8</ele>
        <time>2023-04-05T15:16:11Z</time>
      </trkpt>
      <trkpt lat="43.59804" lon="1.37598">
        <ele>158.8</ele>
        <time>2023-04-05T15:16:12Z</time>
      </trkpt>
      <trkpt lat="43.59794" lon="1.37601">
        <ele>158.8</ele>
        <time>2023-04-05T15:16:14Z</time>
      </trkpt>
      <trkpt lat="43.59788" lon="1.37604">
        <ele>158.8</ele>
        <time>2023-04-05T15:16:15Z</time>
      </trkpt>
      <trkpt lat="43.59782" lon="1.37608">
        <ele>158.8</ele>
        <time>2023-04-05T15:16:16Z</time>
      </trkpt>
      <trkpt lat="43.59762" lon="1.3763">
        <ele>159</ele>
        <time>2023-04-05T15:16:20Z</time>
      </trkpt>
      <trkpt lat="43.59752" lon="1.37643">
        <ele>159.4</ele>
        <time>2023-04-05T15:16:23Z</time>
      </trkpt>
      <trkpt lat="43.5975" lon="1.37646">
        <ele>159.6</ele>
        <time>2023-04-05T15:16:24Z</time>
      </trkpt>
      <trkpt lat="43.59738" lon="1.37664">
        <ele>160.4</ele>
        <time>2023-04-05T15:16:29Z</time>
      </trkpt>
      <trkpt lat="43.59731" lon="1.37671">
        <ele>160.8</ele>
        <time>2023-04-05T15:16:31Z</time>
      </trkpt>
      <trkpt lat="43.59722" lon="1.37679">
        <ele>161.4</ele>
        <time>2023-04-05T15:16:35Z</time>
      </trkpt>
      <trkpt lat="43.59721" lon="1.37679">
        <ele>162.2</ele>
        <time>2023-04-05T15:16:37Z</time>
      </trkpt>
      <trkpt lat="43.59721" lon="1.37679">
        <ele>162</ele>
        <time>2023-04-05T15:16:38Z</time>
      </trkpt>
      <trkpt lat="43.5971" lon="1.37678">
        <ele>160</ele>
        <time>2023-04-05T15:16:53Z</time>
      </trkpt>
      <trkpt lat="43.59707" lon="1.37679">
        <ele>159.6</ele>
        <time>2023-04-05T15:16:55Z</time>
      </trkpt>
      <trkpt lat="43.59696" lon="1.37678">
        <ele>159.2</ele>
        <time>2023-04-05T15:17:00Z</time>
      </trkpt>
      <trkpt lat="43.59692" lon="1.37675">
        <ele>159.2</ele>
        <time>2023-04-05T15:17:02Z</time>
      </trkpt>
      <trkpt lat="43.59685" lon="1.37662">
        <ele>159.4</ele>
        <time>2023-04-05T15:17:05Z</time>
      </trkpt>
      <trkpt lat="43.59665" lon="1.37639">
        <ele>159.6</ele>
        <time>2023-04-05T15:17:10Z</time>
      </trkpt>
      <trkpt lat="43.59661" lon="1.37633">
        <ele>159.6</ele>
        <time>2023-04-05T15:17:11Z</time>
      </trkpt>
      <trkpt lat="43.59654" lon="1.3762">
        <ele>159.6</ele>
        <time>2023-04-05T15:17:13Z</time>
      </trkpt>
      <trkpt lat="43.59641" lon="1.37605">
        <ele>160</ele>
        <time>2023-04-05T15:17:16Z</time>
      </trkpt>
      <trkpt lat="43.59625" lon="1.37588">
        <ele>160.4</ele>
        <time>2023-04-05T15:17:20Z</time>
      </trkpt>
      <trkpt lat="43.59612" lon="1.37572">
        <ele>161.2</ele>
        <time>2023-04-05T15:17:24Z</time>
      </trkpt>
      <trkpt lat="43.59605" lon="1.37561">
        <ele>161.6</ele>
        <time>2023-04-05T15:17:27Z</time>
      </trkpt>
      <trkpt lat="43.59604" lon="1.37557">
        <ele>161.8</ele>
        <time>2023-04-05T15:17:28Z</time>
      </trkpt>
      <trkpt lat="43.59606" lon="1.37527">
        <ele>162.2</ele>
        <time>2023-04-05T15:17:32Z</time>
      </trkpt>
      <trkpt lat="43.59613" lon="1.37496">
        <ele>162.2</ele>
        <time>2023-04-05T15:17:35Z</time>
      </trkpt>
      <trkpt lat="43.59616" lon="1.37488">
        <ele>162.2</ele>
        <time>2023-04-05T15:17:36Z</time>
      </trkpt>
      <trkpt lat="43.59622" lon="1.37472">
        <ele>162.2</ele>
        <time>2023-04-05T15:17:38Z</time>
      </trkpt>
      <trkpt lat="43.59625" lon="1.37452">
        <ele>162.2</ele>
        <time>2023-04-05T15:17:40Z</time>
      </trkpt>
      <trkpt lat="43.59631" lon="1.37436">
        <ele>161.8</ele>
        <time>2023-04-05T15:17:42Z</time>
      </trkpt>
      <trkpt lat="43.59632" lon="1.37429">
        <ele>161.8</ele>
        <time>2023-04-05T15:17:43Z</time>
      </trkpt>
      <trkpt lat="43.59635" lon="1.37419">
        <ele>161.6</ele>
        <time>2023-04-05T15:17:44Z</time>
      </trkpt>
      <trkpt lat="43.59638" lon="1.37401">
        <ele>161.4</ele>
        <time>2023-04-05T15:17:46Z</time>
      </trkpt>
      <trkpt lat="43.59639" lon="1.37395">
        <ele>161.2</ele>
        <time>2023-04-05T15:17:47Z</time>
      </trkpt>
      <trkpt lat="43.5964" lon="1.37386">
        <ele>161</ele>
        <time>2023-04-05T15:17:48Z</time>
      </trkpt>
      <trkpt lat="43.5964" lon="1.37364">
        <ele>160.8</ele>
        <time>2023-04-05T15:17:51Z</time>
      </trkpt>
      <trkpt lat="43.59629" lon="1.37336">
        <ele>160.6</ele>
        <time>2023-04-05T15:17:56Z</time>
      </trkpt>
      <trkpt lat="43.59625" lon="1.37328">
        <ele>160.6</ele>
        <time>2023-04-05T15:17:57Z</time>
      </trkpt>
      <trkpt lat="43.59614" lon="1.37305">
        <ele>160.6</ele>
        <time>2023-04-05T15:18:01Z</time>
      </trkpt>
      <trkpt lat="43.59611" lon="1.37299">
        <ele>160.8</ele>
        <time>2023-04-05T15:18:02Z</time>
      </trkpt>
      <trkpt lat="43.59608" lon="1.37292">
        <ele>160.8</ele>
        <time>2023-04-05T15:18:03Z</time>
      </trkpt>
      <trkpt lat="43.59597" lon="1.37272">
        <ele>160.8</ele>
        <time>2023-04-05T15:18:06Z</time>
      </trkpt>
      <trkpt lat="43.5959" lon="1.37261">
        <ele>160.8</ele>
        <time>2023-04-05T15:18:08Z</time>
      </trkpt>
      <trkpt lat="43.59584" lon="1.37247">
        <ele>160.8</ele>
        <time>2023-04-05T15:18:10Z</time>
      </trkpt>
      <trkpt lat="43.59581" lon="1.3724">
        <ele>160.8</ele>
        <time>2023-04-05T15:18:11Z</time>
      </trkpt>
      <trkpt lat="43.59575" lon="1.37224">
        <ele>160.8</ele>
        <time>2023-04-05T15:18:13Z</time>
      </trkpt>
      <trkpt lat="43.59569" lon="1.372">
        <ele>160.6</ele>
        <time>2023-04-05T15:18:16Z</time>
      </trkpt>
      <trkpt lat="43.59568" lon="1.37191">
        <ele>160.6</ele>
        <time>2023-04-05T15:18:17Z</time>
      </trkpt>
      <trkpt lat="43.59563" lon="1.37162">
        <ele>160.6</ele>
        <time>2023-04-05T15:18:21Z</time>
      </trkpt>
      <trkpt lat="43.59562" lon="1.37154">
        <ele>160.8</ele>
        <time>2023-04-05T15:18:22Z</time>
      </trkpt>
      <trkpt lat="43.5956" lon="1.37125">
        <ele>161</ele>
        <time>2023-04-05T15:18:25Z</time>
      </trkpt>
      <trkpt lat="43.59563" lon="1.37092">
        <ele>161</ele>
        <time>2023-04-05T15:18:29Z</time>
      </trkpt>
      <trkpt lat="43.59568" lon="1.37074">
        <ele>161</ele>
        <time>2023-04-05T15:18:31Z</time>
      </trkpt>
      <trkpt lat="43.59578" lon="1.37053">
        <ele>161</ele>
        <time>2023-04-05T15:18:34Z</time>
      </trkpt>
      <trkpt lat="43.59586" lon="1.3704">
        <ele>161</ele>
        <time>2023-04-05T15:18:36Z</time>
      </trkpt>
      <trkpt lat="43.59589" lon="1.37032">
        <ele>161</ele>
        <time>2023-04-05T15:18:37Z</time>
      </trkpt>
      <trkpt lat="43.59596" lon="1.37019">
        <ele>161</ele>
        <time>2023-04-05T15:18:39Z</time>
      </trkpt>
      <trkpt lat="43.59597" lon="1.37013">
        <ele>161</ele>
        <time>2023-04-05T15:18:40Z</time>
      </trkpt>
      <trkpt lat="43.59596" lon="1.37006">
        <ele>161</ele>
        <time>2023-04-05T15:18:41Z</time>
      </trkpt>
      <trkpt lat="43.59591" lon="1.36993">
        <ele>161</ele>
        <time>2023-04-05T15:18:43Z</time>
      </trkpt>
      <trkpt lat="43.59585" lon="1.36982">
        <ele>161</ele>
        <time>2023-04-05T15:18:45Z</time>
      </trkpt>
      <trkpt lat="43.59572" lon="1.36966">
        <ele>161.2</ele>
        <time>2023-04-05T15:18:48Z</time>
      </trkpt>
      <trkpt lat="43.59542" lon="1.36938">
        <ele>161.2</ele>
        <time>2023-04-05T15:18:54Z</time>
      </trkpt>
      <trkpt lat="43.59521" lon="1.36919">
        <ele>161.8</ele>
        <time>2023-04-05T15:18:58Z</time>
      </trkpt>
      <trkpt lat="43.59514" lon="1.36915">
        <ele>161.8</ele>
        <time>2023-04-05T15:18:59Z</time>
      </trkpt>
      <trkpt lat="43.59479" lon="1.36884">
        <ele>162</ele>
        <time>2023-04-05T15:19:06Z</time>
      </trkpt>
      <trkpt lat="43.59475" lon="1.3688">
        <ele>162</ele>
        <time>2023-04-05T15:19:07Z</time>
      </trkpt>
      <trkpt lat="43.59459" lon="1.36858">
        <ele>162</ele>
        <time>2023-04-05T15:19:11Z</time>
      </trkpt>
      <trkpt lat="43.59441" lon="1.36837">
        <ele>162.2</ele>
        <time>2023-04-05T15:19:15Z</time>
      </trkpt>
      <trkpt lat="43.59438" lon="1.36831">
        <ele>162.2</ele>
        <time>2023-04-05T15:19:16Z</time>
      </trkpt>
      <trkpt lat="43.59433" lon="1.36816">
        <ele>162.4</ele>
        <time>2023-04-05T15:19:18Z</time>
      </trkpt>
      <trkpt lat="43.59425" lon="1.36791">
        <ele>162.4</ele>
        <time>2023-04-05T15:19:21Z</time>
      </trkpt>
      <trkpt lat="43.59411" lon="1.36752">
        <ele>162.4</ele>
        <time>2023-04-05T15:19:26Z</time>
      </trkpt>
      <trkpt lat="43.59402" lon="1.36721">
        <ele>162</ele>
        <time>2023-04-05T15:19:30Z</time>
      </trkpt>
      <trkpt lat="43.59399" lon="1.36713">
        <ele>162</ele>
        <time>2023-04-05T15:19:31Z</time>
      </trkpt>
      <trkpt lat="43.59391" lon="1.36704">
        <ele>161.8</ele>
        <time>2023-04-05T15:19:33Z</time>
      </trkpt>
      <trkpt lat="43.59386" lon="1.36698">
        <ele>161.8</ele>
        <time>2023-04-05T15:19:34Z</time>
      </trkpt>
      <trkpt lat="43.59371" lon="1.36684">
        <ele>161.8</ele>
        <time>2023-04-05T15:19:37Z</time>
      </trkpt>
      <trkpt lat="43.59366" lon="1.36682">
        <ele>161.8</ele>
        <time>2023-04-05T15:19:38Z</time>
      </trkpt>
      <trkpt lat="43.59361" lon="1.3668">
        <ele>161.8</ele>
        <time>2023-04-05T15:19:39Z</time>
      </trkpt>
      <trkpt lat="43.59332" lon="1.36676">
        <ele>162</ele>
        <time>2023-04-05T15:19:44Z</time>
      </trkpt>
      <trkpt lat="43.59302" lon="1.36672">
        <ele>162.2</ele>
        <time>2023-04-05T15:19:49Z</time>
      </trkpt>
      <trkpt lat="43.59296" lon="1.36671">
        <ele>162.2</ele>
        <time>2023-04-05T15:19:50Z</time>
      </trkpt>
      <trkpt lat="43.59278" lon="1.36669">
        <ele>162</ele>
        <time>2023-04-05T15:19:53Z</time>
      </trkpt>
      <trkpt lat="43.59248" lon="1.36666">
        <ele>162.2</ele>
        <time>2023-04-05T15:19:58Z</time>
      </trkpt>
      <trkpt lat="43.59241" lon="1.36663">
        <ele>162.2</ele>
        <time>2023-04-05T15:19:59Z</time>
      </trkpt>
      <trkpt lat="43.59232" lon="1.36656">
        <ele>162</ele>
        <time>2023-04-05T15:20:01Z</time>
      </trkpt>
      <trkpt lat="43.5922" lon="1.36645">
        <ele>162</ele>
        <time>2023-04-05T15:20:03Z</time>
      </trkpt>
      <trkpt lat="43.59215" lon="1.36641">
        <ele>162.2</ele>
        <time>2023-04-05T15:20:04Z</time>
      </trkpt>
      <trkpt lat="43.59197" lon="1.36634">
        <ele>162</ele>
        <time>2023-04-05T15:20:07Z</time>
      </trkpt>
      <trkpt lat="43.59185" lon="1.36633">
        <ele>162</ele>
        <time>2023-04-05T15:20:09Z</time>
      </trkpt>
      <trkpt lat="43.59155" lon="1.36637">
        <ele>162.4</ele>
        <time>2023-04-05T15:20:14Z</time>
      </trkpt>
      <trkpt lat="43.59148" lon="1.3664">
        <ele>162.4</ele>
        <time>2023-04-05T15:20:15Z</time>
      </trkpt>
      <trkpt lat="43.59123" lon="1.36663">
        <ele>162.4</ele>
        <time>2023-04-05T15:20:20Z</time>
      </trkpt>
      <trkpt lat="43.59119" lon="1.36667">
        <ele>162.4</ele>
        <time>2023-04-05T15:20:21Z</time>
      </trkpt>
      <trkpt lat="43.59111" lon="1.36672">
        <ele>162.4</ele>
        <time>2023-04-05T15:20:23Z</time>
      </trkpt>
      <trkpt lat="43.59106" lon="1.36674">
        <ele>162.4</ele>
        <time>2023-04-05T15:20:24Z</time>
      </trkpt>
      <trkpt lat="43.59085" lon="1.36682">
        <ele>162.6</ele>
        <time>2023-04-05T15:20:28Z</time>
      </trkpt>
      <trkpt lat="43.59074" lon="1.36687">
        <ele>162.6</ele>
        <time>2023-04-05T15:20:30Z</time>
      </trkpt>
      <trkpt lat="43.59051" lon="1.36695">
        <ele>162.6</ele>
        <time>2023-04-05T15:20:34Z</time>
      </trkpt>
      <trkpt lat="43.59043" lon="1.367">
        <ele>162.6</ele>
        <time>2023-04-05T15:20:36Z</time>
      </trkpt>
      <trkpt lat="43.59034" lon="1.36709">
        <ele>163.4</ele>
        <time>2023-04-05T15:20:40Z</time>
      </trkpt>
      <trkpt lat="43.59029" lon="1.36719">
        <ele>164.6</ele>
        <time>2023-04-05T15:20:44Z</time>
      </trkpt>
      <trkpt lat="43.59026" lon="1.36723">
        <ele>165.2</ele>
        <time>2023-04-05T15:20:46Z</time>
      </trkpt>
      <trkpt lat="43.59023" lon="1.36726">
        <ele>165.6</ele>
        <time>2023-04-05T15:20:48Z</time>
      </trkpt>
      <trkpt lat="43.59022" lon="1.36726">
        <ele>165.8</ele>
        <time>2023-04-05T15:20:50Z</time>
      </trkpt>
      <trkpt lat="43.59022" lon="1.36726">
        <ele>166</ele>
        <time>2023-04-05T15:20:52Z</time>
      </trkpt>
      <trkpt lat="43.5902" lon="1.36726">
        <ele>165.6</ele>
        <time>2023-04-05T15:21:15Z</time>
      </trkpt>
      <trkpt lat="43.59014" lon="1.36723">
        <ele>165.4</ele>
        <time>2023-04-05T15:21:17Z</time>
      </trkpt>
      <trkpt lat="43.59001" lon="1.36709">
        <ele>165.4</ele>
        <time>2023-04-05T15:21:21Z</time>
      </trkpt>
      <trkpt lat="43.58981" lon="1.36704">
        <ele>165.4</ele>
        <time>2023-04-05T15:21:25Z</time>
      </trkpt>
      <trkpt lat="43.58974" lon="1.36703">
        <ele>165.2</ele>
        <time>2023-04-05T15:21:26Z</time>
      </trkpt>
      <trkpt lat="43.58954" lon="1.36696">
        <ele>164.6</ele>
        <time>2023-04-05T15:21:29Z</time>
      </trkpt>
      <trkpt lat="43.5894" lon="1.36689">
        <ele>164</ele>
        <time>2023-04-05T15:21:31Z</time>
      </trkpt>
      <trkpt lat="43.58931" lon="1.36682">
        <ele>163.6</ele>
        <time>2023-04-05T15:21:33Z</time>
      </trkpt>
      <trkpt lat="43.58919" lon="1.36667">
        <ele>162.4</ele>
        <time>2023-04-05T15:21:37Z</time>
      </trkpt>
      <trkpt lat="43.58909" lon="1.36656">
        <ele>162.2</ele>
        <time>2023-04-05T15:21:39Z</time>
      </trkpt>
      <trkpt lat="43.58899" lon="1.36643">
        <ele>162.2</ele>
        <time>2023-04-05T15:21:41Z</time>
      </trkpt>
      <trkpt lat="43.58896" lon="1.36639">
        <ele>162</ele>
        <time>2023-04-05T15:21:42Z</time>
      </trkpt>
      <trkpt lat="43.58887" lon="1.36626">
        <ele>162</ele>
        <time>2023-04-05T15:21:44Z</time>
      </trkpt>
      <trkpt lat="43.58878" lon="1.36613">
        <ele>162</ele>
        <time>2023-04-05T15:21:46Z</time>
      </trkpt>
      <trkpt lat="43.58876" lon="1.36606">
        <ele>162</ele>
        <time>2023-04-05T15:21:47Z</time>
      </trkpt>
      <trkpt lat="43.58874" lon="1.36598">
        <ele>162.4</ele>
        <time>2023-04-05T15:21:48Z</time>
      </trkpt>
      <trkpt lat="43.5886" lon="1.3657">
        <ele>162.8</ele>
        <time>2023-04-05T15:21:52Z</time>
      </trkpt>
      <trkpt lat="43.5885" lon="1.36526">
        <ele>163.2</ele>
        <time>2023-04-05T15:21:57Z</time>
      </trkpt>
      <trkpt lat="43.58848" lon="1.36517">
        <ele>163.4</ele>
        <time>2023-04-05T15:21:58Z</time>
      </trkpt>
      <trkpt lat="43.58844" lon="1.36504">
        <ele>163.4</ele>
        <time>2023-04-05T15:22:00Z</time>
      </trkpt>
      <trkpt lat="43.58839" lon="1.36496">
        <ele>163.4</ele>
        <time>2023-04-05T15:22:01Z</time>
      </trkpt>
      <trkpt lat="43.58816" lon="1.36459">
        <ele>163.8</ele>
        <time>2023-04-05T15:22:08Z</time>
      </trkpt>
      <trkpt lat="43.58813" lon="1.36453">
        <ele>164</ele>
        <time>2023-04-05T15:22:09Z</time>
      </trkpt>
      <trkpt lat="43.58804" lon="1.36433">
        <ele>164.2</ele>
        <time>2023-04-05T15:22:12Z</time>
      </trkpt>
      <trkpt lat="43.58795" lon="1.36422">
        <ele>164.4</ele>
        <time>2023-04-05T15:22:14Z</time>
      </trkpt>
      <trkpt lat="43.58785" lon="1.36411">
        <ele>164.4</ele>
        <time>2023-04-05T15:22:16Z</time>
      </trkpt>
      <trkpt lat="43.58781" lon="1.36406">
        <ele>164.4</ele>
        <time>2023-04-05T15:22:17Z</time>
      </trkpt>
      <trkpt lat="43.58757" lon="1.36383">
        <ele>164.6</ele>
        <time>2023-04-05T15:22:22Z</time>
      </trkpt>
      <trkpt lat="43.58712" lon="1.36337">
        <ele>165</ele>
        <time>2023-04-05T15:22:31Z</time>
      </trkpt>
      <trkpt lat="43.58691" lon="1.36318">
        <ele>164.8</ele>
        <time>2023-04-05T15:22:35Z</time>
      </trkpt>
      <trkpt lat="43.58683" lon="1.36307">
        <ele>165</ele>
        <time>2023-04-05T15:22:37Z</time>
      </trkpt>
      <trkpt lat="43.5864" lon="1.36252">
        <ele>165</ele>
        <time>2023-04-05T15:22:47Z</time>
      </trkpt>
      <trkpt lat="43.58631" lon="1.36243">
        <ele>165</ele>
        <time>2023-04-05T15:22:49Z</time>
      </trkpt>
      <trkpt lat="43.5862" lon="1.36241">
        <ele>165</ele>
        <time>2023-04-05T15:22:51Z</time>
      </trkpt>
      <trkpt lat="43.58587" lon="1.36255">
        <ele>165</ele>
        <time>2023-04-05T15:22:57Z</time>
      </trkpt>
      <trkpt lat="43.5855" lon="1.36274">
        <ele>165.6</ele>
        <time>2023-04-05T15:23:05Z</time>
      </trkpt>
      <trkpt lat="43.58545" lon="1.36277">
        <ele>165.8</ele>
        <time>2023-04-05T15:23:06Z</time>
      </trkpt>
      <trkpt lat="43.58524" lon="1.36287">
        <ele>166.8</ele>
        <time>2023-04-05T15:23:11Z</time>
      </trkpt>
      <trkpt lat="43.58522" lon="1.36287">
        <ele>166.8</ele>
        <time>2023-04-05T15:23:12Z</time>
      </trkpt>
      <trkpt lat="43.58522" lon="1.36285">
        <ele>167</ele>
        <time>2023-04-05T15:23:13Z</time>
      </trkpt>
      <trkpt lat="43.58523" lon="1.36282">
        <ele>167.2</ele>
        <time>2023-04-05T15:23:14Z</time>
      </trkpt>
      <trkpt lat="43.58536" lon="1.36273">
        <ele>167.8</ele>
        <time>2023-04-05T15:23:18Z</time>
      </trkpt>
      <trkpt lat="43.58541" lon="1.36271">
        <ele>167.8</ele>
        <time>2023-04-05T15:23:19Z</time>
      </trkpt>
      <trkpt lat="43.58546" lon="1.36268">
        <ele>168</ele>
        <time>2023-04-05T15:23:20Z</time>
      </trkpt>
      <trkpt lat="43.58556" lon="1.36262">
        <ele>168.2</ele>
        <time>2023-04-05T15:23:22Z</time>
      </trkpt>
      <trkpt lat="43.586" lon="1.36237">
        <ele>168.8</ele>
        <time>2023-04-05T15:23:30Z</time>
      </trkpt>
      <trkpt lat="43.58649" lon="1.36214">
        <ele>168.8</ele>
        <time>2023-04-05T15:23:38Z</time>
      </trkpt>
      <trkpt lat="43.58698" lon="1.36191">
        <ele>169</ele>
        <time>2023-04-05T15:23:46Z</time>
      </trkpt>
      <trkpt lat="43.58754" lon="1.36165">
        <ele>168.6</ele>
        <time>2023-04-05T15:23:55Z</time>
      </trkpt>
      <trkpt lat="43.5877" lon="1.36159">
        <ele>168.6</ele>
        <time>2023-04-05T15:23:58Z</time>
      </trkpt>
      <trkpt lat="43.58775" lon="1.36158">
        <ele>168.8</ele>
        <time>2023-04-05T15:24:00Z</time>
      </trkpt>
      <trkpt lat="43.58768" lon="1.36164">
        <ele>168.6</ele>
        <time>2023-04-05T15:24:03Z</time>
      </trkpt>
      <trkpt lat="43.58741" lon="1.36176">
        <ele>167.8</ele>
        <time>2023-04-05T15:24:09Z</time>
      </trkpt>
      <trkpt lat="43.58709" lon="1.36194">
        <ele>167.2</ele>
        <time>2023-04-05T15:24:15Z</time>
      </trkpt>
      <trkpt lat="43.58703" lon="1.36197">
        <ele>167</ele>
        <time>2023-04-05T15:24:16Z</time>
      </trkpt>
      <trkpt lat="43.58678" lon="1.36212">
        <ele>166.6</ele>
        <time>2023-04-05T15:24:21Z</time>
      </trkpt>
      <trkpt lat="43.58672" lon="1.36212">
        <ele>166.6</ele>
        <time>2023-04-05T15:24:22Z</time>
      </trkpt>
      <trkpt lat="43.58666" lon="1.3621">
        <ele>166.6</ele>
        <time>2023-04-05T15:24:23Z</time>
      </trkpt>
      <trkpt lat="43.58657" lon="1.36205">
        <ele>166.4</ele>
        <time>2023-04-05T15:24:25Z</time>
      </trkpt>
      <trkpt lat="43.58652" lon="1.36201">
        <ele>166.4</ele>
        <time>2023-04-05T15:24:26Z</time>
      </trkpt>
      <trkpt lat="43.58637" lon="1.3619">
        <ele>166.2</ele>
        <time>2023-04-05T15:24:29Z</time>
      </trkpt>
      <trkpt lat="43.58628" lon="1.36181">
        <ele>166</ele>
        <time>2023-04-05T15:24:31Z</time>
      </trkpt>
      <trkpt lat="43.58618" lon="1.36172">
        <ele>166</ele>
        <time>2023-04-05T15:24:34Z</time>
      </trkpt>
      <trkpt lat="43.58613" lon="1.36167">
        <ele>165.8</ele>
        <time>2023-04-05T15:24:35Z</time>
      </trkpt>
      <trkpt lat="43.58605" lon="1.36155">
        <ele>165.8</ele>
        <time>2023-04-05T15:24:37Z</time>
      </trkpt>
      <trkpt lat="43.58598" lon="1.36146">
        <ele>166</ele>
        <time>2023-04-05T15:24:39Z</time>
      </trkpt>
      <trkpt lat="43.58587" lon="1.36133">
        <ele>166</ele>
        <time>2023-04-05T15:24:42Z</time>
      </trkpt>
      <trkpt lat="43.58573" lon="1.36123">
        <ele>167</ele>
        <time>2023-04-05T15:24:45Z</time>
      </trkpt>
      <trkpt lat="43.58556" lon="1.36106">
        <ele>167.4</ele>
        <time>2023-04-05T15:24:49Z</time>
      </trkpt>
      <trkpt lat="43.58547" lon="1.36095">
        <ele>167.2</ele>
        <time>2023-04-05T15:24:51Z</time>
      </trkpt>
      <trkpt lat="43.58533" lon="1.36078">
        <ele>167.6</ele>
        <time>2023-04-05T15:24:54Z</time>
      </trkpt>
      <trkpt lat="43.58523" lon="1.3607">
        <ele>167.6</ele>
        <time>2023-04-05T15:24:56Z</time>
      </trkpt>
      <trkpt lat="43.58513" lon="1.36062">
        <ele>167.4</ele>
        <time>2023-04-05T15:24:58Z</time>
      </trkpt>
      <trkpt lat="43.58504" lon="1.3605">
        <ele>167.4</ele>
        <time>2023-04-05T15:25:00Z</time>
      </trkpt>
      <trkpt lat="43.58469" lon="1.35988">
        <ele>167</ele>
        <time>2023-04-05T15:25:09Z</time>
      </trkpt>
      <trkpt lat="43.58443" lon="1.35952">
        <ele>166.6</ele>
        <time>2023-04-05T15:25:14Z</time>
      </trkpt>
      <trkpt lat="43.58436" lon="1.3594">
        <ele>166.4</ele>
        <time>2023-04-05T15:25:16Z</time>
      </trkpt>
      <trkpt lat="43.5843" lon="1.35929">
        <ele>166</ele>
        <time>2023-04-05T15:25:18Z</time>
      </trkpt>
      <trkpt lat="43.58412" lon="1.35886">
        <ele>166</ele>
        <time>2023-04-05T15:25:25Z</time>
      </trkpt>
      <trkpt lat="43.58396" lon="1.35849">
        <ele>166</ele>
        <time>2023-04-05T15:25:30Z</time>
      </trkpt>
      <trkpt lat="43.58392" lon="1.35842">
        <ele>166</ele>
        <time>2023-04-05T15:25:31Z</time>
      </trkpt>
      <trkpt lat="43.58389" lon="1.35835">
        <ele>166</ele>
        <time>2023-04-05T15:25:32Z</time>
      </trkpt>
      <trkpt lat="43.58379" lon="1.35828">
        <ele>166</ele>
        <time>2023-04-05T15:25:34Z</time>
      </trkpt>
      <trkpt lat="43.58365" lon="1.35827">
        <ele>166</ele>
        <time>2023-04-05T15:25:37Z</time>
      </trkpt>
      <trkpt lat="43.58361" lon="1.35823">
        <ele>165.8</ele>
        <time>2023-04-05T15:25:39Z</time>
      </trkpt>
      <trkpt lat="43.5836" lon="1.35821">
        <ele>165.8</ele>
        <time>2023-04-05T15:25:40Z</time>
      </trkpt>
      <trkpt lat="43.58352" lon="1.35796">
        <ele>165.6</ele>
        <time>2023-04-05T15:25:46Z</time>
      </trkpt>
      <trkpt lat="43.58349" lon="1.35772">
        <ele>165.6</ele>
        <time>2023-04-05T15:25:50Z</time>
      </trkpt>
      <trkpt lat="43.58349" lon="1.35765">
        <ele>165.6</ele>
        <time>2023-04-05T15:25:51Z</time>
      </trkpt>
      <trkpt lat="43.5835" lon="1.35758">
        <ele>165.8</ele>
        <time>2023-04-05T15:25:52Z</time>
      </trkpt>
      <trkpt lat="43.58353" lon="1.35743">
        <ele>166</ele>
        <time>2023-04-05T15:25:54Z</time>
      </trkpt>
      <trkpt lat="43.58354" lon="1.35735">
        <ele>166</ele>
        <time>2023-04-05T15:25:55Z</time>
      </trkpt>
      <trkpt lat="43.58356" lon="1.35718">
        <ele>166.2</ele>
        <time>2023-04-05T15:25:57Z</time>
      </trkpt>
      <trkpt lat="43.58359" lon="1.35712">
        <ele>166.2</ele>
        <time>2023-04-05T15:25:58Z</time>
      </trkpt>
      <trkpt lat="43.58389" lon="1.35678">
        <ele>166.4</ele>
        <time>2023-04-05T15:26:04Z</time>
      </trkpt>
      <trkpt lat="43.58398" lon="1.35668">
        <ele>166.4</ele>
        <time>2023-04-05T15:26:06Z</time>
      </trkpt>
      <trkpt lat="43.58404" lon="1.35655">
        <ele>166.6</ele>
        <time>2023-04-05T15:26:08Z</time>
      </trkpt>
      <trkpt lat="43.58413" lon="1.35637">
        <ele>166.6</ele>
        <time>2023-04-05T15:26:11Z</time>
      </trkpt>
      <trkpt lat="43.5842" lon="1.35628">
        <ele>166.8</ele>
        <time>2023-04-05T15:26:13Z</time>
      </trkpt>
      <trkpt lat="43.58423" lon="1.3562">
        <ele>166.8</ele>
        <time>2023-04-05T15:26:14Z</time>
      </trkpt>
      <trkpt lat="43.58425" lon="1.35604">
        <ele>167</ele>
        <time>2023-04-05T15:26:16Z</time>
      </trkpt>
      <trkpt lat="43.58432" lon="1.35584">
        <ele>167.4</ele>
        <time>2023-04-05T15:26:20Z</time>
      </trkpt>
      <trkpt lat="43.58444" lon="1.35565">
        <ele>168</ele>
        <time>2023-04-05T15:26:24Z</time>
      </trkpt>
      <trkpt lat="43.58451" lon="1.35544">
        <ele>168.6</ele>
        <time>2023-04-05T15:26:28Z</time>
      </trkpt>
      <trkpt lat="43.58456" lon="1.35519">
        <ele>169</ele>
        <time>2023-04-05T15:26:33Z</time>
      </trkpt>
      <trkpt lat="43.58462" lon="1.35484">
        <ele>169</ele>
        <time>2023-04-05T15:26:39Z</time>
      </trkpt>
      <trkpt lat="43.58466" lon="1.35463">
        <ele>169</ele>
        <time>2023-04-05T15:26:42Z</time>
      </trkpt>
      <trkpt lat="43.58464" lon="1.35449">
        <ele>169</ele>
        <time>2023-04-05T15:26:44Z</time>
      </trkpt>
      <trkpt lat="43.58462" lon="1.35435">
        <ele>169.2</ele>
        <time>2023-04-05T15:26:46Z</time>
      </trkpt>
      <trkpt lat="43.58461" lon="1.35413">
        <ele>169.2</ele>
        <time>2023-04-05T15:26:49Z</time>
      </trkpt>
      <trkpt lat="43.58461" lon="1.35407">
        <ele>169.2</ele>
        <time>2023-04-05T15:26:50Z</time>
      </trkpt>
      <trkpt lat="43.58459" lon="1.35375">
        <ele>169.2</ele>
        <time>2023-04-05T15:26:55Z</time>
      </trkpt>
      <trkpt lat="43.58457" lon="1.35371">
        <ele>169.2</ele>
        <time>2023-04-05T15:26:56Z</time>
      </trkpt>
      <trkpt lat="43.58454" lon="1.35368">
        <ele>169.2</ele>
        <time>2023-04-05T15:26:57Z</time>
      </trkpt>
      <trkpt lat="43.58438" lon="1.3536">
        <ele>169.4</ele>
        <time>2023-04-05T15:27:01Z</time>
      </trkpt>
      <trkpt lat="43.58434" lon="1.35359">
        <ele>169.6</ele>
        <time>2023-04-05T15:27:02Z</time>
      </trkpt>
      <trkpt lat="43.58415" lon="1.35349">
        <ele>169.6</ele>
        <time>2023-04-05T15:27:07Z</time>
      </trkpt>
      <trkpt lat="43.5841" lon="1.35346">
        <ele>169.6</ele>
        <time>2023-04-05T15:27:08Z</time>
      </trkpt>
      <trkpt lat="43.58402" lon="1.35332">
        <ele>169.6</ele>
        <time>2023-04-05T15:27:10Z</time>
      </trkpt>
      <trkpt lat="43.584" lon="1.35313">
        <ele>169.4</ele>
        <time>2023-04-05T15:27:12Z</time>
      </trkpt>
      <trkpt lat="43.584" lon="1.35302">
        <ele>169.2</ele>
        <time>2023-04-05T15:27:13Z</time>
      </trkpt>
      <trkpt lat="43.58399" lon="1.35292">
        <ele>168.8</ele>
        <time>2023-04-05T15:27:14Z</time>
      </trkpt>
      <trkpt lat="43.58398" lon="1.35283">
        <ele>168.4</ele>
        <time>2023-04-05T15:27:15Z</time>
      </trkpt>
      <trkpt lat="43.58394" lon="1.35265">
        <ele>168</ele>
        <time>2023-04-05T15:27:17Z</time>
      </trkpt>
      <trkpt lat="43.58386" lon="1.35207">
        <ele>167.4</ele>
        <time>2023-04-05T15:27:24Z</time>
      </trkpt>
      <trkpt lat="43.58384" lon="1.35199">
        <ele>167.4</ele>
        <time>2023-04-05T15:27:25Z</time>
      </trkpt>
      <trkpt lat="43.58381" lon="1.35192">
        <ele>167.4</ele>
        <time>2023-04-05T15:27:26Z</time>
      </trkpt>
      <trkpt lat="43.58374" lon="1.3518">
        <ele>167.4</ele>
        <time>2023-04-05T15:27:28Z</time>
      </trkpt>
      <trkpt lat="43.58357" lon="1.35155">
        <ele>167.4</ele>
        <time>2023-04-05T15:27:32Z</time>
      </trkpt>
      <trkpt lat="43.58354" lon="1.35148">
        <ele>167.4</ele>
        <time>2023-04-05T15:27:33Z</time>
      </trkpt>
      <trkpt lat="43.58351" lon="1.35142">
        <ele>167.6</ele>
        <time>2023-04-05T15:27:34Z</time>
      </trkpt>
      <trkpt lat="43.5834" lon="1.35124">
        <ele>167.8</ele>
        <time>2023-04-05T15:27:37Z</time>
      </trkpt>
      <trkpt lat="43.58336" lon="1.35117">
        <ele>167.8</ele>
        <time>2023-04-05T15:27:38Z</time>
      </trkpt>
      <trkpt lat="43.58323" lon="1.35095">
        <ele>168</ele>
        <time>2023-04-05T15:27:42Z</time>
      </trkpt>
      <trkpt lat="43.58311" lon="1.35088">
        <ele>168.2</ele>
        <time>2023-04-05T15:27:44Z</time>
      </trkpt>
      <trkpt lat="43.58305" lon="1.35087">
        <ele>168.2</ele>
        <time>2023-04-05T15:27:45Z</time>
      </trkpt>
      <trkpt lat="43.58298" lon="1.35087">
        <ele>168.4</ele>
        <time>2023-04-05T15:27:46Z</time>
      </trkpt>
      <trkpt lat="43.58274" lon="1.35088">
        <ele>168.8</ele>
        <time>2023-04-05T15:27:50Z</time>
      </trkpt>
      <trkpt lat="43.5824" lon="1.35093">
        <ele>168.6</ele>
        <time>2023-04-05T15:27:56Z</time>
      </trkpt>
      <trkpt lat="43.58226" lon="1.35095">
        <ele>169</ele>
        <time>2023-04-05T15:28:00Z</time>
      </trkpt>
      <trkpt lat="43.58224" lon="1.35093">
        <ele>169</ele>
        <time>2023-04-05T15:28:01Z</time>
      </trkpt>
      <trkpt lat="43.58221" lon="1.35085">
        <ele>169</ele>
        <time>2023-04-05T15:28:03Z</time>
      </trkpt>
      <trkpt lat="43.58215" lon="1.35077">
        <ele>169.2</ele>
        <time>2023-04-05T15:28:05Z</time>
      </trkpt>
      <trkpt lat="43.58207" lon="1.35071">
        <ele>169.2</ele>
        <time>2023-04-05T15:28:07Z</time>
      </trkpt>
      <trkpt lat="43.5819" lon="1.35054">
        <ele>169.2</ele>
        <time>2023-04-05T15:28:11Z</time>
      </trkpt>
      <trkpt lat="43.58184" lon="1.35044">
        <ele>169</ele>
        <time>2023-04-05T15:28:13Z</time>
      </trkpt>
      <trkpt lat="43.58179" lon="1.35034">
        <ele>169</ele>
        <time>2023-04-05T15:28:15Z</time>
      </trkpt>
      <trkpt lat="43.58173" lon="1.35025">
        <ele>169</ele>
        <time>2023-04-05T15:28:17Z</time>
      </trkpt>
      <trkpt lat="43.58168" lon="1.35024">
        <ele>169</ele>
        <time>2023-04-05T15:28:18Z</time>
      </trkpt>
      <trkpt lat="43.58143" lon="1.35032">
        <ele>169</ele>
        <time>2023-04-05T15:28:23Z</time>
      </trkpt>
      <trkpt lat="43.58133" lon="1.3503">
        <ele>169.2</ele>
        <time>2023-04-05T15:28:25Z</time>
      </trkpt>
      <trkpt lat="43.58123" lon="1.35023">
        <ele>169</ele>
        <time>2023-04-05T15:28:27Z</time>
      </trkpt>
      <trkpt lat="43.58118" lon="1.35019">
        <ele>169</ele>
        <time>2023-04-05T15:28:28Z</time>
      </trkpt>
      <trkpt lat="43.581" lon="1.35012">
        <ele>169</ele>
        <time>2023-04-05T15:28:31Z</time>
      </trkpt>
      <trkpt lat="43.58051" lon="1.34998">
        <ele>168.8</ele>
        <time>2023-04-05T15:28:39Z</time>
      </trkpt>
      <trkpt lat="43.58016" lon="1.34976">
        <ele>169</ele>
        <time>2023-04-05T15:28:45Z</time>
      </trkpt>
      <trkpt lat="43.58011" lon="1.34973">
        <ele>169.2</ele>
        <time>2023-04-05T15:28:46Z</time>
      </trkpt>
      <trkpt lat="43.58001" lon="1.34962">
        <ele>169.4</ele>
        <time>2023-04-05T15:28:48Z</time>
      </trkpt>
      <trkpt lat="43.57985" lon="1.34939">
        <ele>169.8</ele>
        <time>2023-04-05T15:28:52Z</time>
      </trkpt>
      <trkpt lat="43.57956" lon="1.34912">
        <ele>170.2</ele>
        <time>2023-04-05T15:28:58Z</time>
      </trkpt>
      <trkpt lat="43.57915" lon="1.34878">
        <ele>170</ele>
        <time>2023-04-05T15:29:06Z</time>
      </trkpt>
      <trkpt lat="43.57892" lon="1.3485">
        <ele>170.2</ele>
        <time>2023-04-05T15:29:11Z</time>
      </trkpt>
      <trkpt lat="43.57881" lon="1.34841">
        <ele>170.2</ele>
        <time>2023-04-05T15:29:13Z</time>
      </trkpt>
      <trkpt lat="43.57864" lon="1.3483">
        <ele>170.4</ele>
        <time>2023-04-05T15:29:16Z</time>
      </trkpt>
      <trkpt lat="43.57856" lon="1.3482">
        <ele>170.4</ele>
        <time>2023-04-05T15:29:18Z</time>
      </trkpt>
      <trkpt lat="43.57853" lon="1.34814">
        <ele>170.4</ele>
        <time>2023-04-05T15:29:19Z</time>
      </trkpt>
      <trkpt lat="43.5784" lon="1.34788">
        <ele>170.6</ele>
        <time>2023-04-05T15:29:23Z</time>
      </trkpt>
      <trkpt lat="43.5781" lon="1.34727">
        <ele>171</ele>
        <time>2023-04-05T15:29:32Z</time>
      </trkpt>
      <trkpt lat="43.57806" lon="1.3472">
        <ele>171</ele>
        <time>2023-04-05T15:29:33Z</time>
      </trkpt>
      <trkpt lat="43.57793" lon="1.34681">
        <ele>171</ele>
        <time>2023-04-05T15:29:38Z</time>
      </trkpt>
      <trkpt lat="43.57789" lon="1.34665">
        <ele>171</ele>
        <time>2023-04-05T15:29:40Z</time>
      </trkpt>
      <trkpt lat="43.57785" lon="1.3463">
        <ele>171</ele>
        <time>2023-04-05T15:29:44Z</time>
      </trkpt>
      <trkpt lat="43.57779" lon="1.34578">
        <ele>171</ele>
        <time>2023-04-05T15:29:50Z</time>
      </trkpt>
      <trkpt lat="43.57779" lon="1.34569">
        <ele>171</ele>
        <time>2023-04-05T15:29:51Z</time>
      </trkpt>
      <trkpt lat="43.5778" lon="1.3456">
        <ele>171</ele>
        <time>2023-04-05T15:29:52Z</time>
      </trkpt>
      <trkpt lat="43.57787" lon="1.3452">
        <ele>170.8</ele>
        <time>2023-04-05T15:29:56Z</time>
      </trkpt>
      <trkpt lat="43.57797" lon="1.34466">
        <ele>170.2</ele>
        <time>2023-04-05T15:30:02Z</time>
      </trkpt>
      <trkpt lat="43.57809" lon="1.34418">
        <ele>170.2</ele>
        <time>2023-04-05T15:30:08Z</time>
      </trkpt>
      <trkpt lat="43.57811" lon="1.34412">
        <ele>170.4</ele>
        <time>2023-04-05T15:30:09Z</time>
      </trkpt>
      <trkpt lat="43.57812" lon="1.34397">
        <ele>170.4</ele>
        <time>2023-04-05T15:30:11Z</time>
      </trkpt>
      <trkpt lat="43.57811" lon="1.3439">
        <ele>170.6</ele>
        <time>2023-04-05T15:30:12Z</time>
      </trkpt>
      <trkpt lat="43.57809" lon="1.34383">
        <ele>170.6</ele>
        <time>2023-04-05T15:30:13Z</time>
      </trkpt>
      <trkpt lat="43.57805" lon="1.34371">
        <ele>170.8</ele>
        <time>2023-04-05T15:30:15Z</time>
      </trkpt>
      <trkpt lat="43.57801" lon="1.34366">
        <ele>170.8</ele>
        <time>2023-04-05T15:30:16Z</time>
      </trkpt>
      <trkpt lat="43.57797" lon="1.34362">
        <ele>171</ele>
        <time>2023-04-05T15:30:17Z</time>
      </trkpt>
      <trkpt lat="43.57787" lon="1.34358">
        <ele>171.2</ele>
        <time>2023-04-05T15:30:19Z</time>
      </trkpt>
      <trkpt lat="43.57782" lon="1.34357">
        <ele>171.2</ele>
        <time>2023-04-05T15:30:20Z</time>
      </trkpt>
      <trkpt lat="43.57772" lon="1.34356">
        <ele>171.4</ele>
        <time>2023-04-05T15:30:22Z</time>
      </trkpt>
      <trkpt lat="43.57767" lon="1.34357">
        <ele>171.6</ele>
        <time>2023-04-05T15:30:23Z</time>
      </trkpt>
      <trkpt lat="43.57747" lon="1.34363">
        <ele>171.8</ele>
        <time>2023-04-05T15:30:27Z</time>
      </trkpt>
      <trkpt lat="43.57741" lon="1.34362">
        <ele>171.8</ele>
        <time>2023-04-05T15:30:29Z</time>
      </trkpt>
      <trkpt lat="43.5774" lon="1.3436">
        <ele>172</ele>
        <time>2023-04-05T15:30:31Z</time>
      </trkpt>
      <trkpt lat="43.5775" lon="1.34354">
        <ele>172.4</ele>
        <time>2023-04-05T15:30:37Z</time>
      </trkpt>
      <trkpt lat="43.57759" lon="1.34348">
        <ele>172.4</ele>
        <time>2023-04-05T15:30:40Z</time>
      </trkpt>
      <trkpt lat="43.57769" lon="1.34342">
        <ele>172.6</ele>
        <time>2023-04-05T15:30:43Z</time>
      </trkpt>
      <trkpt lat="43.57781" lon="1.34322">
        <ele>173.2</ele>
        <time>2023-04-05T15:30:48Z</time>
      </trkpt>
      <trkpt lat="43.57786" lon="1.34315">
        <ele>173.6</ele>
        <time>2023-04-05T15:30:50Z</time>
      </trkpt>
      <trkpt lat="43.57791" lon="1.34305">
        <ele>173.8</ele>
        <time>2023-04-05T15:30:53Z</time>
      </trkpt>
      <trkpt lat="43.5779" lon="1.34303">
        <ele>174</ele>
        <time>2023-04-05T15:30:54Z</time>
      </trkpt>
      <trkpt lat="43.57773" lon="1.34292">
        <ele>174</ele>
        <time>2023-04-05T15:30:59Z</time>
      </trkpt>
      <trkpt lat="43.57758" lon="1.34285">
        <ele>173.6</ele>
        <time>2023-04-05T15:31:02Z</time>
      </trkpt>
      <trkpt lat="43.57748" lon="1.34284">
        <ele>173.2</ele>
        <time>2023-04-05T15:31:04Z</time>
      </trkpt>
      <trkpt lat="43.57739" lon="1.34283">
        <ele>173</ele>
        <time>2023-04-05T15:31:06Z</time>
      </trkpt>
      <trkpt lat="43.57735" lon="1.34278">
        <ele>172.6</ele>
        <time>2023-04-05T15:31:08Z</time>
      </trkpt>
      <trkpt lat="43.57728" lon="1.34273">
        <ele>172.6</ele>
        <time>2023-04-05T15:31:10Z</time>
      </trkpt>
      <trkpt lat="43.57724" lon="1.34272">
        <ele>172.4</ele>
        <time>2023-04-05T15:31:11Z</time>
      </trkpt>
      <trkpt lat="43.57721" lon="1.34271">
        <ele>172.4</ele>
        <time>2023-04-05T15:31:12Z</time>
      </trkpt>
      <trkpt lat="43.57689" lon="1.34257">
        <ele>172.4</ele>
        <time>2023-04-05T15:31:19Z</time>
      </trkpt>
      <trkpt lat="43.57679" lon="1.3425">
        <ele>172.6</ele>
        <time>2023-04-05T15:31:21Z</time>
      </trkpt>
      <trkpt lat="43.57671" lon="1.3424">
        <ele>172.6</ele>
        <time>2023-04-05T15:31:23Z</time>
      </trkpt>
      <trkpt lat="43.57654" lon="1.3422">
        <ele>172.8</ele>
        <time>2023-04-05T15:31:27Z</time>
      </trkpt>
      <trkpt lat="43.57642" lon="1.34201">
        <ele>173</ele>
        <time>2023-04-05T15:31:30Z</time>
      </trkpt>
      <trkpt lat="43.57618" lon="1.34166">
        <ele>173.6</ele>
        <time>2023-04-05T15:31:36Z</time>
      </trkpt>
      <trkpt lat="43.57614" lon="1.34158">
        <ele>173.6</ele>
        <time>2023-04-05T15:31:37Z</time>
      </trkpt>
      <trkpt lat="43.57612" lon="1.34152">
        <ele>173.6</ele>
        <time>2023-04-05T15:31:38Z</time>
      </trkpt>
      <trkpt lat="43.5761" lon="1.34135">
        <ele>173.6</ele>
        <time>2023-04-05T15:31:40Z</time>
      </trkpt>
      <trkpt lat="43.5761" lon="1.34127">
        <ele>173.6</ele>
        <time>2023-04-05T15:31:41Z</time>
      </trkpt>
      <trkpt lat="43.57614" lon="1.3408">
        <ele>173.8</ele>
        <time>2023-04-05T15:31:47Z</time>
      </trkpt>
      <trkpt lat="43.57616" lon="1.34065">
        <ele>173.8</ele>
        <time>2023-04-05T15:31:49Z</time>
      </trkpt>
      <trkpt lat="43.57621" lon="1.34051">
        <ele>173.8</ele>
        <time>2023-04-05T15:31:51Z</time>
      </trkpt>
      <trkpt lat="43.57629" lon="1.34029">
        <ele>173.6</ele>
        <time>2023-04-05T15:31:54Z</time>
      </trkpt>
      <trkpt lat="43.57629" lon="1.34016">
        <ele>173.4</ele>
        <time>2023-04-05T15:31:56Z</time>
      </trkpt>
      <trkpt lat="43.57623" lon="1.34006">
        <ele>173.6</ele>
        <time>2023-04-05T15:31:58Z</time>
      </trkpt>
      <trkpt lat="43.57618" lon="1.34001">
        <ele>173.6</ele>
        <time>2023-04-05T15:31:59Z</time>
      </trkpt>
      <trkpt lat="43.57599" lon="1.33985">
        <ele>173.4</ele>
        <time>2023-04-05T15:32:03Z</time>
      </trkpt>
      <trkpt lat="43.57594" lon="1.3398">
        <ele>173.4</ele>
        <time>2023-04-05T15:32:04Z</time>
      </trkpt>
      <trkpt lat="43.57586" lon="1.33968">
        <ele>173.4</ele>
        <time>2023-04-05T15:32:06Z</time>
      </trkpt>
      <trkpt lat="43.57582" lon="1.33953">
        <ele>173.4</ele>
        <time>2023-04-05T15:32:08Z</time>
      </trkpt>
      <trkpt lat="43.57586" lon="1.33941">
        <ele>173.4</ele>
        <time>2023-04-05T15:32:10Z</time>
      </trkpt>
      <trkpt lat="43.57607" lon="1.33913">
        <ele>173.6</ele>
        <time>2023-04-05T15:32:16Z</time>
      </trkpt>
      <trkpt lat="43.57611" lon="1.33907">
        <ele>173.6</ele>
        <time>2023-04-05T15:32:17Z</time>
      </trkpt>
      <trkpt lat="43.57617" lon="1.33892">
        <ele>173.4</ele>
        <time>2023-04-05T15:32:19Z</time>
      </trkpt>
      <trkpt lat="43.57623" lon="1.33845">
        <ele>172.8</ele>
        <time>2023-04-05T15:32:25Z</time>
      </trkpt>
      <trkpt lat="43.57627" lon="1.33813">
        <ele>172.8</ele>
        <time>2023-04-05T15:32:30Z</time>
      </trkpt>
      <trkpt lat="43.5763" lon="1.33802">
        <ele>172.8</ele>
        <time>2023-04-05T15:32:32Z</time>
      </trkpt>
      <trkpt lat="43.57631" lon="1.33789">
        <ele>173</ele>
        <time>2023-04-05T15:32:34Z</time>
      </trkpt>
      <trkpt lat="43.57631" lon="1.33782">
        <ele>173</ele>
        <time>2023-04-05T15:32:35Z</time>
      </trkpt>
      <trkpt lat="43.57631" lon="1.33742">
        <ele>173</ele>
        <time>2023-04-05T15:32:40Z</time>
      </trkpt>
      <trkpt lat="43.5763" lon="1.33701">
        <ele>172.6</ele>
        <time>2023-04-05T15:32:45Z</time>
      </trkpt>
      <trkpt lat="43.57629" lon="1.33684">
        <ele>172.6</ele>
        <time>2023-04-05T15:32:47Z</time>
      </trkpt>
      <trkpt lat="43.57624" lon="1.33612">
        <ele>172.6</ele>
        <time>2023-04-05T15:32:56Z</time>
      </trkpt>
      <trkpt lat="43.57612" lon="1.33549">
        <ele>172.8</ele>
        <time>2023-04-05T15:33:04Z</time>
      </trkpt>
      <trkpt lat="43.57589" lon="1.33499">
        <ele>172.6</ele>
        <time>2023-04-05T15:33:11Z</time>
      </trkpt>
      <trkpt lat="43.57564" lon="1.3344">
        <ele>172.4</ele>
        <time>2023-04-05T15:33:19Z</time>
      </trkpt>
      <trkpt lat="43.57535" lon="1.33384">
        <ele>172.4</ele>
        <time>2023-04-05T15:33:27Z</time>
      </trkpt>
      <trkpt lat="43.57513" lon="1.33345">
        <ele>172.6</ele>
        <time>2023-04-05T15:33:33Z</time>
      </trkpt>
      <trkpt lat="43.5751" lon="1.3333">
        <ele>172.6</ele>
        <time>2023-04-05T15:33:35Z</time>
      </trkpt>
      <trkpt lat="43.57508" lon="1.33313">
        <ele>173</ele>
        <time>2023-04-05T15:33:37Z</time>
      </trkpt>
      <trkpt lat="43.57495" lon="1.33258">
        <ele>173.2</ele>
        <time>2023-04-05T15:33:44Z</time>
      </trkpt>
      <trkpt lat="43.57476" lon="1.33216">
        <ele>173.2</ele>
        <time>2023-04-05T15:33:50Z</time>
      </trkpt>
      <trkpt lat="43.57452" lon="1.3318">
        <ele>173.4</ele>
        <time>2023-04-05T15:33:56Z</time>
      </trkpt>
      <trkpt lat="43.57449" lon="1.33173">
        <ele>173.4</ele>
        <time>2023-04-05T15:33:57Z</time>
      </trkpt>
      <trkpt lat="43.57441" lon="1.33151">
        <ele>173.6</ele>
        <time>2023-04-05T15:34:00Z</time>
      </trkpt>
      <trkpt lat="43.57439" lon="1.33139">
        <ele>173.8</ele>
        <time>2023-04-05T15:34:02Z</time>
      </trkpt>
      <trkpt lat="43.57437" lon="1.33133">
        <ele>173.8</ele>
        <time>2023-04-05T15:34:03Z</time>
      </trkpt>
      <trkpt lat="43.57432" lon="1.33121">
        <ele>174.4</ele>
        <time>2023-04-05T15:34:05Z</time>
      </trkpt>
      <trkpt lat="43.57427" lon="1.33109">
        <ele>174.8</ele>
        <time>2023-04-05T15:34:07Z</time>
      </trkpt>
      <trkpt lat="43.57422" lon="1.33098">
        <ele>174.8</ele>
        <time>2023-04-05T15:34:09Z</time>
      </trkpt>
      <trkpt lat="43.57405" lon="1.33061">
        <ele>175.8</ele>
        <time>2023-04-05T15:34:15Z</time>
      </trkpt>
      <trkpt lat="43.57402" lon="1.33055">
        <ele>176</ele>
        <time>2023-04-05T15:34:16Z</time>
      </trkpt>
      <trkpt lat="43.57395" lon="1.33045">
        <ele>176</ele>
        <time>2023-04-05T15:34:18Z</time>
      </trkpt>
      <trkpt lat="43.57388" lon="1.3304">
        <ele>176</ele>
        <time>2023-04-05T15:34:20Z</time>
      </trkpt>
      <trkpt lat="43.57383" lon="1.33036">
        <ele>175.2</ele>
        <time>2023-04-05T15:34:24Z</time>
      </trkpt>
      <trkpt lat="43.57378" lon="1.33034">
        <ele>174.6</ele>
        <time>2023-04-05T15:34:26Z</time>
      </trkpt>
      <trkpt lat="43.57377" lon="1.33032">
        <ele>174.6</ele>
        <time>2023-04-05T15:34:27Z</time>
      </trkpt>
      <trkpt lat="43.57375" lon="1.33029">
        <ele>174.2</ele>
        <time>2023-04-05T15:34:28Z</time>
      </trkpt>
      <trkpt lat="43.57368" lon="1.33019">
        <ele>173.6</ele>
        <time>2023-04-05T15:34:31Z</time>
      </trkpt>
      <trkpt lat="43.57363" lon="1.33011">
        <ele>173.6</ele>
        <time>2023-04-05T15:34:33Z</time>
      </trkpt>
      <trkpt lat="43.57344" lon="1.32984">
        <ele>174</ele>
        <time>2023-04-05T15:34:39Z</time>
      </trkpt>
      <trkpt lat="43.57324" lon="1.32948">
        <ele>174.6</ele>
        <time>2023-04-05T15:34:45Z</time>
      </trkpt>
      <trkpt lat="43.57317" lon="1.32937">
        <ele>175</ele>
        <time>2023-04-05T15:34:47Z</time>
      </trkpt>
      <trkpt lat="43.57305" lon="1.32922">
        <ele>175.2</ele>
        <time>2023-04-05T15:34:50Z</time>
      </trkpt>
      <trkpt lat="43.57293" lon="1.32906">
        <ele>175.2</ele>
        <time>2023-04-05T15:34:53Z</time>
      </trkpt>
      <trkpt lat="43.57273" lon="1.32886">
        <ele>175</ele>
        <time>2023-04-05T15:34:57Z</time>
      </trkpt>
      <trkpt lat="43.57229" lon="1.32851">
        <ele>174.6</ele>
        <time>2023-04-05T15:35:06Z</time>
      </trkpt>
      <trkpt lat="43.57192" lon="1.32817">
        <ele>175</ele>
        <time>2023-04-05T15:35:14Z</time>
      </trkpt>
      <trkpt lat="43.57149" lon="1.32767">
        <ele>175</ele>
        <time>2023-04-05T15:35:24Z</time>
      </trkpt>
      <trkpt lat="43.57124" lon="1.32723">
        <ele>175.2</ele>
        <time>2023-04-05T15:35:31Z</time>
      </trkpt>
      <trkpt lat="43.57121" lon="1.32716">
        <ele>175.4</ele>
        <time>2023-04-05T15:35:32Z</time>
      </trkpt>
      <trkpt lat="43.57118" lon="1.32701">
        <ele>175.4</ele>
        <time>2023-04-05T15:35:34Z</time>
      </trkpt>
      <trkpt lat="43.57117" lon="1.32693">
        <ele>175.6</ele>
        <time>2023-04-05T15:35:35Z</time>
      </trkpt>
      <trkpt lat="43.57117" lon="1.32685">
        <ele>175.6</ele>
        <time>2023-04-05T15:35:36Z</time>
      </trkpt>
      <trkpt lat="43.57119" lon="1.32666">
        <ele>175.6</ele>
        <time>2023-04-05T15:35:38Z</time>
      </trkpt>
      <trkpt lat="43.57121" lon="1.32649">
        <ele>175.8</ele>
        <time>2023-04-05T15:35:40Z</time>
      </trkpt>
      <trkpt lat="43.57126" lon="1.32617">
        <ele>176</ele>
        <time>2023-04-05T15:35:44Z</time>
      </trkpt>
      <trkpt lat="43.57134" lon="1.32584">
        <ele>176</ele>
        <time>2023-04-05T15:35:48Z</time>
      </trkpt>
      <trkpt lat="43.57152" lon="1.32514">
        <ele>176.2</ele>
        <time>2023-04-05T15:35:57Z</time>
      </trkpt>
      <trkpt lat="43.57155" lon="1.32498">
        <ele>176.2</ele>
        <time>2023-04-05T15:35:59Z</time>
      </trkpt>
      <trkpt lat="43.57166" lon="1.32449">
        <ele>176.8</ele>
        <time>2023-04-05T15:36:05Z</time>
      </trkpt>
      <trkpt lat="43.57175" lon="1.32416">
        <ele>177</ele>
        <time>2023-04-05T15:36:09Z</time>
      </trkpt>
      <trkpt lat="43.5718" lon="1.32383">
        <ele>177.4</ele>
        <time>2023-04-05T15:36:13Z</time>
      </trkpt>
      <trkpt lat="43.5718" lon="1.32374">
        <ele>177.4</ele>
        <time>2023-04-05T15:36:14Z</time>
      </trkpt>
      <trkpt lat="43.57179" lon="1.32341">
        <ele>177.2</ele>
        <time>2023-04-05T15:36:18Z</time>
      </trkpt>
      <trkpt lat="43.57174" lon="1.32273">
        <ele>177</ele>
        <time>2023-04-05T15:36:26Z</time>
      </trkpt>
      <trkpt lat="43.57174" lon="1.32265">
        <ele>177</ele>
        <time>2023-04-05T15:36:27Z</time>
      </trkpt>
      <trkpt lat="43.57176" lon="1.3225">
        <ele>177</ele>
        <time>2023-04-05T15:36:29Z</time>
      </trkpt>
      <trkpt lat="43.57179" lon="1.32236">
        <ele>177</ele>
        <time>2023-04-05T15:36:31Z</time>
      </trkpt>
      <trkpt lat="43.57194" lon="1.32184">
        <ele>177.2</ele>
        <time>2023-04-05T15:36:38Z</time>
      </trkpt>
      <trkpt lat="43.57199" lon="1.32137">
        <ele>177.6</ele>
        <time>2023-04-05T15:36:44Z</time>
      </trkpt>
      <trkpt lat="43.572" lon="1.3212">
        <ele>177.8</ele>
        <time>2023-04-05T15:36:46Z</time>
      </trkpt>
      <trkpt lat="43.57198" lon="1.32112">
        <ele>177.8</ele>
        <time>2023-04-05T15:36:47Z</time>
      </trkpt>
      <trkpt lat="43.57184" lon="1.32066">
        <ele>177.8</ele>
        <time>2023-04-05T15:36:53Z</time>
      </trkpt>
      <trkpt lat="43.57182" lon="1.32059">
        <ele>177.6</ele>
        <time>2023-04-05T15:36:54Z</time>
      </trkpt>
      <trkpt lat="43.57176" lon="1.32047">
        <ele>177.4</ele>
        <time>2023-04-05T15:36:56Z</time>
      </trkpt>
      <trkpt lat="43.57173" lon="1.3204">
        <ele>177.4</ele>
        <time>2023-04-05T15:36:57Z</time>
      </trkpt>
      <trkpt lat="43.57169" lon="1.32034">
        <ele>177.4</ele>
        <time>2023-04-05T15:36:58Z</time>
      </trkpt>
      <trkpt lat="43.57159" lon="1.32023">
        <ele>177.4</ele>
        <time>2023-04-05T15:37:00Z</time>
      </trkpt>
      <trkpt lat="43.57154" lon="1.32019">
        <ele>177.4</ele>
        <time>2023-04-05T15:37:01Z</time>
      </trkpt>
      <trkpt lat="43.57125" lon="1.31998">
        <ele>177.2</ele>
        <time>2023-04-05T15:37:06Z</time>
      </trkpt>
      <trkpt lat="43.57113" lon="1.31993">
        <ele>177.2</ele>
        <time>2023-04-05T15:37:08Z</time>
      </trkpt>
      <trkpt lat="43.57068" lon="1.31968">
        <ele>176.2</ele>
        <time>2023-04-05T15:37:15Z</time>
      </trkpt>
      <trkpt lat="43.57061" lon="1.31962">
        <ele>176.2</ele>
        <time>2023-04-05T15:37:16Z</time>
      </trkpt>
      <trkpt lat="43.57016" lon="1.31931">
        <ele>175.8</ele>
        <time>2023-04-05T15:37:24Z</time>
      </trkpt>
      <trkpt lat="43.56971" lon="1.31907">
        <ele>175.2</ele>
        <time>2023-04-05T15:37:32Z</time>
      </trkpt>
      <trkpt lat="43.56961" lon="1.31898">
        <ele>175.2</ele>
        <time>2023-04-05T15:37:34Z</time>
      </trkpt>
      <trkpt lat="43.56947" lon="1.31882">
        <ele>175.4</ele>
        <time>2023-04-05T15:37:37Z</time>
      </trkpt>
      <trkpt lat="43.56941" lon="1.31869">
        <ele>175.4</ele>
        <time>2023-04-05T15:37:39Z</time>
      </trkpt>
      <trkpt lat="43.56937" lon="1.31855">
        <ele>175.6</ele>
        <time>2023-04-05T15:37:41Z</time>
      </trkpt>
      <trkpt lat="43.56935" lon="1.31838">
        <ele>175.6</ele>
        <time>2023-04-05T15:37:43Z</time>
      </trkpt>
      <trkpt lat="43.5693" lon="1.31822">
        <ele>175.6</ele>
        <time>2023-04-05T15:37:45Z</time>
      </trkpt>
      <trkpt lat="43.56926" lon="1.31805">
        <ele>176</ele>
        <time>2023-04-05T15:37:47Z</time>
      </trkpt>
      <trkpt lat="43.56921" lon="1.3178">
        <ele>176</ele>
        <time>2023-04-05T15:37:50Z</time>
      </trkpt>
      <trkpt lat="43.5691" lon="1.31721">
        <ele>176.2</ele>
        <time>2023-04-05T15:37:57Z</time>
      </trkpt>
      <trkpt lat="43.56896" lon="1.31667">
        <ele>176.2</ele>
        <time>2023-04-05T15:38:04Z</time>
      </trkpt>
      <trkpt lat="43.56891" lon="1.31644">
        <ele>175.8</ele>
        <time>2023-04-05T15:38:07Z</time>
      </trkpt>
      <trkpt lat="43.56892" lon="1.31629">
        <ele>175.8</ele>
        <time>2023-04-05T15:38:09Z</time>
      </trkpt>
      <trkpt lat="43.56893" lon="1.31617">
        <ele>175.8</ele>
        <time>2023-04-05T15:38:11Z</time>
      </trkpt>
      <trkpt lat="43.56891" lon="1.31613">
        <ele>175.8</ele>
        <time>2023-04-05T15:38:12Z</time>
      </trkpt>
      <trkpt lat="43.5688" lon="1.31603">
        <ele>175.8</ele>
        <time>2023-04-05T15:38:15Z</time>
      </trkpt>
      <trkpt lat="43.56875" lon="1.31602">
        <ele>175.8</ele>
        <time>2023-04-05T15:38:16Z</time>
      </trkpt>
      <trkpt lat="43.5687" lon="1.31602">
        <ele>175.8</ele>
        <time>2023-04-05T15:38:17Z</time>
      </trkpt>
      <trkpt lat="43.56858" lon="1.31603">
        <ele>175.8</ele>
        <time>2023-04-05T15:38:19Z</time>
      </trkpt>
      <trkpt lat="43.56851" lon="1.31602">
        <ele>175.8</ele>
        <time>2023-04-05T15:38:20Z</time>
      </trkpt>
      <trkpt lat="43.56845" lon="1.31598">
        <ele>175.8</ele>
        <time>2023-04-05T15:38:21Z</time>
      </trkpt>
      <trkpt lat="43.56835" lon="1.31589">
        <ele>175.4</ele>
        <time>2023-04-05T15:38:23Z</time>
      </trkpt>
      <trkpt lat="43.5683" lon="1.31584">
        <ele>175.4</ele>
        <time>2023-04-05T15:38:24Z</time>
      </trkpt>
      <trkpt lat="43.56825" lon="1.31578">
        <ele>175.2</ele>
        <time>2023-04-05T15:38:25Z</time>
      </trkpt>
      <trkpt lat="43.56814" lon="1.31558">
        <ele>175.2</ele>
        <time>2023-04-05T15:38:28Z</time>
      </trkpt>
      <trkpt lat="43.56792" lon="1.3151">
        <ele>175.8</ele>
        <time>2023-04-05T15:38:35Z</time>
      </trkpt>
      <trkpt lat="43.56788" lon="1.31503">
        <ele>175.8</ele>
        <time>2023-04-05T15:38:36Z</time>
      </trkpt>
      <trkpt lat="43.56785" lon="1.31497">
        <ele>175.8</ele>
        <time>2023-04-05T15:38:37Z</time>
      </trkpt>
      <trkpt lat="43.56778" lon="1.31484">
        <ele>176</ele>
        <time>2023-04-05T15:38:39Z</time>
      </trkpt>
      <trkpt lat="43.56774" lon="1.31478">
        <ele>176</ele>
        <time>2023-04-05T15:38:40Z</time>
      </trkpt>
      <trkpt lat="43.56767" lon="1.31467">
        <ele>176</ele>
        <time>2023-04-05T15:38:42Z</time>
      </trkpt>
      <trkpt lat="43.5676" lon="1.31453">
        <ele>176</ele>
        <time>2023-04-05T15:38:44Z</time>
      </trkpt>
      <trkpt lat="43.56757" lon="1.31448">
        <ele>176</ele>
        <time>2023-04-05T15:38:45Z</time>
      </trkpt>
      <trkpt lat="43.56738" lon="1.31415">
        <ele>176.2</ele>
        <time>2023-04-05T15:38:50Z</time>
      </trkpt>
      <trkpt lat="43.56733" lon="1.3141">
        <ele>176.4</ele>
        <time>2023-04-05T15:38:51Z</time>
      </trkpt>
      <trkpt lat="43.56723" lon="1.31398">
        <ele>176.4</ele>
        <time>2023-04-05T15:38:53Z</time>
      </trkpt>
      <trkpt lat="43.567" lon="1.31369">
        <ele>176.8</ele>
        <time>2023-04-05T15:38:58Z</time>
      </trkpt>
      <trkpt lat="43.5669" lon="1.31358">
        <ele>176.8</ele>
        <time>2023-04-05T15:39:00Z</time>
      </trkpt>
      <trkpt lat="43.56683" lon="1.31344">
        <ele>176.8</ele>
        <time>2023-04-05T15:39:02Z</time>
      </trkpt>
      <trkpt lat="43.5668" lon="1.31336">
        <ele>176.8</ele>
        <time>2023-04-05T15:39:03Z</time>
      </trkpt>
      <trkpt lat="43.56679" lon="1.31328">
        <ele>176.8</ele>
        <time>2023-04-05T15:39:04Z</time>
      </trkpt>
      <trkpt lat="43.56672" lon="1.31288">
        <ele>176.8</ele>
        <time>2023-04-05T15:39:09Z</time>
      </trkpt>
      <trkpt lat="43.56671" lon="1.31281">
        <ele>176.8</ele>
        <time>2023-04-05T15:39:10Z</time>
      </trkpt>
      <trkpt lat="43.56664" lon="1.31262">
        <ele>177</ele>
        <time>2023-04-05T15:39:13Z</time>
      </trkpt>
      <trkpt lat="43.56661" lon="1.31257">
        <ele>177.4</ele>
        <time>2023-04-05T15:39:14Z</time>
      </trkpt>
      <trkpt lat="43.56657" lon="1.31252">
        <ele>177.4</ele>
        <time>2023-04-05T15:39:15Z</time>
      </trkpt>
      <trkpt lat="43.56648" lon="1.31242">
        <ele>177.8</ele>
        <time>2023-04-05T15:39:17Z</time>
      </trkpt>
      <trkpt lat="43.56624" lon="1.31214">
        <ele>177.6</ele>
        <time>2023-04-05T15:39:22Z</time>
      </trkpt>
      <trkpt lat="43.56605" lon="1.31195">
        <ele>177.2</ele>
        <time>2023-04-05T15:39:26Z</time>
      </trkpt>
      <trkpt lat="43.566" lon="1.31191">
        <ele>177.2</ele>
        <time>2023-04-05T15:39:27Z</time>
      </trkpt>
      <trkpt lat="43.56594" lon="1.31188">
        <ele>177</ele>
        <time>2023-04-05T15:39:28Z</time>
      </trkpt>
      <trkpt lat="43.56584" lon="1.3119">
        <ele>177.2</ele>
        <time>2023-04-05T15:39:30Z</time>
      </trkpt>
      <trkpt lat="43.56562" lon="1.312">
        <ele>177.8</ele>
        <time>2023-04-05T15:39:35Z</time>
      </trkpt>
      <trkpt lat="43.56552" lon="1.31202">
        <ele>178</ele>
        <time>2023-04-05T15:39:37Z</time>
      </trkpt>
      <trkpt lat="43.56535" lon="1.31203">
        <ele>178</ele>
        <time>2023-04-05T15:39:40Z</time>
      </trkpt>
      <trkpt lat="43.56531" lon="1.31203">
        <ele>177.8</ele>
        <time>2023-04-05T15:39:41Z</time>
      </trkpt>
      <trkpt lat="43.56518" lon="1.31202">
        <ele>177.2</ele>
        <time>2023-04-05T15:39:44Z</time>
      </trkpt>
      <trkpt lat="43.5651" lon="1.31198">
        <ele>177.2</ele>
        <time>2023-04-05T15:39:46Z</time>
      </trkpt>
      <trkpt lat="43.56506" lon="1.31196">
        <ele>177.2</ele>
        <time>2023-04-05T15:39:47Z</time>
      </trkpt>
      <trkpt lat="43.56502" lon="1.31194">
        <ele>177</ele>
        <time>2023-04-05T15:39:48Z</time>
      </trkpt>
      <trkpt lat="43.56487" lon="1.31187">
        <ele>176.8</ele>
        <time>2023-04-05T15:39:52Z</time>
      </trkpt>
      <trkpt lat="43.56475" lon="1.3117">
        <ele>177.2</ele>
        <time>2023-04-05T15:39:57Z</time>
      </trkpt>
      <trkpt lat="43.56463" lon="1.31151">
        <ele>177.6</ele>
        <time>2023-04-05T15:40:01Z</time>
      </trkpt>
      <trkpt lat="43.56455" lon="1.31139">
        <ele>177.8</ele>
        <time>2023-04-05T15:40:03Z</time>
      </trkpt>
      <trkpt lat="43.5645" lon="1.31123">
        <ele>178</ele>
        <time>2023-04-05T15:40:05Z</time>
      </trkpt>
      <trkpt lat="43.56444" lon="1.3111">
        <ele>178</ele>
        <time>2023-04-05T15:40:07Z</time>
      </trkpt>
      <trkpt lat="43.56438" lon="1.31103">
        <ele>178.2</ele>
        <time>2023-04-05T15:40:09Z</time>
      </trkpt>
      <trkpt lat="43.56432" lon="1.31102">
        <ele>178.4</ele>
        <time>2023-04-05T15:40:11Z</time>
      </trkpt>
      <trkpt lat="43.56431" lon="1.31103">
        <ele>178.6</ele>
        <time>2023-04-05T15:40:12Z</time>
      </trkpt>
      <trkpt lat="43.56425" lon="1.31106">
        <ele>179.6</ele>
        <time>2023-04-05T15:40:15Z</time>
      </trkpt>
      <trkpt lat="43.56419" lon="1.31109">
        <ele>180</ele>
        <time>2023-04-05T15:40:17Z</time>
      </trkpt>
      <trkpt lat="43.56411" lon="1.31115">
        <ele>180.4</ele>
        <time>2023-04-05T15:40:21Z</time>
      </trkpt>
      <trkpt lat="43.56407" lon="1.31112">
        <ele>180.4</ele>
        <time>2023-04-05T15:40:23Z</time>
      </trkpt>
      <trkpt lat="43.56405" lon="1.31107">
        <ele>180.4</ele>
        <time>2023-04-05T15:40:24Z</time>
      </trkpt>
      <trkpt lat="43.56401" lon="1.31094">
        <ele>180.2</ele>
        <time>2023-04-05T15:40:26Z</time>
      </trkpt>
      <trkpt lat="43.56399" lon="1.31088">
        <ele>180.2</ele>
        <time>2023-04-05T15:40:27Z</time>
      </trkpt>
      <trkpt lat="43.56386" lon="1.31054">
        <ele>179.2</ele>
        <time>2023-04-05T15:40:32Z</time>
      </trkpt>
      <trkpt lat="43.56372" lon="1.31012">
        <ele>179</ele>
        <time>2023-04-05T15:40:38Z</time>
      </trkpt>
      <trkpt lat="43.5637" lon="1.30995">
        <ele>179</ele>
        <time>2023-04-05T15:40:40Z</time>
      </trkpt>
      <trkpt lat="43.56371" lon="1.30978">
        <ele>179</ele>
        <time>2023-04-05T15:40:42Z</time>
      </trkpt>
      <trkpt lat="43.56374" lon="1.30932">
        <ele>178.6</ele>
        <time>2023-04-05T15:40:48Z</time>
      </trkpt>
      <trkpt lat="43.56373" lon="1.30929">
        <ele>178.6</ele>
        <time>2023-04-05T15:40:49Z</time>
      </trkpt>
      <trkpt lat="43.56372" lon="1.30919">
        <ele>178.6</ele>
        <time>2023-04-05T15:40:52Z</time>
      </trkpt>
      <trkpt lat="43.5637" lon="1.30896">
        <ele>178.6</ele>
        <time>2023-04-05T15:40:56Z</time>
      </trkpt>
      <trkpt lat="43.56363" lon="1.30868">
        <ele>178.6</ele>
        <time>2023-04-05T15:41:00Z</time>
      </trkpt>
      <trkpt lat="43.56362" lon="1.30861">
        <ele>178.6</ele>
        <time>2023-04-05T15:41:01Z</time>
      </trkpt>
      <trkpt lat="43.56362" lon="1.30838">
        <ele>178.6</ele>
        <time>2023-04-05T15:41:04Z</time>
      </trkpt>
      <trkpt lat="43.56364" lon="1.30816">
        <ele>178.6</ele>
        <time>2023-04-05T15:41:07Z</time>
      </trkpt>
      <trkpt lat="43.56363" lon="1.30782">
        <ele>178.6</ele>
        <time>2023-04-05T15:41:12Z</time>
      </trkpt>
      <trkpt lat="43.56363" lon="1.30777">
        <ele>178.6</ele>
        <time>2023-04-05T15:41:13Z</time>
      </trkpt>
      <trkpt lat="43.56366" lon="1.30771">
        <ele>178.6</ele>
        <time>2023-04-05T15:41:15Z</time>
      </trkpt>
      <trkpt lat="43.5637" lon="1.30747">
        <ele>178.6</ele>
        <time>2023-04-05T15:41:20Z</time>
      </trkpt>
      <trkpt lat="43.56376" lon="1.30715">
        <ele>178.6</ele>
        <time>2023-04-05T15:41:25Z</time>
      </trkpt>
      <trkpt lat="43.56388" lon="1.30672">
        <ele>178.8</ele>
        <time>2023-04-05T15:41:32Z</time>
      </trkpt>
      <trkpt lat="43.56391" lon="1.30666">
        <ele>178.8</ele>
        <time>2023-04-05T15:41:33Z</time>
      </trkpt>
      <trkpt lat="43.56402" lon="1.30642">
        <ele>179</ele>
        <time>2023-04-05T15:41:37Z</time>
      </trkpt>
      <trkpt lat="43.56413" lon="1.306">
        <ele>179</ele>
        <time>2023-04-05T15:41:43Z</time>
      </trkpt>
      <trkpt lat="43.56415" lon="1.3058">
        <ele>179.2</ele>
        <time>2023-04-05T15:41:47Z</time>
      </trkpt>
      <trkpt lat="43.56424" lon="1.3056">
        <ele>179.2</ele>
        <time>2023-04-05T15:41:51Z</time>
      </trkpt>
      <trkpt lat="43.56442" lon="1.30528">
        <ele>179</ele>
        <time>2023-04-05T15:41:56Z</time>
      </trkpt>
      <trkpt lat="43.56446" lon="1.30522">
        <ele>179</ele>
        <time>2023-04-05T15:41:57Z</time>
      </trkpt>
      <trkpt lat="43.56456" lon="1.30514">
        <ele>179</ele>
        <time>2023-04-05T15:41:59Z</time>
      </trkpt>
      <trkpt lat="43.56462" lon="1.30511">
        <ele>179</ele>
        <time>2023-04-05T15:42:00Z</time>
      </trkpt>
      <trkpt lat="43.56492" lon="1.30497">
        <ele>178.8</ele>
        <time>2023-04-05T15:42:06Z</time>
      </trkpt>
      <trkpt lat="43.56508" lon="1.30489">
        <ele>178.8</ele>
        <time>2023-04-05T15:42:09Z</time>
      </trkpt>
      <trkpt lat="43.56515" lon="1.30479">
        <ele>178.8</ele>
        <time>2023-04-05T15:42:11Z</time>
      </trkpt>
      <trkpt lat="43.56519" lon="1.30468">
        <ele>178.8</ele>
        <time>2023-04-05T15:42:13Z</time>
      </trkpt>
      <trkpt lat="43.56525" lon="1.30447">
        <ele>179</ele>
        <time>2023-04-05T15:42:16Z</time>
      </trkpt>
      <trkpt lat="43.56535" lon="1.30401">
        <ele>179.4</ele>
        <time>2023-04-05T15:42:22Z</time>
      </trkpt>
      <trkpt lat="43.56536" lon="1.30395">
        <ele>179.4</ele>
        <time>2023-04-05T15:42:23Z</time>
      </trkpt>
      <trkpt lat="43.56547" lon="1.30352">
        <ele>179.2</ele>
        <time>2023-04-05T15:42:29Z</time>
      </trkpt>
      <trkpt lat="43.56551" lon="1.30338">
        <ele>179.2</ele>
        <time>2023-04-05T15:42:31Z</time>
      </trkpt>
      <trkpt lat="43.56553" lon="1.30331">
        <ele>179.2</ele>
        <time>2023-04-05T15:42:32Z</time>
      </trkpt>
      <trkpt lat="43.56555" lon="1.30316">
        <ele>179.4</ele>
        <time>2023-04-05T15:42:34Z</time>
      </trkpt>
      <trkpt lat="43.56555" lon="1.30303">
        <ele>179.6</ele>
        <time>2023-04-05T15:42:36Z</time>
      </trkpt>
      <trkpt lat="43.56553" lon="1.30259">
        <ele>179.6</ele>
        <time>2023-04-05T15:42:42Z</time>
      </trkpt>
      <trkpt lat="43.56552" lon="1.30251">
        <ele>179.6</ele>
        <time>2023-04-05T15:42:43Z</time>
      </trkpt>
      <trkpt lat="43.56545" lon="1.30204">
        <ele>179.6</ele>
        <time>2023-04-05T15:42:49Z</time>
      </trkpt>
      <trkpt lat="43.56544" lon="1.30196">
        <ele>179.6</ele>
        <time>2023-04-05T15:42:50Z</time>
      </trkpt>
      <trkpt lat="43.56539" lon="1.30174">
        <ele>179.8</ele>
        <time>2023-04-05T15:42:53Z</time>
      </trkpt>
      <trkpt lat="43.56536" lon="1.30168">
        <ele>179.8</ele>
        <time>2023-04-05T15:42:54Z</time>
      </trkpt>
      <trkpt lat="43.56533" lon="1.30161">
        <ele>179.8</ele>
        <time>2023-04-05T15:42:55Z</time>
      </trkpt>
      <trkpt lat="43.56518" lon="1.30143">
        <ele>180</ele>
        <time>2023-04-05T15:42:58Z</time>
      </trkpt>
      <trkpt lat="43.56514" lon="1.30139">
        <ele>180.4</ele>
        <time>2023-04-05T15:43:00Z</time>
      </trkpt>
      <trkpt lat="43.56504" lon="1.30135">
        <ele>180.8</ele>
        <time>2023-04-05T15:43:03Z</time>
      </trkpt>
      <trkpt lat="43.56483" lon="1.30125">
        <ele>181.6</ele>
        <time>2023-04-05T15:43:08Z</time>
      </trkpt>
      <trkpt lat="43.5646" lon="1.30115">
        <ele>181.6</ele>
        <time>2023-04-05T15:43:12Z</time>
      </trkpt>
      <trkpt lat="43.5645" lon="1.30107">
        <ele>181.4</ele>
        <time>2023-04-05T15:43:14Z</time>
      </trkpt>
      <trkpt lat="43.56417" lon="1.30082">
        <ele>180.4</ele>
        <time>2023-04-05T15:43:21Z</time>
      </trkpt>
      <trkpt lat="43.5638" lon="1.30065">
        <ele>180</ele>
        <time>2023-04-05T15:43:28Z</time>
      </trkpt>
      <trkpt lat="43.56356" lon="1.30055">
        <ele>180.2</ele>
        <time>2023-04-05T15:43:33Z</time>
      </trkpt>
      <trkpt lat="43.56332" lon="1.30037">
        <ele>180.2</ele>
        <time>2023-04-05T15:43:38Z</time>
      </trkpt>
      <trkpt lat="43.56326" lon="1.30029">
        <ele>180.2</ele>
        <time>2023-04-05T15:43:41Z</time>
      </trkpt>
      <trkpt lat="43.5632" lon="1.30022">
        <ele>180.2</ele>
        <time>2023-04-05T15:43:45Z</time>
      </trkpt>
      <trkpt lat="43.56318" lon="1.30022">
        <ele>180.2</ele>
        <time>2023-04-05T15:43:46Z</time>
      </trkpt>
      <trkpt lat="43.56315" lon="1.30021">
        <ele>180.2</ele>
        <time>2023-04-05T15:43:47Z</time>
      </trkpt>
      <trkpt lat="43.56309" lon="1.30016">
        <ele>180.2</ele>
        <time>2023-04-05T15:43:49Z</time>
      </trkpt>
      <trkpt lat="43.56291" lon="1.29998">
        <ele>180.4</ele>
        <time>2023-04-05T15:43:55Z</time>
      </trkpt>
      <trkpt lat="43.56266" lon="1.29967">
        <ele>180.8</ele>
        <time>2023-04-05T15:44:01Z</time>
      </trkpt>
      <trkpt lat="43.56243" lon="1.29927">
        <ele>180.8</ele>
        <time>2023-04-05T15:44:07Z</time>
      </trkpt>
      <trkpt lat="43.56217" lon="1.29879">
        <ele>180.8</ele>
        <time>2023-04-05T15:44:14Z</time>
      </trkpt>
      <trkpt lat="43.56195" lon="1.29842">
        <ele>181</ele>
        <time>2023-04-05T15:44:19Z</time>
      </trkpt>
      <trkpt lat="43.56195" lon="1.29842">
        <ele>181</ele>
        <time>2023-04-05T15:44:20Z</time>
      </trkpt>
      <trkpt lat="43.5619" lon="1.29841">
        <ele>181</ele>
        <time>2023-04-05T15:44:21Z</time>
      </trkpt>
      <trkpt lat="43.56185" lon="1.29841">
        <ele>181</ele>
        <time>2023-04-05T15:44:22Z</time>
      </trkpt>
      <trkpt lat="43.5618" lon="1.29843">
        <ele>180.8</ele>
        <time>2023-04-05T15:44:23Z</time>
      </trkpt>
      <trkpt lat="43.56166" lon="1.29839">
        <ele>180.8</ele>
        <time>2023-04-05T15:44:25Z</time>
      </trkpt>
      <trkpt lat="43.56161" lon="1.29836">
        <ele>180.8</ele>
        <time>2023-04-05T15:44:26Z</time>
      </trkpt>
      <trkpt lat="43.56151" lon="1.29828">
        <ele>181</ele>
        <time>2023-04-05T15:44:28Z</time>
      </trkpt>
      <trkpt lat="43.56142" lon="1.2982">
        <ele>181</ele>
        <time>2023-04-05T15:44:30Z</time>
      </trkpt>
      <trkpt lat="43.56098" lon="1.29783">
        <ele>180.8</ele>
        <time>2023-04-05T15:44:40Z</time>
      </trkpt>
      <trkpt lat="43.5609" lon="1.29777">
        <ele>180.4</ele>
        <time>2023-04-05T15:44:42Z</time>
      </trkpt>
      <trkpt lat="43.56085" lon="1.2977">
        <ele>180.4</ele>
        <time>2023-04-05T15:44:44Z</time>
      </trkpt>
      <trkpt lat="43.56083" lon="1.29767">
        <ele>180.4</ele>
        <time>2023-04-05T15:44:45Z</time>
      </trkpt>
      <trkpt lat="43.56084" lon="1.29761">
        <ele>180.6</ele>
        <time>2023-04-05T15:44:47Z</time>
      </trkpt>
      <trkpt lat="43.56088" lon="1.29745">
        <ele>181.6</ele>
        <time>2023-04-05T15:44:52Z</time>
      </trkpt>
      <trkpt lat="43.56088" lon="1.29744">
        <ele>181.8</ele>
        <time>2023-04-05T15:44:53Z</time>
      </trkpt>
      <trkpt lat="43.56088" lon="1.29741">
        <ele>182</ele>
        <time>2023-04-05T15:44:55Z</time>
      </trkpt>
      <trkpt lat="43.56087" lon="1.29739">
        <ele>182</ele>
        <time>2023-04-05T15:44:56Z</time>
      </trkpt>
      <trkpt lat="43.56086" lon="1.29737">
        <ele>182.2</ele>
        <time>2023-04-05T15:44:57Z</time>
      </trkpt>
      <trkpt lat="43.56083" lon="1.2973">
        <ele>182.6</ele>
        <time>2023-04-05T15:45:00Z</time>
      </trkpt>
      <trkpt lat="43.56084" lon="1.29726">
        <ele>182.6</ele>
        <time>2023-04-05T15:45:01Z</time>
      </trkpt>
      <trkpt lat="43.56093" lon="1.2972">
        <ele>182.8</ele>
        <time>2023-04-05T15:45:04Z</time>
      </trkpt>
      <trkpt lat="43.56113" lon="1.29704">
        <ele>183</ele>
        <time>2023-04-05T15:45:10Z</time>
      </trkpt>
      <trkpt lat="43.56125" lon="1.29689">
        <ele>183.2</ele>
        <time>2023-04-05T15:45:14Z</time>
      </trkpt>
      <trkpt lat="43.56128" lon="1.29686">
        <ele>183.4</ele>
        <time>2023-04-05T15:45:15Z</time>
      </trkpt>
      <trkpt lat="43.56147" lon="1.29671">
        <ele>184</ele>
        <time>2023-04-05T15:45:20Z</time>
      </trkpt>
      <trkpt lat="43.5615" lon="1.2967">
        <ele>184</ele>
        <time>2023-04-05T15:45:21Z</time>
      </trkpt>
      <trkpt lat="43.56151" lon="1.29669">
        <ele>184.2</ele>
        <time>2023-04-05T15:45:22Z</time>
      </trkpt>
      <trkpt lat="43.56148" lon="1.29665">
        <ele>184.2</ele>
        <time>2023-04-05T15:45:24Z</time>
      </trkpt>
      <trkpt lat="43.56145" lon="1.29663">
        <ele>184.2</ele>
        <time>2023-04-05T15:45:25Z</time>
      </trkpt>
      <trkpt lat="43.5614" lon="1.29654">
        <ele>184</ele>
        <time>2023-04-05T15:45:27Z</time>
      </trkpt>
      <trkpt lat="43.5612" lon="1.29615">
        <ele>182.6</ele>
        <time>2023-04-05T15:45:33Z</time>
      </trkpt>
      <trkpt lat="43.56109" lon="1.29595">
        <ele>182.2</ele>
        <time>2023-04-05T15:45:36Z</time>
      </trkpt>
      <trkpt lat="43.56097" lon="1.29575">
        <ele>181.6</ele>
        <time>2023-04-05T15:45:39Z</time>
      </trkpt>
      <trkpt lat="43.56076" lon="1.29539">
        <ele>181.8</ele>
        <time>2023-04-05T15:45:45Z</time>
      </trkpt>
      <trkpt lat="43.56071" lon="1.29534">
        <ele>181.8</ele>
        <time>2023-04-05T15:45:46Z</time>
      </trkpt>
      <trkpt lat="43.5606" lon="1.29517">
        <ele>181.8</ele>
        <time>2023-04-05T15:45:49Z</time>
      </trkpt>
      <trkpt lat="43.56052" lon="1.29506">
        <ele>181.8</ele>
        <time>2023-04-05T15:45:52Z</time>
      </trkpt>
      <trkpt lat="43.56023" lon="1.29468">
        <ele>181.8</ele>
        <time>2023-04-05T15:45:58Z</time>
      </trkpt>
      <trkpt lat="43.56019" lon="1.29464">
        <ele>181.8</ele>
        <time>2023-04-05T15:45:59Z</time>
      </trkpt>
      <trkpt lat="43.5601" lon="1.29453">
        <ele>182</ele>
        <time>2023-04-05T15:46:01Z</time>
      </trkpt>
      <trkpt lat="43.56003" lon="1.2944">
        <ele>182</ele>
        <time>2023-04-05T15:46:03Z</time>
      </trkpt>
      <trkpt lat="43.56" lon="1.29433">
        <ele>182</ele>
        <time>2023-04-05T15:46:04Z</time>
      </trkpt>
      <trkpt lat="43.55991" lon="1.29425">
        <ele>182</ele>
        <time>2023-04-05T15:46:06Z</time>
      </trkpt>
      <trkpt lat="43.55975" lon="1.29424">
        <ele>182</ele>
        <time>2023-04-05T15:46:09Z</time>
      </trkpt>
      <trkpt lat="43.55969" lon="1.29422">
        <ele>182</ele>
        <time>2023-04-05T15:46:10Z</time>
      </trkpt>
      <trkpt lat="43.55959" lon="1.29414">
        <ele>181.8</ele>
        <time>2023-04-05T15:46:12Z</time>
      </trkpt>
      <trkpt lat="43.5595" lon="1.29406">
        <ele>181.6</ele>
        <time>2023-04-05T15:46:14Z</time>
      </trkpt>
      <trkpt lat="43.5594" lon="1.29398">
        <ele>181.6</ele>
        <time>2023-04-05T15:46:16Z</time>
      </trkpt>
      <trkpt lat="43.55929" lon="1.29394">
        <ele>181.6</ele>
        <time>2023-04-05T15:46:18Z</time>
      </trkpt>
      <trkpt lat="43.55929" lon="1.29394">
        <ele>181.6</ele>
        <time>2023-04-05T15:46:19Z</time>
      </trkpt>
      <trkpt lat="43.55919" lon="1.29396">
        <ele>181.6</ele>
        <time>2023-04-05T15:46:20Z</time>
      </trkpt>
      <trkpt lat="43.5591" lon="1.29398">
        <ele>181.6</ele>
        <time>2023-04-05T15:46:22Z</time>
      </trkpt>
      <trkpt lat="43.55891" lon="1.294">
        <ele>181.8</ele>
        <time>2023-04-05T15:46:26Z</time>
      </trkpt>
      <trkpt lat="43.55887" lon="1.29398">
        <ele>181.8</ele>
        <time>2023-04-05T15:46:27Z</time>
      </trkpt>
      <trkpt lat="43.55883" lon="1.29394">
        <ele>181.8</ele>
        <time>2023-04-05T15:46:28Z</time>
      </trkpt>
      <trkpt lat="43.55881" lon="1.29389">
        <ele>181.8</ele>
        <time>2023-04-05T15:46:30Z</time>
      </trkpt>
      <trkpt lat="43.5588" lon="1.29377">
        <ele>181.8</ele>
        <time>2023-04-05T15:46:31Z</time>
      </trkpt>
      <trkpt lat="43.55879" lon="1.29357">
        <ele>181.8</ele>
        <time>2023-04-05T15:46:34Z</time>
      </trkpt>
      <trkpt lat="43.55879" lon="1.2935">
        <ele>181.8</ele>
        <time>2023-04-05T15:46:35Z</time>
      </trkpt>
      <trkpt lat="43.55878" lon="1.29335">
        <ele>182</ele>
        <time>2023-04-05T15:46:37Z</time>
      </trkpt>
      <trkpt lat="43.55878" lon="1.29335">
        <ele>182.2</ele>
        <time>2023-04-05T15:46:38Z</time>
      </trkpt>
      <trkpt lat="43.55873" lon="1.29322">
        <ele>182.2</ele>
        <time>2023-04-05T15:46:39Z</time>
      </trkpt>
      <trkpt lat="43.55869" lon="1.29306">
        <ele>182.2</ele>
        <time>2023-04-05T15:46:41Z</time>
      </trkpt>
      <trkpt lat="43.55863" lon="1.29265">
        <ele>182.4</ele>
        <time>2023-04-05T15:46:46Z</time>
      </trkpt>
      <trkpt lat="43.55857" lon="1.29243">
        <ele>182.4</ele>
        <time>2023-04-05T15:46:50Z</time>
      </trkpt>
      <trkpt lat="43.55849" lon="1.29219">
        <ele>182.6</ele>
        <time>2023-04-05T15:46:55Z</time>
      </trkpt>
      <trkpt lat="43.55845" lon="1.29191">
        <ele>182.8</ele>
        <time>2023-04-05T15:47:00Z</time>
      </trkpt>
      <trkpt lat="43.55844" lon="1.29185">
        <ele>182.8</ele>
        <time>2023-04-05T15:47:01Z</time>
      </trkpt>
      <trkpt lat="43.5584" lon="1.29176">
        <ele>182.8</ele>
        <time>2023-04-05T15:47:03Z</time>
      </trkpt>
      <trkpt lat="43.55837" lon="1.29172">
        <ele>182.8</ele>
        <time>2023-04-05T15:47:04Z</time>
      </trkpt>
      <trkpt lat="43.55833" lon="1.2917">
        <ele>182.8</ele>
        <time>2023-04-05T15:47:05Z</time>
      </trkpt>
      <trkpt lat="43.55819" lon="1.29167">
        <ele>183</ele>
        <time>2023-04-05T15:47:08Z</time>
      </trkpt>
      <trkpt lat="43.5581" lon="1.29162">
        <ele>183</ele>
        <time>2023-04-05T15:47:10Z</time>
      </trkpt>
      <trkpt lat="43.55802" lon="1.29153">
        <ele>183.2</ele>
        <time>2023-04-05T15:47:12Z</time>
      </trkpt>
      <trkpt lat="43.55773" lon="1.29116">
        <ele>183</ele>
        <time>2023-04-05T15:47:19Z</time>
      </trkpt>
      <trkpt lat="43.55732" lon="1.29067">
        <ele>182.4</ele>
        <time>2023-04-05T15:47:29Z</time>
      </trkpt>
      <trkpt lat="43.55692" lon="1.29021">
        <ele>182.6</ele>
        <time>2023-04-05T15:47:38Z</time>
      </trkpt>
      <trkpt lat="43.55652" lon="1.28974">
        <ele>182.8</ele>
        <time>2023-04-05T15:47:47Z</time>
      </trkpt>
      <trkpt lat="43.55619" lon="1.28937">
        <ele>183.2</ele>
        <time>2023-04-05T15:47:54Z</time>
      </trkpt>
      <trkpt lat="43.5561" lon="1.28927">
        <ele>183.4</ele>
        <time>2023-04-05T15:47:56Z</time>
      </trkpt>
      <trkpt lat="43.55567" lon="1.28881">
        <ele>183.6</ele>
        <time>2023-04-05T15:48:05Z</time>
      </trkpt>
      <trkpt lat="43.55557" lon="1.28871">
        <ele>183.4</ele>
        <time>2023-04-05T15:48:07Z</time>
      </trkpt>
      <trkpt lat="43.55536" lon="1.2886">
        <ele>184</ele>
        <time>2023-04-05T15:48:11Z</time>
      </trkpt>
      <trkpt lat="43.55536" lon="1.2886">
        <ele>183.8</ele>
        <time>2023-04-05T15:48:12Z</time>
      </trkpt>
      <trkpt lat="43.55508" lon="1.28853">
        <ele>184.4</ele>
        <time>2023-04-05T15:48:16Z</time>
      </trkpt>
      <trkpt lat="43.55485" lon="1.28849">
        <ele>184.8</ele>
        <time>2023-04-05T15:48:21Z</time>
      </trkpt>
      <trkpt lat="43.55468" lon="1.28844">
        <ele>184.8</ele>
        <time>2023-04-05T15:48:23Z</time>
      </trkpt>
      <trkpt lat="43.55458" lon="1.28837">
        <ele>184.8</ele>
        <time>2023-04-05T15:48:25Z</time>
      </trkpt>
      <trkpt lat="43.55452" lon="1.28832">
        <ele>184.8</ele>
        <time>2023-04-05T15:48:26Z</time>
      </trkpt>
      <trkpt lat="43.55408" lon="1.28784">
        <ele>184.4</ele>
        <time>2023-04-05T15:48:35Z</time>
      </trkpt>
      <trkpt lat="43.55403" lon="1.28778">
        <ele>184.4</ele>
        <time>2023-04-05T15:48:36Z</time>
      </trkpt>
      <trkpt lat="43.55364" lon="1.28726">
        <ele>184.6</ele>
        <time>2023-04-05T15:48:45Z</time>
      </trkpt>
      <trkpt lat="43.55329" lon="1.28668">
        <ele>185</ele>
        <time>2023-04-05T15:48:54Z</time>
      </trkpt>
      <trkpt lat="43.5532" lon="1.28655">
        <ele>185</ele>
        <time>2023-04-05T15:48:56Z</time>
      </trkpt>
      <trkpt lat="43.55282" lon="1.28613">
        <ele>184.8</ele>
        <time>2023-04-05T15:49:04Z</time>
      </trkpt>
      <trkpt lat="43.55238" lon="1.28577">
        <ele>184.6</ele>
        <time>2023-04-05T15:49:13Z</time>
      </trkpt>
      <trkpt lat="43.55187" lon="1.28544">
        <ele>185</ele>
        <time>2023-04-05T15:49:23Z</time>
      </trkpt>
      <trkpt lat="43.55135" lon="1.28507">
        <ele>185.2</ele>
        <time>2023-04-05T15:49:33Z</time>
      </trkpt>
      <trkpt lat="43.55091" lon="1.28481">
        <ele>185.2</ele>
        <time>2023-04-05T15:49:41Z</time>
      </trkpt>
      <trkpt lat="43.55049" lon="1.28477">
        <ele>185.2</ele>
        <time>2023-04-05T15:49:48Z</time>
      </trkpt>
      <trkpt lat="43.54994" lon="1.28467">
        <ele>185.4</ele>
        <time>2023-04-05T15:49:57Z</time>
      </trkpt>
      <trkpt lat="43.54969" lon="1.28463">
        <ele>185.4</ele>
        <time>2023-04-05T15:50:01Z</time>
      </trkpt>
      <trkpt lat="43.54925" lon="1.28455">
        <ele>185.6</ele>
        <time>2023-04-05T15:50:08Z</time>
      </trkpt>
      <trkpt lat="43.54871" lon="1.28444">
        <ele>185.8</ele>
        <time>2023-04-05T15:50:17Z</time>
      </trkpt>
      <trkpt lat="43.54841" lon="1.28436">
        <ele>185.8</ele>
        <time>2023-04-05T15:50:22Z</time>
      </trkpt>
      <trkpt lat="43.54787" lon="1.28424">
        <ele>186.2</ele>
        <time>2023-04-05T15:50:31Z</time>
      </trkpt>
      <trkpt lat="43.54774" lon="1.28421">
        <ele>186.2</ele>
        <time>2023-04-05T15:50:33Z</time>
      </trkpt>
      <trkpt lat="43.54719" lon="1.28409">
        <ele>186.2</ele>
        <time>2023-04-05T15:50:42Z</time>
      </trkpt>
      <trkpt lat="43.54708" lon="1.28406">
        <ele>186</ele>
        <time>2023-04-05T15:50:44Z</time>
      </trkpt>
      <trkpt lat="43.54702" lon="1.28404">
        <ele>186</ele>
        <time>2023-04-05T15:50:45Z</time>
      </trkpt>
      <trkpt lat="43.54663" lon="1.28382">
        <ele>185.6</ele>
        <time>2023-04-05T15:50:52Z</time>
      </trkpt>
      <trkpt lat="43.54642" lon="1.28366">
        <ele>185.4</ele>
        <time>2023-04-05T15:50:56Z</time>
      </trkpt>
      <trkpt lat="43.54632" lon="1.28355">
        <ele>185.6</ele>
        <time>2023-04-05T15:50:58Z</time>
      </trkpt>
      <trkpt lat="43.54609" lon="1.28314">
        <ele>185.8</ele>
        <time>2023-04-05T15:51:04Z</time>
      </trkpt>
      <trkpt lat="43.54573" lon="1.28255">
        <ele>186.2</ele>
        <time>2023-04-05T15:51:13Z</time>
      </trkpt>
      <trkpt lat="43.54569" lon="1.28249">
        <ele>186.2</ele>
        <time>2023-04-05T15:51:14Z</time>
      </trkpt>
      <trkpt lat="43.54532" lon="1.28193">
        <ele>186.2</ele>
        <time>2023-04-05T15:51:23Z</time>
      </trkpt>
      <trkpt lat="43.54528" lon="1.28187">
        <ele>186.2</ele>
        <time>2023-04-05T15:51:24Z</time>
      </trkpt>
      <trkpt lat="43.54489" lon="1.28134">
        <ele>186</ele>
        <time>2023-04-05T15:51:33Z</time>
      </trkpt>
      <trkpt lat="43.54452" lon="1.2808">
        <ele>186.6</ele>
        <time>2023-04-05T15:51:42Z</time>
      </trkpt>
      <trkpt lat="43.54444" lon="1.28067">
        <ele>186.6</ele>
        <time>2023-04-05T15:51:44Z</time>
      </trkpt>
      <trkpt lat="43.54412" lon="1.28009">
        <ele>186.6</ele>
        <time>2023-04-05T15:51:53Z</time>
      </trkpt>
      <trkpt lat="43.54374" lon="1.27934">
        <ele>186.8</ele>
        <time>2023-04-05T15:52:04Z</time>
      </trkpt>
      <trkpt lat="43.54344" lon="1.2787">
        <ele>187.2</ele>
        <time>2023-04-05T15:52:13Z</time>
      </trkpt>
      <trkpt lat="43.54335" lon="1.27849">
        <ele>187.2</ele>
        <time>2023-04-05T15:52:16Z</time>
      </trkpt>
      <trkpt lat="43.54308" lon="1.27784">
        <ele>187.4</ele>
        <time>2023-04-05T15:52:25Z</time>
      </trkpt>
      <trkpt lat="43.54303" lon="1.27769">
        <ele>187.4</ele>
        <time>2023-04-05T15:52:27Z</time>
      </trkpt>
      <trkpt lat="43.54301" lon="1.27761">
        <ele>187.4</ele>
        <time>2023-04-05T15:52:28Z</time>
      </trkpt>
      <trkpt lat="43.54292" lon="1.27712">
        <ele>187.6</ele>
        <time>2023-04-05T15:52:34Z</time>
      </trkpt>
      <trkpt lat="43.54281" lon="1.27656">
        <ele>188</ele>
        <time>2023-04-05T15:52:41Z</time>
      </trkpt>
      <trkpt lat="43.54275" lon="1.27623">
        <ele>187.8</ele>
        <time>2023-04-05T15:52:45Z</time>
      </trkpt>
      <trkpt lat="43.54263" lon="1.27558">
        <ele>187.8</ele>
        <time>2023-04-05T15:52:54Z</time>
      </trkpt>
      <trkpt lat="43.5426" lon="1.27543">
        <ele>187.8</ele>
        <time>2023-04-05T15:52:56Z</time>
      </trkpt>
      <trkpt lat="43.54261" lon="1.27531">
        <ele>187.8</ele>
        <time>2023-04-05T15:52:58Z</time>
      </trkpt>
      <trkpt lat="43.54266" lon="1.27521">
        <ele>187.8</ele>
        <time>2023-04-05T15:53:00Z</time>
      </trkpt>
      <trkpt lat="43.54277" lon="1.27505">
        <ele>187.8</ele>
        <time>2023-04-05T15:53:03Z</time>
      </trkpt>
      <trkpt lat="43.54309" lon="1.27454">
        <ele>188.6</ele>
        <time>2023-04-05T15:53:12Z</time>
      </trkpt>
      <trkpt lat="43.54347" lon="1.27399">
        <ele>188.6</ele>
        <time>2023-04-05T15:53:22Z</time>
      </trkpt>
      <trkpt lat="43.5435" lon="1.27394">
        <ele>188.6</ele>
        <time>2023-04-05T15:53:23Z</time>
      </trkpt>
      <trkpt lat="43.54386" lon="1.27337">
        <ele>188.6</ele>
        <time>2023-04-05T15:53:33Z</time>
      </trkpt>
      <trkpt lat="43.5439" lon="1.27331">
        <ele>188.6</ele>
        <time>2023-04-05T15:53:34Z</time>
      </trkpt>
      <trkpt lat="43.54427" lon="1.27272">
        <ele>188.8</ele>
        <time>2023-04-05T15:53:44Z</time>
      </trkpt>
      <trkpt lat="43.54439" lon="1.27254">
        <ele>188.8</ele>
        <time>2023-04-05T15:53:47Z</time>
      </trkpt>
      <trkpt lat="43.54471" lon="1.27202">
        <ele>188.6</ele>
        <time>2023-04-05T15:53:56Z</time>
      </trkpt>
      <trkpt lat="43.54507" lon="1.27142">
        <ele>188.6</ele>
        <time>2023-04-05T15:54:06Z</time>
      </trkpt>
      <trkpt lat="43.5451" lon="1.27135">
        <ele>188.6</ele>
        <time>2023-04-05T15:54:07Z</time>
      </trkpt>
      <trkpt lat="43.54542" lon="1.27074">
        <ele>188.6</ele>
        <time>2023-04-05T15:54:17Z</time>
      </trkpt>
      <trkpt lat="43.54564" lon="1.27031">
        <ele>188.6</ele>
        <time>2023-04-05T15:54:24Z</time>
      </trkpt>
      <trkpt lat="43.54591" lon="1.2698">
        <ele>188.4</ele>
        <time>2023-04-05T15:54:33Z</time>
      </trkpt>
      <trkpt lat="43.54609" lon="1.26946">
        <ele>189</ele>
        <time>2023-04-05T15:54:39Z</time>
      </trkpt>
      <trkpt lat="43.54611" lon="1.26933">
        <ele>189</ele>
        <time>2023-04-05T15:54:41Z</time>
      </trkpt>
      <trkpt lat="43.54607" lon="1.26918">
        <ele>189</ele>
        <time>2023-04-05T15:54:44Z</time>
      </trkpt>
      <trkpt lat="43.54607" lon="1.26916">
        <ele>189</ele>
        <time>2023-04-05T15:54:45Z</time>
      </trkpt>
      <trkpt lat="43.5461" lon="1.26913">
        <ele>189</ele>
        <time>2023-04-05T15:54:47Z</time>
      </trkpt>
      <trkpt lat="43.54621" lon="1.26912">
        <ele>189</ele>
        <time>2023-04-05T15:54:52Z</time>
      </trkpt>
      <trkpt lat="43.54633" lon="1.26909">
        <ele>189</ele>
        <time>2023-04-05T15:54:55Z</time>
      </trkpt>
      <trkpt lat="43.54637" lon="1.26906">
        <ele>189</ele>
        <time>2023-04-05T15:54:56Z</time>
      </trkpt>
      <trkpt lat="43.5464" lon="1.26902">
        <ele>188.8</ele>
        <time>2023-04-05T15:54:57Z</time>
      </trkpt>
      <trkpt lat="43.54645" lon="1.26892">
        <ele>188.8</ele>
        <time>2023-04-05T15:54:59Z</time>
      </trkpt>
      <trkpt lat="43.54648" lon="1.26887">
        <ele>188.8</ele>
        <time>2023-04-05T15:55:00Z</time>
      </trkpt>
      <trkpt lat="43.54654" lon="1.26876">
        <ele>188.6</ele>
        <time>2023-04-05T15:55:03Z</time>
      </trkpt>
      <trkpt lat="43.54666" lon="1.26853">
        <ele>188.6</ele>
        <time>2023-04-05T15:55:08Z</time>
      </trkpt>
      <trkpt lat="43.54687" lon="1.26817">
        <ele>188.6</ele>
        <time>2023-04-05T15:55:15Z</time>
      </trkpt>
      <trkpt lat="43.54704" lon="1.26789">
        <ele>188.6</ele>
        <time>2023-04-05T15:55:20Z</time>
      </trkpt>
      <trkpt lat="43.54709" lon="1.26781">
        <ele>188.6</ele>
        <time>2023-04-05T15:55:22Z</time>
      </trkpt>
      <trkpt lat="43.5471" lon="1.26764">
        <ele>188.6</ele>
        <time>2023-04-05T15:55:25Z</time>
      </trkpt>
      <trkpt lat="43.54703" lon="1.2673">
        <ele>188.8</ele>
        <time>2023-04-05T15:55:30Z</time>
      </trkpt>
      <trkpt lat="43.54693" lon="1.26674">
        <ele>188.6</ele>
        <time>2023-04-05T15:55:38Z</time>
      </trkpt>
      <trkpt lat="43.54685" lon="1.26613">
        <ele>188.8</ele>
        <time>2023-04-05T15:55:47Z</time>
      </trkpt>
      <trkpt lat="43.54679" lon="1.26541">
        <ele>189</ele>
        <time>2023-04-05T15:55:57Z</time>
      </trkpt>
      <trkpt lat="43.5468" lon="1.26526">
        <ele>189</ele>
        <time>2023-04-05T15:55:59Z</time>
      </trkpt>
      <trkpt lat="43.54683" lon="1.26504">
        <ele>189</ele>
        <time>2023-04-05T15:56:02Z</time>
      </trkpt>
      <trkpt lat="43.54683" lon="1.26497">
        <ele>189</ele>
        <time>2023-04-05T15:56:03Z</time>
      </trkpt>
      <trkpt lat="43.5468" lon="1.26483">
        <ele>189</ele>
        <time>2023-04-05T15:56:05Z</time>
      </trkpt>
      <trkpt lat="43.54671" lon="1.26472">
        <ele>189</ele>
        <time>2023-04-05T15:56:07Z</time>
      </trkpt>
      <trkpt lat="43.54668" lon="1.26469">
        <ele>189</ele>
        <time>2023-04-05T15:56:08Z</time>
      </trkpt>
      <trkpt lat="43.54643" lon="1.26449">
        <ele>189</ele>
        <time>2023-04-05T15:56:13Z</time>
      </trkpt>
      <trkpt lat="43.54639" lon="1.26444">
        <ele>189</ele>
        <time>2023-04-05T15:56:14Z</time>
      </trkpt>
      <trkpt lat="43.54622" lon="1.26415">
        <ele>189</ele>
        <time>2023-04-05T15:56:19Z</time>
      </trkpt>
      <trkpt lat="43.54618" lon="1.2641">
        <ele>189</ele>
        <time>2023-04-05T15:56:20Z</time>
      </trkpt>
      <trkpt lat="43.54605" lon="1.26394">
        <ele>189.2</ele>
        <time>2023-04-05T15:56:23Z</time>
      </trkpt>
      <trkpt lat="43.54592" lon="1.2638">
        <ele>189.2</ele>
        <time>2023-04-05T15:56:26Z</time>
      </trkpt>
      <trkpt lat="43.54588" lon="1.26374">
        <ele>189.2</ele>
        <time>2023-04-05T15:56:27Z</time>
      </trkpt>
      <trkpt lat="43.54586" lon="1.26367">
        <ele>189.2</ele>
        <time>2023-04-05T15:56:28Z</time>
      </trkpt>
      <trkpt lat="43.54588" lon="1.26353">
        <ele>189.2</ele>
        <time>2023-04-05T15:56:30Z</time>
      </trkpt>
      <trkpt lat="43.54593" lon="1.26333">
        <ele>189.2</ele>
        <time>2023-04-05T15:56:33Z</time>
      </trkpt>
      <trkpt lat="43.54598" lon="1.26304">
        <ele>189.2</ele>
        <time>2023-04-05T15:56:37Z</time>
      </trkpt>
      <trkpt lat="43.54609" lon="1.26248">
        <ele>189.2</ele>
        <time>2023-04-05T15:56:45Z</time>
      </trkpt>
      <trkpt lat="43.54621" lon="1.26181">
        <ele>189.4</ele>
        <time>2023-04-05T15:56:55Z</time>
      </trkpt>
      <trkpt lat="43.54621" lon="1.26174">
        <ele>189.4</ele>
        <time>2023-04-05T15:56:56Z</time>
      </trkpt>
      <trkpt lat="43.54622" lon="1.2616">
        <ele>189.4</ele>
        <time>2023-04-05T15:56:58Z</time>
      </trkpt>
      <trkpt lat="43.54621" lon="1.26146">
        <ele>189.4</ele>
        <time>2023-04-05T15:57:00Z</time>
      </trkpt>
      <trkpt lat="43.54621" lon="1.26081">
        <ele>189.4</ele>
        <time>2023-04-05T15:57:09Z</time>
      </trkpt>
      <trkpt lat="43.54621" lon="1.2606">
        <ele>189.4</ele>
        <time>2023-04-05T15:57:12Z</time>
      </trkpt>
      <trkpt lat="43.5462" lon="1.2603">
        <ele>189.4</ele>
        <time>2023-04-05T15:57:16Z</time>
      </trkpt>
      <trkpt lat="43.54624" lon="1.25986">
        <ele>189.4</ele>
        <time>2023-04-05T15:57:22Z</time>
      </trkpt>
      <trkpt lat="43.54624" lon="1.25979">
        <ele>189.6</ele>
        <time>2023-04-05T15:57:23Z</time>
      </trkpt>
      <trkpt lat="43.5462" lon="1.2595">
        <ele>189.6</ele>
        <time>2023-04-05T15:57:27Z</time>
      </trkpt>
      <trkpt lat="43.54611" lon="1.25898">
        <ele>189.6</ele>
        <time>2023-04-05T15:57:34Z</time>
      </trkpt>
      <trkpt lat="43.54612" lon="1.25852">
        <ele>189.4</ele>
        <time>2023-04-05T15:57:40Z</time>
      </trkpt>
      <trkpt lat="43.54622" lon="1.25781">
        <ele>189.6</ele>
        <time>2023-04-05T15:57:50Z</time>
      </trkpt>
      <trkpt lat="43.54626" lon="1.25762">
        <ele>189.8</ele>
        <time>2023-04-05T15:57:53Z</time>
      </trkpt>
      <trkpt lat="43.54631" lon="1.25748">
        <ele>189.8</ele>
        <time>2023-04-05T15:57:55Z</time>
      </trkpt>
      <trkpt lat="43.54655" lon="1.25704">
        <ele>189.8</ele>
        <time>2023-04-05T15:58:02Z</time>
      </trkpt>
      <trkpt lat="43.5469" lon="1.25645">
        <ele>189.4</ele>
        <time>2023-04-05T15:58:12Z</time>
      </trkpt>
      <trkpt lat="43.54697" lon="1.25633">
        <ele>189.4</ele>
        <time>2023-04-05T15:58:14Z</time>
      </trkpt>
      <trkpt lat="43.54724" lon="1.25592">
        <ele>189.6</ele>
        <time>2023-04-05T15:58:21Z</time>
      </trkpt>
      <trkpt lat="43.54759" lon="1.25543">
        <ele>189.4</ele>
        <time>2023-04-05T15:58:30Z</time>
      </trkpt>
      <trkpt lat="43.54763" lon="1.25538">
        <ele>189.4</ele>
        <time>2023-04-05T15:58:31Z</time>
      </trkpt>
      <trkpt lat="43.54796" lon="1.25493">
        <ele>189.8</ele>
        <time>2023-04-05T15:58:40Z</time>
      </trkpt>
      <trkpt lat="43.54799" lon="1.25488">
        <ele>190</ele>
        <time>2023-04-05T15:58:41Z</time>
      </trkpt>
      <trkpt lat="43.54816" lon="1.25463">
        <ele>190.2</ele>
        <time>2023-04-05T15:58:47Z</time>
      </trkpt>
      <trkpt lat="43.54817" lon="1.25461">
        <ele>190.4</ele>
        <time>2023-04-05T15:58:50Z</time>
      </trkpt>
      <trkpt lat="43.5482" lon="1.25452">
        <ele>190.4</ele>
        <time>2023-04-05T15:59:01Z</time>
      </trkpt>
      <trkpt lat="43.54817" lon="1.25445">
        <ele>190.6</ele>
        <time>2023-04-05T15:59:03Z</time>
      </trkpt>
      <trkpt lat="43.54804" lon="1.25413">
        <ele>190.8</ele>
        <time>2023-04-05T15:59:09Z</time>
      </trkpt>
      <trkpt lat="43.54787" lon="1.25373">
        <ele>190.8</ele>
        <time>2023-04-05T15:59:16Z</time>
      </trkpt>
      <trkpt lat="43.54766" lon="1.2532">
        <ele>191</ele>
        <time>2023-04-05T15:59:24Z</time>
      </trkpt>
      <trkpt lat="43.54739" lon="1.25256">
        <ele>191.4</ele>
        <time>2023-04-05T15:59:33Z</time>
      </trkpt>
      <trkpt lat="43.54711" lon="1.2519">
        <ele>191.4</ele>
        <time>2023-04-05T15:59:42Z</time>
      </trkpt>
      <trkpt lat="43.54703" lon="1.2517">
        <ele>191.6</ele>
        <time>2023-04-05T15:59:45Z</time>
      </trkpt>
      <trkpt lat="43.547" lon="1.25162">
        <ele>191.6</ele>
        <time>2023-04-05T15:59:46Z</time>
      </trkpt>
      <trkpt lat="43.5469" lon="1.25136">
        <ele>191.8</ele>
        <time>2023-04-05T15:59:50Z</time>
      </trkpt>
      <trkpt lat="43.54684" lon="1.25114">
        <ele>192</ele>
        <time>2023-04-05T15:59:53Z</time>
      </trkpt>
      <trkpt lat="43.54686" lon="1.25099">
        <ele>192</ele>
        <time>2023-04-05T15:59:55Z</time>
      </trkpt>
      <trkpt lat="43.54689" lon="1.25091">
        <ele>192</ele>
        <time>2023-04-05T15:59:56Z</time>
      </trkpt>
      <trkpt lat="43.54693" lon="1.25089">
        <ele>192.2</ele>
        <time>2023-04-05T15:59:57Z</time>
      </trkpt>
      <trkpt lat="43.54698" lon="1.25089">
        <ele>192.2</ele>
        <time>2023-04-05T15:59:58Z</time>
      </trkpt>
      <trkpt lat="43.54704" lon="1.25091">
        <ele>192.2</ele>
        <time>2023-04-05T15:59:59Z</time>
      </trkpt>
      <trkpt lat="43.54713" lon="1.25098">
        <ele>192.2</ele>
        <time>2023-04-05T16:00:01Z</time>
      </trkpt>
      <trkpt lat="43.54739" lon="1.25114">
        <ele>191.8</ele>
        <time>2023-04-05T16:00:06Z</time>
      </trkpt>
      <trkpt lat="43.54745" lon="1.25115">
        <ele>191.8</ele>
        <time>2023-04-05T16:00:07Z</time>
      </trkpt>
      <trkpt lat="43.54752" lon="1.25113">
        <ele>191.8</ele>
        <time>2023-04-05T16:00:08Z</time>
      </trkpt>
      <trkpt lat="43.54759" lon="1.25105">
        <ele>191.8</ele>
        <time>2023-04-05T16:00:10Z</time>
      </trkpt>
      <trkpt lat="43.5478" lon="1.25065">
        <ele>191.8</ele>
        <time>2023-04-05T16:00:17Z</time>
      </trkpt>
      <trkpt lat="43.54805" lon="1.25014">
        <ele>192.2</ele>
        <time>2023-04-05T16:00:26Z</time>
      </trkpt>
      <trkpt lat="43.54819" lon="1.24984">
        <ele>192.6</ele>
        <time>2023-04-05T16:00:31Z</time>
      </trkpt>
      <trkpt lat="43.54829" lon="1.24963">
        <ele>193</ele>
        <time>2023-04-05T16:00:35Z</time>
      </trkpt>
      <trkpt lat="43.54847" lon="1.24924">
        <ele>193.6</ele>
        <time>2023-04-05T16:00:42Z</time>
      </trkpt>
      <trkpt lat="43.54852" lon="1.24914">
        <ele>193.8</ele>
        <time>2023-04-05T16:00:44Z</time>
      </trkpt>
      <trkpt lat="43.54855" lon="1.24908">
        <ele>193.8</ele>
        <time>2023-04-05T16:00:45Z</time>
      </trkpt>
      <trkpt lat="43.54874" lon="1.24867">
        <ele>194.8</ele>
        <time>2023-04-05T16:00:53Z</time>
      </trkpt>
      <trkpt lat="43.54888" lon="1.24835">
        <ele>195.6</ele>
        <time>2023-04-05T16:01:00Z</time>
      </trkpt>
      <trkpt lat="43.54892" lon="1.24827">
        <ele>196</ele>
        <time>2023-04-05T16:01:02Z</time>
      </trkpt>
      <trkpt lat="43.54903" lon="1.24809">
        <ele>197</ele>
        <time>2023-04-05T16:01:07Z</time>
      </trkpt>
      <trkpt lat="43.54905" lon="1.24808">
        <ele>197</ele>
        <time>2023-04-05T16:01:08Z</time>
      </trkpt>
      <trkpt lat="43.54916" lon="1.24805">
        <ele>198.2</ele>
        <time>2023-04-05T16:01:12Z</time>
      </trkpt>
      <trkpt lat="43.54919" lon="1.24805">
        <ele>198.4</ele>
        <time>2023-04-05T16:01:13Z</time>
      </trkpt>
      <trkpt lat="43.54932" lon="1.24806">
        <ele>199.4</ele>
        <time>2023-04-05T16:01:18Z</time>
      </trkpt>
      <trkpt lat="43.54942" lon="1.24807">
        <ele>200.2</ele>
        <time>2023-04-05T16:01:21Z</time>
      </trkpt>
      <trkpt lat="43.54951" lon="1.24809">
        <ele>200.6</ele>
        <time>2023-04-05T16:01:24Z</time>
      </trkpt>
      <trkpt lat="43.54964" lon="1.2481">
        <ele>201.6</ele>
        <time>2023-04-05T16:01:28Z</time>
      </trkpt>
      <trkpt lat="43.5497" lon="1.2481">
        <ele>202</ele>
        <time>2023-04-05T16:01:30Z</time>
      </trkpt>
      <trkpt lat="43.54983" lon="1.24809">
        <ele>202.8</ele>
        <time>2023-04-05T16:01:34Z</time>
      </trkpt>
      <trkpt lat="43.55001" lon="1.24804">
        <ele>203.6</ele>
        <time>2023-04-05T16:01:39Z</time>
      </trkpt>
      <trkpt lat="43.55012" lon="1.24801">
        <ele>203.8</ele>
        <time>2023-04-05T16:01:42Z</time>
      </trkpt>
      <trkpt lat="43.55039" lon="1.24791">
        <ele>204.4</ele>
        <time>2023-04-05T16:01:50Z</time>
      </trkpt>
      <trkpt lat="43.55051" lon="1.24783">
        <ele>204.8</ele>
        <time>2023-04-05T16:01:55Z</time>
      </trkpt>
      <trkpt lat="43.55053" lon="1.24781">
        <ele>204.8</ele>
        <time>2023-04-05T16:01:56Z</time>
      </trkpt>
      <trkpt lat="43.55061" lon="1.24771">
        <ele>205.4</ele>
        <time>2023-04-05T16:02:00Z</time>
      </trkpt>
      <trkpt lat="43.55068" lon="1.24759">
        <ele>205.8</ele>
        <time>2023-04-05T16:02:04Z</time>
      </trkpt>
      <trkpt lat="43.55078" lon="1.24743">
        <ele>206.6</ele>
        <time>2023-04-05T16:02:09Z</time>
      </trkpt>
      <trkpt lat="43.55082" lon="1.24736">
        <ele>207</ele>
        <time>2023-04-05T16:02:11Z</time>
      </trkpt>
      <trkpt lat="43.55097" lon="1.24714">
        <ele>208</ele>
        <time>2023-04-05T16:02:17Z</time>
      </trkpt>
      <trkpt lat="43.55099" lon="1.2471">
        <ele>208.2</ele>
        <time>2023-04-05T16:02:18Z</time>
      </trkpt>
      <trkpt lat="43.55112" lon="1.24688">
        <ele>209.2</ele>
        <time>2023-04-05T16:02:24Z</time>
      </trkpt>
      <trkpt lat="43.55116" lon="1.24681">
        <ele>209.6</ele>
        <time>2023-04-05T16:02:26Z</time>
      </trkpt>
      <trkpt lat="43.55125" lon="1.24662">
        <ele>210.4</ele>
        <time>2023-04-05T16:02:31Z</time>
      </trkpt>
      <trkpt lat="43.55128" lon="1.24654">
        <ele>210.6</ele>
        <time>2023-04-05T16:02:33Z</time>
      </trkpt>
      <trkpt lat="43.55132" lon="1.24637">
        <ele>211.4</ele>
        <time>2023-04-05T16:02:37Z</time>
      </trkpt>
      <trkpt lat="43.55134" lon="1.24628">
        <ele>211.6</ele>
        <time>2023-04-05T16:02:39Z</time>
      </trkpt>
      <trkpt lat="43.5514" lon="1.246">
        <ele>212</ele>
        <time>2023-04-05T16:02:45Z</time>
      </trkpt>
      <trkpt lat="43.55142" lon="1.24591">
        <ele>212.4</ele>
        <time>2023-04-05T16:02:47Z</time>
      </trkpt>
      <trkpt lat="43.55145" lon="1.24563">
        <ele>213.4</ele>
        <time>2023-04-05T16:02:53Z</time>
      </trkpt>
      <trkpt lat="43.5514" lon="1.24541">
        <ele>214.2</ele>
        <time>2023-04-05T16:02:58Z</time>
      </trkpt>
      <trkpt lat="43.55136" lon="1.24533">
        <ele>214.4</ele>
        <time>2023-04-05T16:03:00Z</time>
      </trkpt>
      <trkpt lat="43.55129" lon="1.24511">
        <ele>215</ele>
        <time>2023-04-05T16:03:05Z</time>
      </trkpt>
      <trkpt lat="43.55129" lon="1.245">
        <ele>215.4</ele>
        <time>2023-04-05T16:03:08Z</time>
      </trkpt>
      <trkpt lat="43.55132" lon="1.24491">
        <ele>215.6</ele>
        <time>2023-04-05T16:03:09Z</time>
      </trkpt>
      <trkpt lat="43.55135" lon="1.24487">
        <ele>215.8</ele>
        <time>2023-04-05T16:03:10Z</time>
      </trkpt>
      <trkpt lat="43.55138" lon="1.24485">
        <ele>215.8</ele>
        <time>2023-04-05T16:03:11Z</time>
      </trkpt>
      <trkpt lat="43.55146" lon="1.24484">
        <ele>216</ele>
        <time>2023-04-05T16:03:13Z</time>
      </trkpt>
      <trkpt lat="43.55161" lon="1.24474">
        <ele>216.4</ele>
        <time>2023-04-05T16:03:17Z</time>
      </trkpt>
      <trkpt lat="43.55166" lon="1.24456">
        <ele>216.4</ele>
        <time>2023-04-05T16:03:20Z</time>
      </trkpt>
      <trkpt lat="43.55166" lon="1.2445">
        <ele>216.4</ele>
        <time>2023-04-05T16:03:21Z</time>
      </trkpt>
      <trkpt lat="43.55167" lon="1.24436">
        <ele>216.4</ele>
        <time>2023-04-05T16:03:23Z</time>
      </trkpt>
      <trkpt lat="43.55169" lon="1.24429">
        <ele>216.4</ele>
        <time>2023-04-05T16:03:24Z</time>
      </trkpt>
      <trkpt lat="43.55171" lon="1.24423">
        <ele>216.4</ele>
        <time>2023-04-05T16:03:25Z</time>
      </trkpt>
      <trkpt lat="43.55192" lon="1.24371">
        <ele>216.6</ele>
        <time>2023-04-05T16:03:33Z</time>
      </trkpt>
      <trkpt lat="43.55205" lon="1.24313">
        <ele>216.8</ele>
        <time>2023-04-05T16:03:41Z</time>
      </trkpt>
      <trkpt lat="43.55222" lon="1.24237">
        <ele>217</ele>
        <time>2023-04-05T16:03:51Z</time>
      </trkpt>
      <trkpt lat="43.55241" lon="1.24166">
        <ele>216.8</ele>
        <time>2023-04-05T16:04:00Z</time>
      </trkpt>
      <trkpt lat="43.55244" lon="1.24158">
        <ele>216.8</ele>
        <time>2023-04-05T16:04:01Z</time>
      </trkpt>
      <trkpt lat="43.55259" lon="1.24089">
        <ele>217</ele>
        <time>2023-04-05T16:04:10Z</time>
      </trkpt>
      <trkpt lat="43.55268" lon="1.24011">
        <ele>217.2</ele>
        <time>2023-04-05T16:04:20Z</time>
      </trkpt>
      <trkpt lat="43.55273" lon="1.23932">
        <ele>217.4</ele>
        <time>2023-04-05T16:04:29Z</time>
      </trkpt>
      <trkpt lat="43.55274" lon="1.23922">
        <ele>217.4</ele>
        <time>2023-04-05T16:04:30Z</time>
      </trkpt>
      <trkpt lat="43.55282" lon="1.23842">
        <ele>216.6</ele>
        <time>2023-04-05T16:04:38Z</time>
      </trkpt>
      <trkpt lat="43.55282" lon="1.23831">
        <ele>216.2</ele>
        <time>2023-04-05T16:04:39Z</time>
      </trkpt>
      <trkpt lat="43.55285" lon="1.23799">
        <ele>215.4</ele>
        <time>2023-04-05T16:04:42Z</time>
      </trkpt>
      <trkpt lat="43.55288" lon="1.23768">
        <ele>214.4</ele>
        <time>2023-04-05T16:04:45Z</time>
      </trkpt>
      <trkpt lat="43.55294" lon="1.23709">
        <ele>213.2</ele>
        <time>2023-04-05T16:04:51Z</time>
      </trkpt>
      <trkpt lat="43.55296" lon="1.23645">
        <ele>213</ele>
        <time>2023-04-05T16:04:58Z</time>
      </trkpt>
      <trkpt lat="43.55295" lon="1.23615">
        <ele>213.4</ele>
        <time>2023-04-05T16:05:02Z</time>
      </trkpt>
      <trkpt lat="43.55297" lon="1.23609">
        <ele>213.4</ele>
        <time>2023-04-05T16:05:03Z</time>
      </trkpt>
      <trkpt lat="43.553" lon="1.23606">
        <ele>213.4</ele>
        <time>2023-04-05T16:05:04Z</time>
      </trkpt>
      <trkpt lat="43.55307" lon="1.23606">
        <ele>213.6</ele>
        <time>2023-04-05T16:05:06Z</time>
      </trkpt>
      <trkpt lat="43.55324" lon="1.23619">
        <ele>214.4</ele>
        <time>2023-04-05T16:05:11Z</time>
      </trkpt>
      <trkpt lat="43.55332" lon="1.23628">
        <ele>214.8</ele>
        <time>2023-04-05T16:05:13Z</time>
      </trkpt>
      <trkpt lat="43.55341" lon="1.23644">
        <ele>215.2</ele>
        <time>2023-04-05T16:05:16Z</time>
      </trkpt>
      <trkpt lat="43.55347" lon="1.23654">
        <ele>215.4</ele>
        <time>2023-04-05T16:05:18Z</time>
      </trkpt>
      <trkpt lat="43.55357" lon="1.23669">
        <ele>215.6</ele>
        <time>2023-04-05T16:05:21Z</time>
      </trkpt>
      <trkpt lat="43.55369" lon="1.23685">
        <ele>215.8</ele>
        <time>2023-04-05T16:05:24Z</time>
      </trkpt>
      <trkpt lat="43.55389" lon="1.23709">
        <ele>216</ele>
        <time>2023-04-05T16:05:29Z</time>
      </trkpt>
      <trkpt lat="43.55398" lon="1.23713">
        <ele>216.2</ele>
        <time>2023-04-05T16:05:31Z</time>
      </trkpt>
      <trkpt lat="43.55411" lon="1.23705">
        <ele>216.4</ele>
        <time>2023-04-05T16:05:34Z</time>
      </trkpt>
      <trkpt lat="43.55415" lon="1.23702">
        <ele>216.6</ele>
        <time>2023-04-05T16:05:35Z</time>
      </trkpt>
      <trkpt lat="43.55435" lon="1.23686">
        <ele>216.8</ele>
        <time>2023-04-05T16:05:40Z</time>
      </trkpt>
      <trkpt lat="43.55443" lon="1.2368">
        <ele>217.2</ele>
        <time>2023-04-05T16:05:42Z</time>
      </trkpt>
      <trkpt lat="43.55466" lon="1.23661">
        <ele>217.4</ele>
        <time>2023-04-05T16:05:47Z</time>
      </trkpt>
      <trkpt lat="43.55475" lon="1.23653">
        <ele>217.4</ele>
        <time>2023-04-05T16:05:49Z</time>
      </trkpt>
      <trkpt lat="43.5548" lon="1.23643">
        <ele>217.4</ele>
        <time>2023-04-05T16:05:51Z</time>
      </trkpt>
      <trkpt lat="43.55472" lon="1.23624">
        <ele>217.4</ele>
        <time>2023-04-05T16:05:55Z</time>
      </trkpt>
      <trkpt lat="43.55464" lon="1.23607">
        <ele>217.2</ele>
        <time>2023-04-05T16:05:58Z</time>
      </trkpt>
      <trkpt lat="43.55458" lon="1.23595">
        <ele>217.2</ele>
        <time>2023-04-05T16:06:00Z</time>
      </trkpt>
      <trkpt lat="43.55455" lon="1.23589">
        <ele>217.2</ele>
        <time>2023-04-05T16:06:01Z</time>
      </trkpt>
      <trkpt lat="43.55449" lon="1.23577">
        <ele>217.2</ele>
        <time>2023-04-05T16:06:03Z</time>
      </trkpt>
      <trkpt lat="43.55441" lon="1.2356">
        <ele>217.4</ele>
        <time>2023-04-05T16:06:06Z</time>
      </trkpt>
      <trkpt lat="43.55442" lon="1.23553">
        <ele>217.6</ele>
        <time>2023-04-05T16:06:07Z</time>
      </trkpt>
      <trkpt lat="43.55444" lon="1.23548">
        <ele>217.6</ele>
        <time>2023-04-05T16:06:08Z</time>
      </trkpt>
      <trkpt lat="43.55462" lon="1.23525">
        <ele>217.4</ele>
        <time>2023-04-05T16:06:13Z</time>
      </trkpt>
      <trkpt lat="43.55494" lon="1.23484">
        <ele>217.8</ele>
        <time>2023-04-05T16:06:21Z</time>
      </trkpt>
      <trkpt lat="43.55526" lon="1.23444">
        <ele>218.4</ele>
        <time>2023-04-05T16:06:29Z</time>
      </trkpt>
      <trkpt lat="43.55528" lon="1.23439">
        <ele>218.2</ele>
        <time>2023-04-05T16:06:30Z</time>
      </trkpt>
      <trkpt lat="43.55528" lon="1.23436">
        <ele>218.2</ele>
        <time>2023-04-05T16:06:31Z</time>
      </trkpt>
      <trkpt lat="43.55527" lon="1.23433">
        <ele>218</ele>
        <time>2023-04-05T16:06:32Z</time>
      </trkpt>
      <trkpt lat="43.55516" lon="1.23422">
        <ele>218</ele>
        <time>2023-04-05T16:06:36Z</time>
      </trkpt>
      <trkpt lat="43.55496" lon="1.23404">
        <ele>217.8</ele>
        <time>2023-04-05T16:06:41Z</time>
      </trkpt>
      <trkpt lat="43.55489" lon="1.23397">
        <ele>217.4</ele>
        <time>2023-04-05T16:06:43Z</time>
      </trkpt>
      <trkpt lat="43.55482" lon="1.23386">
        <ele>217.2</ele>
        <time>2023-04-05T16:06:45Z</time>
      </trkpt>
      <trkpt lat="43.5548" lon="1.23379">
        <ele>217.2</ele>
        <time>2023-04-05T16:06:46Z</time>
      </trkpt>
      <trkpt lat="43.55476" lon="1.23371">
        <ele>217.2</ele>
        <time>2023-04-05T16:06:47Z</time>
      </trkpt>
      <trkpt lat="43.55469" lon="1.23354">
        <ele>216.6</ele>
        <time>2023-04-05T16:06:49Z</time>
      </trkpt>
      <trkpt lat="43.55465" lon="1.23339">
        <ele>216.6</ele>
        <time>2023-04-05T16:06:51Z</time>
      </trkpt>
      <trkpt lat="43.55463" lon="1.2333">
        <ele>216.6</ele>
        <time>2023-04-05T16:06:52Z</time>
      </trkpt>
      <trkpt lat="43.55467" lon="1.2332">
        <ele>216.6</ele>
        <time>2023-04-05T16:06:54Z</time>
      </trkpt>
      <trkpt lat="43.5547" lon="1.23315">
        <ele>216.4</ele>
        <time>2023-04-05T16:06:55Z</time>
      </trkpt>
      <trkpt lat="43.55487" lon="1.2329">
        <ele>216.2</ele>
        <time>2023-04-05T16:07:00Z</time>
      </trkpt>
      <trkpt lat="43.5551" lon="1.23257">
        <ele>216.6</ele>
        <time>2023-04-05T16:07:07Z</time>
      </trkpt>
      <trkpt lat="43.55513" lon="1.23252">
        <ele>216.4</ele>
        <time>2023-04-05T16:07:08Z</time>
      </trkpt>
      <trkpt lat="43.55516" lon="1.23246">
        <ele>216.4</ele>
        <time>2023-04-05T16:07:09Z</time>
      </trkpt>
      <trkpt lat="43.55521" lon="1.23226">
        <ele>216</ele>
        <time>2023-04-05T16:07:12Z</time>
      </trkpt>
      <trkpt lat="43.55527" lon="1.23191">
        <ele>216</ele>
        <time>2023-04-05T16:07:17Z</time>
      </trkpt>
      <trkpt lat="43.55531" lon="1.23178">
        <ele>216</ele>
        <time>2023-04-05T16:07:19Z</time>
      </trkpt>
      <trkpt lat="43.55534" lon="1.23165">
        <ele>215.6</ele>
        <time>2023-04-05T16:07:21Z</time>
      </trkpt>
      <trkpt lat="43.55541" lon="1.23123">
        <ele>216</ele>
        <time>2023-04-05T16:07:27Z</time>
      </trkpt>
      <trkpt lat="43.55544" lon="1.23114">
        <ele>216</ele>
        <time>2023-04-05T16:07:30Z</time>
      </trkpt>
      <trkpt lat="43.55545" lon="1.23113">
        <ele>216</ele>
        <time>2023-04-05T16:07:31Z</time>
      </trkpt>
      <trkpt lat="43.55549" lon="1.2311">
        <ele>216</ele>
        <time>2023-04-05T16:07:33Z</time>
      </trkpt>
      <trkpt lat="43.5556" lon="1.23099">
        <ele>216</ele>
        <time>2023-04-05T16:07:38Z</time>
      </trkpt>
      <trkpt lat="43.55574" lon="1.23086">
        <ele>216</ele>
        <time>2023-04-05T16:07:42Z</time>
      </trkpt>
      <trkpt lat="43.55587" lon="1.23067">
        <ele>216</ele>
        <time>2023-04-05T16:07:46Z</time>
      </trkpt>
      <trkpt lat="43.55591" lon="1.23061">
        <ele>216</ele>
        <time>2023-04-05T16:07:47Z</time>
      </trkpt>
      <trkpt lat="43.55593" lon="1.23057">
        <ele>216</ele>
        <time>2023-04-05T16:07:48Z</time>
      </trkpt>
      <trkpt lat="43.55598" lon="1.23045">
        <ele>216</ele>
        <time>2023-04-05T16:07:50Z</time>
      </trkpt>
      <trkpt lat="43.55601" lon="1.23041">
        <ele>216.4</ele>
        <time>2023-04-05T16:07:51Z</time>
      </trkpt>
      <trkpt lat="43.55612" lon="1.23028">
        <ele>216.8</ele>
        <time>2023-04-05T16:07:54Z</time>
      </trkpt>
      <trkpt lat="43.55619" lon="1.23014">
        <ele>217</ele>
        <time>2023-04-05T16:07:56Z</time>
      </trkpt>
      <trkpt lat="43.55626" lon="1.23005">
        <ele>217.2</ele>
        <time>2023-04-05T16:07:58Z</time>
      </trkpt>
      <trkpt lat="43.55638" lon="1.22992">
        <ele>217.4</ele>
        <time>2023-04-05T16:08:01Z</time>
      </trkpt>
      <trkpt lat="43.55642" lon="1.22987">
        <ele>217.6</ele>
        <time>2023-04-05T16:08:02Z</time>
      </trkpt>
      <trkpt lat="43.55647" lon="1.22981">
        <ele>217.6</ele>
        <time>2023-04-05T16:08:03Z</time>
      </trkpt>
      <trkpt lat="43.55654" lon="1.2297">
        <ele>217.6</ele>
        <time>2023-04-05T16:08:05Z</time>
      </trkpt>
      <trkpt lat="43.55655" lon="1.22966">
        <ele>217.4</ele>
        <time>2023-04-05T16:08:06Z</time>
      </trkpt>
      <trkpt lat="43.55665" lon="1.22951">
        <ele>217.2</ele>
        <time>2023-04-05T16:08:09Z</time>
      </trkpt>
      <trkpt lat="43.55669" lon="1.22939">
        <ele>217.2</ele>
        <time>2023-04-05T16:08:11Z</time>
      </trkpt>
      <trkpt lat="43.55671" lon="1.22915">
        <ele>216.8</ele>
        <time>2023-04-05T16:08:14Z</time>
      </trkpt>
      <trkpt lat="43.55672" lon="1.22899">
        <ele>216.4</ele>
        <time>2023-04-05T16:08:16Z</time>
      </trkpt>
      <trkpt lat="43.55672" lon="1.22886">
        <ele>216.2</ele>
        <time>2023-04-05T16:08:18Z</time>
      </trkpt>
      <trkpt lat="43.55678" lon="1.22883">
        <ele>216</ele>
        <time>2023-04-05T16:08:20Z</time>
      </trkpt>
      <trkpt lat="43.55693" lon="1.22884">
        <ele>215</ele>
        <time>2023-04-05T16:08:23Z</time>
      </trkpt>
      <trkpt lat="43.55705" lon="1.22885">
        <ele>214.4</ele>
        <time>2023-04-05T16:08:26Z</time>
      </trkpt>
      <trkpt lat="43.55709" lon="1.22886">
        <ele>214</ele>
        <time>2023-04-05T16:08:27Z</time>
      </trkpt>
      <trkpt lat="43.55722" lon="1.22888">
        <ele>213.4</ele>
        <time>2023-04-05T16:08:31Z</time>
      </trkpt>
      <trkpt lat="43.55727" lon="1.22887">
        <ele>213.2</ele>
        <time>2023-04-05T16:08:32Z</time>
      </trkpt>
      <trkpt lat="43.55732" lon="1.2288">
        <ele>213.2</ele>
        <time>2023-04-05T16:08:34Z</time>
      </trkpt>
      <trkpt lat="43.55733" lon="1.22875">
        <ele>213</ele>
        <time>2023-04-05T16:08:35Z</time>
      </trkpt>
      <trkpt lat="43.55734" lon="1.22862">
        <ele>213</ele>
        <time>2023-04-05T16:08:38Z</time>
      </trkpt>
      <trkpt lat="43.55733" lon="1.22824">
        <ele>213.8</ele>
        <time>2023-04-05T16:08:46Z</time>
      </trkpt>
      <trkpt lat="43.55733" lon="1.22777">
        <ele>214.8</ele>
        <time>2023-04-05T16:08:54Z</time>
      </trkpt>
      <trkpt lat="43.55733" lon="1.22765">
        <ele>215</ele>
        <time>2023-04-05T16:08:56Z</time>
      </trkpt>
      <trkpt lat="43.55733" lon="1.22724">
        <ele>216.2</ele>
        <time>2023-04-05T16:09:03Z</time>
      </trkpt>
      <trkpt lat="43.55733" lon="1.22717">
        <ele>216.4</ele>
        <time>2023-04-05T16:09:04Z</time>
      </trkpt>
      <trkpt lat="43.55734" lon="1.22711">
        <ele>216.4</ele>
        <time>2023-04-05T16:09:05Z</time>
      </trkpt>
      <trkpt lat="43.55734" lon="1.22676">
        <ele>217.2</ele>
        <time>2023-04-05T16:09:11Z</time>
      </trkpt>
      <trkpt lat="43.55735" lon="1.2267">
        <ele>217.4</ele>
        <time>2023-04-05T16:09:12Z</time>
      </trkpt>
      <trkpt lat="43.55736" lon="1.22665">
        <ele>217.4</ele>
        <time>2023-04-05T16:09:13Z</time>
      </trkpt>
      <trkpt lat="43.5574" lon="1.22658">
        <ele>217.4</ele>
        <time>2023-04-05T16:09:15Z</time>
      </trkpt>
      <trkpt lat="43.55748" lon="1.22656">
        <ele>217.4</ele>
        <time>2023-04-05T16:09:17Z</time>
      </trkpt>
      <trkpt lat="43.55758" lon="1.22656">
        <ele>217.4</ele>
        <time>2023-04-05T16:09:19Z</time>
      </trkpt>
      <trkpt lat="43.55773" lon="1.22656">
        <ele>217.4</ele>
        <time>2023-04-05T16:09:22Z</time>
      </trkpt>
      <trkpt lat="43.55777" lon="1.22654">
        <ele>217.2</ele>
        <time>2023-04-05T16:09:23Z</time>
      </trkpt>
      <trkpt lat="43.5578" lon="1.2265">
        <ele>217.2</ele>
        <time>2023-04-05T16:09:24Z</time>
      </trkpt>
      <trkpt lat="43.55781" lon="1.22639">
        <ele>217</ele>
        <time>2023-04-05T16:09:26Z</time>
      </trkpt>
      <trkpt lat="43.55779" lon="1.22625">
        <ele>217</ele>
        <time>2023-04-05T16:09:28Z</time>
      </trkpt>
      <trkpt lat="43.55772" lon="1.22596">
        <ele>216.8</ele>
        <time>2023-04-05T16:09:32Z</time>
      </trkpt>
      <trkpt lat="43.55771" lon="1.22588">
        <ele>216.8</ele>
        <time>2023-04-05T16:09:33Z</time>
      </trkpt>
      <trkpt lat="43.55771" lon="1.22573">
        <ele>216.8</ele>
        <time>2023-04-05T16:09:35Z</time>
      </trkpt>
      <trkpt lat="43.55771" lon="1.22567">
        <ele>216.8</ele>
        <time>2023-04-05T16:09:36Z</time>
      </trkpt>
      <trkpt lat="43.55773" lon="1.22561">
        <ele>216.8</ele>
        <time>2023-04-05T16:09:37Z</time>
      </trkpt>
      <trkpt lat="43.55778" lon="1.22548">
        <ele>217</ele>
        <time>2023-04-05T16:09:39Z</time>
      </trkpt>
      <trkpt lat="43.5578" lon="1.22544">
        <ele>217.4</ele>
        <time>2023-04-05T16:09:40Z</time>
      </trkpt>
      <trkpt lat="43.5579" lon="1.22528">
        <ele>217.8</ele>
        <time>2023-04-05T16:09:43Z</time>
      </trkpt>
      <trkpt lat="43.558" lon="1.22511">
        <ele>218.2</ele>
        <time>2023-04-05T16:09:46Z</time>
      </trkpt>
      <trkpt lat="43.55807" lon="1.22499">
        <ele>218.2</ele>
        <time>2023-04-05T16:09:48Z</time>
      </trkpt>
      <trkpt lat="43.5583" lon="1.22461">
        <ele>218.8</ele>
        <time>2023-04-05T16:09:55Z</time>
      </trkpt>
      <trkpt lat="43.55859" lon="1.22418">
        <ele>219</ele>
        <time>2023-04-05T16:10:04Z</time>
      </trkpt>
      <trkpt lat="43.5586" lon="1.22405">
        <ele>219.2</ele>
        <time>2023-04-05T16:10:07Z</time>
      </trkpt>
      <trkpt lat="43.5585" lon="1.22388">
        <ele>219.2</ele>
        <time>2023-04-05T16:10:12Z</time>
      </trkpt>
      <trkpt lat="43.55838" lon="1.22369">
        <ele>219.2</ele>
        <time>2023-04-05T16:10:18Z</time>
      </trkpt>
      <trkpt lat="43.55821" lon="1.22344">
        <ele>219.2</ele>
        <time>2023-04-05T16:10:24Z</time>
      </trkpt>
      <trkpt lat="43.55818" lon="1.22339">
        <ele>219.2</ele>
        <time>2023-04-05T16:10:25Z</time>
      </trkpt>
      <trkpt lat="43.55799" lon="1.2231">
        <ele>219.8</ele>
        <time>2023-04-05T16:10:31Z</time>
      </trkpt>
      <trkpt lat="43.55788" lon="1.22292">
        <ele>220.4</ele>
        <time>2023-04-05T16:10:35Z</time>
      </trkpt>
      <trkpt lat="43.55774" lon="1.22271">
        <ele>221</ele>
        <time>2023-04-05T16:10:39Z</time>
      </trkpt>
      <trkpt lat="43.55761" lon="1.2225">
        <ele>221.4</ele>
        <time>2023-04-05T16:10:43Z</time>
      </trkpt>
      <trkpt lat="43.5574" lon="1.22219">
        <ele>222</ele>
        <time>2023-04-05T16:10:49Z</time>
      </trkpt>
      <trkpt lat="43.55718" lon="1.22186">
        <ele>222.4</ele>
        <time>2023-04-05T16:10:55Z</time>
      </trkpt>
      <trkpt lat="43.55703" lon="1.22164">
        <ele>222.8</ele>
        <time>2023-04-05T16:10:59Z</time>
      </trkpt>
      <trkpt lat="43.55696" lon="1.22153">
        <ele>223.2</ele>
        <time>2023-04-05T16:11:01Z</time>
      </trkpt>
      <trkpt lat="43.55677" lon="1.22124">
        <ele>223.4</ele>
        <time>2023-04-05T16:11:07Z</time>
      </trkpt>
      <trkpt lat="43.5566" lon="1.22098">
        <ele>223.4</ele>
        <time>2023-04-05T16:11:14Z</time>
      </trkpt>
      <trkpt lat="43.55654" lon="1.22089">
        <ele>223.4</ele>
        <time>2023-04-05T16:11:19Z</time>
      </trkpt>
      <trkpt lat="43.55653" lon="1.2209">
        <ele>223.4</ele>
        <time>2023-04-05T16:11:20Z</time>
      </trkpt>
      <trkpt lat="43.55655" lon="1.22093">
        <ele>223.6</ele>
        <time>2023-04-05T16:11:22Z</time>
      </trkpt>
      <trkpt lat="43.55669" lon="1.22114">
        <ele>223.6</ele>
        <time>2023-04-05T16:11:28Z</time>
      </trkpt>
      <trkpt lat="43.5569" lon="1.22147">
        <ele>223.6</ele>
        <time>2023-04-05T16:11:34Z</time>
      </trkpt>
      <trkpt lat="43.55718" lon="1.2219">
        <ele>223.6</ele>
        <time>2023-04-05T16:11:41Z</time>
      </trkpt>
      <trkpt lat="43.55722" lon="1.22196">
        <ele>223.6</ele>
        <time>2023-04-05T16:11:42Z</time>
      </trkpt>
      <trkpt lat="43.55756" lon="1.22247">
        <ele>223</ele>
        <time>2023-04-05T16:11:50Z</time>
      </trkpt>
      <trkpt lat="43.55786" lon="1.22295">
        <ele>222.6</ele>
        <time>2023-04-05T16:11:57Z</time>
      </trkpt>
      <trkpt lat="43.55795" lon="1.22309">
        <ele>222.6</ele>
        <time>2023-04-05T16:11:59Z</time>
      </trkpt>
      <trkpt lat="43.55829" lon="1.22361">
        <ele>221.6</ele>
        <time>2023-04-05T16:12:06Z</time>
      </trkpt>
      <trkpt lat="43.55838" lon="1.22376">
        <ele>221</ele>
        <time>2023-04-05T16:12:08Z</time>
      </trkpt>
      <trkpt lat="43.55848" lon="1.22389">
        <ele>220.6</ele>
        <time>2023-04-05T16:12:10Z</time>
      </trkpt>
      <trkpt lat="43.55885" lon="1.22445">
        <ele>220</ele>
        <time>2023-04-05T16:12:18Z</time>
      </trkpt>
      <trkpt lat="43.55908" lon="1.22489">
        <ele>219.8</ele>
        <time>2023-04-05T16:12:24Z</time>
      </trkpt>
      <trkpt lat="43.55938" lon="1.22553">
        <ele>220</ele>
        <time>2023-04-05T16:12:32Z</time>
      </trkpt>
      <trkpt lat="43.55963" lon="1.22601">
        <ele>220.2</ele>
        <time>2023-04-05T16:12:38Z</time>
      </trkpt>
      <trkpt lat="43.55976" lon="1.22632">
        <ele>219.8</ele>
        <time>2023-04-05T16:12:42Z</time>
      </trkpt>
      <trkpt lat="43.55978" lon="1.22639">
        <ele>219.8</ele>
        <time>2023-04-05T16:12:43Z</time>
      </trkpt>
      <trkpt lat="43.55984" lon="1.22664">
        <ele>219.4</ele>
        <time>2023-04-05T16:12:46Z</time>
      </trkpt>
      <trkpt lat="43.55994" lon="1.227">
        <ele>219.8</ele>
        <time>2023-04-05T16:12:50Z</time>
      </trkpt>
      <trkpt lat="43.56014" lon="1.22774">
        <ele>220.2</ele>
        <time>2023-04-05T16:12:58Z</time>
      </trkpt>
      <trkpt lat="43.56024" lon="1.22811">
        <ele>220.6</ele>
        <time>2023-04-05T16:13:03Z</time>
      </trkpt>
      <trkpt lat="43.56029" lon="1.22829">
        <ele>220.4</ele>
        <time>2023-04-05T16:13:06Z</time>
      </trkpt>
      <trkpt lat="43.56033" lon="1.2284">
        <ele>220.4</ele>
        <time>2023-04-05T16:13:08Z</time>
      </trkpt>
      <trkpt lat="43.56034" lon="1.22846">
        <ele>220.2</ele>
        <time>2023-04-05T16:13:09Z</time>
      </trkpt>
      <trkpt lat="43.5604" lon="1.22867">
        <ele>220</ele>
        <time>2023-04-05T16:13:12Z</time>
      </trkpt>
      <trkpt lat="43.56042" lon="1.22874">
        <ele>220</ele>
        <time>2023-04-05T16:13:13Z</time>
      </trkpt>
      <trkpt lat="43.56046" lon="1.22881">
        <ele>219.8</ele>
        <time>2023-04-05T16:13:14Z</time>
      </trkpt>
      <trkpt lat="43.56065" lon="1.22906">
        <ele>220</ele>
        <time>2023-04-05T16:13:18Z</time>
      </trkpt>
      <trkpt lat="43.56105" lon="1.22959">
        <ele>220</ele>
        <time>2023-04-05T16:13:26Z</time>
      </trkpt>
      <trkpt lat="43.5611" lon="1.22966">
        <ele>220</ele>
        <time>2023-04-05T16:13:27Z</time>
      </trkpt>
      <trkpt lat="43.56145" lon="1.23014">
        <ele>219.4</ele>
        <time>2023-04-05T16:13:35Z</time>
      </trkpt>
      <trkpt lat="43.56148" lon="1.23028">
        <ele>219.4</ele>
        <time>2023-04-05T16:13:37Z</time>
      </trkpt>
      <trkpt lat="43.56147" lon="1.23036">
        <ele>219.4</ele>
        <time>2023-04-05T16:13:38Z</time>
      </trkpt>
      <trkpt lat="43.56128" lon="1.23079">
        <ele>219.4</ele>
        <time>2023-04-05T16:13:44Z</time>
      </trkpt>
      <trkpt lat="43.56107" lon="1.23124">
        <ele>219.4</ele>
        <time>2023-04-05T16:13:50Z</time>
      </trkpt>
      <trkpt lat="43.56094" lon="1.2315">
        <ele>219.8</ele>
        <time>2023-04-05T16:13:54Z</time>
      </trkpt>
      <trkpt lat="43.56089" lon="1.23159">
        <ele>219.8</ele>
        <time>2023-04-05T16:13:56Z</time>
      </trkpt>
      <trkpt lat="43.56088" lon="1.23163">
        <ele>219.8</ele>
        <time>2023-04-05T16:13:57Z</time>
      </trkpt>
      <trkpt lat="43.56089" lon="1.23172">
        <ele>220</ele>
        <time>2023-04-05T16:13:59Z</time>
      </trkpt>
      <trkpt lat="43.56091" lon="1.23178">
        <ele>220</ele>
        <time>2023-04-05T16:14:00Z</time>
      </trkpt>
      <trkpt lat="43.56097" lon="1.23187">
        <ele>220</ele>
        <time>2023-04-05T16:14:02Z</time>
      </trkpt>
      <trkpt lat="43.56101" lon="1.23192">
        <ele>220</ele>
        <time>2023-04-05T16:14:03Z</time>
      </trkpt>
      <trkpt lat="43.56131" lon="1.23226">
        <ele>219.6</ele>
        <time>2023-04-05T16:14:10Z</time>
      </trkpt>
      <trkpt lat="43.56157" lon="1.23258">
        <ele>218.8</ele>
        <time>2023-04-05T16:14:15Z</time>
      </trkpt>
      <trkpt lat="43.56162" lon="1.23263">
        <ele>218.8</ele>
        <time>2023-04-05T16:14:16Z</time>
      </trkpt>
      <trkpt lat="43.56182" lon="1.23283">
        <ele>218</ele>
        <time>2023-04-05T16:14:19Z</time>
      </trkpt>
      <trkpt lat="43.56191" lon="1.23289">
        <ele>217.6</ele>
        <time>2023-04-05T16:14:20Z</time>
      </trkpt>
      <trkpt lat="43.56199" lon="1.23292">
        <ele>217.6</ele>
        <time>2023-04-05T16:14:21Z</time>
      </trkpt>
      <trkpt lat="43.56219" lon="1.233">
        <ele>216.4</ele>
        <time>2023-04-05T16:14:23Z</time>
      </trkpt>
      <trkpt lat="43.56231" lon="1.23303">
        <ele>215.6</ele>
        <time>2023-04-05T16:14:24Z</time>
      </trkpt>
      <trkpt lat="43.56242" lon="1.23307">
        <ele>214.8</ele>
        <time>2023-04-05T16:14:25Z</time>
      </trkpt>
      <trkpt lat="43.56265" lon="1.23315">
        <ele>213</ele>
        <time>2023-04-05T16:14:27Z</time>
      </trkpt>
      <trkpt lat="43.56291" lon="1.23324">
        <ele>211.2</ele>
        <time>2023-04-05T16:14:29Z</time>
      </trkpt>
      <trkpt lat="43.563" lon="1.23327">
        <ele>210.6</ele>
        <time>2023-04-05T16:14:30Z</time>
      </trkpt>
      <trkpt lat="43.56309" lon="1.23329">
        <ele>209.6</ele>
        <time>2023-04-05T16:14:31Z</time>
      </trkpt>
      <trkpt lat="43.56317" lon="1.23332">
        <ele>209.2</ele>
        <time>2023-04-05T16:14:32Z</time>
      </trkpt>
      <trkpt lat="43.5632" lon="1.23334">
        <ele>208.2</ele>
        <time>2023-04-05T16:14:33Z</time>
      </trkpt>
      <trkpt lat="43.56321" lon="1.23339">
        <ele>207.6</ele>
        <time>2023-04-05T16:14:34Z</time>
      </trkpt>
      <trkpt lat="43.56321" lon="1.23345">
        <ele>206.6</ele>
        <time>2023-04-05T16:14:35Z</time>
      </trkpt>
      <trkpt lat="43.5632" lon="1.23351">
        <ele>205.6</ele>
        <time>2023-04-05T16:14:36Z</time>
      </trkpt>
      <trkpt lat="43.56319" lon="1.23356">
        <ele>205.2</ele>
        <time>2023-04-05T16:14:37Z</time>
      </trkpt>
      <trkpt lat="43.56316" lon="1.23368">
        <ele>204.2</ele>
        <time>2023-04-05T16:14:39Z</time>
      </trkpt>
      <trkpt lat="43.56316" lon="1.23374">
        <ele>203.6</ele>
        <time>2023-04-05T16:14:40Z</time>
      </trkpt>
      <trkpt lat="43.56313" lon="1.23388">
        <ele>203.2</ele>
        <time>2023-04-05T16:14:42Z</time>
      </trkpt>
      <trkpt lat="43.56302" lon="1.23441">
        <ele>202</ele>
        <time>2023-04-05T16:14:49Z</time>
      </trkpt>
      <trkpt lat="43.563" lon="1.23448">
        <ele>202</ele>
        <time>2023-04-05T16:14:50Z</time>
      </trkpt>
      <trkpt lat="43.56292" lon="1.23488">
        <ele>202</ele>
        <time>2023-04-05T16:14:55Z</time>
      </trkpt>
      <trkpt lat="43.56288" lon="1.23508">
        <ele>202.2</ele>
        <time>2023-04-05T16:14:57Z</time>
      </trkpt>
      <trkpt lat="43.56282" lon="1.23532">
        <ele>202</ele>
        <time>2023-04-05T16:15:00Z</time>
      </trkpt>
      <trkpt lat="43.56278" lon="1.2355">
        <ele>202.2</ele>
        <time>2023-04-05T16:15:02Z</time>
      </trkpt>
      <trkpt lat="43.56277" lon="1.23578">
        <ele>202</ele>
        <time>2023-04-05T16:15:05Z</time>
      </trkpt>
      <trkpt lat="43.56283" lon="1.23631">
        <ele>201.8</ele>
        <time>2023-04-05T16:15:11Z</time>
      </trkpt>
      <trkpt lat="43.56288" lon="1.23689">
        <ele>202.4</ele>
        <time>2023-04-05T16:15:18Z</time>
      </trkpt>
      <trkpt lat="43.56292" lon="1.23724">
        <ele>202.8</ele>
        <time>2023-04-05T16:15:23Z</time>
      </trkpt>
      <trkpt lat="43.56293" lon="1.23742">
        <ele>203.2</ele>
        <time>2023-04-05T16:15:26Z</time>
      </trkpt>
      <trkpt lat="43.56294" lon="1.23752">
        <ele>203.8</ele>
        <time>2023-04-05T16:15:28Z</time>
      </trkpt>
      <trkpt lat="43.56296" lon="1.23765">
        <ele>204.2</ele>
        <time>2023-04-05T16:15:31Z</time>
      </trkpt>
      <trkpt lat="43.56297" lon="1.2378">
        <ele>204.8</ele>
        <time>2023-04-05T16:15:34Z</time>
      </trkpt>
      <trkpt lat="43.56298" lon="1.2379">
        <ele>205.2</ele>
        <time>2023-04-05T16:15:36Z</time>
      </trkpt>
      <trkpt lat="43.56301" lon="1.23821">
        <ele>206.4</ele>
        <time>2023-04-05T16:15:41Z</time>
      </trkpt>
      <trkpt lat="43.56304" lon="1.23858">
        <ele>206.6</ele>
        <time>2023-04-05T16:15:46Z</time>
      </trkpt>
      <trkpt lat="43.56305" lon="1.23872">
        <ele>206.6</ele>
        <time>2023-04-05T16:15:48Z</time>
      </trkpt>
      <trkpt lat="43.56307" lon="1.23888">
        <ele>206.6</ele>
        <time>2023-04-05T16:15:50Z</time>
      </trkpt>
      <trkpt lat="43.56305" lon="1.23935">
        <ele>206.6</ele>
        <time>2023-04-05T16:15:56Z</time>
      </trkpt>
      <trkpt lat="43.56309" lon="1.23979">
        <ele>206.8</ele>
        <time>2023-04-05T16:16:01Z</time>
      </trkpt>
      <trkpt lat="43.56311" lon="1.24004">
        <ele>207</ele>
        <time>2023-04-05T16:16:04Z</time>
      </trkpt>
      <trkpt lat="43.56313" lon="1.24047">
        <ele>206.8</ele>
        <time>2023-04-05T16:16:09Z</time>
      </trkpt>
      <trkpt lat="43.56315" lon="1.24119">
        <ele>206.8</ele>
        <time>2023-04-05T16:16:17Z</time>
      </trkpt>
      <trkpt lat="43.56322" lon="1.24175">
        <ele>206.6</ele>
        <time>2023-04-05T16:16:23Z</time>
      </trkpt>
      <trkpt lat="43.56325" lon="1.24191">
        <ele>206.8</ele>
        <time>2023-04-05T16:16:25Z</time>
      </trkpt>
      <trkpt lat="43.56343" lon="1.24256">
        <ele>206.6</ele>
        <time>2023-04-05T16:16:32Z</time>
      </trkpt>
      <trkpt lat="43.5636" lon="1.24316">
        <ele>206.6</ele>
        <time>2023-04-05T16:16:39Z</time>
      </trkpt>
      <trkpt lat="43.56373" lon="1.24366">
        <ele>205.8</ele>
        <time>2023-04-05T16:16:45Z</time>
      </trkpt>
      <trkpt lat="43.56373" lon="1.24375">
        <ele>205.6</ele>
        <time>2023-04-05T16:16:46Z</time>
      </trkpt>
      <trkpt lat="43.56372" lon="1.24382">
        <ele>205.2</ele>
        <time>2023-04-05T16:16:47Z</time>
      </trkpt>
      <trkpt lat="43.56369" lon="1.24398">
        <ele>204.8</ele>
        <time>2023-04-05T16:16:49Z</time>
      </trkpt>
      <trkpt lat="43.56367" lon="1.24406">
        <ele>204.6</ele>
        <time>2023-04-05T16:16:50Z</time>
      </trkpt>
      <trkpt lat="43.56362" lon="1.2442">
        <ele>204.2</ele>
        <time>2023-04-05T16:16:52Z</time>
      </trkpt>
      <trkpt lat="43.56354" lon="1.24438">
        <ele>204</ele>
        <time>2023-04-05T16:16:55Z</time>
      </trkpt>
      <trkpt lat="43.5634" lon="1.2447">
        <ele>204.4</ele>
        <time>2023-04-05T16:17:01Z</time>
      </trkpt>
      <trkpt lat="43.56339" lon="1.24476">
        <ele>204.4</ele>
        <time>2023-04-05T16:17:02Z</time>
      </trkpt>
      <trkpt lat="43.56339" lon="1.24482">
        <ele>204.6</ele>
        <time>2023-04-05T16:17:03Z</time>
      </trkpt>
      <trkpt lat="43.56342" lon="1.24501">
        <ele>204.8</ele>
        <time>2023-04-05T16:17:06Z</time>
      </trkpt>
      <trkpt lat="43.56346" lon="1.24539">
        <ele>205</ele>
        <time>2023-04-05T16:17:11Z</time>
      </trkpt>
      <trkpt lat="43.56347" lon="1.24555">
        <ele>204.8</ele>
        <time>2023-04-05T16:17:13Z</time>
      </trkpt>
      <trkpt lat="43.56344" lon="1.2457">
        <ele>204.8</ele>
        <time>2023-04-05T16:17:15Z</time>
      </trkpt>
      <trkpt lat="43.56337" lon="1.246">
        <ele>204.8</ele>
        <time>2023-04-05T16:17:19Z</time>
      </trkpt>
      <trkpt lat="43.56334" lon="1.24608">
        <ele>204.8</ele>
        <time>2023-04-05T16:17:20Z</time>
      </trkpt>
      <trkpt lat="43.56333" lon="1.24616">
        <ele>204.8</ele>
        <time>2023-04-05T16:17:21Z</time>
      </trkpt>
      <trkpt lat="43.5633" lon="1.24641">
        <ele>204.8</ele>
        <time>2023-04-05T16:17:24Z</time>
      </trkpt>
      <trkpt lat="43.56331" lon="1.24648">
        <ele>204.8</ele>
        <time>2023-04-05T16:17:25Z</time>
      </trkpt>
      <trkpt lat="43.56332" lon="1.24657">
        <ele>204.6</ele>
        <time>2023-04-05T16:17:26Z</time>
      </trkpt>
      <trkpt lat="43.56338" lon="1.24682">
        <ele>204.8</ele>
        <time>2023-04-05T16:17:29Z</time>
      </trkpt>
      <trkpt lat="43.56355" lon="1.24731">
        <ele>204.6</ele>
        <time>2023-04-05T16:17:35Z</time>
      </trkpt>
      <trkpt lat="43.5636" lon="1.24744">
        <ele>204.6</ele>
        <time>2023-04-05T16:17:37Z</time>
      </trkpt>
      <trkpt lat="43.56366" lon="1.24757">
        <ele>204.2</ele>
        <time>2023-04-05T16:17:39Z</time>
      </trkpt>
      <trkpt lat="43.56369" lon="1.24763">
        <ele>204</ele>
        <time>2023-04-05T16:17:40Z</time>
      </trkpt>
      <trkpt lat="43.56389" lon="1.24792">
        <ele>203.6</ele>
        <time>2023-04-05T16:17:45Z</time>
      </trkpt>
      <trkpt lat="43.56403" lon="1.24812">
        <ele>202</ele>
        <time>2023-04-05T16:17:48Z</time>
      </trkpt>
      <trkpt lat="43.56415" lon="1.24832">
        <ele>201.4</ele>
        <time>2023-04-05T16:17:51Z</time>
      </trkpt>
      <trkpt lat="43.56428" lon="1.2484">
        <ele>200.8</ele>
        <time>2023-04-05T16:17:53Z</time>
      </trkpt>
      <trkpt lat="43.56435" lon="1.24841">
        <ele>200.8</ele>
        <time>2023-04-05T16:17:54Z</time>
      </trkpt>
      <trkpt lat="43.56439" lon="1.24842">
        <ele>199.8</ele>
        <time>2023-04-05T16:17:55Z</time>
      </trkpt>
      <trkpt lat="43.56451" lon="1.24844">
        <ele>199</ele>
        <time>2023-04-05T16:17:57Z</time>
      </trkpt>
      <trkpt lat="43.56466" lon="1.24844">
        <ele>198.8</ele>
        <time>2023-04-05T16:17:59Z</time>
      </trkpt>
      <trkpt lat="43.565" lon="1.24836">
        <ele>198.6</ele>
        <time>2023-04-05T16:18:05Z</time>
      </trkpt>
      <trkpt lat="43.56506" lon="1.24834">
        <ele>198.4</ele>
        <time>2023-04-05T16:18:06Z</time>
      </trkpt>
      <trkpt lat="43.56521" lon="1.2483">
        <ele>198.2</ele>
        <time>2023-04-05T16:18:09Z</time>
      </trkpt>
      <trkpt lat="43.56525" lon="1.24829">
        <ele>198.2</ele>
        <time>2023-04-05T16:18:10Z</time>
      </trkpt>
      <trkpt lat="43.56534" lon="1.24833">
        <ele>198.2</ele>
        <time>2023-04-05T16:18:12Z</time>
      </trkpt>
      <trkpt lat="43.56547" lon="1.24854">
        <ele>197.8</ele>
        <time>2023-04-05T16:18:16Z</time>
      </trkpt>
      <trkpt lat="43.56551" lon="1.24858">
        <ele>197.6</ele>
        <time>2023-04-05T16:18:17Z</time>
      </trkpt>
      <trkpt lat="43.56555" lon="1.24863">
        <ele>197.6</ele>
        <time>2023-04-05T16:18:18Z</time>
      </trkpt>
      <trkpt lat="43.56576" lon="1.24881">
        <ele>197.6</ele>
        <time>2023-04-05T16:18:22Z</time>
      </trkpt>
      <trkpt lat="43.5659" lon="1.24894">
        <ele>197.6</ele>
        <time>2023-04-05T16:18:25Z</time>
      </trkpt>
      <trkpt lat="43.566" lon="1.2491">
        <ele>197.8</ele>
        <time>2023-04-05T16:18:28Z</time>
      </trkpt>
      <trkpt lat="43.56606" lon="1.24924">
        <ele>198</ele>
        <time>2023-04-05T16:18:30Z</time>
      </trkpt>
      <trkpt lat="43.56619" lon="1.24954">
        <ele>198.6</ele>
        <time>2023-04-05T16:18:34Z</time>
      </trkpt>
      <trkpt lat="43.56622" lon="1.24961">
        <ele>198.8</ele>
        <time>2023-04-05T16:18:35Z</time>
      </trkpt>
      <trkpt lat="43.56623" lon="1.24967">
        <ele>198.8</ele>
        <time>2023-04-05T16:18:36Z</time>
      </trkpt>
      <trkpt lat="43.5663" lon="1.24989">
        <ele>199</ele>
        <time>2023-04-05T16:18:39Z</time>
      </trkpt>
      <trkpt lat="43.56649" lon="1.25042">
        <ele>199.6</ele>
        <time>2023-04-05T16:18:47Z</time>
      </trkpt>
      <trkpt lat="43.56654" lon="1.25053">
        <ele>199.8</ele>
        <time>2023-04-05T16:18:49Z</time>
      </trkpt>
      <trkpt lat="43.56656" lon="1.25058">
        <ele>199.8</ele>
        <time>2023-04-05T16:18:50Z</time>
      </trkpt>
      <trkpt lat="43.56658" lon="1.25063">
        <ele>200</ele>
        <time>2023-04-05T16:18:51Z</time>
      </trkpt>
      <trkpt lat="43.56662" lon="1.25075">
        <ele>200.4</ele>
        <time>2023-04-05T16:18:53Z</time>
      </trkpt>
      <trkpt lat="43.56665" lon="1.25086">
        <ele>200.6</ele>
        <time>2023-04-05T16:18:55Z</time>
      </trkpt>
      <trkpt lat="43.56668" lon="1.25091">
        <ele>200.8</ele>
        <time>2023-04-05T16:18:56Z</time>
      </trkpt>
      <trkpt lat="43.56673" lon="1.25103">
        <ele>201</ele>
        <time>2023-04-05T16:18:58Z</time>
      </trkpt>
      <trkpt lat="43.5668" lon="1.25123">
        <ele>201.6</ele>
        <time>2023-04-05T16:19:02Z</time>
      </trkpt>
      <trkpt lat="43.56681" lon="1.25128">
        <ele>202</ele>
        <time>2023-04-05T16:19:03Z</time>
      </trkpt>
      <trkpt lat="43.56689" lon="1.25149">
        <ele>203</ele>
        <time>2023-04-05T16:19:07Z</time>
      </trkpt>
      <trkpt lat="43.56691" lon="1.25154">
        <ele>203.6</ele>
        <time>2023-04-05T16:19:08Z</time>
      </trkpt>
      <trkpt lat="43.56704" lon="1.25194">
        <ele>204.4</ele>
        <time>2023-04-05T16:19:14Z</time>
      </trkpt>
      <trkpt lat="43.5671" lon="1.25219">
        <ele>204.6</ele>
        <time>2023-04-05T16:19:17Z</time>
      </trkpt>
      <trkpt lat="43.56712" lon="1.25228">
        <ele>204.6</ele>
        <time>2023-04-05T16:19:18Z</time>
      </trkpt>
      <trkpt lat="43.56714" lon="1.25236">
        <ele>204.6</ele>
        <time>2023-04-05T16:19:19Z</time>
      </trkpt>
      <trkpt lat="43.56723" lon="1.25297">
        <ele>204.2</ele>
        <time>2023-04-05T16:19:26Z</time>
      </trkpt>
      <trkpt lat="43.56733" lon="1.25358">
        <ele>204.2</ele>
        <time>2023-04-05T16:19:33Z</time>
      </trkpt>
      <trkpt lat="43.56742" lon="1.25421">
        <ele>203.6</ele>
        <time>2023-04-05T16:19:41Z</time>
      </trkpt>
      <trkpt lat="43.56746" lon="1.25436">
        <ele>203.6</ele>
        <time>2023-04-05T16:19:43Z</time>
      </trkpt>
      <trkpt lat="43.56747" lon="1.25442">
        <ele>203.4</ele>
        <time>2023-04-05T16:19:44Z</time>
      </trkpt>
      <trkpt lat="43.56751" lon="1.25456">
        <ele>203</ele>
        <time>2023-04-05T16:19:47Z</time>
      </trkpt>
      <trkpt lat="43.56754" lon="1.25475">
        <ele>203</ele>
        <time>2023-04-05T16:19:52Z</time>
      </trkpt>
      <trkpt lat="43.56756" lon="1.25486">
        <ele>203</ele>
        <time>2023-04-05T16:19:54Z</time>
      </trkpt>
      <trkpt lat="43.56758" lon="1.25499">
        <ele>203</ele>
        <time>2023-04-05T16:19:56Z</time>
      </trkpt>
      <trkpt lat="43.5676" lon="1.25513">
        <ele>203</ele>
        <time>2023-04-05T16:19:58Z</time>
      </trkpt>
      <trkpt lat="43.56763" lon="1.2553">
        <ele>203</ele>
        <time>2023-04-05T16:20:00Z</time>
      </trkpt>
      <trkpt lat="43.56765" lon="1.25544">
        <ele>203</ele>
        <time>2023-04-05T16:20:02Z</time>
      </trkpt>
      <trkpt lat="43.56768" lon="1.25571">
        <ele>203</ele>
        <time>2023-04-05T16:20:05Z</time>
      </trkpt>
      <trkpt lat="43.56773" lon="1.25604">
        <ele>203</ele>
        <time>2023-04-05T16:20:09Z</time>
      </trkpt>
      <trkpt lat="43.56775" lon="1.25621">
        <ele>202.8</ele>
        <time>2023-04-05T16:20:11Z</time>
      </trkpt>
      <trkpt lat="43.56778" lon="1.25639">
        <ele>202.4</ele>
        <time>2023-04-05T16:20:13Z</time>
      </trkpt>
      <trkpt lat="43.56783" lon="1.25692">
        <ele>201.8</ele>
        <time>2023-04-05T16:20:19Z</time>
      </trkpt>
      <trkpt lat="43.56781" lon="1.25708">
        <ele>202</ele>
        <time>2023-04-05T16:20:21Z</time>
      </trkpt>
      <trkpt lat="43.56778" lon="1.25722">
        <ele>202.2</ele>
        <time>2023-04-05T16:20:23Z</time>
      </trkpt>
      <trkpt lat="43.56767" lon="1.25769">
        <ele>202.2</ele>
        <time>2023-04-05T16:20:29Z</time>
      </trkpt>
      <trkpt lat="43.56762" lon="1.25799">
        <ele>202.2</ele>
        <time>2023-04-05T16:20:33Z</time>
      </trkpt>
      <trkpt lat="43.56762" lon="1.25807">
        <ele>202.2</ele>
        <time>2023-04-05T16:20:34Z</time>
      </trkpt>
      <trkpt lat="43.56763" lon="1.25835">
        <ele>202.4</ele>
        <time>2023-04-05T16:20:38Z</time>
      </trkpt>
      <trkpt lat="43.56764" lon="1.25842">
        <ele>202.6</ele>
        <time>2023-04-05T16:20:39Z</time>
      </trkpt>
      <trkpt lat="43.56768" lon="1.25882">
        <ele>204</ele>
        <time>2023-04-05T16:20:45Z</time>
      </trkpt>
      <trkpt lat="43.56773" lon="1.25914">
        <ele>205.2</ele>
        <time>2023-04-05T16:20:51Z</time>
      </trkpt>
      <trkpt lat="43.56776" lon="1.25942">
        <ele>206.2</ele>
        <time>2023-04-05T16:20:57Z</time>
      </trkpt>
      <trkpt lat="43.56773" lon="1.25961">
        <ele>207.4</ele>
        <time>2023-04-05T16:21:01Z</time>
      </trkpt>
      <trkpt lat="43.56771" lon="1.25971">
        <ele>207.8</ele>
        <time>2023-04-05T16:21:03Z</time>
      </trkpt>
      <trkpt lat="43.56768" lon="1.25987">
        <ele>208.4</ele>
        <time>2023-04-05T16:21:06Z</time>
      </trkpt>
      <trkpt lat="43.56765" lon="1.26003">
        <ele>208.8</ele>
        <time>2023-04-05T16:21:09Z</time>
      </trkpt>
      <trkpt lat="43.56764" lon="1.26029">
        <ele>209.4</ele>
        <time>2023-04-05T16:21:14Z</time>
      </trkpt>
      <trkpt lat="43.56765" lon="1.26032">
        <ele>209.6</ele>
        <time>2023-04-05T16:21:15Z</time>
      </trkpt>
      <trkpt lat="43.56765" lon="1.26034">
        <ele>209.8</ele>
        <time>2023-04-05T16:21:16Z</time>
      </trkpt>
      <trkpt lat="43.56764" lon="1.26043">
        <ele>210</ele>
        <time>2023-04-05T16:21:19Z</time>
      </trkpt>
      <trkpt lat="43.56765" lon="1.26067">
        <ele>210.2</ele>
        <time>2023-04-05T16:21:24Z</time>
      </trkpt>
      <trkpt lat="43.56768" lon="1.26093">
        <ele>210.4</ele>
        <time>2023-04-05T16:21:29Z</time>
      </trkpt>
      <trkpt lat="43.5677" lon="1.26114">
        <ele>210.8</ele>
        <time>2023-04-05T16:21:33Z</time>
      </trkpt>
      <trkpt lat="43.56771" lon="1.2613">
        <ele>211</ele>
        <time>2023-04-05T16:21:36Z</time>
      </trkpt>
      <trkpt lat="43.56771" lon="1.26137">
        <ele>211.4</ele>
        <time>2023-04-05T16:21:37Z</time>
      </trkpt>
      <trkpt lat="43.56771" lon="1.2615">
        <ele>211.8</ele>
        <time>2023-04-05T16:21:39Z</time>
      </trkpt>
      <trkpt lat="43.56771" lon="1.26164">
        <ele>212.2</ele>
        <time>2023-04-05T16:21:41Z</time>
      </trkpt>
      <trkpt lat="43.56771" lon="1.2617">
        <ele>212.6</ele>
        <time>2023-04-05T16:21:42Z</time>
      </trkpt>
      <trkpt lat="43.5677" lon="1.26183">
        <ele>213</ele>
        <time>2023-04-05T16:21:44Z</time>
      </trkpt>
      <trkpt lat="43.56769" lon="1.2619">
        <ele>213</ele>
        <time>2023-04-05T16:21:45Z</time>
      </trkpt>
      <trkpt lat="43.56763" lon="1.26235">
        <ele>214</ele>
        <time>2023-04-05T16:21:51Z</time>
      </trkpt>
      <trkpt lat="43.56762" lon="1.2625">
        <ele>214</ele>
        <time>2023-04-05T16:21:53Z</time>
      </trkpt>
      <trkpt lat="43.56755" lon="1.26312">
        <ele>214.2</ele>
        <time>2023-04-05T16:22:01Z</time>
      </trkpt>
      <trkpt lat="43.56755" lon="1.26374">
        <ele>214.6</ele>
        <time>2023-04-05T16:22:09Z</time>
      </trkpt>
      <trkpt lat="43.56761" lon="1.26449">
        <ele>215</ele>
        <time>2023-04-05T16:22:18Z</time>
      </trkpt>
      <trkpt lat="43.5677" lon="1.26526">
        <ele>215</ele>
        <time>2023-04-05T16:22:27Z</time>
      </trkpt>
      <trkpt lat="43.56779" lon="1.26594">
        <ele>215</ele>
        <time>2023-04-05T16:22:35Z</time>
      </trkpt>
      <trkpt lat="43.56783" lon="1.26608">
        <ele>215</ele>
        <time>2023-04-05T16:22:37Z</time>
      </trkpt>
      <trkpt lat="43.56789" lon="1.26618">
        <ele>215</ele>
        <time>2023-04-05T16:22:39Z</time>
      </trkpt>
      <trkpt lat="43.56813" lon="1.2663">
        <ele>214.8</ele>
        <time>2023-04-05T16:22:44Z</time>
      </trkpt>
      <trkpt lat="43.5685" lon="1.26649">
        <ele>214.6</ele>
        <time>2023-04-05T16:22:51Z</time>
      </trkpt>
      <trkpt lat="43.56894" lon="1.26677">
        <ele>215.2</ele>
        <time>2023-04-05T16:22:59Z</time>
      </trkpt>
      <trkpt lat="43.56899" lon="1.26681">
        <ele>215.2</ele>
        <time>2023-04-05T16:23:00Z</time>
      </trkpt>
      <trkpt lat="43.56903" lon="1.26684">
        <ele>215</ele>
        <time>2023-04-05T16:23:01Z</time>
      </trkpt>
      <trkpt lat="43.56915" lon="1.26692">
        <ele>214.8</ele>
        <time>2023-04-05T16:23:04Z</time>
      </trkpt>
      <trkpt lat="43.56927" lon="1.26701">
        <ele>214.6</ele>
        <time>2023-04-05T16:23:07Z</time>
      </trkpt>
      <trkpt lat="43.56935" lon="1.26708">
        <ele>214.6</ele>
        <time>2023-04-05T16:23:09Z</time>
      </trkpt>
      <trkpt lat="43.5694" lon="1.26712">
        <ele>214.8</ele>
        <time>2023-04-05T16:23:10Z</time>
      </trkpt>
      <trkpt lat="43.56959" lon="1.26726">
        <ele>214.6</ele>
        <time>2023-04-05T16:23:14Z</time>
      </trkpt>
      <trkpt lat="43.56994" lon="1.26753">
        <ele>214.6</ele>
        <time>2023-04-05T16:23:21Z</time>
      </trkpt>
      <trkpt lat="43.57013" lon="1.2677">
        <ele>214.6</ele>
        <time>2023-04-05T16:23:25Z</time>
      </trkpt>
      <trkpt lat="43.57022" lon="1.26781">
        <ele>214.6</ele>
        <time>2023-04-05T16:23:27Z</time>
      </trkpt>
      <trkpt lat="43.57032" lon="1.26791">
        <ele>214.6</ele>
        <time>2023-04-05T16:23:29Z</time>
      </trkpt>
      <trkpt lat="43.57048" lon="1.26804">
        <ele>214.6</ele>
        <time>2023-04-05T16:23:32Z</time>
      </trkpt>
      <trkpt lat="43.571" lon="1.26843">
        <ele>214.6</ele>
        <time>2023-04-05T16:23:41Z</time>
      </trkpt>
      <trkpt lat="43.57106" lon="1.26847">
        <ele>214.6</ele>
        <time>2023-04-05T16:23:42Z</time>
      </trkpt>
      <trkpt lat="43.57155" lon="1.26883">
        <ele>214.6</ele>
        <time>2023-04-05T16:23:50Z</time>
      </trkpt>
      <trkpt lat="43.57203" lon="1.26918">
        <ele>214.6</ele>
        <time>2023-04-05T16:23:58Z</time>
      </trkpt>
      <trkpt lat="43.57215" lon="1.26927">
        <ele>214.4</ele>
        <time>2023-04-05T16:24:00Z</time>
      </trkpt>
      <trkpt lat="43.57264" lon="1.26964">
        <ele>214.2</ele>
        <time>2023-04-05T16:24:08Z</time>
      </trkpt>
      <trkpt lat="43.57287" lon="1.26983">
        <ele>214.4</ele>
        <time>2023-04-05T16:24:12Z</time>
      </trkpt>
      <trkpt lat="43.57313" lon="1.2701">
        <ele>214.4</ele>
        <time>2023-04-05T16:24:17Z</time>
      </trkpt>
      <trkpt lat="43.57317" lon="1.27017">
        <ele>214.4</ele>
        <time>2023-04-05T16:24:18Z</time>
      </trkpt>
      <trkpt lat="43.57318" lon="1.27025">
        <ele>214.4</ele>
        <time>2023-04-05T16:24:19Z</time>
      </trkpt>
      <trkpt lat="43.57317" lon="1.27033">
        <ele>214.4</ele>
        <time>2023-04-05T16:24:20Z</time>
      </trkpt>
      <trkpt lat="43.57315" lon="1.2704">
        <ele>214.4</ele>
        <time>2023-04-05T16:24:21Z</time>
      </trkpt>
      <trkpt lat="43.57301" lon="1.27069">
        <ele>214.2</ele>
        <time>2023-04-05T16:24:25Z</time>
      </trkpt>
      <trkpt lat="43.57283" lon="1.27108">
        <ele>214</ele>
        <time>2023-04-05T16:24:30Z</time>
      </trkpt>
      <trkpt lat="43.57281" lon="1.27117">
        <ele>214</ele>
        <time>2023-04-05T16:24:31Z</time>
      </trkpt>
      <trkpt lat="43.57281" lon="1.27126">
        <ele>214</ele>
        <time>2023-04-05T16:24:32Z</time>
      </trkpt>
      <trkpt lat="43.57279" lon="1.27173">
        <ele>214</ele>
        <time>2023-04-05T16:24:37Z</time>
      </trkpt>
      <trkpt lat="43.57277" lon="1.27221">
        <ele>214.2</ele>
        <time>2023-04-05T16:24:42Z</time>
      </trkpt>
      <trkpt lat="43.57274" lon="1.2723">
        <ele>214.2</ele>
        <time>2023-04-05T16:24:43Z</time>
      </trkpt>
      <trkpt lat="43.5727" lon="1.27238">
        <ele>214.2</ele>
        <time>2023-04-05T16:24:44Z</time>
      </trkpt>
      <trkpt lat="43.57255" lon="1.27272">
        <ele>214.2</ele>
        <time>2023-04-05T16:24:48Z</time>
      </trkpt>
      <trkpt lat="43.5723" lon="1.27327">
        <ele>214.2</ele>
        <time>2023-04-05T16:24:55Z</time>
      </trkpt>
      <trkpt lat="43.57227" lon="1.27344">
        <ele>214.2</ele>
        <time>2023-04-05T16:24:57Z</time>
      </trkpt>
      <trkpt lat="43.57231" lon="1.27351">
        <ele>214.2</ele>
        <time>2023-04-05T16:24:58Z</time>
      </trkpt>
      <trkpt lat="43.57252" lon="1.27372">
        <ele>214</ele>
        <time>2023-04-05T16:25:02Z</time>
      </trkpt>
      <trkpt lat="43.57258" lon="1.27376">
        <ele>213.8</ele>
        <time>2023-04-05T16:25:03Z</time>
      </trkpt>
      <trkpt lat="43.57302" lon="1.27397">
        <ele>213.6</ele>
        <time>2023-04-05T16:25:10Z</time>
      </trkpt>
      <trkpt lat="43.57344" lon="1.27415">
        <ele>213.6</ele>
        <time>2023-04-05T16:25:17Z</time>
      </trkpt>
      <trkpt lat="43.5738" lon="1.27429">
        <ele>213.8</ele>
        <time>2023-04-05T16:25:23Z</time>
      </trkpt>
      <trkpt lat="43.57435" lon="1.27454">
        <ele>214.2</ele>
        <time>2023-04-05T16:25:32Z</time>
      </trkpt>
      <trkpt lat="43.57469" lon="1.2747">
        <ele>214.2</ele>
        <time>2023-04-05T16:25:38Z</time>
      </trkpt>
      <trkpt lat="43.57474" lon="1.27475">
        <ele>214</ele>
        <time>2023-04-05T16:25:39Z</time>
      </trkpt>
      <trkpt lat="43.57477" lon="1.2748">
        <ele>213.8</ele>
        <time>2023-04-05T16:25:40Z</time>
      </trkpt>
      <trkpt lat="43.57484" lon="1.27489">
        <ele>213.6</ele>
        <time>2023-04-05T16:25:42Z</time>
      </trkpt>
      <trkpt lat="43.57497" lon="1.27493">
        <ele>213.6</ele>
        <time>2023-04-05T16:25:45Z</time>
      </trkpt>
      <trkpt lat="43.57506" lon="1.27498">
        <ele>213.4</ele>
        <time>2023-04-05T16:25:47Z</time>
      </trkpt>
      <trkpt lat="43.57512" lon="1.27502">
        <ele>213.4</ele>
        <time>2023-04-05T16:25:48Z</time>
      </trkpt>
      <trkpt lat="43.57526" lon="1.27511">
        <ele>213.4</ele>
        <time>2023-04-05T16:25:51Z</time>
      </trkpt>
      <trkpt lat="43.57546" lon="1.27526">
        <ele>213.4</ele>
        <time>2023-04-05T16:25:55Z</time>
      </trkpt>
      <trkpt lat="43.57555" lon="1.27535">
        <ele>213.6</ele>
        <time>2023-04-05T16:25:57Z</time>
      </trkpt>
      <trkpt lat="43.57563" lon="1.27544">
        <ele>213.6</ele>
        <time>2023-04-05T16:25:59Z</time>
      </trkpt>
      <trkpt lat="43.57571" lon="1.27555">
        <ele>213.4</ele>
        <time>2023-04-05T16:26:01Z</time>
      </trkpt>
      <trkpt lat="43.57584" lon="1.2758">
        <ele>213.4</ele>
        <time>2023-04-05T16:26:05Z</time>
      </trkpt>
      <trkpt lat="43.5759" lon="1.2759">
        <ele>213.2</ele>
        <time>2023-04-05T16:26:07Z</time>
      </trkpt>
      <trkpt lat="43.5759" lon="1.27604">
        <ele>213.2</ele>
        <time>2023-04-05T16:26:09Z</time>
      </trkpt>
      <trkpt lat="43.57577" lon="1.27649">
        <ele>213.2</ele>
        <time>2023-04-05T16:26:15Z</time>
      </trkpt>
      <trkpt lat="43.57577" lon="1.27657">
        <ele>213.2</ele>
        <time>2023-04-05T16:26:16Z</time>
      </trkpt>
      <trkpt lat="43.57579" lon="1.27665">
        <ele>213.2</ele>
        <time>2023-04-05T16:26:17Z</time>
      </trkpt>
      <trkpt lat="43.5758" lon="1.27681">
        <ele>213.2</ele>
        <time>2023-04-05T16:26:19Z</time>
      </trkpt>
      <trkpt lat="43.57571" lon="1.27714">
        <ele>213.2</ele>
        <time>2023-04-05T16:26:23Z</time>
      </trkpt>
      <trkpt lat="43.57565" lon="1.27728">
        <ele>213.2</ele>
        <time>2023-04-05T16:26:25Z</time>
      </trkpt>
      <trkpt lat="43.57557" lon="1.27752">
        <ele>213</ele>
        <time>2023-04-05T16:26:28Z</time>
      </trkpt>
      <trkpt lat="43.57557" lon="1.27759">
        <ele>213</ele>
        <time>2023-04-05T16:26:29Z</time>
      </trkpt>
      <trkpt lat="43.57559" lon="1.27766">
        <ele>213</ele>
        <time>2023-04-05T16:26:30Z</time>
      </trkpt>
      <trkpt lat="43.57564" lon="1.27779">
        <ele>213</ele>
        <time>2023-04-05T16:26:32Z</time>
      </trkpt>
      <trkpt lat="43.57564" lon="1.27795">
        <ele>213</ele>
        <time>2023-04-05T16:26:34Z</time>
      </trkpt>
      <trkpt lat="43.57561" lon="1.27804">
        <ele>213</ele>
        <time>2023-04-05T16:26:35Z</time>
      </trkpt>
      <trkpt lat="43.57543" lon="1.27867">
        <ele>213.2</ele>
        <time>2023-04-05T16:26:43Z</time>
      </trkpt>
      <trkpt lat="43.57519" lon="1.27941">
        <ele>213.2</ele>
        <time>2023-04-05T16:26:52Z</time>
      </trkpt>
      <trkpt lat="43.57495" lon="1.28017">
        <ele>213.4</ele>
        <time>2023-04-05T16:27:01Z</time>
      </trkpt>
      <trkpt lat="43.57479" lon="1.2807">
        <ele>213</ele>
        <time>2023-04-05T16:27:08Z</time>
      </trkpt>
      <trkpt lat="43.57476" lon="1.28085">
        <ele>213</ele>
        <time>2023-04-05T16:27:11Z</time>
      </trkpt>
      <trkpt lat="43.57482" lon="1.28098">
        <ele>213</ele>
        <time>2023-04-05T16:27:14Z</time>
      </trkpt>
      <trkpt lat="43.57489" lon="1.28107">
        <ele>212.8</ele>
        <time>2023-04-05T16:27:16Z</time>
      </trkpt>
      <trkpt lat="43.57498" lon="1.28114">
        <ele>212.6</ele>
        <time>2023-04-05T16:27:18Z</time>
      </trkpt>
      <trkpt lat="43.5753" lon="1.28134">
        <ele>212.4</ele>
        <time>2023-04-05T16:27:24Z</time>
      </trkpt>
      <trkpt lat="43.57575" lon="1.28166">
        <ele>212.6</ele>
        <time>2023-04-05T16:27:32Z</time>
      </trkpt>
      <trkpt lat="43.57614" lon="1.28194">
        <ele>212.6</ele>
        <time>2023-04-05T16:27:39Z</time>
      </trkpt>
      <trkpt lat="43.57662" lon="1.28231">
        <ele>213</ele>
        <time>2023-04-05T16:27:48Z</time>
      </trkpt>
      <trkpt lat="43.57712" lon="1.28271">
        <ele>212.8</ele>
        <time>2023-04-05T16:27:57Z</time>
      </trkpt>
      <trkpt lat="43.57717" lon="1.28277">
        <ele>212.8</ele>
        <time>2023-04-05T16:27:58Z</time>
      </trkpt>
      <trkpt lat="43.57736" lon="1.28305">
        <ele>212.6</ele>
        <time>2023-04-05T16:28:02Z</time>
      </trkpt>
      <trkpt lat="43.57741" lon="1.28312">
        <ele>212.6</ele>
        <time>2023-04-05T16:28:03Z</time>
      </trkpt>
      <trkpt lat="43.57758" lon="1.28328">
        <ele>212.6</ele>
        <time>2023-04-05T16:28:06Z</time>
      </trkpt>
      <trkpt lat="43.57808" lon="1.28364">
        <ele>212.4</ele>
        <time>2023-04-05T16:28:14Z</time>
      </trkpt>
      <trkpt lat="43.57813" lon="1.28368">
        <ele>212.4</ele>
        <time>2023-04-05T16:28:15Z</time>
      </trkpt>
      <trkpt lat="43.57826" lon="1.28377">
        <ele>212.4</ele>
        <time>2023-04-05T16:28:17Z</time>
      </trkpt>
      <trkpt lat="43.57836" lon="1.28379">
        <ele>212.4</ele>
        <time>2023-04-05T16:28:19Z</time>
      </trkpt>
      <trkpt lat="43.57852" lon="1.28363">
        <ele>212.4</ele>
        <time>2023-04-05T16:28:22Z</time>
      </trkpt>
      <trkpt lat="43.57876" lon="1.28332">
        <ele>212.4</ele>
        <time>2023-04-05T16:28:27Z</time>
      </trkpt>
      <trkpt lat="43.57882" lon="1.28329">
        <ele>212.4</ele>
        <time>2023-04-05T16:28:28Z</time>
      </trkpt>
      <trkpt lat="43.57886" lon="1.28327">
        <ele>212.2</ele>
        <time>2023-04-05T16:28:29Z</time>
      </trkpt>
      <trkpt lat="43.57897" lon="1.28331">
        <ele>212.2</ele>
        <time>2023-04-05T16:28:31Z</time>
      </trkpt>
      <trkpt lat="43.57902" lon="1.28342">
        <ele>212.2</ele>
        <time>2023-04-05T16:28:33Z</time>
      </trkpt>
      <trkpt lat="43.57903" lon="1.28349">
        <ele>212</ele>
        <time>2023-04-05T16:28:34Z</time>
      </trkpt>
      <trkpt lat="43.57912" lon="1.2842">
        <ele>211.8</ele>
        <time>2023-04-05T16:28:42Z</time>
      </trkpt>
      <trkpt lat="43.57921" lon="1.28493">
        <ele>211.8</ele>
        <time>2023-04-05T16:28:50Z</time>
      </trkpt>
      <trkpt lat="43.57926" lon="1.28529">
        <ele>211.8</ele>
        <time>2023-04-05T16:28:55Z</time>
      </trkpt>
      <trkpt lat="43.57927" lon="1.28537">
        <ele>211.8</ele>
        <time>2023-04-05T16:28:58Z</time>
      </trkpt>
      <trkpt lat="43.57934" lon="1.2855">
        <ele>211.8</ele>
        <time>2023-04-05T16:29:02Z</time>
      </trkpt>
      <trkpt lat="43.57938" lon="1.28554">
        <ele>211.8</ele>
        <time>2023-04-05T16:29:03Z</time>
      </trkpt>
      <trkpt lat="43.57948" lon="1.28573">
        <ele>211.6</ele>
        <time>2023-04-05T16:29:06Z</time>
      </trkpt>
      <trkpt lat="43.57975" lon="1.28617">
        <ele>211.4</ele>
        <time>2023-04-05T16:29:13Z</time>
      </trkpt>
      <trkpt lat="43.58004" lon="1.28664">
        <ele>211.6</ele>
        <time>2023-04-05T16:29:20Z</time>
      </trkpt>
      <trkpt lat="43.58037" lon="1.2873">
        <ele>211.6</ele>
        <time>2023-04-05T16:29:29Z</time>
      </trkpt>
      <trkpt lat="43.58059" lon="1.28793">
        <ele>211.6</ele>
        <time>2023-04-05T16:29:36Z</time>
      </trkpt>
      <trkpt lat="43.58068" lon="1.28853">
        <ele>211.4</ele>
        <time>2023-04-05T16:29:42Z</time>
      </trkpt>
      <trkpt lat="43.58072" lon="1.28882">
        <ele>211.2</ele>
        <time>2023-04-05T16:29:45Z</time>
      </trkpt>
      <trkpt lat="43.58078" lon="1.2894">
        <ele>211.2</ele>
        <time>2023-04-05T16:29:51Z</time>
      </trkpt>
      <trkpt lat="43.58084" lon="1.28995">
        <ele>211</ele>
        <time>2023-04-05T16:29:58Z</time>
      </trkpt>
      <trkpt lat="43.58082" lon="1.29011">
        <ele>210.8</ele>
        <time>2023-04-05T16:30:02Z</time>
      </trkpt>
      <trkpt lat="43.58088" lon="1.29033">
        <ele>210.6</ele>
        <time>2023-04-05T16:30:06Z</time>
      </trkpt>
      <trkpt lat="43.58092" lon="1.29079">
        <ele>210.4</ele>
        <time>2023-04-05T16:30:12Z</time>
      </trkpt>
      <trkpt lat="43.58094" lon="1.29093">
        <ele>210.2</ele>
        <time>2023-04-05T16:30:14Z</time>
      </trkpt>
      <trkpt lat="43.58095" lon="1.2911">
        <ele>210.4</ele>
        <time>2023-04-05T16:30:16Z</time>
      </trkpt>
      <trkpt lat="43.58091" lon="1.29126">
        <ele>210.4</ele>
        <time>2023-04-05T16:30:18Z</time>
      </trkpt>
      <trkpt lat="43.58057" lon="1.29189">
        <ele>210.6</ele>
        <time>2023-04-05T16:30:27Z</time>
      </trkpt>
      <trkpt lat="43.58021" lon="1.29256">
        <ele>211</ele>
        <time>2023-04-05T16:30:36Z</time>
      </trkpt>
      <trkpt lat="43.58017" lon="1.29264">
        <ele>211.2</ele>
        <time>2023-04-05T16:30:37Z</time>
      </trkpt>
      <trkpt lat="43.57984" lon="1.29326">
        <ele>211</ele>
        <time>2023-04-05T16:30:45Z</time>
      </trkpt>
      <trkpt lat="43.57975" lon="1.29343">
        <ele>211</ele>
        <time>2023-04-05T16:30:47Z</time>
      </trkpt>
      <trkpt lat="43.57943" lon="1.29404">
        <ele>211</ele>
        <time>2023-04-05T16:30:55Z</time>
      </trkpt>
      <trkpt lat="43.5794" lon="1.29411">
        <ele>211</ele>
        <time>2023-04-05T16:30:56Z</time>
      </trkpt>
      <trkpt lat="43.57936" lon="1.29427">
        <ele>211</ele>
        <time>2023-04-05T16:30:58Z</time>
      </trkpt>
      <trkpt lat="43.57935" lon="1.29435">
        <ele>211</ele>
        <time>2023-04-05T16:30:59Z</time>
      </trkpt>
      <trkpt lat="43.57934" lon="1.29443">
        <ele>211</ele>
        <time>2023-04-05T16:31:00Z</time>
      </trkpt>
      <trkpt lat="43.57928" lon="1.29454">
        <ele>210.8</ele>
        <time>2023-04-05T16:31:02Z</time>
      </trkpt>
      <trkpt lat="43.57918" lon="1.29453">
        <ele>210.8</ele>
        <time>2023-04-05T16:31:04Z</time>
      </trkpt>
      <trkpt lat="43.57913" lon="1.2945">
        <ele>210.8</ele>
        <time>2023-04-05T16:31:05Z</time>
      </trkpt>
      <trkpt lat="43.57875" lon="1.2942">
        <ele>210.4</ele>
        <time>2023-04-05T16:31:12Z</time>
      </trkpt>
      <trkpt lat="43.57848" lon="1.29399">
        <ele>210.4</ele>
        <time>2023-04-05T16:31:17Z</time>
      </trkpt>
      <trkpt lat="43.57843" lon="1.29394">
        <ele>210.4</ele>
        <time>2023-04-05T16:31:18Z</time>
      </trkpt>
      <trkpt lat="43.57838" lon="1.29388">
        <ele>210.4</ele>
        <time>2023-04-05T16:31:19Z</time>
      </trkpt>
      <trkpt lat="43.57823" lon="1.29375">
        <ele>210.4</ele>
        <time>2023-04-05T16:31:22Z</time>
      </trkpt>
      <trkpt lat="43.57815" lon="1.29368">
        <ele>210.4</ele>
        <time>2023-04-05T16:31:24Z</time>
      </trkpt>
      <trkpt lat="43.57802" lon="1.29357">
        <ele>210.4</ele>
        <time>2023-04-05T16:31:27Z</time>
      </trkpt>
      <trkpt lat="43.57769" lon="1.29332">
        <ele>210.4</ele>
        <time>2023-04-05T16:31:34Z</time>
      </trkpt>
      <trkpt lat="43.57758" lon="1.29325">
        <ele>210.4</ele>
        <time>2023-04-05T16:31:36Z</time>
      </trkpt>
      <trkpt lat="43.57749" lon="1.29327">
        <ele>210.4</ele>
        <time>2023-04-05T16:31:38Z</time>
      </trkpt>
      <trkpt lat="43.57741" lon="1.29338">
        <ele>210.4</ele>
        <time>2023-04-05T16:31:40Z</time>
      </trkpt>
      <trkpt lat="43.57738" lon="1.29345">
        <ele>210.6</ele>
        <time>2023-04-05T16:31:41Z</time>
      </trkpt>
      <trkpt lat="43.57721" lon="1.29397">
        <ele>210.6</ele>
        <time>2023-04-05T16:31:48Z</time>
      </trkpt>
      <trkpt lat="43.577" lon="1.29457">
        <ele>210.2</ele>
        <time>2023-04-05T16:31:56Z</time>
      </trkpt>
      <trkpt lat="43.57696" lon="1.29472">
        <ele>210</ele>
        <time>2023-04-05T16:31:58Z</time>
      </trkpt>
      <trkpt lat="43.57691" lon="1.29486">
        <ele>209.4</ele>
        <time>2023-04-05T16:32:00Z</time>
      </trkpt>
      <trkpt lat="43.57687" lon="1.29501">
        <ele>209</ele>
        <time>2023-04-05T16:32:02Z</time>
      </trkpt>
      <trkpt lat="43.57681" lon="1.29521">
        <ele>208.8</ele>
        <time>2023-04-05T16:32:05Z</time>
      </trkpt>
      <trkpt lat="43.57678" lon="1.29535">
        <ele>208.8</ele>
        <time>2023-04-05T16:32:07Z</time>
      </trkpt>
      <trkpt lat="43.57674" lon="1.29551">
        <ele>208.2</ele>
        <time>2023-04-05T16:32:09Z</time>
      </trkpt>
      <trkpt lat="43.57671" lon="1.29564">
        <ele>207.8</ele>
        <time>2023-04-05T16:32:11Z</time>
      </trkpt>
      <trkpt lat="43.57671" lon="1.29569">
        <ele>207.6</ele>
        <time>2023-04-05T16:32:12Z</time>
      </trkpt>
      <trkpt lat="43.57672" lon="1.29574">
        <ele>207.4</ele>
        <time>2023-04-05T16:32:13Z</time>
      </trkpt>
      <trkpt lat="43.57676" lon="1.29579">
        <ele>207.2</ele>
        <time>2023-04-05T16:32:15Z</time>
      </trkpt>
      <trkpt lat="43.57679" lon="1.29582">
        <ele>207</ele>
        <time>2023-04-05T16:32:16Z</time>
      </trkpt>
      <trkpt lat="43.5769" lon="1.29591">
        <ele>206.8</ele>
        <time>2023-04-05T16:32:20Z</time>
      </trkpt>
      <trkpt lat="43.57704" lon="1.29603">
        <ele>207</ele>
        <time>2023-04-05T16:32:25Z</time>
      </trkpt>
      <trkpt lat="43.57714" lon="1.29618">
        <ele>207.2</ele>
        <time>2023-04-05T16:32:29Z</time>
      </trkpt>
      <trkpt lat="43.57714" lon="1.29627">
        <ele>207.4</ele>
        <time>2023-04-05T16:32:31Z</time>
      </trkpt>
      <trkpt lat="43.57707" lon="1.2965">
        <ele>207.6</ele>
        <time>2023-04-05T16:32:36Z</time>
      </trkpt>
      <trkpt lat="43.57697" lon="1.29663">
        <ele>207.8</ele>
        <time>2023-04-05T16:32:39Z</time>
      </trkpt>
      <trkpt lat="43.57694" lon="1.29668">
        <ele>207.6</ele>
        <time>2023-04-05T16:32:40Z</time>
      </trkpt>
      <trkpt lat="43.57688" lon="1.29678">
        <ele>207.6</ele>
        <time>2023-04-05T16:32:42Z</time>
      </trkpt>
      <trkpt lat="43.57682" lon="1.2969">
        <ele>207.6</ele>
        <time>2023-04-05T16:32:44Z</time>
      </trkpt>
      <trkpt lat="43.5768" lon="1.29697">
        <ele>207.6</ele>
        <time>2023-04-05T16:32:45Z</time>
      </trkpt>
      <trkpt lat="43.57677" lon="1.29713">
        <ele>207.2</ele>
        <time>2023-04-05T16:32:47Z</time>
      </trkpt>
      <trkpt lat="43.57676" lon="1.29728">
        <ele>206.8</ele>
        <time>2023-04-05T16:32:49Z</time>
      </trkpt>
      <trkpt lat="43.57687" lon="1.29739">
        <ele>206.4</ele>
        <time>2023-04-05T16:32:52Z</time>
      </trkpt>
      <trkpt lat="43.57694" lon="1.29744">
        <ele>206.4</ele>
        <time>2023-04-05T16:32:55Z</time>
      </trkpt>
      <trkpt lat="43.57693" lon="1.29746">
        <ele>206.6</ele>
        <time>2023-04-05T16:32:56Z</time>
      </trkpt>
      <trkpt lat="43.57692" lon="1.29748">
        <ele>206.6</ele>
        <time>2023-04-05T16:32:57Z</time>
      </trkpt>
      <trkpt lat="43.57688" lon="1.29751">
        <ele>206.8</ele>
        <time>2023-04-05T16:32:59Z</time>
      </trkpt>
      <trkpt lat="43.57686" lon="1.29754">
        <ele>206.8</ele>
        <time>2023-04-05T16:33:00Z</time>
      </trkpt>
      <trkpt lat="43.5768" lon="1.29763">
        <ele>206.8</ele>
        <time>2023-04-05T16:33:02Z</time>
      </trkpt>
      <trkpt lat="43.57677" lon="1.29768">
        <ele>206.8</ele>
        <time>2023-04-05T16:33:03Z</time>
      </trkpt>
      <trkpt lat="43.57671" lon="1.29775">
        <ele>206.6</ele>
        <time>2023-04-05T16:33:05Z</time>
      </trkpt>
      <trkpt lat="43.57668" lon="1.29781">
        <ele>206.6</ele>
        <time>2023-04-05T16:33:06Z</time>
      </trkpt>
      <trkpt lat="43.57659" lon="1.29799">
        <ele>206</ele>
        <time>2023-04-05T16:33:08Z</time>
      </trkpt>
      <trkpt lat="43.57654" lon="1.29809">
        <ele>205.8</ele>
        <time>2023-04-05T16:33:09Z</time>
      </trkpt>
      <trkpt lat="43.57645" lon="1.29828">
        <ele>204.6</ele>
        <time>2023-04-05T16:33:11Z</time>
      </trkpt>
      <trkpt lat="43.57638" lon="1.29846">
        <ele>203</ele>
        <time>2023-04-05T16:33:13Z</time>
      </trkpt>
      <trkpt lat="43.57635" lon="1.29853">
        <ele>201.6</ele>
        <time>2023-04-05T16:33:14Z</time>
      </trkpt>
      <trkpt lat="43.57635" lon="1.29861">
        <ele>200.4</ele>
        <time>2023-04-05T16:33:16Z</time>
      </trkpt>
      <trkpt lat="43.57636" lon="1.29865">
        <ele>199.2</ele>
        <time>2023-04-05T16:33:17Z</time>
      </trkpt>
      <trkpt lat="43.57637" lon="1.29868">
        <ele>198.8</ele>
        <time>2023-04-05T16:33:18Z</time>
      </trkpt>
      <trkpt lat="43.57637" lon="1.29874">
        <ele>197.2</ele>
        <time>2023-04-05T16:33:19Z</time>
      </trkpt>
      <trkpt lat="43.57637" lon="1.2988">
        <ele>196.4</ele>
        <time>2023-04-05T16:33:20Z</time>
      </trkpt>
      <trkpt lat="43.57638" lon="1.29886">
        <ele>195.6</ele>
        <time>2023-04-05T16:33:21Z</time>
      </trkpt>
      <trkpt lat="43.5764" lon="1.29898">
        <ele>195</ele>
        <time>2023-04-05T16:33:23Z</time>
      </trkpt>
      <trkpt lat="43.57642" lon="1.29906">
        <ele>194.4</ele>
        <time>2023-04-05T16:33:25Z</time>
      </trkpt>
      <trkpt lat="43.57646" lon="1.29912">
        <ele>194.2</ele>
        <time>2023-04-05T16:33:27Z</time>
      </trkpt>
      <trkpt lat="43.57646" lon="1.29927">
        <ele>193.8</ele>
        <time>2023-04-05T16:33:30Z</time>
      </trkpt>
      <trkpt lat="43.57648" lon="1.2994">
        <ele>193.4</ele>
        <time>2023-04-05T16:33:32Z</time>
      </trkpt>
      <trkpt lat="43.57648" lon="1.29944">
        <ele>193.2</ele>
        <time>2023-04-05T16:33:33Z</time>
      </trkpt>
      <trkpt lat="43.57646" lon="1.2995">
        <ele>193.2</ele>
        <time>2023-04-05T16:33:34Z</time>
      </trkpt>
      <trkpt lat="43.57643" lon="1.2996">
        <ele>193</ele>
        <time>2023-04-05T16:33:36Z</time>
      </trkpt>
      <trkpt lat="43.57647" lon="1.29981">
        <ele>192.6</ele>
        <time>2023-04-05T16:33:39Z</time>
      </trkpt>
      <trkpt lat="43.5765" lon="1.29985">
        <ele>192.2</ele>
        <time>2023-04-05T16:33:40Z</time>
      </trkpt>
      <trkpt lat="43.57658" lon="1.29993">
        <ele>191.4</ele>
        <time>2023-04-05T16:33:42Z</time>
      </trkpt>
      <trkpt lat="43.57662" lon="1.29999">
        <ele>191.2</ele>
        <time>2023-04-05T16:33:43Z</time>
      </trkpt>
      <trkpt lat="43.57672" lon="1.30009">
        <ele>191</ele>
        <time>2023-04-05T16:33:46Z</time>
      </trkpt>
      <trkpt lat="43.57675" lon="1.30015">
        <ele>191</ele>
        <time>2023-04-05T16:33:47Z</time>
      </trkpt>
      <trkpt lat="43.57675" lon="1.30026">
        <ele>190.8</ele>
        <time>2023-04-05T16:33:49Z</time>
      </trkpt>
      <trkpt lat="43.57672" lon="1.30039">
        <ele>190.2</ele>
        <time>2023-04-05T16:33:51Z</time>
      </trkpt>
      <trkpt lat="43.57673" lon="1.30045">
        <ele>190.2</ele>
        <time>2023-04-05T16:33:52Z</time>
      </trkpt>
      <trkpt lat="43.57676" lon="1.30054">
        <ele>190</ele>
        <time>2023-04-05T16:33:54Z</time>
      </trkpt>
      <trkpt lat="43.57677" lon="1.3006">
        <ele>189.6</ele>
        <time>2023-04-05T16:33:55Z</time>
      </trkpt>
      <trkpt lat="43.5767" lon="1.30068">
        <ele>189.4</ele>
        <time>2023-04-05T16:33:57Z</time>
      </trkpt>
      <trkpt lat="43.57665" lon="1.30075">
        <ele>189.2</ele>
        <time>2023-04-05T16:33:58Z</time>
      </trkpt>
      <trkpt lat="43.57663" lon="1.30082">
        <ele>189</ele>
        <time>2023-04-05T16:33:59Z</time>
      </trkpt>
      <trkpt lat="43.57659" lon="1.3009">
        <ele>188.8</ele>
        <time>2023-04-05T16:34:00Z</time>
      </trkpt>
      <trkpt lat="43.57642" lon="1.30126">
        <ele>188</ele>
        <time>2023-04-05T16:34:05Z</time>
      </trkpt>
      <trkpt lat="43.57634" lon="1.30139">
        <ele>188</ele>
        <time>2023-04-05T16:34:07Z</time>
      </trkpt>
      <trkpt lat="43.57616" lon="1.30173">
        <ele>187.6</ele>
        <time>2023-04-05T16:34:12Z</time>
      </trkpt>
      <trkpt lat="43.57607" lon="1.3018">
        <ele>187.2</ele>
        <time>2023-04-05T16:34:14Z</time>
      </trkpt>
      <trkpt lat="43.57604" lon="1.30182">
        <ele>187</ele>
        <time>2023-04-05T16:34:15Z</time>
      </trkpt>
      <trkpt lat="43.57601" lon="1.30183">
        <ele>186.8</ele>
        <time>2023-04-05T16:34:16Z</time>
      </trkpt>
      <trkpt lat="43.57597" lon="1.30185">
        <ele>186.6</ele>
        <time>2023-04-05T16:34:18Z</time>
      </trkpt>
      <trkpt lat="43.57596" lon="1.30186">
        <ele>186.6</ele>
        <time>2023-04-05T16:34:19Z</time>
      </trkpt>
      <trkpt lat="43.57592" lon="1.30185">
        <ele>186.4</ele>
        <time>2023-04-05T16:34:21Z</time>
      </trkpt>
      <trkpt lat="43.5759" lon="1.30186">
        <ele>186.4</ele>
        <time>2023-04-05T16:34:22Z</time>
      </trkpt>
      <trkpt lat="43.57588" lon="1.30189">
        <ele>186.4</ele>
        <time>2023-04-05T16:34:23Z</time>
      </trkpt>
      <trkpt lat="43.57588" lon="1.30197">
        <ele>186.2</ele>
        <time>2023-04-05T16:34:25Z</time>
      </trkpt>
      <trkpt lat="43.57588" lon="1.30201">
        <ele>186.2</ele>
        <time>2023-04-05T16:34:26Z</time>
      </trkpt>
      <trkpt lat="43.57584" lon="1.30208">
        <ele>186.2</ele>
        <time>2023-04-05T16:34:28Z</time>
      </trkpt>
      <trkpt lat="43.57579" lon="1.30233">
        <ele>185.6</ele>
        <time>2023-04-05T16:34:33Z</time>
      </trkpt>
      <trkpt lat="43.57577" lon="1.30239">
        <ele>185.8</ele>
        <time>2023-04-05T16:34:34Z</time>
      </trkpt>
      <trkpt lat="43.57572" lon="1.30251">
        <ele>185.8</ele>
        <time>2023-04-05T16:34:36Z</time>
      </trkpt>
      <trkpt lat="43.57566" lon="1.30263">
        <ele>185.8</ele>
        <time>2023-04-05T16:34:38Z</time>
      </trkpt>
      <trkpt lat="43.57554" lon="1.30282">
        <ele>185.6</ele>
        <time>2023-04-05T16:34:41Z</time>
      </trkpt>
      <trkpt lat="43.57547" lon="1.30295">
        <ele>185.8</ele>
        <time>2023-04-05T16:34:43Z</time>
      </trkpt>
      <trkpt lat="43.57522" lon="1.30335">
        <ele>185.6</ele>
        <time>2023-04-05T16:34:49Z</time>
      </trkpt>
      <trkpt lat="43.5751" lon="1.30355">
        <ele>185.2</ele>
        <time>2023-04-05T16:34:52Z</time>
      </trkpt>
      <trkpt lat="43.5751" lon="1.30368">
        <ele>185</ele>
        <time>2023-04-05T16:34:54Z</time>
      </trkpt>
      <trkpt lat="43.57519" lon="1.30386">
        <ele>184.8</ele>
        <time>2023-04-05T16:34:57Z</time>
      </trkpt>
      <trkpt lat="43.57521" lon="1.30393">
        <ele>184.6</ele>
        <time>2023-04-05T16:34:58Z</time>
      </trkpt>
      <trkpt lat="43.5752" lon="1.304">
        <ele>184.6</ele>
        <time>2023-04-05T16:34:59Z</time>
      </trkpt>
      <trkpt lat="43.57516" lon="1.30415">
        <ele>184.4</ele>
        <time>2023-04-05T16:35:01Z</time>
      </trkpt>
      <trkpt lat="43.57494" lon="1.30458">
        <ele>184.4</ele>
        <time>2023-04-05T16:35:07Z</time>
      </trkpt>
      <trkpt lat="43.57476" lon="1.30493">
        <ele>184.6</ele>
        <time>2023-04-05T16:35:12Z</time>
      </trkpt>
      <trkpt lat="43.57463" lon="1.30514">
        <ele>184.2</ele>
        <time>2023-04-05T16:35:15Z</time>
      </trkpt>
      <trkpt lat="43.57447" lon="1.30545">
        <ele>184</ele>
        <time>2023-04-05T16:35:20Z</time>
      </trkpt>
      <trkpt lat="43.57443" lon="1.30549">
        <ele>184</ele>
        <time>2023-04-05T16:35:21Z</time>
      </trkpt>
      <trkpt lat="43.57438" lon="1.30551">
        <ele>184</ele>
        <time>2023-04-05T16:35:22Z</time>
      </trkpt>
      <trkpt lat="43.57431" lon="1.30546">
        <ele>184</ele>
        <time>2023-04-05T16:35:24Z</time>
      </trkpt>
      <trkpt lat="43.57427" lon="1.30543">
        <ele>183.8</ele>
        <time>2023-04-05T16:35:26Z</time>
      </trkpt>
      <trkpt lat="43.57425" lon="1.30542">
        <ele>183.8</ele>
        <time>2023-04-05T16:35:27Z</time>
      </trkpt>
      <trkpt lat="43.57423" lon="1.30544">
        <ele>183.6</ele>
        <time>2023-04-05T16:35:28Z</time>
      </trkpt>
      <trkpt lat="43.57422" lon="1.30549">
        <ele>183.6</ele>
        <time>2023-04-05T16:35:30Z</time>
      </trkpt>
      <trkpt lat="43.57425" lon="1.30552">
        <ele>183.6</ele>
        <time>2023-04-05T16:35:31Z</time>
      </trkpt>
      <trkpt lat="43.57431" lon="1.30558">
        <ele>183.4</ele>
        <time>2023-04-05T16:35:33Z</time>
      </trkpt>
      <trkpt lat="43.57451" lon="1.30579">
        <ele>183.4</ele>
        <time>2023-04-05T16:35:38Z</time>
      </trkpt>
      <trkpt lat="43.57454" lon="1.30583">
        <ele>183.4</ele>
        <time>2023-04-05T16:35:39Z</time>
      </trkpt>
      <trkpt lat="43.57485" lon="1.30614">
        <ele>183.6</ele>
        <time>2023-04-05T16:35:46Z</time>
      </trkpt>
      <trkpt lat="43.57522" lon="1.30653">
        <ele>183.8</ele>
        <time>2023-04-05T16:35:54Z</time>
      </trkpt>
      <trkpt lat="43.57545" lon="1.30679">
        <ele>183.8</ele>
        <time>2023-04-05T16:35:59Z</time>
      </trkpt>
      <trkpt lat="43.57554" lon="1.30691">
        <ele>183.8</ele>
        <time>2023-04-05T16:36:01Z</time>
      </trkpt>
      <trkpt lat="43.57562" lon="1.307">
        <ele>183.8</ele>
        <time>2023-04-05T16:36:03Z</time>
      </trkpt>
      <trkpt lat="43.57578" lon="1.30721">
        <ele>183.6</ele>
        <time>2023-04-05T16:36:07Z</time>
      </trkpt>
      <trkpt lat="43.57616" lon="1.30773">
        <ele>183.8</ele>
        <time>2023-04-05T16:36:16Z</time>
      </trkpt>
      <trkpt lat="43.57653" lon="1.3082">
        <ele>184</ele>
        <time>2023-04-05T16:36:24Z</time>
      </trkpt>
      <trkpt lat="43.57696" lon="1.30866">
        <ele>184</ele>
        <time>2023-04-05T16:36:33Z</time>
      </trkpt>
      <trkpt lat="43.57742" lon="1.30914">
        <ele>183.8</ele>
        <time>2023-04-05T16:36:42Z</time>
      </trkpt>
      <trkpt lat="43.57747" lon="1.3092">
        <ele>183.8</ele>
        <time>2023-04-05T16:36:43Z</time>
      </trkpt>
      <trkpt lat="43.57793" lon="1.30968">
        <ele>184.2</ele>
        <time>2023-04-05T16:36:52Z</time>
      </trkpt>
      <trkpt lat="43.5784" lon="1.31016">
        <ele>184</ele>
        <time>2023-04-05T16:37:01Z</time>
      </trkpt>
      <trkpt lat="43.57846" lon="1.31022">
        <ele>184</ele>
        <time>2023-04-05T16:37:02Z</time>
      </trkpt>
      <trkpt lat="43.57892" lon="1.31068">
        <ele>184</ele>
        <time>2023-04-05T16:37:11Z</time>
      </trkpt>
      <trkpt lat="43.57897" lon="1.31072">
        <ele>184</ele>
        <time>2023-04-05T16:37:12Z</time>
      </trkpt>
      <trkpt lat="43.57922" lon="1.31097">
        <ele>184</ele>
        <time>2023-04-05T16:37:18Z</time>
      </trkpt>
      <trkpt lat="43.57926" lon="1.31099">
        <ele>184</ele>
        <time>2023-04-05T16:37:19Z</time>
      </trkpt>
      <trkpt lat="43.57929" lon="1.31098">
        <ele>184</ele>
        <time>2023-04-05T16:37:20Z</time>
      </trkpt>
      <trkpt lat="43.57932" lon="1.31096">
        <ele>184</ele>
        <time>2023-04-05T16:37:22Z</time>
      </trkpt>
      <trkpt lat="43.57944" lon="1.31079">
        <ele>183.8</ele>
        <time>2023-04-05T16:37:27Z</time>
      </trkpt>
      <trkpt lat="43.57954" lon="1.31066">
        <ele>183.8</ele>
        <time>2023-04-05T16:37:30Z</time>
      </trkpt>
      <trkpt lat="43.57963" lon="1.31052">
        <ele>183.8</ele>
        <time>2023-04-05T16:37:33Z</time>
      </trkpt>
      <trkpt lat="43.57981" lon="1.31031">
        <ele>183.8</ele>
        <time>2023-04-05T16:37:38Z</time>
      </trkpt>
      <trkpt lat="43.57985" lon="1.31029">
        <ele>184</ele>
        <time>2023-04-05T16:37:39Z</time>
      </trkpt>
      <trkpt lat="43.58002" lon="1.31022">
        <ele>184</ele>
        <time>2023-04-05T16:37:43Z</time>
      </trkpt>
      <trkpt lat="43.58014" lon="1.31015">
        <ele>184</ele>
        <time>2023-04-05T16:37:46Z</time>
      </trkpt>
      <trkpt lat="43.58035" lon="1.31005">
        <ele>184</ele>
        <time>2023-04-05T16:37:51Z</time>
      </trkpt>
      <trkpt lat="43.58044" lon="1.31002">
        <ele>184</ele>
        <time>2023-04-05T16:37:53Z</time>
      </trkpt>
      <trkpt lat="43.58065" lon="1.30995">
        <ele>184.2</ele>
        <time>2023-04-05T16:37:58Z</time>
      </trkpt>
      <trkpt lat="43.58072" lon="1.30992">
        <ele>184.2</ele>
        <time>2023-04-05T16:38:00Z</time>
      </trkpt>
      <trkpt lat="43.58092" lon="1.30986">
        <ele>185</ele>
        <time>2023-04-05T16:38:05Z</time>
      </trkpt>
      <trkpt lat="43.58104" lon="1.30983">
        <ele>185.6</ele>
        <time>2023-04-05T16:38:08Z</time>
      </trkpt>
      <trkpt lat="43.58121" lon="1.30976">
        <ele>186</ele>
        <time>2023-04-05T16:38:13Z</time>
      </trkpt>
      <trkpt lat="43.58129" lon="1.30971">
        <ele>186.4</ele>
        <time>2023-04-05T16:38:16Z</time>
      </trkpt>
      <trkpt lat="43.58136" lon="1.30967">
        <ele>187</ele>
        <time>2023-04-05T16:38:19Z</time>
      </trkpt>
      <trkpt lat="43.58145" lon="1.30961">
        <ele>188</ele>
        <time>2023-04-05T16:38:23Z</time>
      </trkpt>
      <trkpt lat="43.58148" lon="1.30959">
        <ele>188.2</ele>
        <time>2023-04-05T16:38:24Z</time>
      </trkpt>
      <trkpt lat="43.58157" lon="1.30954">
        <ele>189.2</ele>
        <time>2023-04-05T16:38:28Z</time>
      </trkpt>
      <trkpt lat="43.58164" lon="1.3095">
        <ele>190</ele>
        <time>2023-04-05T16:38:31Z</time>
      </trkpt>
      <trkpt lat="43.58167" lon="1.30948">
        <ele>190.8</ele>
        <time>2023-04-05T16:38:33Z</time>
      </trkpt>
      <trkpt lat="43.58175" lon="1.30944">
        <ele>192</ele>
        <time>2023-04-05T16:38:36Z</time>
      </trkpt>
      <trkpt lat="43.58184" lon="1.3094">
        <ele>193.2</ele>
        <time>2023-04-05T16:38:40Z</time>
      </trkpt>
      <trkpt lat="43.58196" lon="1.30935">
        <ele>194.6</ele>
        <time>2023-04-05T16:38:45Z</time>
      </trkpt>
      <trkpt lat="43.58208" lon="1.30934">
        <ele>195.6</ele>
        <time>2023-04-05T16:38:50Z</time>
      </trkpt>
      <trkpt lat="43.58212" lon="1.30939">
        <ele>195.8</ele>
        <time>2023-04-05T16:38:52Z</time>
      </trkpt>
      <trkpt lat="43.58223" lon="1.30951">
        <ele>196.2</ele>
        <time>2023-04-05T16:38:57Z</time>
      </trkpt>
      <trkpt lat="43.58231" lon="1.30963">
        <ele>196.8</ele>
        <time>2023-04-05T16:39:01Z</time>
      </trkpt>
      <trkpt lat="43.58237" lon="1.30973">
        <ele>197</ele>
        <time>2023-04-05T16:39:04Z</time>
      </trkpt>
      <trkpt lat="43.58249" lon="1.30995">
        <ele>198</ele>
        <time>2023-04-05T16:39:10Z</time>
      </trkpt>
      <trkpt lat="43.58253" lon="1.31003">
        <ele>198.2</ele>
        <time>2023-04-05T16:39:12Z</time>
      </trkpt>
      <trkpt lat="43.58268" lon="1.31033">
        <ele>199</ele>
        <time>2023-04-05T16:39:20Z</time>
      </trkpt>
      <trkpt lat="43.58276" lon="1.31049">
        <ele>199.8</ele>
        <time>2023-04-05T16:39:26Z</time>
      </trkpt>
      <trkpt lat="43.58284" lon="1.31068">
        <ele>200</ele>
        <time>2023-04-05T16:39:32Z</time>
      </trkpt>
      <trkpt lat="43.58285" lon="1.31071">
        <ele>200.2</ele>
        <time>2023-04-05T16:39:33Z</time>
      </trkpt>
      <trkpt lat="43.58292" lon="1.31086">
        <ele>200.4</ele>
        <time>2023-04-05T16:39:37Z</time>
      </trkpt>
      <trkpt lat="43.583" lon="1.31102">
        <ele>201.2</ele>
        <time>2023-04-05T16:39:41Z</time>
      </trkpt>
      <trkpt lat="43.5831" lon="1.31126">
        <ele>202</ele>
        <time>2023-04-05T16:39:47Z</time>
      </trkpt>
      <trkpt lat="43.58313" lon="1.31131">
        <ele>202.4</ele>
        <time>2023-04-05T16:39:48Z</time>
      </trkpt>
      <trkpt lat="43.58326" lon="1.31158">
        <ele>203</ele>
        <time>2023-04-05T16:39:55Z</time>
      </trkpt>
      <trkpt lat="43.58336" lon="1.31176">
        <ele>203.6</ele>
        <time>2023-04-05T16:40:00Z</time>
      </trkpt>
      <trkpt lat="43.58343" lon="1.3119">
        <ele>204.4</ele>
        <time>2023-04-05T16:40:04Z</time>
      </trkpt>
      <trkpt lat="43.58346" lon="1.31197">
        <ele>204.8</ele>
        <time>2023-04-05T16:40:06Z</time>
      </trkpt>
      <trkpt lat="43.58351" lon="1.31207">
        <ele>205.4</ele>
        <time>2023-04-05T16:40:09Z</time>
      </trkpt>
      <trkpt lat="43.58353" lon="1.31208">
        <ele>205.4</ele>
        <time>2023-04-05T16:40:10Z</time>
      </trkpt>
      <trkpt lat="43.58357" lon="1.31208">
        <ele>205.6</ele>
        <time>2023-04-05T16:40:11Z</time>
      </trkpt>
      <trkpt lat="43.58366" lon="1.31204">
        <ele>205.8</ele>
        <time>2023-04-05T16:40:14Z</time>
      </trkpt>
      <trkpt lat="43.58369" lon="1.31201">
        <ele>206</ele>
        <time>2023-04-05T16:40:15Z</time>
      </trkpt>
      <trkpt lat="43.58386" lon="1.31186">
        <ele>207</ele>
        <time>2023-04-05T16:40:20Z</time>
      </trkpt>
      <trkpt lat="43.5839" lon="1.31182">
        <ele>207</ele>
        <time>2023-04-05T16:40:21Z</time>
      </trkpt>
      <trkpt lat="43.58418" lon="1.31154">
        <ele>207.4</ele>
        <time>2023-04-05T16:40:29Z</time>
      </trkpt>
      <trkpt lat="43.58448" lon="1.31121">
        <ele>207.8</ele>
        <time>2023-04-05T16:40:36Z</time>
      </trkpt>
      <trkpt lat="43.5849" lon="1.31074">
        <ele>207.8</ele>
        <time>2023-04-05T16:40:46Z</time>
      </trkpt>
      <trkpt lat="43.585" lon="1.31063">
        <ele>207.8</ele>
        <time>2023-04-05T16:40:49Z</time>
      </trkpt>
      <trkpt lat="43.58504" lon="1.3106">
        <ele>207.8</ele>
        <time>2023-04-05T16:40:51Z</time>
      </trkpt>
      <trkpt lat="43.58507" lon="1.31058">
        <ele>207.8</ele>
        <time>2023-04-05T16:40:53Z</time>
      </trkpt>
      <trkpt lat="43.5851" lon="1.31063">
        <ele>207.8</ele>
        <time>2023-04-05T16:40:55Z</time>
      </trkpt>
      <trkpt lat="43.58518" lon="1.31082">
        <ele>207.6</ele>
        <time>2023-04-05T16:40:59Z</time>
      </trkpt>
      <trkpt lat="43.58533" lon="1.31113">
        <ele>207.6</ele>
        <time>2023-04-05T16:41:04Z</time>
      </trkpt>
      <trkpt lat="43.58554" lon="1.31156">
        <ele>207.2</ele>
        <time>2023-04-05T16:41:11Z</time>
      </trkpt>
      <trkpt lat="43.58558" lon="1.31159">
        <ele>207.2</ele>
        <time>2023-04-05T16:41:13Z</time>
      </trkpt>
      <trkpt lat="43.58564" lon="1.31161">
        <ele>206.8</ele>
        <time>2023-04-05T16:41:16Z</time>
      </trkpt>
      <trkpt lat="43.58577" lon="1.31182">
        <ele>206.6</ele>
        <time>2023-04-05T16:41:20Z</time>
      </trkpt>
      <trkpt lat="43.58585" lon="1.31195">
        <ele>206.6</ele>
        <time>2023-04-05T16:41:22Z</time>
      </trkpt>
      <trkpt lat="43.58597" lon="1.31222">
        <ele>206.6</ele>
        <time>2023-04-05T16:41:26Z</time>
      </trkpt>
      <trkpt lat="43.586" lon="1.31227">
        <ele>206.6</ele>
        <time>2023-04-05T16:41:27Z</time>
      </trkpt>
      <trkpt lat="43.58608" lon="1.31233">
        <ele>206.6</ele>
        <time>2023-04-05T16:41:29Z</time>
      </trkpt>
      <trkpt lat="43.58632" lon="1.31241">
        <ele>207</ele>
        <time>2023-04-05T16:41:34Z</time>
      </trkpt>
      <trkpt lat="43.58635" lon="1.31243">
        <ele>207</ele>
        <time>2023-04-05T16:41:35Z</time>
      </trkpt>
      <trkpt lat="43.58637" lon="1.31248">
        <ele>207.2</ele>
        <time>2023-04-05T16:41:36Z</time>
      </trkpt>
      <trkpt lat="43.58639" lon="1.31259">
        <ele>207.2</ele>
        <time>2023-04-05T16:41:38Z</time>
      </trkpt>
      <trkpt lat="43.58645" lon="1.31269">
        <ele>207.4</ele>
        <time>2023-04-05T16:41:40Z</time>
      </trkpt>
      <trkpt lat="43.58649" lon="1.31272">
        <ele>207.4</ele>
        <time>2023-04-05T16:41:41Z</time>
      </trkpt>
      <trkpt lat="43.58657" lon="1.31276">
        <ele>207.6</ele>
        <time>2023-04-05T16:41:43Z</time>
      </trkpt>
      <trkpt lat="43.58673" lon="1.31281">
        <ele>207.8</ele>
        <time>2023-04-05T16:41:46Z</time>
      </trkpt>
      <trkpt lat="43.58681" lon="1.31284">
        <ele>207.8</ele>
        <time>2023-04-05T16:41:48Z</time>
      </trkpt>
      <trkpt lat="43.58695" lon="1.31288">
        <ele>207.8</ele>
        <time>2023-04-05T16:41:51Z</time>
      </trkpt>
      <trkpt lat="43.58699" lon="1.31289">
        <ele>207.8</ele>
        <time>2023-04-05T16:41:54Z</time>
      </trkpt>
      <trkpt lat="43.58707" lon="1.31282">
        <ele>207.8</ele>
        <time>2023-04-05T16:41:59Z</time>
      </trkpt>
      <trkpt lat="43.5871" lon="1.31258">
        <ele>207.6</ele>
        <time>2023-04-05T16:42:03Z</time>
      </trkpt>
      <trkpt lat="43.58715" lon="1.31204">
        <ele>207.6</ele>
        <time>2023-04-05T16:42:10Z</time>
      </trkpt>
      <trkpt lat="43.58716" lon="1.3115">
        <ele>207.6</ele>
        <time>2023-04-05T16:42:17Z</time>
      </trkpt>
      <trkpt lat="43.58714" lon="1.31096">
        <ele>208</ele>
        <time>2023-04-05T16:42:24Z</time>
      </trkpt>
      <trkpt lat="43.58717" lon="1.31053">
        <ele>208.2</ele>
        <time>2023-04-05T16:42:30Z</time>
      </trkpt>
      <trkpt lat="43.58718" lon="1.31046">
        <ele>208.2</ele>
        <time>2023-04-05T16:42:31Z</time>
      </trkpt>
      <trkpt lat="43.58721" lon="1.31043">
        <ele>208.2</ele>
        <time>2023-04-05T16:42:32Z</time>
      </trkpt>
      <trkpt lat="43.58727" lon="1.31043">
        <ele>208.2</ele>
        <time>2023-04-05T16:42:34Z</time>
      </trkpt>
      <trkpt lat="43.5874" lon="1.31054">
        <ele>208.2</ele>
        <time>2023-04-05T16:42:37Z</time>
      </trkpt>
      <trkpt lat="43.58756" lon="1.31061">
        <ele>208.2</ele>
        <time>2023-04-05T16:42:40Z</time>
      </trkpt>
      <trkpt lat="43.58766" lon="1.31063">
        <ele>208.2</ele>
        <time>2023-04-05T16:42:42Z</time>
      </trkpt>
      <trkpt lat="43.58771" lon="1.31064">
        <ele>208.2</ele>
        <time>2023-04-05T16:42:43Z</time>
      </trkpt>
      <trkpt lat="43.58781" lon="1.31063">
        <ele>208.2</ele>
        <time>2023-04-05T16:42:45Z</time>
      </trkpt>
      <trkpt lat="43.58793" lon="1.31067">
        <ele>208.2</ele>
        <time>2023-04-05T16:42:47Z</time>
      </trkpt>
      <trkpt lat="43.58803" lon="1.31074">
        <ele>208.2</ele>
        <time>2023-04-05T16:42:49Z</time>
      </trkpt>
      <trkpt lat="43.58818" lon="1.31087">
        <ele>208.2</ele>
        <time>2023-04-05T16:42:52Z</time>
      </trkpt>
      <trkpt lat="43.58829" lon="1.31096">
        <ele>208.2</ele>
        <time>2023-04-05T16:42:54Z</time>
      </trkpt>
      <trkpt lat="43.58867" lon="1.31132">
        <ele>208</ele>
        <time>2023-04-05T16:43:01Z</time>
      </trkpt>
      <trkpt lat="43.58913" lon="1.31177">
        <ele>208</ele>
        <time>2023-04-05T16:43:10Z</time>
      </trkpt>
      <trkpt lat="43.58919" lon="1.31182">
        <ele>207.8</ele>
        <time>2023-04-05T16:43:11Z</time>
      </trkpt>
      <trkpt lat="43.58934" lon="1.31191">
        <ele>207.8</ele>
        <time>2023-04-05T16:43:15Z</time>
      </trkpt>
      <trkpt lat="43.5894" lon="1.31186">
        <ele>207.6</ele>
        <time>2023-04-05T16:43:17Z</time>
      </trkpt>
      <trkpt lat="43.58948" lon="1.31175">
        <ele>207.6</ele>
        <time>2023-04-05T16:43:19Z</time>
      </trkpt>
      <trkpt lat="43.58968" lon="1.31134">
        <ele>207.8</ele>
        <time>2023-04-05T16:43:25Z</time>
      </trkpt>
      <trkpt lat="43.58986" lon="1.31099">
        <ele>207.8</ele>
        <time>2023-04-05T16:43:30Z</time>
      </trkpt>
      <trkpt lat="43.5899" lon="1.31094">
        <ele>207.8</ele>
        <time>2023-04-05T16:43:31Z</time>
      </trkpt>
      <trkpt lat="43.58995" lon="1.31089">
        <ele>207.8</ele>
        <time>2023-04-05T16:43:32Z</time>
      </trkpt>
      <trkpt lat="43.59008" lon="1.31087">
        <ele>207.8</ele>
        <time>2023-04-05T16:43:34Z</time>
      </trkpt>
      <trkpt lat="43.59019" lon="1.31092">
        <ele>207.8</ele>
        <time>2023-04-05T16:43:36Z</time>
      </trkpt>
      <trkpt lat="43.59025" lon="1.31097">
        <ele>207.8</ele>
        <time>2023-04-05T16:43:37Z</time>
      </trkpt>
      <trkpt lat="43.59068" lon="1.3114">
        <ele>207.4</ele>
        <time>2023-04-05T16:43:45Z</time>
      </trkpt>
      <trkpt lat="43.59071" lon="1.31145">
        <ele>207.4</ele>
        <time>2023-04-05T16:43:46Z</time>
      </trkpt>
      <trkpt lat="43.59078" lon="1.3116">
        <ele>207.2</ele>
        <time>2023-04-05T16:43:48Z</time>
      </trkpt>
      <trkpt lat="43.59081" lon="1.31167">
        <ele>207.2</ele>
        <time>2023-04-05T16:43:49Z</time>
      </trkpt>
      <trkpt lat="43.59089" lon="1.31176">
        <ele>207.2</ele>
        <time>2023-04-05T16:43:51Z</time>
      </trkpt>
      <trkpt lat="43.59102" lon="1.31174">
        <ele>207.2</ele>
        <time>2023-04-05T16:43:53Z</time>
      </trkpt>
      <trkpt lat="43.59106" lon="1.31162">
        <ele>207.2</ele>
        <time>2023-04-05T16:43:55Z</time>
      </trkpt>
      <trkpt lat="43.59107" lon="1.31153">
        <ele>207.2</ele>
        <time>2023-04-05T16:43:56Z</time>
      </trkpt>
      <trkpt lat="43.59108" lon="1.31143">
        <ele>207.2</ele>
        <time>2023-04-05T16:43:57Z</time>
      </trkpt>
      <trkpt lat="43.59111" lon="1.31129">
        <ele>207.2</ele>
        <time>2023-04-05T16:43:59Z</time>
      </trkpt>
      <trkpt lat="43.59115" lon="1.31122">
        <ele>207.2</ele>
        <time>2023-04-05T16:44:00Z</time>
      </trkpt>
      <trkpt lat="43.59149" lon="1.31056">
        <ele>207.4</ele>
        <time>2023-04-05T16:44:10Z</time>
      </trkpt>
      <trkpt lat="43.59164" lon="1.31035">
        <ele>207.4</ele>
        <time>2023-04-05T16:44:14Z</time>
      </trkpt>
      <trkpt lat="43.59168" lon="1.31029">
        <ele>207.4</ele>
        <time>2023-04-05T16:44:15Z</time>
      </trkpt>
      <trkpt lat="43.59193" lon="1.30983">
        <ele>207.6</ele>
        <time>2023-04-05T16:44:23Z</time>
      </trkpt>
      <trkpt lat="43.59197" lon="1.30979">
        <ele>207.6</ele>
        <time>2023-04-05T16:44:24Z</time>
      </trkpt>
      <trkpt lat="43.59203" lon="1.30976">
        <ele>207.6</ele>
        <time>2023-04-05T16:44:25Z</time>
      </trkpt>
      <trkpt lat="43.59212" lon="1.30971">
        <ele>207.6</ele>
        <time>2023-04-05T16:44:27Z</time>
      </trkpt>
      <trkpt lat="43.59217" lon="1.30967">
        <ele>207.6</ele>
        <time>2023-04-05T16:44:28Z</time>
      </trkpt>
      <trkpt lat="43.59221" lon="1.3096">
        <ele>207.6</ele>
        <time>2023-04-05T16:44:29Z</time>
      </trkpt>
      <trkpt lat="43.59224" lon="1.30946">
        <ele>207.6</ele>
        <time>2023-04-05T16:44:31Z</time>
      </trkpt>
      <trkpt lat="43.59222" lon="1.30923">
        <ele>207.4</ele>
        <time>2023-04-05T16:44:34Z</time>
      </trkpt>
      <trkpt lat="43.59222" lon="1.30915">
        <ele>207.4</ele>
        <time>2023-04-05T16:44:35Z</time>
      </trkpt>
      <trkpt lat="43.59224" lon="1.30909">
        <ele>207.2</ele>
        <time>2023-04-05T16:44:36Z</time>
      </trkpt>
      <trkpt lat="43.5923" lon="1.30894">
        <ele>207.2</ele>
        <time>2023-04-05T16:44:38Z</time>
      </trkpt>
      <trkpt lat="43.59237" lon="1.30882">
        <ele>207.2</ele>
        <time>2023-04-05T16:44:40Z</time>
      </trkpt>
      <trkpt lat="43.59246" lon="1.30872">
        <ele>207</ele>
        <time>2023-04-05T16:44:42Z</time>
      </trkpt>
      <trkpt lat="43.59251" lon="1.3087">
        <ele>207</ele>
        <time>2023-04-05T16:44:43Z</time>
      </trkpt>
      <trkpt lat="43.59256" lon="1.30868">
        <ele>207</ele>
        <time>2023-04-05T16:44:44Z</time>
      </trkpt>
      <trkpt lat="43.59272" lon="1.30869">
        <ele>207.2</ele>
        <time>2023-04-05T16:44:47Z</time>
      </trkpt>
      <trkpt lat="43.59328" lon="1.30879">
        <ele>207.4</ele>
        <time>2023-04-05T16:44:57Z</time>
      </trkpt>
      <trkpt lat="43.59341" lon="1.30881">
        <ele>207.4</ele>
        <time>2023-04-05T16:44:59Z</time>
      </trkpt>
      <trkpt lat="43.59397" lon="1.3089">
        <ele>207.2</ele>
        <time>2023-04-05T16:45:08Z</time>
      </trkpt>
      <trkpt lat="43.59409" lon="1.30892">
        <ele>207.2</ele>
        <time>2023-04-05T16:45:10Z</time>
      </trkpt>
      <trkpt lat="43.59463" lon="1.30902">
        <ele>206.8</ele>
        <time>2023-04-05T16:45:19Z</time>
      </trkpt>
      <trkpt lat="43.59469" lon="1.30903">
        <ele>206.8</ele>
        <time>2023-04-05T16:45:20Z</time>
      </trkpt>
      <trkpt lat="43.59503" lon="1.30907">
        <ele>206.8</ele>
        <time>2023-04-05T16:45:26Z</time>
      </trkpt>
      <trkpt lat="43.5951" lon="1.30914">
        <ele>206.8</ele>
        <time>2023-04-05T16:45:28Z</time>
      </trkpt>
      <trkpt lat="43.5951" lon="1.30928">
        <ele>206.8</ele>
        <time>2023-04-05T16:45:30Z</time>
      </trkpt>
      <trkpt lat="43.59509" lon="1.30935">
        <ele>206.8</ele>
        <time>2023-04-05T16:45:31Z</time>
      </trkpt>
      <trkpt lat="43.59507" lon="1.30991">
        <ele>206.8</ele>
        <time>2023-04-05T16:45:38Z</time>
      </trkpt>
      <trkpt lat="43.59506" lon="1.31">
        <ele>206.8</ele>
        <time>2023-04-05T16:45:39Z</time>
      </trkpt>
      <trkpt lat="43.59502" lon="1.31016">
        <ele>207</ele>
        <time>2023-04-05T16:45:41Z</time>
      </trkpt>
      <trkpt lat="43.59501" lon="1.31024">
        <ele>207</ele>
        <time>2023-04-05T16:45:42Z</time>
      </trkpt>
      <trkpt lat="43.59501" lon="1.31033">
        <ele>207</ele>
        <time>2023-04-05T16:45:43Z</time>
      </trkpt>
      <trkpt lat="43.595" lon="1.31068">
        <ele>207.2</ele>
        <time>2023-04-05T16:45:47Z</time>
      </trkpt>
      <trkpt lat="43.59498" lon="1.3115">
        <ele>207.4</ele>
        <time>2023-04-05T16:45:56Z</time>
      </trkpt>
      <trkpt lat="43.59497" lon="1.31229">
        <ele>207.2</ele>
        <time>2023-04-05T16:46:04Z</time>
      </trkpt>
      <trkpt lat="43.59497" lon="1.31239">
        <ele>207.2</ele>
        <time>2023-04-05T16:46:05Z</time>
      </trkpt>
      <trkpt lat="43.59494" lon="1.31319">
        <ele>207.2</ele>
        <time>2023-04-05T16:46:13Z</time>
      </trkpt>
      <trkpt lat="43.59494" lon="1.31348">
        <ele>207.2</ele>
        <time>2023-04-05T16:46:16Z</time>
      </trkpt>
      <trkpt lat="43.59492" lon="1.31388">
        <ele>207.4</ele>
        <time>2023-04-05T16:46:21Z</time>
      </trkpt>
      <trkpt lat="43.59492" lon="1.31409">
        <ele>207.2</ele>
        <time>2023-04-05T16:46:24Z</time>
      </trkpt>
      <trkpt lat="43.59493" lon="1.31421">
        <ele>207</ele>
        <time>2023-04-05T16:46:26Z</time>
      </trkpt>
      <trkpt lat="43.59491" lon="1.31434">
        <ele>207.2</ele>
        <time>2023-04-05T16:46:28Z</time>
      </trkpt>
      <trkpt lat="43.59485" lon="1.31445">
        <ele>207.2</ele>
        <time>2023-04-05T16:46:30Z</time>
      </trkpt>
      <trkpt lat="43.59475" lon="1.31451">
        <ele>207</ele>
        <time>2023-04-05T16:46:32Z</time>
      </trkpt>
      <trkpt lat="43.59469" lon="1.31453">
        <ele>207</ele>
        <time>2023-04-05T16:46:33Z</time>
      </trkpt>
      <trkpt lat="43.59455" lon="1.31458">
        <ele>206.8</ele>
        <time>2023-04-05T16:46:36Z</time>
      </trkpt>
      <trkpt lat="43.59449" lon="1.31462">
        <ele>206.8</ele>
        <time>2023-04-05T16:46:38Z</time>
      </trkpt>
      <trkpt lat="43.59438" lon="1.31463">
        <ele>206.4</ele>
        <time>2023-04-05T16:46:42Z</time>
      </trkpt>
      <trkpt lat="43.59426" lon="1.31471">
        <ele>206.2</ele>
        <time>2023-04-05T16:46:45Z</time>
      </trkpt>
      <trkpt lat="43.59421" lon="1.31473">
        <ele>206.2</ele>
        <time>2023-04-05T16:46:46Z</time>
      </trkpt>
      <trkpt lat="43.59382" lon="1.31489">
        <ele>206</ele>
        <time>2023-04-05T16:46:53Z</time>
      </trkpt>
      <trkpt lat="43.59327" lon="1.31516">
        <ele>206.2</ele>
        <time>2023-04-05T16:47:02Z</time>
      </trkpt>
      <trkpt lat="43.59284" lon="1.31536">
        <ele>206.4</ele>
        <time>2023-04-05T16:47:09Z</time>
      </trkpt>
      <trkpt lat="43.59233" lon="1.31562">
        <ele>206.2</ele>
        <time>2023-04-05T16:47:17Z</time>
      </trkpt>
      <trkpt lat="43.59226" lon="1.31566">
        <ele>206.2</ele>
        <time>2023-04-05T16:47:18Z</time>
      </trkpt>
      <trkpt lat="43.59175" lon="1.31594">
        <ele>206</ele>
        <time>2023-04-05T16:47:26Z</time>
      </trkpt>
      <trkpt lat="43.59169" lon="1.31598">
        <ele>206</ele>
        <time>2023-04-05T16:47:27Z</time>
      </trkpt>
      <trkpt lat="43.59113" lon="1.31629">
        <ele>206.2</ele>
        <time>2023-04-05T16:47:36Z</time>
      </trkpt>
      <trkpt lat="43.59107" lon="1.31632">
        <ele>206.2</ele>
        <time>2023-04-05T16:47:37Z</time>
      </trkpt>
      <trkpt lat="43.59051" lon="1.31663">
        <ele>206.2</ele>
        <time>2023-04-05T16:47:46Z</time>
      </trkpt>
      <trkpt lat="43.58995" lon="1.31694">
        <ele>206.4</ele>
        <time>2023-04-05T16:47:55Z</time>
      </trkpt>
      <trkpt lat="43.58977" lon="1.31705">
        <ele>206.6</ele>
        <time>2023-04-05T16:47:58Z</time>
      </trkpt>
      <trkpt lat="43.58923" lon="1.31734">
        <ele>206.6</ele>
        <time>2023-04-05T16:48:07Z</time>
      </trkpt>
      <trkpt lat="43.58883" lon="1.31757">
        <ele>206.8</ele>
        <time>2023-04-05T16:48:14Z</time>
      </trkpt>
      <trkpt lat="43.58871" lon="1.31757">
        <ele>206.8</ele>
        <time>2023-04-05T16:48:16Z</time>
      </trkpt>
      <trkpt lat="43.5886" lon="1.31747">
        <ele>206.8</ele>
        <time>2023-04-05T16:48:18Z</time>
      </trkpt>
      <trkpt lat="43.58855" lon="1.31741">
        <ele>206.8</ele>
        <time>2023-04-05T16:48:19Z</time>
      </trkpt>
      <trkpt lat="43.58816" lon="1.31691">
        <ele>206.8</ele>
        <time>2023-04-05T16:48:27Z</time>
      </trkpt>
      <trkpt lat="43.58791" lon="1.31666">
        <ele>206.6</ele>
        <time>2023-04-05T16:48:32Z</time>
      </trkpt>
      <trkpt lat="43.58785" lon="1.31664">
        <ele>206.6</ele>
        <time>2023-04-05T16:48:33Z</time>
      </trkpt>
      <trkpt lat="43.5878" lon="1.31665">
        <ele>206.4</ele>
        <time>2023-04-05T16:48:34Z</time>
      </trkpt>
      <trkpt lat="43.58771" lon="1.31675">
        <ele>206.8</ele>
        <time>2023-04-05T16:48:36Z</time>
      </trkpt>
      <trkpt lat="43.58746" lon="1.31717">
        <ele>206.8</ele>
        <time>2023-04-05T16:48:43Z</time>
      </trkpt>
      <trkpt lat="43.58709" lon="1.31783">
        <ele>206.8</ele>
        <time>2023-04-05T16:48:54Z</time>
      </trkpt>
      <trkpt lat="43.58706" lon="1.31789">
        <ele>206.8</ele>
        <time>2023-04-05T16:48:55Z</time>
      </trkpt>
      <trkpt lat="43.587" lon="1.31801">
        <ele>206.8</ele>
        <time>2023-04-05T16:48:57Z</time>
      </trkpt>
      <trkpt lat="43.58694" lon="1.31815">
        <ele>207</ele>
        <time>2023-04-05T16:49:00Z</time>
      </trkpt>
      <trkpt lat="43.58677" lon="1.31848">
        <ele>207</ele>
        <time>2023-04-05T16:49:06Z</time>
      </trkpt>
      <trkpt lat="43.58674" lon="1.31855">
        <ele>207</ele>
        <time>2023-04-05T16:49:07Z</time>
      </trkpt>
      <trkpt lat="43.58672" lon="1.3187">
        <ele>206.8</ele>
        <time>2023-04-05T16:49:09Z</time>
      </trkpt>
      <trkpt lat="43.58675" lon="1.31904">
        <ele>206.6</ele>
        <time>2023-04-05T16:49:13Z</time>
      </trkpt>
      <trkpt lat="43.58677" lon="1.31912">
        <ele>206.6</ele>
        <time>2023-04-05T16:49:14Z</time>
      </trkpt>
      <trkpt lat="43.5868" lon="1.31934">
        <ele>206.4</ele>
        <time>2023-04-05T16:49:17Z</time>
      </trkpt>
      <trkpt lat="43.58678" lon="1.3194">
        <ele>206.4</ele>
        <time>2023-04-05T16:49:18Z</time>
      </trkpt>
      <trkpt lat="43.58675" lon="1.31945">
        <ele>206.4</ele>
        <time>2023-04-05T16:49:19Z</time>
      </trkpt>
      <trkpt lat="43.58669" lon="1.31954">
        <ele>206.2</ele>
        <time>2023-04-05T16:49:21Z</time>
      </trkpt>
      <trkpt lat="43.58667" lon="1.3196">
        <ele>206</ele>
        <time>2023-04-05T16:49:22Z</time>
      </trkpt>
      <trkpt lat="43.58668" lon="1.31965">
        <ele>206</ele>
        <time>2023-04-05T16:49:23Z</time>
      </trkpt>
      <trkpt lat="43.58671" lon="1.31969">
        <ele>205.8</ele>
        <time>2023-04-05T16:49:24Z</time>
      </trkpt>
      <trkpt lat="43.58676" lon="1.31978">
        <ele>205.8</ele>
        <time>2023-04-05T16:49:26Z</time>
      </trkpt>
      <trkpt lat="43.58682" lon="1.31988">
        <ele>205.6</ele>
        <time>2023-04-05T16:49:28Z</time>
      </trkpt>
      <trkpt lat="43.58684" lon="1.31994">
        <ele>205.6</ele>
        <time>2023-04-05T16:49:29Z</time>
      </trkpt>
      <trkpt lat="43.58686" lon="1.32012">
        <ele>205.4</ele>
        <time>2023-04-05T16:49:31Z</time>
      </trkpt>
      <trkpt lat="43.58689" lon="1.32066">
        <ele>205</ele>
        <time>2023-04-05T16:49:37Z</time>
      </trkpt>
      <trkpt lat="43.58686" lon="1.32128">
        <ele>204.8</ele>
        <time>2023-04-05T16:49:44Z</time>
      </trkpt>
      <trkpt lat="43.58683" lon="1.32154">
        <ele>204.8</ele>
        <time>2023-04-05T16:49:47Z</time>
      </trkpt>
      <trkpt lat="43.5868" lon="1.32187">
        <ele>205.2</ele>
        <time>2023-04-05T16:49:51Z</time>
      </trkpt>
      <trkpt lat="43.58677" lon="1.32221">
        <ele>205.4</ele>
        <time>2023-04-05T16:49:56Z</time>
      </trkpt>
      <trkpt lat="43.58676" lon="1.32232">
        <ele>205</ele>
        <time>2023-04-05T16:49:59Z</time>
      </trkpt>
      <trkpt lat="43.58676" lon="1.32232">
        <ele>205</ele>
        <time>2023-04-05T16:50:00Z</time>
      </trkpt>
      <trkpt lat="43.58676" lon="1.32229">
        <ele>204.6</ele>
        <time>2023-04-05T16:50:03Z</time>
      </trkpt>
    </trkseg>
  </trk>
</gpx>